<?xml version='1.0' encoding='UTF-8'?><gpx version="1.1" creator="JPX - https://github.com/jenetics/jpx" xmlns="http://www.topografix.com/GPX/1/1"><trk><trkseg><trkpt lat="51.4829085" lon="3.9664864"><ele>-0.9999999999999999</ele><time>2026-04-06T09:49:26.181Z</time></trkpt><trkpt lat="51.4829108" lon="3.9663836"><ele>-1.0</ele><time>2026-04-06T09:49:28.181Z</time></trkpt><trkpt lat="51.4829331" lon="3.9662725"><ele>-1.0</ele><time>2026-04-06T09:49:30.181Z</time></trkpt><trkpt lat="51.4829537" lon="3.9661669"><ele>-1.0</ele><time>2026-04-06T09:49:32.181Z</time></trkpt><trkpt lat="51.4830054" lon="3.9660962"><ele>-0.9999999999999999</ele><time>2026-04-06T09:49:34.175Z</time></trkpt><trkpt lat="51.483086" lon="3.9660895"><ele>-1.0</ele><time>2026-04-06T09:49:36.181Z</time></trkpt><trkpt lat="51.4831848" lon="3.9660982"><ele>-0.9999999999999999</ele><time>2026-04-06T09:49:38.181Z</time></trkpt><trkpt lat="51.4832738" lon="3.9661004"><ele>-1.0</ele><time>2026-04-06T09:49:40.181Z</time></trkpt><trkpt lat="51.4833678" lon="3.9660981"><ele>-1.0</ele><time>2026-04-06T09:49:42.181Z</time></trkpt><trkpt lat="51.4834592" lon="3.9661018"><ele>-1.0</ele><time>2026-04-06T09:49:44.181Z</time></trkpt><trkpt lat="51.4835227" lon="3.9660529"><ele>-0.9999999999999999</ele><time>2026-04-06T09:49:46.181Z</time></trkpt><trkpt lat="51.483558" lon="3.9659196"><ele>-1.0</ele><time>2026-04-06T09:49:49.181Z</time></trkpt><trkpt lat="51.4836233" lon="3.9658427"><ele>-0.8571428571428571</ele><time>2026-04-06T09:49:51.179Z</time></trkpt><trkpt lat="51.4837227" lon="3.965856"><ele>-0.7142857142857142</ele><time>2026-04-06T09:49:53.181Z</time></trkpt><trkpt lat="51.4837892" lon="3.9658675"><ele>-0.5714285714285714</ele><time>2026-04-06T09:49:54.181Z</time></trkpt><trkpt lat="51.4838602" lon="3.9658775"><ele>-0.42857142857142855</ele><time>2026-04-06T09:49:55.181Z</time></trkpt><trkpt lat="51.4839269" lon="3.9658845"><ele>-0.2857142857142857</ele><time>2026-04-06T09:49:56.181Z</time></trkpt><trkpt lat="51.4839966" lon="3.965893"><ele>-0.14285714285714285</ele><time>2026-04-06T09:49:57.181Z</time></trkpt><trkpt lat="51.4840636" lon="3.965916"><ele>0.0</ele><time>2026-04-06T09:49:58.181Z</time></trkpt><trkpt lat="51.4841306" lon="3.9659398"><ele>0.0</ele><time>2026-04-06T09:49:59.181Z</time></trkpt><trkpt lat="51.4842001" lon="3.9659635"><ele>0.0</ele><time>2026-04-06T09:50:00.181Z</time></trkpt><trkpt lat="51.4842726" lon="3.9660022"><ele>0.0</ele><time>2026-04-06T09:50:01.181Z</time></trkpt><trkpt lat="51.4843471" lon="3.9660515"><ele>0.0</ele><time>2026-04-06T09:50:02.181Z</time></trkpt><trkpt lat="51.4844187" lon="3.966105"><ele>0.0</ele><time>2026-04-06T09:50:03.181Z</time></trkpt><trkpt lat="51.4844853" lon="3.9661695"><ele>0.0</ele><time>2026-04-06T09:50:04.181Z</time></trkpt><trkpt lat="51.4845471" lon="3.9662399"><ele>0.0</ele><time>2026-04-06T09:50:05.181Z</time></trkpt><trkpt lat="51.4846015" lon="3.9663019"><ele>0.0</ele><time>2026-04-06T09:50:06.175Z</time></trkpt><trkpt lat="51.4847015" lon="3.9664121"><ele>0.0</ele><time>2026-04-06T09:50:08.18Z</time></trkpt><trkpt lat="51.4847546" lon="3.9664668"><ele>0.0</ele><time>2026-04-06T09:50:09.181Z</time></trkpt><trkpt lat="51.4848486" lon="3.9665745"><ele>0.0</ele><time>2026-04-06T09:50:11.181Z</time></trkpt><trkpt lat="51.484949" lon="3.9666774"><ele>0.0</ele><time>2026-04-06T09:50:13.181Z</time></trkpt><trkpt lat="51.4850443" lon="3.9667664"><ele>0.0</ele><time>2026-04-06T09:50:15.18Z</time></trkpt><trkpt lat="51.4851494" lon="3.9668453"><ele>0.0</ele><time>2026-04-06T09:50:17.181Z</time></trkpt><trkpt lat="51.4852087" lon="3.9668881"><ele>0.0</ele><time>2026-04-06T09:50:18.177Z</time></trkpt><trkpt lat="51.4852733" lon="3.9669171"><ele>0.0</ele><time>2026-04-06T09:50:19.178Z</time></trkpt><trkpt lat="51.4853386" lon="3.9669411"><ele>0.0</ele><time>2026-04-06T09:50:20.175Z</time></trkpt><trkpt lat="51.4854038" lon="3.9669722"><ele>0.16666666666666666</ele><time>2026-04-06T09:50:21.181Z</time></trkpt><trkpt lat="51.4854746" lon="3.967003"><ele>0.3333333333333333</ele><time>2026-04-06T09:50:22.18Z</time></trkpt><trkpt lat="51.4855462" lon="3.9670345"><ele>0.5</ele><time>2026-04-06T09:50:23.181Z</time></trkpt><trkpt lat="51.4856151" lon="3.9670622"><ele>0.6666666666666666</ele><time>2026-04-06T09:50:24.181Z</time></trkpt><trkpt lat="51.4856793" lon="3.9670755"><ele>0.8333333333333333</ele><time>2026-04-06T09:50:25.181Z</time></trkpt><trkpt lat="51.4857503" lon="3.967069"><ele>1.0</ele><time>2026-04-06T09:50:26.175Z</time></trkpt><trkpt lat="51.4858697" lon="3.9670224"><ele>0.9999999999999999</ele><time>2026-04-06T09:50:28.181Z</time></trkpt><trkpt lat="51.4859528" lon="3.9669753"><ele>1.0</ele><time>2026-04-06T09:50:30.176Z</time></trkpt><trkpt lat="51.4860232" lon="3.9669409"><ele>1.0</ele><time>2026-04-06T09:50:32.181Z</time></trkpt><trkpt lat="51.4860877" lon="3.9668747"><ele>1.0</ele><time>2026-04-06T09:50:34.181Z</time></trkpt><trkpt lat="51.4861724" lon="3.9667752"><ele>0.9999999999999999</ele><time>2026-04-06T09:50:36.178Z</time></trkpt><trkpt lat="51.4862214" lon="3.9667076"><ele>1.0</ele><time>2026-04-06T09:50:37.181Z</time></trkpt><trkpt lat="51.4863262" lon="3.9666041"><ele>0.8333333333333333</ele><time>2026-04-06T09:50:39.177Z</time></trkpt><trkpt lat="51.486391" lon="3.96656"><ele>0.6666666666666666</ele><time>2026-04-06T09:50:40.178Z</time></trkpt><trkpt lat="51.4864596" lon="3.9665224"><ele>0.5</ele><time>2026-04-06T09:50:41.181Z</time></trkpt><trkpt lat="51.4865403" lon="3.9664923"><ele>0.3333333333333333</ele><time>2026-04-06T09:50:42.181Z</time></trkpt><trkpt lat="51.4866157" lon="3.9664654"><ele>0.16666666666666666</ele><time>2026-04-06T09:50:43.181Z</time></trkpt><trkpt lat="51.4866956" lon="3.9664381"><ele>0.0</ele><time>2026-04-06T09:50:44.18Z</time></trkpt><trkpt lat="51.4867788" lon="3.9664125"><ele>0.0</ele><time>2026-04-06T09:50:45.181Z</time></trkpt><trkpt lat="51.4868648" lon="3.9663903"><ele>0.0</ele><time>2026-04-06T09:50:46.181Z</time></trkpt><trkpt lat="51.4869464" lon="3.9663663"><ele>0.0</ele><time>2026-04-06T09:50:47.181Z</time></trkpt><trkpt lat="51.4870259" lon="3.966343"><ele>0.0</ele><time>2026-04-06T09:50:48.181Z</time></trkpt><trkpt lat="51.4870951" lon="3.9663129"><ele>0.0</ele><time>2026-04-06T09:50:49.181Z</time></trkpt><trkpt lat="51.4871681" lon="3.9662786"><ele>0.0</ele><time>2026-04-06T09:50:50.181Z</time></trkpt><trkpt lat="51.4872349" lon="3.966253"><ele>0.0</ele><time>2026-04-06T09:50:51.181Z</time></trkpt><trkpt lat="51.4873005" lon="3.9662396"><ele>0.0</ele><time>2026-04-06T09:50:52.181Z</time></trkpt><trkpt lat="51.4874095" lon="3.9662301"><ele>0.0</ele><time>2026-04-06T09:50:54.181Z</time></trkpt><trkpt lat="51.4874908" lon="3.966181"><ele>0.0</ele><time>2026-04-06T09:50:56.181Z</time></trkpt><trkpt lat="51.4875333" lon="3.9660704"><ele>0.0</ele><time>2026-04-06T09:50:58.181Z</time></trkpt><trkpt lat="51.4875506" lon="3.965918"><ele>0.0</ele><time>2026-04-06T09:51:00.181Z</time></trkpt><trkpt lat="51.4875684" lon="3.9657702"><ele>0.0</ele><time>2026-04-06T09:51:02.181Z</time></trkpt><trkpt lat="51.4875909" lon="3.9656491"><ele>0.0</ele><time>2026-04-06T09:51:04.181Z</time></trkpt><trkpt lat="51.4876493" lon="3.9655213"><ele>0.0</ele><time>2026-04-06T09:51:06.181Z</time></trkpt><trkpt lat="51.4877326" lon="3.9654226"><ele>0.0</ele><time>2026-04-06T09:51:08.181Z</time></trkpt><trkpt lat="51.4878655" lon="3.9653377"><ele>0.0</ele><time>2026-04-06T09:51:10.181Z</time></trkpt><trkpt lat="51.4879841" lon="3.9652432"><ele>0.25</ele><time>2026-04-06T09:51:12.181Z</time></trkpt><trkpt lat="51.4880939" lon="3.9651624"><ele>0.5</ele><time>2026-04-06T09:51:14.181Z</time></trkpt><trkpt lat="51.4882098" lon="3.9651046"><ele>0.75</ele><time>2026-04-06T09:51:16.181Z</time></trkpt><trkpt lat="51.4883272" lon="3.9650747"><ele>1.0</ele><time>2026-04-06T09:51:18.181Z</time></trkpt><trkpt lat="51.4884449" lon="3.96506"><ele>1.0</ele><time>2026-04-06T09:51:20.182Z</time></trkpt><trkpt lat="51.488565" lon="3.9650491"><ele>1.0</ele><time>2026-04-06T09:51:22.181Z</time></trkpt><trkpt lat="51.4886885" lon="3.965052"><ele>1.0</ele><time>2026-04-06T09:51:24.181Z</time></trkpt><trkpt lat="51.4888076" lon="3.9650954"><ele>1.0</ele><time>2026-04-06T09:51:26.181Z</time></trkpt><trkpt lat="51.4889267" lon="3.9651647"><ele>1.0</ele><time>2026-04-06T09:51:28.181Z</time></trkpt><trkpt lat="51.4890247" lon="3.9652416"><ele>1.0</ele><time>2026-04-06T09:51:30.181Z</time></trkpt><trkpt lat="51.489129" lon="3.9653237"><ele>1.0</ele><time>2026-04-06T09:51:32.181Z</time></trkpt><trkpt lat="51.4892163" lon="3.965393"><ele>1.0</ele><time>2026-04-06T09:51:34.181Z</time></trkpt><trkpt lat="51.4893854" lon="3.9651885"><ele>1.1666666666666665</ele><time>2026-04-06T09:51:40.181Z</time></trkpt><trkpt lat="51.4894327" lon="3.9650129"><ele>1.3333333333333333</ele><time>2026-04-06T09:51:42.181Z</time></trkpt><trkpt lat="51.4894604" lon="3.9649085"><ele>1.5</ele><time>2026-04-06T09:51:43.181Z</time></trkpt><trkpt lat="51.4894851" lon="3.9648119"><ele>1.6666666666666665</ele><time>2026-04-06T09:51:44.181Z</time></trkpt><trkpt lat="51.4895057" lon="3.964706"><ele>1.8333333333333333</ele><time>2026-04-06T09:51:45.181Z</time></trkpt><trkpt lat="51.4895306" lon="3.9645988"><ele>2.0</ele><time>2026-04-06T09:51:46.181Z</time></trkpt><trkpt lat="51.489554" lon="3.9644913"><ele>2.0</ele><time>2026-04-06T09:51:47.181Z</time></trkpt><trkpt lat="51.4895706" lon="3.9643887"><ele>1.9999999999999998</ele><time>2026-04-06T09:51:48.181Z</time></trkpt><trkpt lat="51.4895867" lon="3.9642856"><ele>2.0</ele><time>2026-04-06T09:51:49.181Z</time></trkpt><trkpt lat="51.4896004" lon="3.9641783"><ele>2.0</ele><time>2026-04-06T09:51:50.181Z</time></trkpt><trkpt lat="51.4896034" lon="3.9640682"><ele>1.9999999999999998</ele><time>2026-04-06T09:51:51.181Z</time></trkpt><trkpt lat="51.4896015" lon="3.9639571"><ele>2.0</ele><time>2026-04-06T09:51:52.181Z</time></trkpt><trkpt lat="51.4895968" lon="3.9638523"><ele>2.0</ele><time>2026-04-06T09:51:53.181Z</time></trkpt><trkpt lat="51.4895954" lon="3.9637447"><ele>1.9999999999999998</ele><time>2026-04-06T09:51:54.181Z</time></trkpt><trkpt lat="51.4895898" lon="3.963638"><ele>2.0</ele><time>2026-04-06T09:51:55.181Z</time></trkpt><trkpt lat="51.4895866" lon="3.9634394"><ele>2.0</ele><time>2026-04-06T09:51:57.181Z</time></trkpt><trkpt lat="51.4895869" lon="3.9633342"><ele>2.0</ele><time>2026-04-06T09:51:58.181Z</time></trkpt><trkpt lat="51.4895909" lon="3.9632138"><ele>1.9999999999999998</ele><time>2026-04-06T09:51:59.181Z</time></trkpt><trkpt lat="51.4895988" lon="3.963092"><ele>2.0</ele><time>2026-04-06T09:52:00.181Z</time></trkpt><trkpt lat="51.4896037" lon="3.9629706"><ele>1.8333333333333333</ele><time>2026-04-06T09:52:01.181Z</time></trkpt><trkpt lat="51.4896101" lon="3.9628538"><ele>1.6666666666666665</ele><time>2026-04-06T09:52:02.181Z</time></trkpt><trkpt lat="51.4896167" lon="3.962743"><ele>1.5</ele><time>2026-04-06T09:52:03.181Z</time></trkpt><trkpt lat="51.4896227" lon="3.9625638"><ele>1.3333333333333333</ele><time>2026-04-06T09:52:05.181Z</time></trkpt><trkpt lat="51.4896305" lon="3.9624282"><ele>1.1666666666666665</ele><time>2026-04-06T09:52:07.181Z</time></trkpt><trkpt lat="51.4896372" lon="3.9622937"><ele>1.0</ele><time>2026-04-06T09:52:09.181Z</time></trkpt><trkpt lat="51.4896444" lon="3.9621162"><ele>0.9999999999999999</ele><time>2026-04-06T09:52:11.181Z</time></trkpt><trkpt lat="51.489657" lon="3.9619548"><ele>1.0</ele><time>2026-04-06T09:52:13.182Z</time></trkpt><trkpt lat="51.4896438" lon="3.9618137"><ele>1.0</ele><time>2026-04-06T09:52:16.181Z</time></trkpt><trkpt lat="51.4895781" lon="3.9617688"><ele>1.0</ele><time>2026-04-06T09:52:18.181Z</time></trkpt><trkpt lat="51.4894623" lon="3.9617445"><ele>0.9999999999999999</ele><time>2026-04-06T09:52:20.181Z</time></trkpt><trkpt lat="51.4893935" lon="3.9617184"><ele>1.0</ele><time>2026-04-06T09:52:21.181Z</time></trkpt><trkpt lat="51.4893233" lon="3.9616741"><ele>0.8571428571428571</ele><time>2026-04-06T09:52:22.181Z</time></trkpt><trkpt lat="51.4892631" lon="3.9616275"><ele>0.7142857142857142</ele><time>2026-04-06T09:52:23.181Z</time></trkpt><trkpt lat="51.4891968" lon="3.9615781"><ele>0.5714285714285714</ele><time>2026-04-06T09:52:24.181Z</time></trkpt><trkpt lat="51.4891368" lon="3.9615359"><ele>0.42857142857142855</ele><time>2026-04-06T09:52:25.181Z</time></trkpt><trkpt lat="51.4890785" lon="3.9614925"><ele>0.2857142857142857</ele><time>2026-04-06T09:52:26.181Z</time></trkpt><trkpt lat="51.4890207" lon="3.961452"><ele>0.14285714285714285</ele><time>2026-04-06T09:52:27.181Z</time></trkpt><trkpt lat="51.4889599" lon="3.9614029"><ele>0.0</ele><time>2026-04-06T09:52:28.181Z</time></trkpt><trkpt lat="51.4888962" lon="3.9613513"><ele>0.0</ele><time>2026-04-06T09:52:29.181Z</time></trkpt><trkpt lat="51.4888247" lon="3.9613035"><ele>0.0</ele><time>2026-04-06T09:52:30.181Z</time></trkpt><trkpt lat="51.4887542" lon="3.9612518"><ele>0.0</ele><time>2026-04-06T09:52:31.181Z</time></trkpt><trkpt lat="51.4886813" lon="3.9611901"><ele>0.0</ele><time>2026-04-06T09:52:32.182Z</time></trkpt><trkpt lat="51.4886124" lon="3.9611267"><ele>0.0</ele><time>2026-04-06T09:52:33.181Z</time></trkpt><trkpt lat="51.4885407" lon="3.9610669"><ele>0.0</ele><time>2026-04-06T09:52:34.181Z</time></trkpt><trkpt lat="51.4884687" lon="3.9610104"><ele>0.16666666666666666</ele><time>2026-04-06T09:52:35.181Z</time></trkpt><trkpt lat="51.488398" lon="3.9609558"><ele>0.3333333333333333</ele><time>2026-04-06T09:52:36.181Z</time></trkpt><trkpt lat="51.4883264" lon="3.9609036"><ele>0.5</ele><time>2026-04-06T09:52:37.181Z</time></trkpt><trkpt lat="51.4882619" lon="3.9608514"><ele>0.6666666666666666</ele><time>2026-04-06T09:52:38.181Z</time></trkpt><trkpt lat="51.4881641" lon="3.9607715"><ele>0.8333333333333333</ele><time>2026-04-06T09:52:40.181Z</time></trkpt><trkpt lat="51.4881035" lon="3.9607219"><ele>1.0</ele><time>2026-04-06T09:52:42.181Z</time></trkpt><trkpt lat="51.4880408" lon="3.9606824"><ele>0.9999999999999999</ele><time>2026-04-06T09:52:44.181Z</time></trkpt><trkpt lat="51.4879385" lon="3.9606201"><ele>1.0</ele><time>2026-04-06T09:52:46.181Z</time></trkpt><trkpt lat="51.4878733" lon="3.9605658"><ele>1.0</ele><time>2026-04-06T09:52:47.181Z</time></trkpt><trkpt lat="51.4878144" lon="3.960513"><ele>1.0</ele><time>2026-04-06T09:52:48.181Z</time></trkpt><trkpt lat="51.487757" lon="3.9604639"><ele>0.9999999999999999</ele><time>2026-04-06T09:52:49.181Z</time></trkpt><trkpt lat="51.4877002" lon="3.9604183"><ele>1.0</ele><time>2026-04-06T09:52:50.181Z</time></trkpt><trkpt lat="51.4875995" lon="3.9603193"><ele>0.9999999999999999</ele><time>2026-04-06T09:52:52.181Z</time></trkpt><trkpt lat="51.4875033" lon="3.9602119"><ele>1.0</ele><time>2026-04-06T09:52:54.181Z</time></trkpt><trkpt lat="51.4874502" lon="3.9601572"><ele>1.0</ele><time>2026-04-06T09:52:55.181Z</time></trkpt><trkpt lat="51.4873987" lon="3.9600954"><ele>1.0</ele><time>2026-04-06T09:52:56.181Z</time></trkpt><trkpt lat="51.4873461" lon="3.9600319"><ele>0.9999999999999999</ele><time>2026-04-06T09:52:57.181Z</time></trkpt><trkpt lat="51.4872929" lon="3.9599659"><ele>1.0</ele><time>2026-04-06T09:52:58.181Z</time></trkpt><trkpt lat="51.4872344" lon="3.9598956"><ele>1.0</ele><time>2026-04-06T09:52:59.181Z</time></trkpt><trkpt lat="51.4871745" lon="3.9598223"><ele>0.9999999999999999</ele><time>2026-04-06T09:53:00.181Z</time></trkpt><trkpt lat="51.4871175" lon="3.959752"><ele>1.0</ele><time>2026-04-06T09:53:01.181Z</time></trkpt><trkpt lat="51.4870627" lon="3.9596826"><ele>1.0</ele><time>2026-04-06T09:53:02.181Z</time></trkpt><trkpt lat="51.4870076" lon="3.9596116"><ele>0.9999999999999999</ele><time>2026-04-06T09:53:03.181Z</time></trkpt><trkpt lat="51.486956" lon="3.9595472"><ele>1.0</ele><time>2026-04-06T09:53:04.181Z</time></trkpt><trkpt lat="51.4869089" lon="3.9594793"><ele>1.0</ele><time>2026-04-06T09:53:05.181Z</time></trkpt><trkpt lat="51.4868135" lon="3.9593517"><ele>1.0</ele><time>2026-04-06T09:53:07.181Z</time></trkpt><trkpt lat="51.4867215" lon="3.9592319"><ele>1.0</ele><time>2026-04-06T09:53:09.181Z</time></trkpt><trkpt lat="51.4866278" lon="3.9591304"><ele>1.0</ele><time>2026-04-06T09:53:11.181Z</time></trkpt><trkpt lat="51.4865564" lon="3.9590558"><ele>1.0</ele><time>2026-04-06T09:53:13.181Z</time></trkpt><trkpt lat="51.4864925" lon="3.9590124"><ele>1.0</ele><time>2026-04-06T09:53:15.181Z</time></trkpt><trkpt lat="51.4864224" lon="3.9590456"><ele>1.0</ele><time>2026-04-06T09:53:17.181Z</time></trkpt><trkpt lat="51.4863494" lon="3.959147"><ele>1.0</ele><time>2026-04-06T09:53:19.182Z</time></trkpt><trkpt lat="51.4862543" lon="3.9592865"><ele>1.0</ele><time>2026-04-06T09:53:21.181Z</time></trkpt><trkpt lat="51.4861999" lon="3.9593499"><ele>1.0</ele><time>2026-04-06T09:53:22.181Z</time></trkpt><trkpt lat="51.4861495" lon="3.9594106"><ele>1.0</ele><time>2026-04-06T09:53:23.181Z</time></trkpt><trkpt lat="51.4860558" lon="3.959524"><ele>0.8333333333333333</ele><time>2026-04-06T09:53:25.181Z</time></trkpt><trkpt lat="51.4860042" lon="3.9595829"><ele>0.6666666666666666</ele><time>2026-04-06T09:53:26.181Z</time></trkpt><trkpt lat="51.4859447" lon="3.9596468"><ele>0.5</ele><time>2026-04-06T09:53:27.181Z</time></trkpt><trkpt lat="51.4858895" lon="3.9597065"><ele>0.3333333333333333</ele><time>2026-04-06T09:53:28.181Z</time></trkpt><trkpt lat="51.4858381" lon="3.9597661"><ele>0.16666666666666666</ele><time>2026-04-06T09:53:29.182Z</time></trkpt><trkpt lat="51.4857404" lon="3.9598836"><ele>0.0</ele><time>2026-04-06T09:53:31.181Z</time></trkpt><trkpt lat="51.4856378" lon="3.9599875"><ele>0.0</ele><time>2026-04-06T09:53:33.181Z</time></trkpt><trkpt lat="51.4855219" lon="3.9600293"><ele>0.0</ele><time>2026-04-06T09:53:35.181Z</time></trkpt><trkpt lat="51.485398" lon="3.9599826"><ele>0.0</ele><time>2026-04-06T09:53:37.181Z</time></trkpt><trkpt lat="51.4852785" lon="3.9598829"><ele>0.0</ele><time>2026-04-06T09:53:39.181Z</time></trkpt><trkpt lat="51.4852152" lon="3.959828"><ele>0.16666666666666666</ele><time>2026-04-06T09:53:40.181Z</time></trkpt><trkpt lat="51.4851502" lon="3.9597742"><ele>0.3333333333333333</ele><time>2026-04-06T09:53:41.181Z</time></trkpt><trkpt lat="51.4850858" lon="3.959717"><ele>0.5</ele><time>2026-04-06T09:53:42.181Z</time></trkpt><trkpt lat="51.4850193" lon="3.9596585"><ele>0.6666666666666666</ele><time>2026-04-06T09:53:43.181Z</time></trkpt><trkpt lat="51.4849464" lon="3.9595993"><ele>0.8333333333333333</ele><time>2026-04-06T09:53:44.181Z</time></trkpt><trkpt lat="51.4848686" lon="3.9595415"><ele>1.0</ele><time>2026-04-06T09:53:45.181Z</time></trkpt><trkpt lat="51.4847842" lon="3.9594895"><ele>1.0</ele><time>2026-04-06T09:53:46.181Z</time></trkpt><trkpt lat="51.4847003" lon="3.9594385"><ele>1.0</ele><time>2026-04-06T09:53:47.181Z</time></trkpt><trkpt lat="51.484614" lon="3.9593889"><ele>1.0</ele><time>2026-04-06T09:53:48.181Z</time></trkpt><trkpt lat="51.4845253" lon="3.9593441"><ele>1.0</ele><time>2026-04-06T09:53:49.181Z</time></trkpt><trkpt lat="51.484437" lon="3.9593077"><ele>1.0</ele><time>2026-04-06T09:53:50.181Z</time></trkpt><trkpt lat="51.4843496" lon="3.9592825"><ele>0.8333333333333333</ele><time>2026-04-06T09:53:51.181Z</time></trkpt><trkpt lat="51.4842623" lon="3.959261"><ele>0.6666666666666666</ele><time>2026-04-06T09:53:52.181Z</time></trkpt><trkpt lat="51.4841801" lon="3.9592466"><ele>0.5</ele><time>2026-04-06T09:53:53.181Z</time></trkpt><trkpt lat="51.4840939" lon="3.9592451"><ele>0.3333333333333333</ele><time>2026-04-06T09:53:54.181Z</time></trkpt><trkpt lat="51.4840168" lon="3.9592464"><ele>0.16666666666666666</ele><time>2026-04-06T09:53:55.181Z</time></trkpt><trkpt lat="51.4839469" lon="3.9592568"><ele>0.0</ele><time>2026-04-06T09:53:56.181Z</time></trkpt><trkpt lat="51.4838791" lon="3.9592692"><ele>0.0</ele><time>2026-04-06T09:53:57.181Z</time></trkpt><trkpt lat="51.483815" lon="3.9592765"><ele>0.0</ele><time>2026-04-06T09:53:58.182Z</time></trkpt><trkpt lat="51.4837514" lon="3.9592909"><ele>0.0</ele><time>2026-04-06T09:53:59.181Z</time></trkpt><trkpt lat="51.4836823" lon="3.9593174"><ele>0.0</ele><time>2026-04-06T09:54:00.181Z</time></trkpt><trkpt lat="51.4836107" lon="3.959335"><ele>0.0</ele><time>2026-04-06T09:54:01.181Z</time></trkpt><trkpt lat="51.4835349" lon="3.9593499"><ele>0.0</ele><time>2026-04-06T09:54:02.181Z</time></trkpt><trkpt lat="51.4834603" lon="3.9593545"><ele>0.0</ele><time>2026-04-06T09:54:03.181Z</time></trkpt><trkpt lat="51.4833847" lon="3.9593625"><ele>0.0</ele><time>2026-04-06T09:54:04.181Z</time></trkpt><trkpt lat="51.4833094" lon="3.9593726"><ele>0.0</ele><time>2026-04-06T09:54:05.181Z</time></trkpt><trkpt lat="51.4832352" lon="3.9593768"><ele>0.0</ele><time>2026-04-06T09:54:06.181Z</time></trkpt><trkpt lat="51.4831603" lon="3.9593837"><ele>0.0</ele><time>2026-04-06T09:54:07.181Z</time></trkpt><trkpt lat="51.4830818" lon="3.9593937"><ele>0.0</ele><time>2026-04-06T09:54:08.181Z</time></trkpt><trkpt lat="51.4830005" lon="3.9594078"><ele>0.0</ele><time>2026-04-06T09:54:09.181Z</time></trkpt><trkpt lat="51.4829189" lon="3.9594208"><ele>0.14285714285714285</ele><time>2026-04-06T09:54:10.181Z</time></trkpt><trkpt lat="51.4828382" lon="3.9594313"><ele>0.2857142857142857</ele><time>2026-04-06T09:54:11.181Z</time></trkpt><trkpt lat="51.4827629" lon="3.9594427"><ele>0.42857142857142855</ele><time>2026-04-06T09:54:12.181Z</time></trkpt><trkpt lat="51.4826919" lon="3.9594526"><ele>0.5714285714285714</ele><time>2026-04-06T09:54:13.181Z</time></trkpt><trkpt lat="51.4826215" lon="3.9594624"><ele>0.7142857142857142</ele><time>2026-04-06T09:54:14.181Z</time></trkpt><trkpt lat="51.4825509" lon="3.9594756"><ele>0.8571428571428571</ele><time>2026-04-06T09:54:15.181Z</time></trkpt><trkpt lat="51.4824751" lon="3.95949"><ele>1.0</ele><time>2026-04-06T09:54:16.181Z</time></trkpt><trkpt lat="51.4824002" lon="3.9595122"><ele>0.9999999999999999</ele><time>2026-04-06T09:54:17.181Z</time></trkpt><trkpt lat="51.4823227" lon="3.9595403"><ele>1.0</ele><time>2026-04-06T09:54:18.181Z</time></trkpt><trkpt lat="51.4822426" lon="3.9595801"><ele>1.0</ele><time>2026-04-06T09:54:19.181Z</time></trkpt><trkpt lat="51.4821592" lon="3.9596121"><ele>1.0</ele><time>2026-04-06T09:54:20.181Z</time></trkpt><trkpt lat="51.4820802" lon="3.9596437"><ele>0.9999999999999999</ele><time>2026-04-06T09:54:21.181Z</time></trkpt><trkpt lat="51.4820025" lon="3.9596807"><ele>1.0</ele><time>2026-04-06T09:54:22.181Z</time></trkpt><trkpt lat="51.4819222" lon="3.9597178"><ele>0.9999999999999999</ele><time>2026-04-06T09:54:23.181Z</time></trkpt><trkpt lat="51.4818403" lon="3.9597577"><ele>1.0</ele><time>2026-04-06T09:54:24.181Z</time></trkpt><trkpt lat="51.4817583" lon="3.9597999"><ele>1.0</ele><time>2026-04-06T09:54:25.181Z</time></trkpt><trkpt lat="51.4816755" lon="3.9598432"><ele>1.0</ele><time>2026-04-06T09:54:26.181Z</time></trkpt><trkpt lat="51.4815924" lon="3.9598867"><ele>0.9999999999999999</ele><time>2026-04-06T09:54:27.181Z</time></trkpt><trkpt lat="51.4815076" lon="3.9599323"><ele>1.0</ele><time>2026-04-06T09:54:28.181Z</time></trkpt><trkpt lat="51.4814241" lon="3.9599778"><ele>0.9999999999999999</ele><time>2026-04-06T09:54:29.181Z</time></trkpt><trkpt lat="51.4813466" lon="3.9600071"><ele>1.0</ele><time>2026-04-06T09:54:30.181Z</time></trkpt><trkpt lat="51.4812681" lon="3.9600464"><ele>1.0</ele><time>2026-04-06T09:54:31.181Z</time></trkpt><trkpt lat="51.4811892" lon="3.9600954"><ele>1.0</ele><time>2026-04-06T09:54:32.181Z</time></trkpt><trkpt lat="51.4811145" lon="3.960139"><ele>0.9999999999999999</ele><time>2026-04-06T09:54:33.181Z</time></trkpt><trkpt lat="51.4810395" lon="3.9601742"><ele>1.0</ele><time>2026-04-06T09:54:34.182Z</time></trkpt><trkpt lat="51.4809693" lon="3.9602107"><ele>1.0</ele><time>2026-04-06T09:54:35.181Z</time></trkpt><trkpt lat="51.4808964" lon="3.9602436"><ele>0.9999999999999999</ele><time>2026-04-06T09:54:36.181Z</time></trkpt><trkpt lat="51.4808262" lon="3.9602771"><ele>1.0</ele><time>2026-04-06T09:54:37.181Z</time></trkpt><trkpt lat="51.4807561" lon="3.9603156"><ele>1.0</ele><time>2026-04-06T09:54:38.181Z</time></trkpt><trkpt lat="51.4806873" lon="3.9603483"><ele>0.9999999999999999</ele><time>2026-04-06T09:54:39.181Z</time></trkpt><trkpt lat="51.4806198" lon="3.9603791"><ele>1.0</ele><time>2026-04-06T09:54:40.181Z</time></trkpt><trkpt lat="51.480551" lon="3.9604119"><ele>1.0</ele><time>2026-04-06T09:54:41.181Z</time></trkpt><trkpt lat="51.4804829" lon="3.9604501"><ele>1.0</ele><time>2026-04-06T09:54:42.181Z</time></trkpt><trkpt lat="51.4804086" lon="3.9604868"><ele>0.9999999999999999</ele><time>2026-04-06T09:54:43.181Z</time></trkpt><trkpt lat="51.4803402" lon="3.9605212"><ele>1.0</ele><time>2026-04-06T09:54:44.181Z</time></trkpt><trkpt lat="51.4802694" lon="3.9605601"><ele>1.0</ele><time>2026-04-06T09:54:45.181Z</time></trkpt><trkpt lat="51.4801998" lon="3.9605969"><ele>0.9999999999999999</ele><time>2026-04-06T09:54:46.181Z</time></trkpt><trkpt lat="51.4801324" lon="3.9606368"><ele>1.0</ele><time>2026-04-06T09:54:47.181Z</time></trkpt><trkpt lat="51.4800593" lon="3.9606772"><ele>1.0</ele><time>2026-04-06T09:54:48.181Z</time></trkpt><trkpt lat="51.4799855" lon="3.9607096"><ele>0.9999999999999999</ele><time>2026-04-06T09:54:49.181Z</time></trkpt><trkpt lat="51.4799086" lon="3.9607497"><ele>1.0</ele><time>2026-04-06T09:54:50.181Z</time></trkpt><trkpt lat="51.4798301" lon="3.960793"><ele>1.0</ele><time>2026-04-06T09:54:51.181Z</time></trkpt><trkpt lat="51.4797547" lon="3.9608384"><ele>1.0</ele><time>2026-04-06T09:54:52.181Z</time></trkpt><trkpt lat="51.4796762" lon="3.9608823"><ele>0.9999999999999999</ele><time>2026-04-06T09:54:53.181Z</time></trkpt><trkpt lat="51.479606" lon="3.9609165"><ele>1.0</ele><time>2026-04-06T09:54:54.181Z</time></trkpt><trkpt lat="51.4795435" lon="3.9609488"><ele>0.8333333333333333</ele><time>2026-04-06T09:54:55.181Z</time></trkpt><trkpt lat="51.4794445" lon="3.9609797"><ele>0.6666666666666666</ele><time>2026-04-06T09:54:57.181Z</time></trkpt><trkpt lat="51.4793865" lon="3.9609086"><ele>0.5</ele><time>2026-04-06T09:54:59.181Z</time></trkpt><trkpt lat="51.4793803" lon="3.9607464"><ele>0.3333333333333333</ele><time>2026-04-06T09:55:01.181Z</time></trkpt><trkpt lat="51.4794026" lon="3.9606419"><ele>0.16666666666666666</ele><time>2026-04-06T09:55:02.181Z</time></trkpt><trkpt lat="51.4794388" lon="3.9605254"><ele>0.0</ele><time>2026-04-06T09:55:03.181Z</time></trkpt><trkpt lat="51.4794812" lon="3.9604139"><ele>-0.2</ele><time>2026-04-06T09:55:04.181Z</time></trkpt><trkpt lat="51.4795322" lon="3.9602922"><ele>-0.4</ele><time>2026-04-06T09:55:05.181Z</time></trkpt><trkpt lat="51.4795817" lon="3.9601594"><ele>-0.6000000000000001</ele><time>2026-04-06T09:55:06.181Z</time></trkpt><trkpt lat="51.4796304" lon="3.9600295"><ele>-0.8</ele><time>2026-04-06T09:55:07.181Z</time></trkpt><trkpt lat="51.479674" lon="3.9599062"><ele>-1.0</ele><time>2026-04-06T09:55:08.181Z</time></trkpt><trkpt lat="51.4797174" lon="3.9597844"><ele>-1.0</ele><time>2026-04-06T09:55:09.181Z</time></trkpt><trkpt lat="51.4797599" lon="3.9596712"><ele>-0.9999999999999999</ele><time>2026-04-06T09:55:10.181Z</time></trkpt><trkpt lat="51.4798004" lon="3.9595626"><ele>-1.0</ele><time>2026-04-06T09:55:11.181Z</time></trkpt><trkpt lat="51.4798362" lon="3.9594684"><ele>-1.0</ele><time>2026-04-06T09:55:12.181Z</time></trkpt><trkpt lat="51.4798701" lon="3.9593721"><ele>-0.9999999999999999</ele><time>2026-04-06T09:55:13.181Z</time></trkpt><trkpt lat="51.4799005" lon="3.9592809"><ele>-1.0</ele><time>2026-04-06T09:55:14.181Z</time></trkpt><trkpt lat="51.4799318" lon="3.9591902"><ele>-1.0</ele><time>2026-04-06T09:55:15.181Z</time></trkpt><trkpt lat="51.4799597" lon="3.9590862"><ele>-0.8333333333333333</ele><time>2026-04-06T09:55:16.182Z</time></trkpt><trkpt lat="51.4799942" lon="3.9589712"><ele>-0.6666666666666666</ele><time>2026-04-06T09:55:17.181Z</time></trkpt><trkpt lat="51.4800353" lon="3.9588566"><ele>-0.5</ele><time>2026-04-06T09:55:18.181Z</time></trkpt><trkpt lat="51.4800818" lon="3.9587399"><ele>-0.3333333333333333</ele><time>2026-04-06T09:55:19.181Z</time></trkpt><trkpt lat="51.4801244" lon="3.9586316"><ele>-0.16666666666666666</ele><time>2026-04-06T09:55:20.181Z</time></trkpt><trkpt lat="51.480163" lon="3.9585235"><ele>0.0</ele><time>2026-04-06T09:55:21.181Z</time></trkpt><trkpt lat="51.4801993" lon="3.9584146"><ele>0.0</ele><time>2026-04-06T09:55:22.181Z</time></trkpt><trkpt lat="51.480232" lon="3.9583093"><ele>0.0</ele><time>2026-04-06T09:55:23.181Z</time></trkpt><trkpt lat="51.4802662" lon="3.9582104"><ele>0.0</ele><time>2026-04-06T09:55:24.181Z</time></trkpt><trkpt lat="51.4802987" lon="3.9581148"><ele>0.0</ele><time>2026-04-06T09:55:25.181Z</time></trkpt><trkpt lat="51.4803332" lon="3.9580116"><ele>0.0</ele><time>2026-04-06T09:55:26.181Z</time></trkpt><trkpt lat="51.480371" lon="3.9579064"><ele>0.0</ele><time>2026-04-06T09:55:27.181Z</time></trkpt><trkpt lat="51.4804049" lon="3.9578089"><ele>0.0</ele><time>2026-04-06T09:55:28.181Z</time></trkpt><trkpt lat="51.4804371" lon="3.9577171"><ele>0.0</ele><time>2026-04-06T09:55:29.181Z</time></trkpt><trkpt lat="51.480465" lon="3.9576237"><ele>0.0</ele><time>2026-04-06T09:55:30.181Z</time></trkpt><trkpt lat="51.4805092" lon="3.9574627"><ele>0.0</ele><time>2026-04-06T09:55:32.181Z</time></trkpt><trkpt lat="51.4805793" lon="3.9573843"><ele>0.0</ele><time>2026-04-06T09:55:34.181Z</time></trkpt><trkpt lat="51.48064" lon="3.9574186"><ele>0.0</ele><time>2026-04-06T09:55:36.181Z</time></trkpt><trkpt lat="51.4806838" lon="3.957504"><ele>0.0</ele><time>2026-04-06T09:58:55.18Z</time></trkpt><trkpt lat="51.4806706" lon="3.957638"><ele>0.0</ele><time>2026-04-06T09:58:58.18Z</time></trkpt><trkpt lat="51.4806274" lon="3.9577535"><ele>0.0</ele><time>2026-04-06T09:59:00.18Z</time></trkpt><trkpt lat="51.4805733" lon="3.9578924"><ele>0.0</ele><time>2026-04-06T09:59:02.18Z</time></trkpt><trkpt lat="51.4805198" lon="3.9580679"><ele>0.0</ele><time>2026-04-06T09:59:04.18Z</time></trkpt><trkpt lat="51.4804855" lon="3.9581618"><ele>0.0</ele><time>2026-04-06T09:59:05.18Z</time></trkpt><trkpt lat="51.4804516" lon="3.9582553"><ele>0.0</ele><time>2026-04-06T09:59:06.18Z</time></trkpt><trkpt lat="51.4804189" lon="3.9583461"><ele>0.0</ele><time>2026-04-06T09:59:07.18Z</time></trkpt><trkpt lat="51.4803849" lon="3.9584449"><ele>0.0</ele><time>2026-04-06T09:59:08.18Z</time></trkpt><trkpt lat="51.4803505" lon="3.9585464"><ele>0.0</ele><time>2026-04-06T09:59:09.18Z</time></trkpt><trkpt lat="51.4803132" lon="3.9586473"><ele>0.0</ele><time>2026-04-06T09:59:10.18Z</time></trkpt><trkpt lat="51.4802794" lon="3.9587462"><ele>0.0</ele><time>2026-04-06T09:59:11.18Z</time></trkpt><trkpt lat="51.4802431" lon="3.9588449"><ele>0.0</ele><time>2026-04-06T09:59:12.18Z</time></trkpt><trkpt lat="51.4802082" lon="3.9589442"><ele>0.0</ele><time>2026-04-06T09:59:13.18Z</time></trkpt><trkpt lat="51.4801726" lon="3.9590449"><ele>0.0</ele><time>2026-04-06T09:59:14.18Z</time></trkpt><trkpt lat="51.4801371" lon="3.9591508"><ele>0.0</ele><time>2026-04-06T09:59:15.18Z</time></trkpt><trkpt lat="51.480102" lon="3.9592515"><ele>0.0</ele><time>2026-04-06T09:59:16.18Z</time></trkpt><trkpt lat="51.4800659" lon="3.9593565"><ele>0.0</ele><time>2026-04-06T09:59:17.18Z</time></trkpt><trkpt lat="51.4800273" lon="3.9594623"><ele>0.0</ele><time>2026-04-06T09:59:18.18Z</time></trkpt><trkpt lat="51.4799909" lon="3.9595693"><ele>0.0</ele><time>2026-04-06T09:59:19.18Z</time></trkpt><trkpt lat="51.4799519" lon="3.9596779"><ele>-0.16666666666666666</ele><time>2026-04-06T09:59:20.18Z</time></trkpt><trkpt lat="51.4799135" lon="3.9597877"><ele>-0.3333333333333333</ele><time>2026-04-06T09:59:21.181Z</time></trkpt><trkpt lat="51.4798771" lon="3.9598974"><ele>-0.5</ele><time>2026-04-06T09:59:22.18Z</time></trkpt><trkpt lat="51.4798369" lon="3.9600032"><ele>-0.6666666666666666</ele><time>2026-04-06T09:59:23.18Z</time></trkpt><trkpt lat="51.4798043" lon="3.9601036"><ele>-0.8333333333333333</ele><time>2026-04-06T09:59:24.18Z</time></trkpt><trkpt lat="51.4797721" lon="3.9601954"><ele>-1.0</ele><time>2026-04-06T09:59:25.18Z</time></trkpt><trkpt lat="51.479708" lon="3.960353"><ele>-0.9999999999999999</ele><time>2026-04-06T09:59:27.18Z</time></trkpt><trkpt lat="51.4796303" lon="3.9604491"><ele>-1.0</ele><time>2026-04-06T09:59:29.18Z</time></trkpt><trkpt lat="51.4795609" lon="3.9604522"><ele>-1.0</ele><time>2026-04-06T09:59:31.18Z</time></trkpt><trkpt lat="51.4794874" lon="3.9604726"><ele>-1.0</ele><time>2026-04-06T09:59:35.18Z</time></trkpt><trkpt lat="51.4794414" lon="3.960569"><ele>-0.9999999999999999</ele><time>2026-04-06T09:59:37.18Z</time></trkpt><trkpt lat="51.479395" lon="3.9607132"><ele>-1.0</ele><time>2026-04-06T09:59:39.18Z</time></trkpt><trkpt lat="51.4793772" lon="3.9608695"><ele>-0.8</ele><time>2026-04-06T09:59:41.18Z</time></trkpt><trkpt lat="51.4793541" lon="3.9610007"><ele>-0.6000000000000001</ele><time>2026-04-06T09:59:43.18Z</time></trkpt><trkpt lat="51.4792782" lon="3.961098"><ele>-0.4</ele><time>2026-04-06T09:59:45.18Z</time></trkpt><trkpt lat="51.4791886" lon="3.9611518"><ele>-0.2</ele><time>2026-04-06T09:59:47.18Z</time></trkpt><trkpt lat="51.4791061" lon="3.9612814"><ele>0.0</ele><time>2026-04-06T09:59:49.18Z</time></trkpt><trkpt lat="51.4790454" lon="3.9614408"><ele>0.0</ele><time>2026-04-06T09:59:51.18Z</time></trkpt><trkpt lat="51.4790182" lon="3.9615326"><ele>0.0</ele><time>2026-04-06T09:59:52.18Z</time></trkpt><trkpt lat="51.4789889" lon="3.9616396"><ele>0.0</ele><time>2026-04-06T09:59:53.18Z</time></trkpt><trkpt lat="51.4789522" lon="3.9617455"><ele>0.0</ele><time>2026-04-06T09:59:54.18Z</time></trkpt><trkpt lat="51.4789133" lon="3.9618453"><ele>0.0</ele><time>2026-04-06T09:59:55.18Z</time></trkpt><trkpt lat="51.4788745" lon="3.9619478"><ele>0.0</ele><time>2026-04-06T09:59:56.18Z</time></trkpt><trkpt lat="51.4788331" lon="3.96206"><ele>0.0</ele><time>2026-04-06T09:59:57.18Z</time></trkpt><trkpt lat="51.4787944" lon="3.9621707"><ele>0.0</ele><time>2026-04-06T09:59:58.18Z</time></trkpt><trkpt lat="51.4787584" lon="3.9622789"><ele>0.0</ele><time>2026-04-06T09:59:59.18Z</time></trkpt><trkpt lat="51.4787169" lon="3.9623977"><ele>0.0</ele><time>2026-04-06T10:00:00.18Z</time></trkpt><trkpt lat="51.4786745" lon="3.9625041"><ele>0.0</ele><time>2026-04-06T10:00:01.18Z</time></trkpt><trkpt lat="51.478639" lon="3.9626156"><ele>0.0</ele><time>2026-04-06T10:00:02.18Z</time></trkpt><trkpt lat="51.4786046" lon="3.9627171"><ele>0.0</ele><time>2026-04-06T10:00:03.18Z</time></trkpt><trkpt lat="51.4785566" lon="3.9628558"><ele>-0.2</ele><time>2026-04-06T10:00:05.18Z</time></trkpt><trkpt lat="51.4785064" lon="3.9630025"><ele>-0.4</ele><time>2026-04-06T10:00:07.18Z</time></trkpt><trkpt lat="51.4784485" lon="3.9631829"><ele>-0.6000000000000001</ele><time>2026-04-06T10:00:09.18Z</time></trkpt><trkpt lat="51.4783959" lon="3.9633463"><ele>-0.8</ele><time>2026-04-06T10:00:11.18Z</time></trkpt><trkpt lat="51.4783577" lon="3.9634401"><ele>-1.0</ele><time>2026-04-06T10:00:12.18Z</time></trkpt><trkpt lat="51.4782969" lon="3.963585"><ele>-0.9999999999999999</ele><time>2026-04-06T10:00:14.181Z</time></trkpt><trkpt lat="51.4782719" lon="3.9637117"><ele>-1.0</ele><time>2026-04-06T10:00:16.18Z</time></trkpt><trkpt lat="51.4783087" lon="3.9637974"><ele>-1.0</ele><time>2026-04-06T10:00:18.181Z</time></trkpt><trkpt lat="51.478402" lon="3.9638536"><ele>-1.0</ele><time>2026-04-06T10:00:20.18Z</time></trkpt><trkpt lat="51.4785258" lon="3.9638925"><ele>-0.9999999999999999</ele><time>2026-04-06T10:00:22.18Z</time></trkpt><trkpt lat="51.4785887" lon="3.9639207"><ele>-1.0</ele><time>2026-04-06T10:00:23.18Z</time></trkpt><trkpt lat="51.4787127" lon="3.9639759"><ele>-0.9999999999999999</ele><time>2026-04-06T10:00:25.18Z</time></trkpt><trkpt lat="51.478777" lon="3.9640038"><ele>-1.0</ele><time>2026-04-06T10:00:26.18Z</time></trkpt><trkpt lat="51.4788485" lon="3.964032"><ele>-1.0</ele><time>2026-04-06T10:00:27.18Z</time></trkpt><trkpt lat="51.4789229" lon="3.9640642"><ele>-1.0</ele><time>2026-04-06T10:00:28.18Z</time></trkpt><trkpt lat="51.4789975" lon="3.9641038"><ele>-0.9999999999999999</ele><time>2026-04-06T10:00:29.18Z</time></trkpt><trkpt lat="51.4790684" lon="3.9641494"><ele>-1.0</ele><time>2026-04-06T10:00:30.18Z</time></trkpt><trkpt lat="51.4791368" lon="3.9642086"><ele>-0.9999999999999999</ele><time>2026-04-06T10:00:31.18Z</time></trkpt><trkpt lat="51.4792044" lon="3.9642739"><ele>-1.0</ele><time>2026-04-06T10:00:32.18Z</time></trkpt><trkpt lat="51.4792731" lon="3.9643444"><ele>-1.0</ele><time>2026-04-06T10:00:33.18Z</time></trkpt><trkpt lat="51.4793375" lon="3.9644317"><ele>-1.0</ele><time>2026-04-06T10:00:34.18Z</time></trkpt><trkpt lat="51.4794003" lon="3.9645197"><ele>-0.9999999999999999</ele><time>2026-04-06T10:00:35.18Z</time></trkpt><trkpt lat="51.4794599" lon="3.9646106"><ele>-1.0</ele><time>2026-04-06T10:00:36.18Z</time></trkpt><trkpt lat="51.4795155" lon="3.9646984"><ele>-0.9999999999999999</ele><time>2026-04-06T10:00:37.18Z</time></trkpt><trkpt lat="51.4795645" lon="3.9647807"><ele>-1.0</ele><time>2026-04-06T10:00:38.18Z</time></trkpt><trkpt lat="51.4796376" lon="3.9648912"><ele>-1.0</ele><time>2026-04-06T10:00:40.18Z</time></trkpt><trkpt lat="51.4796852" lon="3.9649647"><ele>-1.0</ele><time>2026-04-06T10:00:43.18Z</time></trkpt><trkpt lat="51.4797534" lon="3.9650485"><ele>-0.9999999999999999</ele><time>2026-04-06T10:00:46.18Z</time></trkpt><trkpt lat="51.4798381" lon="3.965103"><ele>-1.0</ele><time>2026-04-06T10:00:48.18Z</time></trkpt><trkpt lat="51.4799559" lon="3.9651395"><ele>-0.7142857142857142</ele><time>2026-04-06T10:00:50.18Z</time></trkpt><trkpt lat="51.4800254" lon="3.9651591"><ele>-0.4285714285714285</ele><time>2026-04-06T10:00:51.18Z</time></trkpt><trkpt lat="51.4800976" lon="3.9651751"><ele>-0.14285714285714285</ele><time>2026-04-06T10:00:52.18Z</time></trkpt><trkpt lat="51.4801697" lon="3.965193"><ele>0.14285714285714285</ele><time>2026-04-06T10:00:53.18Z</time></trkpt><trkpt lat="51.4802461" lon="3.9652052"><ele>0.4285714285714285</ele><time>2026-04-06T10:00:54.18Z</time></trkpt><trkpt lat="51.4803203" lon="3.9652196"><ele>0.7142857142857142</ele><time>2026-04-06T10:00:55.18Z</time></trkpt><trkpt lat="51.4803928" lon="3.9652398"><ele>1.0</ele><time>2026-04-06T10:00:56.18Z</time></trkpt><trkpt lat="51.4804699" lon="3.9652574"><ele>0.9999999999999999</ele><time>2026-04-06T10:00:57.18Z</time></trkpt><trkpt lat="51.4805417" lon="3.9652781"><ele>1.0</ele><time>2026-04-06T10:00:58.18Z</time></trkpt><trkpt lat="51.4806104" lon="3.9652957"><ele>1.0</ele><time>2026-04-06T10:00:59.18Z</time></trkpt><trkpt lat="51.4806764" lon="3.9653153"><ele>1.0</ele><time>2026-04-06T10:01:00.18Z</time></trkpt><trkpt lat="51.4807864" lon="3.9653431"><ele>0.9999999999999999</ele><time>2026-04-06T10:01:02.181Z</time></trkpt><trkpt lat="51.4808763" lon="3.9653645"><ele>1.0</ele><time>2026-04-06T10:01:04.18Z</time></trkpt><trkpt lat="51.4809396" lon="3.965329"><ele>1.0</ele><time>2026-04-06T10:01:06.18Z</time></trkpt><trkpt lat="51.4809682" lon="3.9651898"><ele>1.0</ele><time>2026-04-06T10:01:08.18Z</time></trkpt><trkpt lat="51.4809747" lon="3.9650171"><ele>1.0</ele><time>2026-04-06T10:01:10.18Z</time></trkpt><trkpt lat="51.4809802" lon="3.9649078"><ele>1.0</ele><time>2026-04-06T10:01:11.18Z</time></trkpt><trkpt lat="51.4809978" lon="3.9647166"><ele>1.0</ele><time>2026-04-06T10:01:13.18Z</time></trkpt><trkpt lat="51.481007" lon="3.9645244"><ele>0.9999999999999999</ele><time>2026-04-06T10:01:15.18Z</time></trkpt><trkpt lat="51.4810085" lon="3.9643349"><ele>1.0</ele><time>2026-04-06T10:01:17.181Z</time></trkpt><trkpt lat="51.481" lon="3.9642254"><ele>1.0</ele><time>2026-04-06T10:01:18.18Z</time></trkpt><trkpt lat="51.4809866" lon="3.9641059"><ele>1.0</ele><time>2026-04-06T10:01:19.18Z</time></trkpt><trkpt lat="51.4809695" lon="3.9639758"><ele>0.9999999999999999</ele><time>2026-04-06T10:01:20.18Z</time></trkpt><trkpt lat="51.4809455" lon="3.9638418"><ele>1.0</ele><time>2026-04-06T10:01:21.18Z</time></trkpt><trkpt lat="51.4809142" lon="3.9637122"><ele>0.9999999999999999</ele><time>2026-04-06T10:01:22.18Z</time></trkpt><trkpt lat="51.4808771" lon="3.9635975"><ele>1.0</ele><time>2026-04-06T10:01:23.18Z</time></trkpt><trkpt lat="51.4808437" lon="3.9634852"><ele>1.0</ele><time>2026-04-06T10:01:24.18Z</time></trkpt><trkpt lat="51.4808136" lon="3.9633767"><ele>1.0</ele><time>2026-04-06T10:01:25.18Z</time></trkpt><trkpt lat="51.4807863" lon="3.9632746"><ele>0.9999999999999999</ele><time>2026-04-06T10:01:26.18Z</time></trkpt><trkpt lat="51.4807609" lon="3.9631647"><ele>1.0</ele><time>2026-04-06T10:01:27.18Z</time></trkpt><trkpt lat="51.4807345" lon="3.9630457"><ele>1.1428571428571428</ele><time>2026-04-06T10:01:28.18Z</time></trkpt><trkpt lat="51.4807103" lon="3.9629304"><ele>1.2857142857142856</ele><time>2026-04-06T10:01:29.18Z</time></trkpt><trkpt lat="51.4806891" lon="3.9628139"><ele>1.4285714285714284</ele><time>2026-04-06T10:01:30.18Z</time></trkpt><trkpt lat="51.4806774" lon="3.9627027"><ele>1.5714285714285714</ele><time>2026-04-06T10:01:31.18Z</time></trkpt><trkpt lat="51.4806694" lon="3.9625854"><ele>1.714285714285714</ele><time>2026-04-06T10:01:32.18Z</time></trkpt><trkpt lat="51.4806616" lon="3.9624718"><ele>1.857142857142857</ele><time>2026-04-06T10:01:33.18Z</time></trkpt><trkpt lat="51.4806584" lon="3.9623647"><ele>2.0</ele><time>2026-04-06T10:01:34.18Z</time></trkpt><trkpt lat="51.4806496" lon="3.9622594"><ele>1.9999999999999998</ele><time>2026-04-06T10:01:35.18Z</time></trkpt><trkpt lat="51.480642" lon="3.9621584"><ele>2.0</ele><time>2026-04-06T10:01:36.18Z</time></trkpt><trkpt lat="51.4806252" lon="3.9619607"><ele>2.0</ele><time>2026-04-06T10:01:38.18Z</time></trkpt><trkpt lat="51.4806157" lon="3.9618587"><ele>2.0</ele><time>2026-04-06T10:01:39.18Z</time></trkpt><trkpt lat="51.4806069" lon="3.9617479"><ele>1.9999999999999998</ele><time>2026-04-06T10:01:40.18Z</time></trkpt><trkpt lat="51.4805958" lon="3.9616298"><ele>2.0</ele><time>2026-04-06T10:01:41.18Z</time></trkpt><trkpt lat="51.4805871" lon="3.9615112"><ele>1.8333333333333333</ele><time>2026-04-06T10:01:42.18Z</time></trkpt><trkpt lat="51.48058" lon="3.9613899"><ele>1.6666666666666665</ele><time>2026-04-06T10:01:43.18Z</time></trkpt><trkpt lat="51.4805732" lon="3.9612718"><ele>1.5</ele><time>2026-04-06T10:01:44.18Z</time></trkpt><trkpt lat="51.4805645" lon="3.9611476"><ele>1.3333333333333333</ele><time>2026-04-06T10:01:45.18Z</time></trkpt><trkpt lat="51.4805566" lon="3.961031"><ele>1.1666666666666665</ele><time>2026-04-06T10:01:46.18Z</time></trkpt><trkpt lat="51.4805515" lon="3.9609234"><ele>1.0</ele><time>2026-04-06T10:01:47.18Z</time></trkpt><trkpt lat="51.4805357" lon="3.960743"><ele>1.0</ele><time>2026-04-06T10:01:49.18Z</time></trkpt><trkpt lat="51.480522" lon="3.9606096"><ele>1.0</ele><time>2026-04-06T10:01:51.18Z</time></trkpt><trkpt lat="51.4804589" lon="3.9605043"><ele>1.0</ele><time>2026-04-06T10:01:54.18Z</time></trkpt><trkpt lat="51.4803635" lon="3.9605066"><ele>1.0</ele><time>2026-04-06T10:01:56.18Z</time></trkpt><trkpt lat="51.4802394" lon="3.9605813"><ele>1.0</ele><time>2026-04-06T10:01:58.18Z</time></trkpt><trkpt lat="51.480163" lon="3.9606226"><ele>0.9999999999999999</ele><time>2026-04-06T10:01:59.18Z</time></trkpt><trkpt lat="51.4800907" lon="3.9606555"><ele>1.0</ele><time>2026-04-06T10:02:00.18Z</time></trkpt><trkpt lat="51.4800065" lon="3.9606946"><ele>1.0</ele><time>2026-04-06T10:02:01.18Z</time></trkpt><trkpt lat="51.4799242" lon="3.9607418"><ele>1.0</ele><time>2026-04-06T10:02:02.18Z</time></trkpt><trkpt lat="51.4798401" lon="3.9607896"><ele>0.9999999999999999</ele><time>2026-04-06T10:02:03.18Z</time></trkpt><trkpt lat="51.479753" lon="3.9608331"><ele>1.0</ele><time>2026-04-06T10:02:04.18Z</time></trkpt><trkpt lat="51.4796736" lon="3.960874"><ele>0.9999999999999999</ele><time>2026-04-06T10:02:05.18Z</time></trkpt><trkpt lat="51.4796004" lon="3.9609208"><ele>1.0</ele><time>2026-04-06T10:02:06.18Z</time></trkpt><trkpt lat="51.4795391" lon="3.9609602"><ele>1.0</ele><time>2026-04-06T10:02:07.18Z</time></trkpt><trkpt lat="51.4794421" lon="3.9609379"><ele>1.0</ele><time>2026-04-06T10:02:09.18Z</time></trkpt><trkpt lat="51.4794008" lon="3.9608103"><ele>0.9999999999999999</ele><time>2026-04-06T10:02:11.18Z</time></trkpt><trkpt lat="51.4794276" lon="3.9606398"><ele>1.0</ele><time>2026-04-06T10:02:13.18Z</time></trkpt><trkpt lat="51.4794621" lon="3.9605431"><ele>0.9999999999999999</ele><time>2026-04-06T10:02:14.18Z</time></trkpt><trkpt lat="51.4795025" lon="3.9604142"><ele>1.0</ele><time>2026-04-06T10:02:15.18Z</time></trkpt><trkpt lat="51.479546" lon="3.9602861"><ele>1.0</ele><time>2026-04-06T10:02:16.18Z</time></trkpt><trkpt lat="51.4795864" lon="3.9601629"><ele>1.0</ele><time>2026-04-06T10:02:17.18Z</time></trkpt><trkpt lat="51.4796291" lon="3.9600448"><ele>0.9999999999999999</ele><time>2026-04-06T10:02:18.181Z</time></trkpt><trkpt lat="51.4796564" lon="3.9599422"><ele>1.0</ele><time>2026-04-06T10:02:19.18Z</time></trkpt><trkpt lat="51.4796839" lon="3.9598279"><ele>0.9999999999999999</ele><time>2026-04-06T10:02:21.18Z</time></trkpt><trkpt lat="51.4796628" lon="3.9599255"><ele>1.0</ele><time>2026-04-06T10:02:27.181Z</time></trkpt><trkpt lat="51.4796212" lon="3.9601219"><ele>1.0</ele><time>2026-04-06T10:02:39.18Z</time></trkpt><trkpt lat="51.4795694" lon="3.9602409"><ele>1.0</ele><time>2026-04-06T10:02:41.18Z</time></trkpt><trkpt lat="51.4795337" lon="3.9603266"><ele>0.9999999999999999</ele><time>2026-04-06T10:02:42.18Z</time></trkpt><trkpt lat="51.4794998" lon="3.9604208"><ele>1.0</ele><time>2026-04-06T10:02:43.18Z</time></trkpt><trkpt lat="51.4794373" lon="3.9606057"><ele>0.8</ele><time>2026-04-06T10:02:45.18Z</time></trkpt><trkpt lat="51.4794127" lon="3.9607014"><ele>0.6000000000000001</ele><time>2026-04-06T10:02:46.18Z</time></trkpt><trkpt lat="51.4793885" lon="3.9608725"><ele>0.4</ele><time>2026-04-06T10:02:48.18Z</time></trkpt><trkpt lat="51.4793484" lon="3.9610148"><ele>0.2</ele><time>2026-04-06T10:02:50.18Z</time></trkpt><trkpt lat="51.4792625" lon="3.961093"><ele>0.0</ele><time>2026-04-06T10:02:52.18Z</time></trkpt><trkpt lat="51.4791252" lon="3.9611653"><ele>0.0</ele><time>2026-04-06T10:02:54.18Z</time></trkpt><trkpt lat="51.4790563" lon="3.9612"><ele>0.0</ele><time>2026-04-06T10:02:55.18Z</time></trkpt><trkpt lat="51.4789871" lon="3.9612327"><ele>0.0</ele><time>2026-04-06T10:02:56.18Z</time></trkpt><trkpt lat="51.4789094" lon="3.9612688"><ele>0.0</ele><time>2026-04-06T10:02:57.18Z</time></trkpt><trkpt lat="51.4788333" lon="3.9613062"><ele>0.0</ele><time>2026-04-06T10:02:58.18Z</time></trkpt><trkpt lat="51.4787494" lon="3.9613483"><ele>0.0</ele><time>2026-04-06T10:02:59.18Z</time></trkpt><trkpt lat="51.4786577" lon="3.9613924"><ele>-0.16666666666666666</ele><time>2026-04-06T10:03:00.18Z</time></trkpt><trkpt lat="51.4785694" lon="3.9614317"><ele>-0.3333333333333333</ele><time>2026-04-06T10:03:01.18Z</time></trkpt><trkpt lat="51.4784806" lon="3.9614739"><ele>-0.5</ele><time>2026-04-06T10:03:02.18Z</time></trkpt><trkpt lat="51.478394" lon="3.9615153"><ele>-0.6666666666666666</ele><time>2026-04-06T10:03:03.18Z</time></trkpt><trkpt lat="51.4783089" lon="3.9615578"><ele>-0.8333333333333333</ele><time>2026-04-06T10:03:04.18Z</time></trkpt><trkpt lat="51.4782357" lon="3.9615905"><ele>-1.0</ele><time>2026-04-06T10:03:05.18Z</time></trkpt><trkpt lat="51.4781684" lon="3.9616262"><ele>-1.0</ele><time>2026-04-06T10:03:06.18Z</time></trkpt><trkpt lat="51.4781057" lon="3.9616588"><ele>-1.0</ele><time>2026-04-06T10:03:07.18Z</time></trkpt><trkpt lat="51.477994" lon="3.9617127"><ele>-1.0</ele><time>2026-04-06T10:03:09.18Z</time></trkpt><trkpt lat="51.4778934" lon="3.9617586"><ele>-1.0</ele><time>2026-04-06T10:03:11.18Z</time></trkpt><trkpt lat="51.4777954" lon="3.9618107"><ele>-1.0</ele><time>2026-04-06T10:03:13.18Z</time></trkpt><trkpt lat="51.4777073" lon="3.9618596"><ele>-1.0</ele><time>2026-04-06T10:03:15.18Z</time></trkpt><trkpt lat="51.4776184" lon="3.9618567"><ele>-1.0</ele><time>2026-04-06T10:03:18.18Z</time></trkpt><trkpt lat="51.4775829" lon="3.9617257"><ele>-1.0</ele><time>2026-04-06T10:03:21.18Z</time></trkpt><trkpt lat="51.4775505" lon="3.9615814"><ele>-1.0</ele><time>2026-04-06T10:03:23.18Z</time></trkpt><trkpt lat="51.477513" lon="3.96141"><ele>-1.0</ele><time>2026-04-06T10:03:25.18Z</time></trkpt><trkpt lat="51.4774959" lon="3.9612974"><ele>-1.1666666666666665</ele><time>2026-04-06T10:03:26.18Z</time></trkpt><trkpt lat="51.4774766" lon="3.9611769"><ele>-1.3333333333333333</ele><time>2026-04-06T10:03:27.18Z</time></trkpt><trkpt lat="51.4774574" lon="3.9610611"><ele>-1.5</ele><time>2026-04-06T10:03:28.18Z</time></trkpt><trkpt lat="51.477444" lon="3.9609579"><ele>-1.6666666666666665</ele><time>2026-04-06T10:03:29.18Z</time></trkpt><trkpt lat="51.4774365" lon="3.9608569"><ele>-1.8333333333333333</ele><time>2026-04-06T10:03:30.18Z</time></trkpt><trkpt lat="51.4774283" lon="3.9606621"><ele>-2.0</ele><time>2026-04-06T10:03:32.181Z</time></trkpt><trkpt lat="51.4774301" lon="3.9604566"><ele>-2.0</ele><time>2026-04-06T10:03:34.18Z</time></trkpt><trkpt lat="51.4774223" lon="3.9602742"><ele>-2.0</ele><time>2026-04-06T10:03:36.18Z</time></trkpt><trkpt lat="51.4774216" lon="3.9600673"><ele>-2.0</ele><time>2026-04-06T10:03:38.18Z</time></trkpt><trkpt lat="51.4774224" lon="3.9599635"><ele>-2.0</ele><time>2026-04-06T10:03:39.18Z</time></trkpt><trkpt lat="51.4774063" lon="3.9597629"><ele>-2.0</ele><time>2026-04-06T10:03:41.18Z</time></trkpt><trkpt lat="51.4774034" lon="3.9596607"><ele>-1.857142857142857</ele><time>2026-04-06T10:03:42.18Z</time></trkpt><trkpt lat="51.4773985" lon="3.9595573"><ele>-1.714285714285714</ele><time>2026-04-06T10:03:43.18Z</time></trkpt><trkpt lat="51.4773872" lon="3.9594472"><ele>-1.5714285714285714</ele><time>2026-04-06T10:03:44.18Z</time></trkpt><trkpt lat="51.4773729" lon="3.9593417"><ele>-1.4285714285714284</ele><time>2026-04-06T10:03:45.18Z</time></trkpt><trkpt lat="51.4773608" lon="3.9592379"><ele>-1.2857142857142856</ele><time>2026-04-06T10:03:46.18Z</time></trkpt><trkpt lat="51.4773453" lon="3.959132"><ele>-1.1428571428571428</ele><time>2026-04-06T10:03:47.18Z</time></trkpt><trkpt lat="51.4773334" lon="3.9590304"><ele>-1.0</ele><time>2026-04-06T10:03:48.18Z</time></trkpt><trkpt lat="51.4773078" lon="3.9588469"><ele>-1.0</ele><time>2026-04-06T10:03:50.181Z</time></trkpt><trkpt lat="51.4772852" lon="3.9586626"><ele>-1.0</ele><time>2026-04-06T10:03:52.18Z</time></trkpt><trkpt lat="51.4772602" lon="3.9585033"><ele>-1.0</ele><time>2026-04-06T10:03:54.18Z</time></trkpt><trkpt lat="51.4772645" lon="3.9583742"><ele>-1.0</ele><time>2026-04-06T10:03:58.18Z</time></trkpt><trkpt lat="51.4773271" lon="3.9582679"><ele>-1.0</ele><time>2026-04-06T10:04:00.18Z</time></trkpt><trkpt lat="51.4774178" lon="3.9581174"><ele>-0.9999999999999999</ele><time>2026-04-06T10:04:02.18Z</time></trkpt><trkpt lat="51.477466" lon="3.9580291"><ele>-1.0</ele><time>2026-04-06T10:04:03.18Z</time></trkpt><trkpt lat="51.4775134" lon="3.957926"><ele>-1.0</ele><time>2026-04-06T10:04:04.18Z</time></trkpt><trkpt lat="51.4775668" lon="3.9578078"><ele>-1.0</ele><time>2026-04-06T10:04:05.18Z</time></trkpt><trkpt lat="51.4776159" lon="3.957687"><ele>-0.9999999999999999</ele><time>2026-04-06T10:04:06.18Z</time></trkpt><trkpt lat="51.4776586" lon="3.9575758"><ele>-1.0</ele><time>2026-04-06T10:04:07.18Z</time></trkpt><trkpt lat="51.4776986" lon="3.9574639"><ele>-0.9999999999999999</ele><time>2026-04-06T10:04:08.18Z</time></trkpt><trkpt lat="51.4777405" lon="3.9573554"><ele>-1.0</ele><time>2026-04-06T10:04:09.18Z</time></trkpt><trkpt lat="51.4777801" lon="3.9572508"><ele>-1.0</ele><time>2026-04-06T10:04:10.18Z</time></trkpt><trkpt lat="51.477822" lon="3.9571551"><ele>-1.0</ele><time>2026-04-06T10:04:11.18Z</time></trkpt><trkpt lat="51.4778633" lon="3.9570696"><ele>-0.9999999999999999</ele><time>2026-04-06T10:04:12.18Z</time></trkpt><trkpt lat="51.4779296" lon="3.9569315"><ele>-1.0</ele><time>2026-04-06T10:04:14.18Z</time></trkpt><trkpt lat="51.4779745" lon="3.9568368"><ele>-1.1428571428571428</ele><time>2026-04-06T10:04:17.18Z</time></trkpt><trkpt lat="51.4780446" lon="3.9567427"><ele>-1.2857142857142856</ele><time>2026-04-06T10:04:43.18Z</time></trkpt><trkpt lat="51.4780979" lon="3.9566496"><ele>-1.4285714285714284</ele><time>2026-04-06T10:04:46.18Z</time></trkpt><trkpt lat="51.4781285" lon="3.9565608"><ele>-1.5714285714285714</ele><time>2026-04-06T10:04:48.18Z</time></trkpt><trkpt lat="51.4781622" lon="3.9564577"><ele>-1.714285714285714</ele><time>2026-04-06T10:04:50.18Z</time></trkpt><trkpt lat="51.4782053" lon="3.9563707"><ele>-1.857142857142857</ele><time>2026-04-06T10:04:52.18Z</time></trkpt><trkpt lat="51.4782505" lon="3.9562822"><ele>-2.0</ele><time>2026-04-06T10:04:54.18Z</time></trkpt><trkpt lat="51.4782948" lon="3.9561795"><ele>-1.9999999999999998</ele><time>2026-04-06T10:04:56.18Z</time></trkpt><trkpt lat="51.4783192" lon="3.9560762"><ele>-2.0</ele><time>2026-04-06T10:04:58.18Z</time></trkpt><trkpt lat="51.4783196" lon="3.9559659"><ele>-2.0</ele><time>2026-04-06T10:05:00.18Z</time></trkpt><trkpt lat="51.4782834" lon="3.9558563"><ele>-2.0</ele><time>2026-04-06T10:05:02.18Z</time></trkpt><trkpt lat="51.4782217" lon="3.9557691"><ele>-1.9999999999999998</ele><time>2026-04-06T10:05:04.18Z</time></trkpt><trkpt lat="51.4781275" lon="3.9556753"><ele>-2.0</ele><time>2026-04-06T10:05:06.18Z</time></trkpt><trkpt lat="51.4780258" lon="3.9555702"><ele>-2.2</ele><time>2026-04-06T10:05:08.18Z</time></trkpt><trkpt lat="51.4779218" lon="3.9554636"><ele>-2.4000000000000004</ele><time>2026-04-06T10:05:10.18Z</time></trkpt><trkpt lat="51.4778159" lon="3.9553684"><ele>-2.5999999999999996</ele><time>2026-04-06T10:05:12.18Z</time></trkpt><trkpt lat="51.4777193" lon="3.9552812"><ele>-2.8</ele><time>2026-04-06T10:05:14.18Z</time></trkpt><trkpt lat="51.4776385" lon="3.9552196"><ele>-3.0</ele><time>2026-04-06T10:05:16.18Z</time></trkpt><trkpt lat="51.4775739" lon="3.9551699"><ele>-3.0</ele><time>2026-04-06T10:05:18.18Z</time></trkpt><trkpt lat="51.4775126" lon="3.9551207"><ele>-3.0</ele><time>2026-04-06T10:05:21.18Z</time></trkpt><trkpt lat="51.4774517" lon="3.9550655"><ele>-3.0</ele><time>2026-04-06T10:05:45.18Z</time></trkpt><trkpt lat="51.477379" lon="3.9549958"><ele>-3.0</ele><time>2026-04-06T10:05:48.18Z</time></trkpt><trkpt lat="51.4773606" lon="3.9548987"><ele>-3.0</ele><time>2026-04-06T10:05:50.18Z</time></trkpt><trkpt lat="51.4773981" lon="3.954807"><ele>-3.0</ele><time>2026-04-06T10:05:53.18Z</time></trkpt><trkpt lat="51.477466" lon="3.9550031"><ele>-3.0</ele><time>2026-04-06T10:06:06.18Z</time></trkpt><trkpt lat="51.477549" lon="3.9550785"><ele>-3.0</ele><time>2026-04-06T10:06:08.18Z</time></trkpt><trkpt lat="51.4776306" lon="3.955157"><ele>-3.0</ele><time>2026-04-06T10:06:10.18Z</time></trkpt><trkpt lat="51.4776953" lon="3.9552214"><ele>-3.0</ele><time>2026-04-06T10:06:12.18Z</time></trkpt><trkpt lat="51.4777578" lon="3.9552765"><ele>-3.0</ele><time>2026-04-06T10:06:14.18Z</time></trkpt><trkpt lat="51.4778315" lon="3.9553542"><ele>-3.0</ele><time>2026-04-06T10:06:17.18Z</time></trkpt><trkpt lat="51.4779073" lon="3.9554351"><ele>-2.8333333333333335</ele><time>2026-04-06T10:06:20.18Z</time></trkpt><trkpt lat="51.4779699" lon="3.9555033"><ele>-2.6666666666666665</ele><time>2026-04-06T10:06:22.18Z</time></trkpt><trkpt lat="51.4780381" lon="3.9555883"><ele>-2.5</ele><time>2026-04-06T10:06:24.18Z</time></trkpt><trkpt lat="51.4781065" lon="3.9556641"><ele>-2.333333333333333</ele><time>2026-04-06T10:06:26.18Z</time></trkpt><trkpt lat="51.4781629" lon="3.9557316"><ele>-2.1666666666666665</ele><time>2026-04-06T10:06:28.18Z</time></trkpt><trkpt lat="51.4782191" lon="3.9557952"><ele>-2.0</ele><time>2026-04-06T10:06:30.18Z</time></trkpt><trkpt lat="51.4782748" lon="3.9558695"><ele>-1.9999999999999998</ele><time>2026-04-06T10:06:33.18Z</time></trkpt><trkpt lat="51.4783349" lon="3.9559161"><ele>-2.0</ele><time>2026-04-06T10:06:49.18Z</time></trkpt><trkpt lat="51.4782531" lon="3.9558338"><ele>-2.0</ele><time>2026-04-06T10:07:04.18Z</time></trkpt><trkpt lat="51.478165" lon="3.9557406"><ele>-2.0</ele><time>2026-04-06T10:07:06.18Z</time></trkpt><trkpt lat="51.4781079" lon="3.9556794"><ele>-1.9999999999999998</ele><time>2026-04-06T10:07:07.18Z</time></trkpt><trkpt lat="51.4780413" lon="3.9556097"><ele>-2.0</ele><time>2026-04-06T10:07:08.18Z</time></trkpt><trkpt lat="51.4779768" lon="3.9555447"><ele>-2.1666666666666665</ele><time>2026-04-06T10:07:09.18Z</time></trkpt><trkpt lat="51.4779205" lon="3.9554824"><ele>-2.333333333333333</ele><time>2026-04-06T10:07:10.18Z</time></trkpt><trkpt lat="51.4778667" lon="3.9554203"><ele>-2.5</ele><time>2026-04-06T10:07:11.18Z</time></trkpt><trkpt lat="51.4778089" lon="3.9553587"><ele>-2.6666666666666665</ele><time>2026-04-06T10:07:12.18Z</time></trkpt><trkpt lat="51.4777374" lon="3.9552902"><ele>-2.8333333333333335</ele><time>2026-04-06T10:07:13.18Z</time></trkpt><trkpt lat="51.4776623" lon="3.9552217"><ele>-3.0</ele><time>2026-04-06T10:07:14.18Z</time></trkpt><trkpt lat="51.4775905" lon="3.9551645"><ele>-3.0</ele><time>2026-04-06T10:07:15.18Z</time></trkpt><trkpt lat="51.4775281" lon="3.9551252"><ele>-3.0</ele><time>2026-04-06T10:07:16.18Z</time></trkpt><trkpt lat="51.4774263" lon="3.9550537"><ele>-3.0</ele><time>2026-04-06T10:07:18.18Z</time></trkpt><trkpt lat="51.4773764" lon="3.9549345"><ele>-3.0</ele><time>2026-04-06T10:07:20.18Z</time></trkpt><trkpt lat="51.4774097" lon="3.9547999"><ele>-3.0</ele><time>2026-04-06T10:07:22.18Z</time></trkpt><trkpt lat="51.4774586" lon="3.9546755"><ele>-3.0</ele><time>2026-04-06T10:07:24.18Z</time></trkpt><trkpt lat="51.4775007" lon="3.9545527"><ele>-2.8333333333333335</ele><time>2026-04-06T10:07:26.18Z</time></trkpt><trkpt lat="51.4775413" lon="3.9544508"><ele>-2.6666666666666665</ele><time>2026-04-06T10:07:28.18Z</time></trkpt><trkpt lat="51.4775788" lon="3.9543488"><ele>-2.5</ele><time>2026-04-06T10:07:31.18Z</time></trkpt><trkpt lat="51.4776216" lon="3.9542559"><ele>-2.333333333333333</ele><time>2026-04-06T10:07:46.18Z</time></trkpt><trkpt lat="51.4776621" lon="3.9541508"><ele>-2.1666666666666665</ele><time>2026-04-06T10:07:48.18Z</time></trkpt><trkpt lat="51.4777002" lon="3.9540323"><ele>-2.0</ele><time>2026-04-06T10:07:50.18Z</time></trkpt><trkpt lat="51.4777464" lon="3.9539046"><ele>-1.9999999999999998</ele><time>2026-04-06T10:07:52.18Z</time></trkpt><trkpt lat="51.4778159" lon="3.9538556"><ele>-2.0</ele><time>2026-04-06T10:07:54.18Z</time></trkpt><trkpt lat="51.4778837" lon="3.9539401"><ele>-2.0</ele><time>2026-04-06T10:07:56.18Z</time></trkpt><trkpt lat="51.4779503" lon="3.9540971"><ele>-2.0</ele><time>2026-04-06T10:07:58.18Z</time></trkpt><trkpt lat="51.4779977" lon="3.9541933"><ele>-1.9999999999999998</ele><time>2026-04-06T10:07:59.18Z</time></trkpt><trkpt lat="51.4780425" lon="3.954291"><ele>-2.0</ele><time>2026-04-06T10:08:00.18Z</time></trkpt><trkpt lat="51.4780961" lon="3.9543797"><ele>-2.1666666666666665</ele><time>2026-04-06T10:08:01.18Z</time></trkpt><trkpt lat="51.4781536" lon="3.9544761"><ele>-2.333333333333333</ele><time>2026-04-06T10:08:02.18Z</time></trkpt><trkpt lat="51.478213" lon="3.9545665"><ele>-2.5</ele><time>2026-04-06T10:08:03.18Z</time></trkpt><trkpt lat="51.4782734" lon="3.9546583"><ele>-2.6666666666666665</ele><time>2026-04-06T10:08:04.18Z</time></trkpt><trkpt lat="51.4783333" lon="3.9547428"><ele>-2.8333333333333335</ele><time>2026-04-06T10:08:05.18Z</time></trkpt><trkpt lat="51.4783916" lon="3.9548243"><ele>-3.0</ele><time>2026-04-06T10:08:06.18Z</time></trkpt><trkpt lat="51.478446" lon="3.9549034"><ele>-3.0</ele><time>2026-04-06T10:08:07.18Z</time></trkpt><trkpt lat="51.4784982" lon="3.9549697"><ele>-3.0</ele><time>2026-04-06T10:08:08.18Z</time></trkpt><trkpt lat="51.4785753" lon="3.9550773"><ele>-3.0</ele><time>2026-04-06T10:08:10.18Z</time></trkpt><trkpt lat="51.4786214" lon="3.9551928"><ele>-3.0</ele><time>2026-04-06T10:08:12.18Z</time></trkpt><trkpt lat="51.4786049" lon="3.9553427"><ele>-3.0</ele><time>2026-04-06T10:08:14.18Z</time></trkpt><trkpt lat="51.4785302" lon="3.9554821"><ele>-2.8333333333333335</ele><time>2026-04-06T10:08:16.18Z</time></trkpt><trkpt lat="51.478477" lon="3.9555881"><ele>-2.6666666666666665</ele><time>2026-04-06T10:08:17.18Z</time></trkpt><trkpt lat="51.4784294" lon="3.9556888"><ele>-2.5</ele><time>2026-04-06T10:08:18.18Z</time></trkpt><trkpt lat="51.4783841" lon="3.9557944"><ele>-2.333333333333333</ele><time>2026-04-06T10:08:19.18Z</time></trkpt><trkpt lat="51.4783407" lon="3.9559128"><ele>-2.1666666666666665</ele><time>2026-04-06T10:08:20.18Z</time></trkpt><trkpt lat="51.4783065" lon="3.9560345"><ele>-2.0</ele><time>2026-04-06T10:08:21.18Z</time></trkpt><trkpt lat="51.478271" lon="3.9561514"><ele>-1.9999999999999998</ele><time>2026-04-06T10:08:22.18Z</time></trkpt><trkpt lat="51.4782306" lon="3.9562636"><ele>-2.0</ele><time>2026-04-06T10:08:23.18Z</time></trkpt><trkpt lat="51.4781874" lon="3.9563751"><ele>-2.0</ele><time>2026-04-06T10:08:24.18Z</time></trkpt><trkpt lat="51.4781467" lon="3.956482"><ele>-2.0</ele><time>2026-04-06T10:08:25.18Z</time></trkpt><trkpt lat="51.4781061" lon="3.9565835"><ele>-1.9999999999999998</ele><time>2026-04-06T10:08:26.18Z</time></trkpt><trkpt lat="51.4780571" lon="3.9566819"><ele>-2.0</ele><time>2026-04-06T10:08:27.18Z</time></trkpt><trkpt lat="51.4780015" lon="3.9567815"><ele>-2.0</ele><time>2026-04-06T10:08:28.18Z</time></trkpt><trkpt lat="51.4779483" lon="3.9568781"><ele>-2.0</ele><time>2026-04-06T10:08:29.18Z</time></trkpt><trkpt lat="51.4778946" lon="3.9569839"><ele>-2.0</ele><time>2026-04-06T10:08:30.18Z</time></trkpt><trkpt lat="51.477838" lon="3.9571117"><ele>-2.0</ele><time>2026-04-06T10:08:31.18Z</time></trkpt><trkpt lat="51.4777839" lon="3.9572367"><ele>-2.0</ele><time>2026-04-06T10:08:32.18Z</time></trkpt><trkpt lat="51.4777314" lon="3.9573622"><ele>-1.8</ele><time>2026-04-06T10:08:33.18Z</time></trkpt><trkpt lat="51.4776794" lon="3.9574945"><ele>-1.6</ele><time>2026-04-06T10:08:34.18Z</time></trkpt><trkpt lat="51.4776322" lon="3.957624"><ele>-1.4000000000000001</ele><time>2026-04-06T10:08:35.18Z</time></trkpt><trkpt lat="51.4775863" lon="3.9577527"><ele>-1.2000000000000002</ele><time>2026-04-06T10:08:36.18Z</time></trkpt><trkpt lat="51.4775315" lon="3.9578758"><ele>-1.0</ele><time>2026-04-06T10:08:37.18Z</time></trkpt><trkpt lat="51.4774754" lon="3.9579932"><ele>-0.9999999999999999</ele><time>2026-04-06T10:08:38.18Z</time></trkpt><trkpt lat="51.4774217" lon="3.9580962"><ele>-1.0</ele><time>2026-04-06T10:08:39.18Z</time></trkpt><trkpt lat="51.4773704" lon="3.9581887"><ele>-1.0</ele><time>2026-04-06T10:08:40.18Z</time></trkpt><trkpt lat="51.4773196" lon="3.9582634"><ele>-1.0</ele><time>2026-04-06T10:08:41.18Z</time></trkpt><trkpt lat="51.4772576" lon="3.9583845"><ele>-0.9999999999999999</ele><time>2026-04-06T10:08:43.18Z</time></trkpt><trkpt lat="51.4772529" lon="3.9585418"><ele>-1.0</ele><time>2026-04-06T10:08:45.18Z</time></trkpt><trkpt lat="51.4772716" lon="3.9586425"><ele>-0.9999999999999999</ele><time>2026-04-06T10:08:46.18Z</time></trkpt><trkpt lat="51.4772935" lon="3.958757"><ele>-1.0</ele><time>2026-04-06T10:08:47.18Z</time></trkpt><trkpt lat="51.4773125" lon="3.9588612"><ele>-1.0</ele><time>2026-04-06T10:08:48.18Z</time></trkpt><trkpt lat="51.4773296" lon="3.9589812"><ele>-1.0</ele><time>2026-04-06T10:08:49.18Z</time></trkpt><trkpt lat="51.4773476" lon="3.9591002"><ele>-0.9999999999999999</ele><time>2026-04-06T10:08:50.18Z</time></trkpt><trkpt lat="51.4773642" lon="3.9592227"><ele>-1.0</ele><time>2026-04-06T10:08:51.18Z</time></trkpt><trkpt lat="51.4773767" lon="3.9593501"><ele>-0.9999999999999999</ele><time>2026-04-06T10:08:52.18Z</time></trkpt><trkpt lat="51.4773872" lon="3.9594822"><ele>-1.0</ele><time>2026-04-06T10:08:53.18Z</time></trkpt><trkpt lat="51.4773973" lon="3.9596159"><ele>-1.0</ele><time>2026-04-06T10:08:54.18Z</time></trkpt><trkpt lat="51.4774027" lon="3.9597468"><ele>-1.0</ele><time>2026-04-06T10:08:55.18Z</time></trkpt><trkpt lat="51.4774079" lon="3.9598744"><ele>-0.9999999999999999</ele><time>2026-04-06T10:08:56.18Z</time></trkpt><trkpt lat="51.477412" lon="3.9600038"><ele>-1.0</ele><time>2026-04-06T10:08:57.18Z</time></trkpt><trkpt lat="51.4774154" lon="3.9601217"><ele>-1.2000000000000002</ele><time>2026-04-06T10:08:58.18Z</time></trkpt><trkpt lat="51.4774131" lon="3.9602315"><ele>-1.4000000000000001</ele><time>2026-04-06T10:08:59.18Z</time></trkpt><trkpt lat="51.4774048" lon="3.960332"><ele>-1.6</ele><time>2026-04-06T10:09:00.18Z</time></trkpt><trkpt lat="51.4773468" lon="3.9605033"><ele>-1.8</ele><time>2026-04-06T10:09:02.18Z</time></trkpt><trkpt lat="51.4772644" lon="3.9606259"><ele>-2.0</ele><time>2026-04-06T10:09:04.18Z</time></trkpt><trkpt lat="51.477162" lon="3.9606868"><ele>-2.0</ele><time>2026-04-06T10:09:06.18Z</time></trkpt><trkpt lat="51.477051" lon="3.9607333"><ele>-2.0</ele><time>2026-04-06T10:09:08.18Z</time></trkpt><trkpt lat="51.4769346" lon="3.9607686"><ele>-2.0</ele><time>2026-04-06T10:09:10.18Z</time></trkpt><trkpt lat="51.4768153" lon="3.9608072"><ele>-2.0</ele><time>2026-04-06T10:09:12.18Z</time></trkpt><trkpt lat="51.476752" lon="3.9608313"><ele>-2.0</ele><time>2026-04-06T10:09:13.18Z</time></trkpt><trkpt lat="51.4766369" lon="3.9608661"><ele>-2.0</ele><time>2026-04-06T10:09:15.18Z</time></trkpt><trkpt lat="51.476519" lon="3.9608969"><ele>-2.0</ele><time>2026-04-06T10:09:17.18Z</time></trkpt><trkpt lat="51.4763945" lon="3.9609222"><ele>-2.0</ele><time>2026-04-06T10:09:19.18Z</time></trkpt><trkpt lat="51.4763265" lon="3.9609288"><ele>-2.0</ele><time>2026-04-06T10:09:20.18Z</time></trkpt><trkpt lat="51.4762577" lon="3.9609477"><ele>-2.0</ele><time>2026-04-06T10:09:21.18Z</time></trkpt><trkpt lat="51.4761917" lon="3.9609662"><ele>-1.9999999999999998</ele><time>2026-04-06T10:09:22.18Z</time></trkpt><trkpt lat="51.4761207" lon="3.9609875"><ele>-2.0</ele><time>2026-04-06T10:09:23.18Z</time></trkpt><trkpt lat="51.4760554" lon="3.9610053"><ele>-2.0</ele><time>2026-04-06T10:09:24.18Z</time></trkpt><trkpt lat="51.4759853" lon="3.9610198"><ele>-2.0</ele><time>2026-04-06T10:09:25.18Z</time></trkpt><trkpt lat="51.4759174" lon="3.961034"><ele>-1.9999999999999998</ele><time>2026-04-06T10:09:26.18Z</time></trkpt><trkpt lat="51.4758541" lon="3.961047"><ele>-2.0</ele><time>2026-04-06T10:09:27.18Z</time></trkpt><trkpt lat="51.4757328" lon="3.9610764"><ele>-2.0</ele><time>2026-04-06T10:09:29.18Z</time></trkpt><trkpt lat="51.4756109" lon="3.9610859"><ele>-2.0</ele><time>2026-04-06T10:09:31.18Z</time></trkpt><trkpt lat="51.4754929" lon="3.9611206"><ele>-2.0</ele><time>2026-04-06T10:09:33.18Z</time></trkpt><trkpt lat="51.4753841" lon="3.9611611"><ele>-2.0</ele><time>2026-04-06T10:09:35.18Z</time></trkpt><trkpt lat="51.475276" lon="3.9611855"><ele>-1.6</ele><time>2026-04-06T10:09:37.18Z</time></trkpt><trkpt lat="51.4751628" lon="3.9612278"><ele>-1.2000000000000002</ele><time>2026-04-06T10:09:39.18Z</time></trkpt><trkpt lat="51.4750505" lon="3.9612702"><ele>-0.8</ele><time>2026-04-06T10:09:41.18Z</time></trkpt><trkpt lat="51.4749465" lon="3.9613167"><ele>-0.4</ele><time>2026-04-06T10:09:43.18Z</time></trkpt><trkpt lat="51.4748531" lon="3.9613599"><ele>0.0</ele><time>2026-04-06T10:09:45.18Z</time></trkpt><trkpt lat="51.4747663" lon="3.9613902"><ele>0.0</ele><time>2026-04-06T10:09:47.18Z</time></trkpt><trkpt lat="51.4746636" lon="3.9614033"><ele>0.0</ele><time>2026-04-06T10:09:49.18Z</time></trkpt><trkpt lat="51.4745789" lon="3.961422"><ele>0.0</ele><time>2026-04-06T10:09:51.18Z</time></trkpt><trkpt lat="51.4744957" lon="3.9614752"><ele>0.0</ele><time>2026-04-06T10:09:54.18Z</time></trkpt><trkpt lat="51.4744983" lon="3.9615896"><ele>0.0</ele><time>2026-04-06T10:09:56.18Z</time></trkpt><trkpt lat="51.4745201" lon="3.9617406"><ele>0.0</ele><time>2026-04-06T10:09:58.18Z</time></trkpt><trkpt lat="51.4745333" lon="3.9618396"><ele>0.16666666666666666</ele><time>2026-04-06T10:09:59.18Z</time></trkpt><trkpt lat="51.4745586" lon="3.9620353"><ele>0.3333333333333333</ele><time>2026-04-06T10:10:01.18Z</time></trkpt><trkpt lat="51.474569" lon="3.9621399"><ele>0.5</ele><time>2026-04-06T10:10:02.18Z</time></trkpt><trkpt lat="51.474577" lon="3.9622466"><ele>0.6666666666666666</ele><time>2026-04-06T10:10:03.18Z</time></trkpt><trkpt lat="51.4745831" lon="3.9623473"><ele>0.8333333333333333</ele><time>2026-04-06T10:10:04.18Z</time></trkpt><trkpt lat="51.4745947" lon="3.9625407"><ele>1.0</ele><time>2026-04-06T10:10:06.18Z</time></trkpt><trkpt lat="51.4746019" lon="3.9626488"><ele>1.0</ele><time>2026-04-06T10:10:07.18Z</time></trkpt><trkpt lat="51.4746142" lon="3.9628314"><ele>1.0</ele><time>2026-04-06T10:10:09.18Z</time></trkpt><trkpt lat="51.4746216" lon="3.962972"><ele>1.0</ele><time>2026-04-06T10:10:11.18Z</time></trkpt><trkpt lat="51.4746387" lon="3.9630713"><ele>1.0</ele><time>2026-04-06T10:10:13.18Z</time></trkpt><trkpt lat="51.4747217" lon="3.9631222"><ele>1.0</ele><time>2026-04-06T10:10:16.18Z</time></trkpt><trkpt lat="51.4748386" lon="3.9631129"><ele>1.0</ele><time>2026-04-06T10:10:19.18Z</time></trkpt><trkpt lat="51.4749518" lon="3.9630956"><ele>1.0</ele><time>2026-04-06T10:10:21.18Z</time></trkpt><trkpt lat="51.4750562" lon="3.9630744"><ele>1.0</ele><time>2026-04-06T10:10:23.18Z</time></trkpt><trkpt lat="51.4751295" lon="3.96306"><ele>1.0</ele><time>2026-04-06T10:10:25.18Z</time></trkpt><trkpt lat="51.475204" lon="3.9630496"><ele>1.0</ele><time>2026-04-06T10:10:28.18Z</time></trkpt><trkpt lat="51.4752857" lon="3.9630889"><ele>1.0</ele><time>2026-04-06T10:10:54.18Z</time></trkpt><trkpt lat="51.4753669" lon="3.9631143"><ele>1.0</ele><time>2026-04-06T10:10:57.18Z</time></trkpt><trkpt lat="51.4755643" lon="3.9631156"><ele>1.0</ele><time>2026-04-06T10:11:02.18Z</time></trkpt><trkpt lat="51.4756654" lon="3.9631094"><ele>1.0</ele><time>2026-04-06T10:11:04.18Z</time></trkpt><trkpt lat="51.4757825" lon="3.963104"><ele>0.8333333333333333</ele><time>2026-04-06T10:11:06.18Z</time></trkpt><trkpt lat="51.4759065" lon="3.9630642"><ele>0.6666666666666666</ele><time>2026-04-06T10:11:08.18Z</time></trkpt><trkpt lat="51.4760205" lon="3.9630216"><ele>0.5</ele><time>2026-04-06T10:11:10.18Z</time></trkpt><trkpt lat="51.4760849" lon="3.9629996"><ele>0.3333333333333333</ele><time>2026-04-06T10:11:11.18Z</time></trkpt><trkpt lat="51.4761494" lon="3.9629751"><ele>0.16666666666666666</ele><time>2026-04-06T10:11:12.18Z</time></trkpt><trkpt lat="51.4762134" lon="3.9629492"><ele>0.0</ele><time>2026-04-06T10:11:13.18Z</time></trkpt><trkpt lat="51.4763282" lon="3.9628953"><ele>0.0</ele><time>2026-04-06T10:11:15.18Z</time></trkpt><trkpt lat="51.4764339" lon="3.9627947"><ele>0.0</ele><time>2026-04-06T10:11:17.18Z</time></trkpt><trkpt lat="51.4765272" lon="3.9626598"><ele>0.0</ele><time>2026-04-06T10:11:19.18Z</time></trkpt><trkpt lat="51.4766217" lon="3.9625279"><ele>0.0</ele><time>2026-04-06T10:11:21.18Z</time></trkpt><trkpt lat="51.476675" lon="3.9624664"><ele>0.0</ele><time>2026-04-06T10:11:22.18Z</time></trkpt><trkpt lat="51.4767308" lon="3.962416"><ele>-0.2</ele><time>2026-04-06T10:11:23.18Z</time></trkpt><trkpt lat="51.4768393" lon="3.9623368"><ele>-0.4</ele><time>2026-04-06T10:11:25.18Z</time></trkpt><trkpt lat="51.4769428" lon="3.9622616"><ele>-0.6000000000000001</ele><time>2026-04-06T10:11:27.18Z</time></trkpt><trkpt lat="51.4770435" lon="3.9622001"><ele>-0.8</ele><time>2026-04-06T10:11:29.18Z</time></trkpt><trkpt lat="51.4771302" lon="3.9621691"><ele>-1.0</ele><time>2026-04-06T10:11:31.18Z</time></trkpt><trkpt lat="51.4772243" lon="3.9622017"><ele>-0.9999999999999999</ele><time>2026-04-06T10:11:34.18Z</time></trkpt><trkpt lat="51.4773086" lon="3.9621379"><ele>-1.0</ele><time>2026-04-06T10:11:36.18Z</time></trkpt><trkpt lat="51.4774144" lon="3.9620635"><ele>-1.0</ele><time>2026-04-06T10:11:38.18Z</time></trkpt><trkpt lat="51.4774774" lon="3.9620295"><ele>-1.0</ele><time>2026-04-06T10:11:39.18Z</time></trkpt><trkpt lat="51.4775432" lon="3.9619968"><ele>-0.9999999999999999</ele><time>2026-04-06T10:11:40.18Z</time></trkpt><trkpt lat="51.4776118" lon="3.9619655"><ele>-1.0</ele><time>2026-04-06T10:11:41.18Z</time></trkpt><trkpt lat="51.4776875" lon="3.9619333"><ele>-0.9999999999999999</ele><time>2026-04-06T10:11:42.18Z</time></trkpt><trkpt lat="51.4777577" lon="3.9618979"><ele>-1.0</ele><time>2026-04-06T10:11:43.18Z</time></trkpt><trkpt lat="51.4778329" lon="3.9618589"><ele>-1.0</ele><time>2026-04-06T10:11:44.18Z</time></trkpt><trkpt lat="51.4779147" lon="3.9618207"><ele>-1.0</ele><time>2026-04-06T10:11:45.18Z</time></trkpt><trkpt lat="51.4779995" lon="3.9617773"><ele>-0.9999999999999999</ele><time>2026-04-06T10:11:46.18Z</time></trkpt><trkpt lat="51.47809" lon="3.9617334"><ele>-1.0</ele><time>2026-04-06T10:11:47.18Z</time></trkpt><trkpt lat="51.478185" lon="3.9616878"><ele>-1.0</ele><time>2026-04-06T10:11:48.18Z</time></trkpt><trkpt lat="51.4782814" lon="3.9616416"><ele>-1.0</ele><time>2026-04-06T10:11:49.18Z</time></trkpt><trkpt lat="51.478376" lon="3.9615972"><ele>-1.0</ele><time>2026-04-06T10:11:50.18Z</time></trkpt><trkpt lat="51.4784665" lon="3.9615526"><ele>-1.0</ele><time>2026-04-06T10:11:51.18Z</time></trkpt><trkpt lat="51.4785572" lon="3.9615062"><ele>-1.0</ele><time>2026-04-06T10:11:52.18Z</time></trkpt><trkpt lat="51.4786422" lon="3.9614664"><ele>-0.9999999999999999</ele><time>2026-04-06T10:11:53.18Z</time></trkpt><trkpt lat="51.4787243" lon="3.961419"><ele>-1.0</ele><time>2026-04-06T10:11:54.18Z</time></trkpt><trkpt lat="51.4788056" lon="3.9613755"><ele>-1.0</ele><time>2026-04-06T10:11:55.18Z</time></trkpt><trkpt lat="51.4788796" lon="3.9613348"><ele>-1.0</ele><time>2026-04-06T10:11:56.18Z</time></trkpt><trkpt lat="51.4789458" lon="3.9612983"><ele>-0.9999999999999999</ele><time>2026-04-06T10:11:57.18Z</time></trkpt><trkpt lat="51.4790416" lon="3.9612594"><ele>-1.0</ele><time>2026-04-06T10:11:59.18Z</time></trkpt><trkpt lat="51.479098" lon="3.9613272"><ele>-0.8333333333333333</ele><time>2026-04-06T10:12:01.18Z</time></trkpt><trkpt lat="51.4790798" lon="3.9614646"><ele>-0.6666666666666666</ele><time>2026-04-06T10:12:03.18Z</time></trkpt><trkpt lat="51.4790141" lon="3.9616421"><ele>-0.5</ele><time>2026-04-06T10:12:05.18Z</time></trkpt><trkpt lat="51.4789723" lon="3.9617417"><ele>-0.3333333333333333</ele><time>2026-04-06T10:12:06.18Z</time></trkpt><trkpt lat="51.478934" lon="3.9618362"><ele>-0.16666666666666666</ele><time>2026-04-06T10:12:07.18Z</time></trkpt><trkpt lat="51.4788916" lon="3.9619454"><ele>0.0</ele><time>2026-04-06T10:12:08.18Z</time></trkpt><trkpt lat="51.4788545" lon="3.9620586"><ele>0.0</ele><time>2026-04-06T10:12:09.18Z</time></trkpt><trkpt lat="51.4788113" lon="3.9621799"><ele>0.0</ele><time>2026-04-06T10:12:10.18Z</time></trkpt><trkpt lat="51.4787665" lon="3.9623012"><ele>0.0</ele><time>2026-04-06T10:12:11.18Z</time></trkpt><trkpt lat="51.4787252" lon="3.962418"><ele>0.0</ele><time>2026-04-06T10:12:12.18Z</time></trkpt><trkpt lat="51.4786825" lon="3.9625343"><ele>0.0</ele><time>2026-04-06T10:12:13.181Z</time></trkpt><trkpt lat="51.4786429" lon="3.9626509"><ele>0.0</ele><time>2026-04-06T10:12:14.18Z</time></trkpt><trkpt lat="51.4786018" lon="3.9627724"><ele>-0.16666666666666666</ele><time>2026-04-06T10:12:15.18Z</time></trkpt><trkpt lat="51.4785608" lon="3.9628946"><ele>-0.3333333333333333</ele><time>2026-04-06T10:12:16.18Z</time></trkpt><trkpt lat="51.4785217" lon="3.9630186"><ele>-0.5</ele><time>2026-04-06T10:12:17.18Z</time></trkpt><trkpt lat="51.4784837" lon="3.9631352"><ele>-0.6666666666666666</ele><time>2026-04-06T10:12:18.18Z</time></trkpt><trkpt lat="51.4784423" lon="3.963246"><ele>-0.8333333333333333</ele><time>2026-04-06T10:12:19.18Z</time></trkpt><trkpt lat="51.4784" lon="3.9633508"><ele>-1.0</ele><time>2026-04-06T10:12:20.18Z</time></trkpt><trkpt lat="51.4783595" lon="3.9634475"><ele>-0.9999999999999999</ele><time>2026-04-06T10:12:21.18Z</time></trkpt><trkpt lat="51.4783233" lon="3.9635358"><ele>-1.0</ele><time>2026-04-06T10:12:22.18Z</time></trkpt><trkpt lat="51.4782831" lon="3.9636899"><ele>-1.0</ele><time>2026-04-06T10:12:24.18Z</time></trkpt><trkpt lat="51.4783184" lon="3.963796"><ele>-1.0</ele><time>2026-04-06T10:12:26.18Z</time></trkpt><trkpt lat="51.4784114" lon="3.9638624"><ele>-0.9999999999999999</ele><time>2026-04-06T10:12:28.18Z</time></trkpt><trkpt lat="51.478476" lon="3.9638886"><ele>-1.0</ele><time>2026-04-06T10:12:29.18Z</time></trkpt><trkpt lat="51.4785562" lon="3.9639169"><ele>-1.0</ele><time>2026-04-06T10:12:30.18Z</time></trkpt><trkpt lat="51.4786417" lon="3.9639448"><ele>-1.0</ele><time>2026-04-06T10:12:31.18Z</time></trkpt><trkpt lat="51.4787284" lon="3.9639796"><ele>-1.0</ele><time>2026-04-06T10:12:32.18Z</time></trkpt><trkpt lat="51.4788179" lon="3.9640165"><ele>-1.0</ele><time>2026-04-06T10:12:33.18Z</time></trkpt><trkpt lat="51.4789055" lon="3.9640606"><ele>-1.0</ele><time>2026-04-06T10:12:34.18Z</time></trkpt><trkpt lat="51.4789934" lon="3.964108"><ele>-1.0</ele><time>2026-04-06T10:12:35.18Z</time></trkpt><trkpt lat="51.4790831" lon="3.9641635"><ele>-1.0</ele><time>2026-04-06T10:12:36.181Z</time></trkpt><trkpt lat="51.4791702" lon="3.9642343"><ele>-1.0</ele><time>2026-04-06T10:12:37.18Z</time></trkpt><trkpt lat="51.4792525" lon="3.9643133"><ele>-1.0</ele><time>2026-04-06T10:12:38.18Z</time></trkpt><trkpt lat="51.4793312" lon="3.9644083"><ele>-1.0</ele><time>2026-04-06T10:12:39.18Z</time></trkpt><trkpt lat="51.4794044" lon="3.9645116"><ele>-0.9999999999999999</ele><time>2026-04-06T10:12:40.18Z</time></trkpt><trkpt lat="51.4794703" lon="3.9646161"><ele>-1.0</ele><time>2026-04-06T10:12:41.18Z</time></trkpt><trkpt lat="51.4795344" lon="3.9647131"><ele>-1.0</ele><time>2026-04-06T10:12:42.18Z</time></trkpt><trkpt lat="51.4795908" lon="3.9648006"><ele>-1.0</ele><time>2026-04-06T10:12:43.18Z</time></trkpt><trkpt lat="51.4796361" lon="3.9648754"><ele>-0.9999999999999999</ele><time>2026-04-06T10:12:44.18Z</time></trkpt><trkpt lat="51.4797042" lon="3.9649896"><ele>-1.0</ele><time>2026-04-06T10:12:46.18Z</time></trkpt><trkpt lat="51.479796" lon="3.9650772"><ele>-0.6666666666666666</ele><time>2026-04-06T10:12:48.18Z</time></trkpt><trkpt lat="51.4798592" lon="3.965105"><ele>-0.3333333333333333</ele><time>2026-04-06T10:12:49.18Z</time></trkpt><trkpt lat="51.4799319" lon="3.9651231"><ele>0.0</ele><time>2026-04-06T10:12:50.18Z</time></trkpt><trkpt lat="51.4800145" lon="3.9651388"><ele>0.3333333333333333</ele><time>2026-04-06T10:12:51.18Z</time></trkpt><trkpt lat="51.4801034" lon="3.9651536"><ele>0.6666666666666666</ele><time>2026-04-06T10:12:52.18Z</time></trkpt><trkpt lat="51.4801882" lon="3.9651776"><ele>1.0</ele><time>2026-04-06T10:12:53.18Z</time></trkpt><trkpt lat="51.4802889" lon="3.9651973"><ele>1.0</ele><time>2026-04-06T10:12:54.18Z</time></trkpt><trkpt lat="51.4803814" lon="3.965227"><ele>1.0</ele><time>2026-04-06T10:12:55.18Z</time></trkpt><trkpt lat="51.480484" lon="3.9652592"><ele>1.0</ele><time>2026-04-06T10:12:56.18Z</time></trkpt><trkpt lat="51.4805834" lon="3.9652796"><ele>1.0</ele><time>2026-04-06T10:12:57.18Z</time></trkpt><trkpt lat="51.480675" lon="3.9653029"><ele>1.0</ele><time>2026-04-06T10:12:58.18Z</time></trkpt><trkpt lat="51.4807595" lon="3.9653263"><ele>1.0</ele><time>2026-04-06T10:12:59.18Z</time></trkpt><trkpt lat="51.4808303" lon="3.965345"><ele>1.0</ele><time>2026-04-06T10:13:00.18Z</time></trkpt><trkpt lat="51.4809316" lon="3.9653753"><ele>1.0</ele><time>2026-04-06T10:13:02.18Z</time></trkpt><trkpt lat="51.4809949" lon="3.9653914"><ele>1.0</ele><time>2026-04-06T10:13:03.18Z</time></trkpt><trkpt lat="51.4811174" lon="3.9654293"><ele>1.0</ele><time>2026-04-06T10:13:05.18Z</time></trkpt><trkpt lat="51.4812345" lon="3.9654583"><ele>1.1666666666666665</ele><time>2026-04-06T10:13:07.18Z</time></trkpt><trkpt lat="51.4813421" lon="3.9654857"><ele>1.3333333333333333</ele><time>2026-04-06T10:13:09.18Z</time></trkpt><trkpt lat="51.4814184" lon="3.9655029"><ele>1.5</ele><time>2026-04-06T10:13:10.18Z</time></trkpt><trkpt lat="51.4814941" lon="3.9655231"><ele>1.6666666666666665</ele><time>2026-04-06T10:13:11.18Z</time></trkpt><trkpt lat="51.481568" lon="3.9655432"><ele>1.8333333333333333</ele><time>2026-04-06T10:13:12.18Z</time></trkpt><trkpt lat="51.4816504" lon="3.965562"><ele>2.0</ele><time>2026-04-06T10:13:13.18Z</time></trkpt><trkpt lat="51.4817336" lon="3.9655822"><ele>1.9999999999999998</ele><time>2026-04-06T10:13:14.18Z</time></trkpt><trkpt lat="51.4818206" lon="3.9655964"><ele>2.0</ele><time>2026-04-06T10:13:15.18Z</time></trkpt><trkpt lat="51.481906" lon="3.9656136"><ele>2.0</ele><time>2026-04-06T10:13:16.18Z</time></trkpt><trkpt lat="51.4819918" lon="3.9656291"><ele>2.0</ele><time>2026-04-06T10:13:17.181Z</time></trkpt><trkpt lat="51.4820799" lon="3.9656548"><ele>1.9999999999999998</ele><time>2026-04-06T10:13:18.18Z</time></trkpt><trkpt lat="51.4821671" lon="3.9656784"><ele>2.0</ele><time>2026-04-06T10:13:19.18Z</time></trkpt><trkpt lat="51.482249" lon="3.9657019"><ele>1.8333333333333333</ele><time>2026-04-06T10:13:20.18Z</time></trkpt><trkpt lat="51.4823217" lon="3.9657211"><ele>1.6666666666666665</ele><time>2026-04-06T10:13:21.18Z</time></trkpt><trkpt lat="51.4823912" lon="3.9657402"><ele>1.5</ele><time>2026-04-06T10:13:22.18Z</time></trkpt><trkpt lat="51.4825086" lon="3.9657663"><ele>1.3333333333333333</ele><time>2026-04-06T10:13:24.18Z</time></trkpt><trkpt lat="51.4825873" lon="3.9658246"><ele>1.1666666666666665</ele><time>2026-04-06T10:13:26.18Z</time></trkpt><trkpt lat="51.4826156" lon="3.9659586"><ele>1.0</ele><time>2026-04-06T10:13:28.18Z</time></trkpt><trkpt lat="51.4826548" lon="3.966074"><ele>0.6666666666666666</ele><time>2026-04-06T10:13:30.18Z</time></trkpt><trkpt lat="51.4827404" lon="3.9661124"><ele>0.3333333333333333</ele><time>2026-04-06T10:13:32.18Z</time></trkpt><trkpt lat="51.4828035" lon="3.9662194"><ele>0.0</ele><time>2026-04-06T10:13:34.18Z</time></trkpt><trkpt lat="51.4827838" lon="3.9663593"><ele>-0.3333333333333333</ele><time>2026-04-06T10:13:36.18Z</time></trkpt><trkpt lat="51.4827534" lon="3.9664689"><ele>-0.6666666666666666</ele><time>2026-04-06T10:13:38.18Z</time></trkpt><trkpt lat="51.4828311" lon="3.966538"><ele>-1.0</ele><time>2026-04-06T10:13:41.18Z</time></trkpt><trkpt lat="51.482967" lon="3.966429"><ele>-0.9999999999999999</ele><time>2026-04-06T10:27:06.179Z</time></trkpt><trkpt lat="51.4829789" lon="3.9663257"><ele>-1.0</ele><time>2026-04-06T10:27:08.179Z</time></trkpt><trkpt lat="51.4829967" lon="3.9662081"><ele>-1.0</ele><time>2026-04-06T10:27:10.179Z</time></trkpt><trkpt lat="51.4830385" lon="3.9661083"><ele>-1.0</ele><time>2026-04-06T10:27:12.179Z</time></trkpt><trkpt lat="51.4831222" lon="3.9660774"><ele>-0.9999999999999999</ele><time>2026-04-06T10:27:14.179Z</time></trkpt><trkpt lat="51.4832216" lon="3.9660753"><ele>-1.0</ele><time>2026-04-06T10:27:16.179Z</time></trkpt><trkpt lat="51.4833213" lon="3.9660821"><ele>-0.9999999999999999</ele><time>2026-04-06T10:27:18.179Z</time></trkpt><trkpt lat="51.4834224" lon="3.9660874"><ele>-1.0</ele><time>2026-04-06T10:27:20.179Z</time></trkpt><trkpt lat="51.4835072" lon="3.9660848"><ele>-1.0</ele><time>2026-04-06T10:27:22.179Z</time></trkpt><trkpt lat="51.4835606" lon="3.9660235"><ele>-1.0</ele><time>2026-04-06T10:27:24.179Z</time></trkpt><trkpt lat="51.4835827" lon="3.9658894"><ele>-0.9999999999999999</ele><time>2026-04-06T10:27:27.179Z</time></trkpt><trkpt lat="51.4835776" lon="3.965767"><ele>-1.0</ele><time>2026-04-06T10:27:29.179Z</time></trkpt><trkpt lat="51.483575" lon="3.9655988"><ele>-0.8</ele><time>2026-04-06T10:27:31.179Z</time></trkpt><trkpt lat="51.4835764" lon="3.9653969"><ele>-0.6000000000000001</ele><time>2026-04-06T10:27:33.179Z</time></trkpt><trkpt lat="51.4835764" lon="3.9652922"><ele>-0.4</ele><time>2026-04-06T10:27:34.179Z</time></trkpt><trkpt lat="51.4835726" lon="3.9650982"><ele>-0.2</ele><time>2026-04-06T10:27:36.179Z</time></trkpt><trkpt lat="51.4835737" lon="3.964942"><ele>0.0</ele><time>2026-04-06T10:27:38.179Z</time></trkpt><trkpt lat="51.4835792" lon="3.9648111"><ele>0.0</ele><time>2026-04-06T10:27:40.179Z</time></trkpt><trkpt lat="51.4835812" lon="3.9646778"><ele>0.0</ele><time>2026-04-06T10:27:42.179Z</time></trkpt><trkpt lat="51.4835947" lon="3.9645264"><ele>0.0</ele><time>2026-04-06T10:27:44.179Z</time></trkpt><trkpt lat="51.4836079" lon="3.9643579"><ele>0.0</ele><time>2026-04-06T10:27:46.179Z</time></trkpt><trkpt lat="51.4836142" lon="3.9641717"><ele>0.0</ele><time>2026-04-06T10:27:48.179Z</time></trkpt><trkpt lat="51.4836172" lon="3.9639986"><ele>0.16666666666666666</ele><time>2026-04-06T10:27:50.179Z</time></trkpt><trkpt lat="51.4836252" lon="3.9638324"><ele>0.3333333333333333</ele><time>2026-04-06T10:27:52.179Z</time></trkpt><trkpt lat="51.4836277" lon="3.96372"><ele>0.5</ele><time>2026-04-06T10:27:54.179Z</time></trkpt><trkpt lat="51.4836344" lon="3.9635774"><ele>0.6666666666666666</ele><time>2026-04-06T10:27:58.179Z</time></trkpt><trkpt lat="51.4836352" lon="3.9634266"><ele>0.8333333333333333</ele><time>2026-04-06T10:28:00.179Z</time></trkpt><trkpt lat="51.4836419" lon="3.9632792"><ele>1.0</ele><time>2026-04-06T10:28:02.179Z</time></trkpt><trkpt lat="51.4836643" lon="3.9631678"><ele>0.9999999999999999</ele><time>2026-04-06T10:28:04.179Z</time></trkpt><trkpt lat="51.4837303" lon="3.9630844"><ele>1.0</ele><time>2026-04-06T10:28:06.179Z</time></trkpt><trkpt lat="51.483828" lon="3.9630798"><ele>1.0</ele><time>2026-04-06T10:28:08.179Z</time></trkpt><trkpt lat="51.483947" lon="3.9630821"><ele>1.0</ele><time>2026-04-06T10:28:10.179Z</time></trkpt><trkpt lat="51.4840128" lon="3.9630739"><ele>0.9999999999999999</ele><time>2026-04-06T10:28:11.179Z</time></trkpt><trkpt lat="51.4840805" lon="3.9630673"><ele>1.0</ele><time>2026-04-06T10:28:12.179Z</time></trkpt><trkpt lat="51.4841459" lon="3.9630636"><ele>0.8</ele><time>2026-04-06T10:28:13.179Z</time></trkpt><trkpt lat="51.4842122" lon="3.9630605"><ele>0.6000000000000001</ele><time>2026-04-06T10:28:14.179Z</time></trkpt><trkpt lat="51.4843321" lon="3.9630725"><ele>0.4</ele><time>2026-04-06T10:28:16.179Z</time></trkpt><trkpt lat="51.4844422" lon="3.9630917"><ele>0.2</ele><time>2026-04-06T10:28:18.179Z</time></trkpt><trkpt lat="51.4845544" lon="3.9631108"><ele>0.0</ele><time>2026-04-06T10:28:20.179Z</time></trkpt><trkpt lat="51.4846741" lon="3.9631288"><ele>0.0</ele><time>2026-04-06T10:28:22.179Z</time></trkpt><trkpt lat="51.48479" lon="3.9631442"><ele>0.0</ele><time>2026-04-06T10:28:24.179Z</time></trkpt><trkpt lat="51.4849026" lon="3.96316"><ele>0.0</ele><time>2026-04-06T10:28:26.179Z</time></trkpt><trkpt lat="51.4850233" lon="3.963189"><ele>0.0</ele><time>2026-04-06T10:28:28.179Z</time></trkpt><trkpt lat="51.4851429" lon="3.9632338"><ele>0.0</ele><time>2026-04-06T10:28:30.179Z</time></trkpt><trkpt lat="51.4852571" lon="3.9632511"><ele>0.0</ele><time>2026-04-06T10:28:32.179Z</time></trkpt><trkpt lat="51.4853847" lon="3.9629681"><ele>0.0</ele><time>2026-04-06T10:28:45.179Z</time></trkpt><trkpt lat="51.4854027" lon="3.9627869"><ele>0.0</ele><time>2026-04-06T10:28:47.179Z</time></trkpt><trkpt lat="51.4854095" lon="3.9625989"><ele>0.0</ele><time>2026-04-06T10:28:49.179Z</time></trkpt><trkpt lat="51.4853834" lon="3.9624327"><ele>0.0</ele><time>2026-04-06T10:28:51.18Z</time></trkpt><trkpt lat="51.4853587" lon="3.962298"><ele>0.0</ele><time>2026-04-06T10:28:53.179Z</time></trkpt><trkpt lat="51.4853233" lon="3.9621339"><ele>0.0</ele><time>2026-04-06T10:28:55.179Z</time></trkpt><trkpt lat="51.4852926" lon="3.9619597"><ele>0.0</ele><time>2026-04-06T10:28:57.179Z</time></trkpt><trkpt lat="51.4852767" lon="3.9618555"><ele>0.0</ele><time>2026-04-06T10:28:58.179Z</time></trkpt><trkpt lat="51.4852605" lon="3.9617572"><ele>0.0</ele><time>2026-04-06T10:28:59.179Z</time></trkpt><trkpt lat="51.4852382" lon="3.9615692"><ele>0.0</ele><time>2026-04-06T10:29:01.179Z</time></trkpt><trkpt lat="51.4852085" lon="3.9613844"><ele>0.0</ele><time>2026-04-06T10:29:03.179Z</time></trkpt><trkpt lat="51.4851756" lon="3.961191"><ele>0.0</ele><time>2026-04-06T10:29:05.179Z</time></trkpt><trkpt lat="51.4851542" lon="3.961089"><ele>0.0</ele><time>2026-04-06T10:29:06.179Z</time></trkpt><trkpt lat="51.4851188" lon="3.9608939"><ele>0.0</ele><time>2026-04-06T10:29:08.179Z</time></trkpt><trkpt lat="51.4850889" lon="3.9607059"><ele>0.0</ele><time>2026-04-06T10:29:10.179Z</time></trkpt><trkpt lat="51.4850802" lon="3.9605117"><ele>0.0</ele><time>2026-04-06T10:29:12.179Z</time></trkpt><trkpt lat="51.4851019" lon="3.9603166"><ele>0.2</ele><time>2026-04-06T10:29:14.179Z</time></trkpt><trkpt lat="51.4851369" lon="3.9601466"><ele>0.4</ele><time>2026-04-06T10:29:16.179Z</time></trkpt><trkpt lat="51.4851718" lon="3.9600115"><ele>0.6000000000000001</ele><time>2026-04-06T10:29:18.179Z</time></trkpt><trkpt lat="51.485219" lon="3.9599003"><ele>0.8</ele><time>2026-04-06T10:29:21.179Z</time></trkpt><trkpt lat="51.4853311" lon="3.959913"><ele>1.0</ele><time>2026-04-06T10:29:24.179Z</time></trkpt><trkpt lat="51.4854159" lon="3.9599856"><ele>0.8</ele><time>2026-04-06T10:29:26.179Z</time></trkpt><trkpt lat="51.4855324" lon="3.9600356"><ele>0.6000000000000001</ele><time>2026-04-06T10:29:28.179Z</time></trkpt><trkpt lat="51.4855988" lon="3.9600252"><ele>0.4</ele><time>2026-04-06T10:29:29.179Z</time></trkpt><trkpt lat="51.4856622" lon="3.9600066"><ele>0.2</ele><time>2026-04-06T10:29:30.179Z</time></trkpt><trkpt lat="51.4857598" lon="3.9598959"><ele>0.0</ele><time>2026-04-06T10:29:32.179Z</time></trkpt><trkpt lat="51.485848" lon="3.9597518"><ele>0.0</ele><time>2026-04-06T10:29:34.179Z</time></trkpt><trkpt lat="51.485899" lon="3.959692"><ele>0.0</ele><time>2026-04-06T10:29:35.179Z</time></trkpt><trkpt lat="51.4859949" lon="3.9595881"><ele>0.0</ele><time>2026-04-06T10:29:37.18Z</time></trkpt><trkpt lat="51.4860739" lon="3.9595142"><ele>0.0</ele><time>2026-04-06T10:29:39.179Z</time></trkpt><trkpt lat="51.4861466" lon="3.9595277"><ele>0.0</ele><time>2026-04-06T10:29:42.179Z</time></trkpt><trkpt lat="51.4861818" lon="3.9596158"><ele>0.0</ele><time>2026-04-06T10:29:44.179Z</time></trkpt><trkpt lat="51.4862404" lon="3.9597515"><ele>0.0</ele><time>2026-04-06T10:29:46.179Z</time></trkpt><trkpt lat="51.4863038" lon="3.9599119"><ele>0.0</ele><time>2026-04-06T10:29:48.179Z</time></trkpt><trkpt lat="51.4863711" lon="3.9600633"><ele>0.0</ele><time>2026-04-06T10:29:50.179Z</time></trkpt><trkpt lat="51.4864027" lon="3.9601878"><ele>0.0</ele><time>2026-04-06T10:29:52.179Z</time></trkpt><trkpt lat="51.4864387" lon="3.9602894"><ele>0.0</ele><time>2026-04-06T10:33:05.18Z</time></trkpt><trkpt lat="51.486489" lon="3.9602269"><ele>0.0</ele><time>2026-04-06T10:33:09.18Z</time></trkpt><trkpt lat="51.4864459" lon="3.9601143"><ele>0.0</ele><time>2026-04-06T10:33:13.179Z</time></trkpt><trkpt lat="51.4863703" lon="3.9600315"><ele>0.0</ele><time>2026-04-06T10:33:16.179Z</time></trkpt><trkpt lat="51.486325" lon="3.9599434"><ele>0.0</ele><time>2026-04-06T10:33:18.179Z</time></trkpt><trkpt lat="51.4862854" lon="3.9598596"><ele>0.0</ele><time>2026-04-06T10:33:20.179Z</time></trkpt><trkpt lat="51.4862391" lon="3.9597583"><ele>0.0</ele><time>2026-04-06T10:33:23.179Z</time></trkpt><trkpt lat="51.4862015" lon="3.9596756"><ele>0.0</ele><time>2026-04-06T10:34:05.18Z</time></trkpt><trkpt lat="51.4861554" lon="3.9595831"><ele>0.0</ele><time>2026-04-06T10:34:47.179Z</time></trkpt><trkpt lat="51.4861141" lon="3.9594889"><ele>0.0</ele><time>2026-04-06T10:34:50.179Z</time></trkpt><trkpt lat="51.4861533" lon="3.9593754"><ele>0.0</ele><time>2026-04-06T10:34:53.179Z</time></trkpt><trkpt lat="51.4862151" lon="3.9593346"><ele>0.0</ele><time>2026-04-06T10:34:55.179Z</time></trkpt><trkpt lat="51.4862788" lon="3.9592589"><ele>0.0</ele><time>2026-04-06T10:34:57.179Z</time></trkpt><trkpt lat="51.4863504" lon="3.9591716"><ele>0.16666666666666666</ele><time>2026-04-06T10:34:59.179Z</time></trkpt><trkpt lat="51.486425" lon="3.9590918"><ele>0.3333333333333333</ele><time>2026-04-06T10:35:01.179Z</time></trkpt><trkpt lat="51.4864661" lon="3.958994"><ele>0.5</ele><time>2026-04-06T10:35:03.179Z</time></trkpt><trkpt lat="51.4864773" lon="3.9588719"><ele>0.6666666666666666</ele><time>2026-04-06T10:35:05.179Z</time></trkpt><trkpt lat="51.4864536" lon="3.9587604"><ele>0.8333333333333333</ele><time>2026-04-06T10:35:07.179Z</time></trkpt><trkpt lat="51.4863889" lon="3.9586702"><ele>1.0</ele><time>2026-04-06T10:35:09.179Z</time></trkpt><trkpt lat="51.4862995" lon="3.9585825"><ele>1.0</ele><time>2026-04-06T10:35:11.179Z</time></trkpt><trkpt lat="51.4862167" lon="3.958492"><ele>1.0</ele><time>2026-04-06T10:35:13.179Z</time></trkpt><trkpt lat="51.486144" lon="3.9583824"><ele>1.0</ele><time>2026-04-06T10:35:15.179Z</time></trkpt><trkpt lat="51.4860848" lon="3.9582487"><ele>1.0</ele><time>2026-04-06T10:35:17.179Z</time></trkpt><trkpt lat="51.486047" lon="3.9580937"><ele>1.0</ele><time>2026-04-06T10:35:19.179Z</time></trkpt><trkpt lat="51.4860407" lon="3.9579384"><ele>1.1666666666666665</ele><time>2026-04-06T10:35:21.179Z</time></trkpt><trkpt lat="51.4860577" lon="3.9577961"><ele>1.3333333333333333</ele><time>2026-04-06T10:35:23.179Z</time></trkpt><trkpt lat="51.4860817" lon="3.9576753"><ele>1.5</ele><time>2026-04-06T10:35:25.179Z</time></trkpt><trkpt lat="51.4861027" lon="3.9575194"><ele>1.6666666666666665</ele><time>2026-04-06T10:35:27.179Z</time></trkpt><trkpt lat="51.4861035" lon="3.9573789"><ele>1.8333333333333333</ele><time>2026-04-06T10:35:29.179Z</time></trkpt><trkpt lat="51.4860912" lon="3.9572448"><ele>2.0</ele><time>2026-04-06T10:35:31.179Z</time></trkpt><trkpt lat="51.4860789" lon="3.9570641"><ele>2.0</ele><time>2026-04-06T10:35:33.179Z</time></trkpt><trkpt lat="51.4860642" lon="3.9568785"><ele>2.0</ele><time>2026-04-06T10:35:35.179Z</time></trkpt><trkpt lat="51.486045" lon="3.9566957"><ele>2.0</ele><time>2026-04-06T10:35:37.179Z</time></trkpt><trkpt lat="51.4860458" lon="3.9565116"><ele>2.0</ele><time>2026-04-06T10:35:39.179Z</time></trkpt><trkpt lat="51.4860437" lon="3.9563275"><ele>2.0</ele><time>2026-04-06T10:35:41.179Z</time></trkpt><trkpt lat="51.486038" lon="3.9561518"><ele>2.0</ele><time>2026-04-06T10:35:43.179Z</time></trkpt><trkpt lat="51.4860281" lon="3.9559833"><ele>2.0</ele><time>2026-04-06T10:35:45.179Z</time></trkpt><trkpt lat="51.4860128" lon="3.9557994"><ele>2.0</ele><time>2026-04-06T10:35:47.179Z</time></trkpt><trkpt lat="51.4860011" lon="3.9556165"><ele>2.0</ele><time>2026-04-06T10:35:49.179Z</time></trkpt><trkpt lat="51.485995" lon="3.95546"><ele>1.6666666666666665</ele><time>2026-04-06T10:35:51.179Z</time></trkpt><trkpt lat="51.4859859" lon="3.9553225"><ele>1.3333333333333333</ele><time>2026-04-06T10:35:53.179Z</time></trkpt><trkpt lat="51.48596" lon="3.9552062"><ele>1.0</ele><time>2026-04-06T10:35:55.179Z</time></trkpt><trkpt lat="51.4858957" lon="3.955166"><ele>0.6666666666666666</ele><time>2026-04-06T10:35:57.179Z</time></trkpt><trkpt lat="51.4858004" lon="3.9551637"><ele>0.3333333333333333</ele><time>2026-04-06T10:35:59.179Z</time></trkpt><trkpt lat="51.4856837" lon="3.9551491"><ele>0.0</ele><time>2026-04-06T10:36:01.179Z</time></trkpt><trkpt lat="51.4855674" lon="3.9550976"><ele>0.0</ele><time>2026-04-06T10:36:03.179Z</time></trkpt><trkpt lat="51.4855058" lon="3.9550663"><ele>0.0</ele><time>2026-04-06T10:36:04.179Z</time></trkpt><trkpt lat="51.4853968" lon="3.9549658"><ele>0.0</ele><time>2026-04-06T10:36:06.179Z</time></trkpt><trkpt lat="51.485313" lon="3.9548222"><ele>0.0</ele><time>2026-04-06T10:36:08.179Z</time></trkpt><trkpt lat="51.4852353" lon="3.954664"><ele>0.0</ele><time>2026-04-06T10:36:10.179Z</time></trkpt><trkpt lat="51.485196" lon="3.9545823"><ele>0.0</ele><time>2026-04-06T10:36:11.179Z</time></trkpt><trkpt lat="51.4851543" lon="3.9545004"><ele>0.0</ele><time>2026-04-06T10:36:12.179Z</time></trkpt><trkpt lat="51.4850739" lon="3.9543499"><ele>0.0</ele><time>2026-04-06T10:36:14.179Z</time></trkpt><trkpt lat="51.4849857" lon="3.9542291"><ele>0.0</ele><time>2026-04-06T10:36:16.179Z</time></trkpt><trkpt lat="51.4848886" lon="3.9541326"><ele>0.0</ele><time>2026-04-06T10:36:18.179Z</time></trkpt><trkpt lat="51.4847948" lon="3.9540595"><ele>0.0</ele><time>2026-04-06T10:36:20.179Z</time></trkpt><trkpt lat="51.4846898" lon="3.953977"><ele>0.0</ele><time>2026-04-06T10:36:22.179Z</time></trkpt><trkpt lat="51.4845832" lon="3.9538786"><ele>0.0</ele><time>2026-04-06T10:36:24.179Z</time></trkpt><trkpt lat="51.4845252" lon="3.9538269"><ele>0.0</ele><time>2026-04-06T10:36:25.179Z</time></trkpt><trkpt lat="51.4844633" lon="3.9537744"><ele>0.0</ele><time>2026-04-06T10:36:26.179Z</time></trkpt><trkpt lat="51.4844003" lon="3.9537184"><ele>0.0</ele><time>2026-04-06T10:36:27.179Z</time></trkpt><trkpt lat="51.4843374" lon="3.9536678"><ele>0.0</ele><time>2026-04-06T10:36:28.179Z</time></trkpt><trkpt lat="51.4842704" lon="3.9536141"><ele>0.0</ele><time>2026-04-06T10:36:29.179Z</time></trkpt><trkpt lat="51.4841987" lon="3.9535566"><ele>0.0</ele><time>2026-04-06T10:36:30.179Z</time></trkpt><trkpt lat="51.4841274" lon="3.9534995"><ele>0.0</ele><time>2026-04-06T10:36:31.18Z</time></trkpt><trkpt lat="51.4840531" lon="3.9534426"><ele>0.0</ele><time>2026-04-06T10:36:32.179Z</time></trkpt><trkpt lat="51.4839817" lon="3.9533837"><ele>0.0</ele><time>2026-04-06T10:36:33.179Z</time></trkpt><trkpt lat="51.4839097" lon="3.9533227"><ele>0.0</ele><time>2026-04-06T10:36:34.179Z</time></trkpt><trkpt lat="51.4838393" lon="3.9532587"><ele>0.0</ele><time>2026-04-06T10:36:35.179Z</time></trkpt><trkpt lat="51.4837682" lon="3.9532034"><ele>0.0</ele><time>2026-04-06T10:36:36.179Z</time></trkpt><trkpt lat="51.4837036" lon="3.9531391"><ele>0.0</ele><time>2026-04-06T10:36:37.179Z</time></trkpt><trkpt lat="51.483642" lon="3.9530749"><ele>0.0</ele><time>2026-04-06T10:36:38.179Z</time></trkpt><trkpt lat="51.4835834" lon="3.9530049"><ele>0.0</ele><time>2026-04-06T10:36:39.179Z</time></trkpt><trkpt lat="51.4835329" lon="3.9529344"><ele>0.0</ele><time>2026-04-06T10:36:40.179Z</time></trkpt><trkpt lat="51.4834829" lon="3.9528599"><ele>0.0</ele><time>2026-04-06T10:36:41.179Z</time></trkpt><trkpt lat="51.4834316" lon="3.9527785"><ele>0.0</ele><time>2026-04-06T10:36:42.179Z</time></trkpt><trkpt lat="51.4833783" lon="3.9526895"><ele>0.0</ele><time>2026-04-06T10:36:43.179Z</time></trkpt><trkpt lat="51.4833244" lon="3.9525985"><ele>0.0</ele><time>2026-04-06T10:36:44.179Z</time></trkpt><trkpt lat="51.4832714" lon="3.9525089"><ele>0.0</ele><time>2026-04-06T10:36:45.179Z</time></trkpt><trkpt lat="51.4832174" lon="3.9524175"><ele>0.0</ele><time>2026-04-06T10:36:46.179Z</time></trkpt><trkpt lat="51.4831634" lon="3.9523285"><ele>0.0</ele><time>2026-04-06T10:36:47.179Z</time></trkpt><trkpt lat="51.4831084" lon="3.9522438"><ele>0.0</ele><time>2026-04-06T10:36:48.179Z</time></trkpt><trkpt lat="51.4830531" lon="3.9521554"><ele>0.0</ele><time>2026-04-06T10:36:49.179Z</time></trkpt><trkpt lat="51.483004" lon="3.9520611"><ele>0.0</ele><time>2026-04-06T10:36:50.179Z</time></trkpt><trkpt lat="51.4829521" lon="3.951968"><ele>0.0</ele><time>2026-04-06T10:36:51.179Z</time></trkpt><trkpt lat="51.4828986" lon="3.9518725"><ele>0.0</ele><time>2026-04-06T10:36:52.179Z</time></trkpt><trkpt lat="51.4828445" lon="3.9517818"><ele>0.0</ele><time>2026-04-06T10:36:53.179Z</time></trkpt><trkpt lat="51.4827934" lon="3.9516888"><ele>0.0</ele><time>2026-04-06T10:36:54.179Z</time></trkpt><trkpt lat="51.4827424" lon="3.9515967"><ele>0.0</ele><time>2026-04-06T10:36:55.179Z</time></trkpt><trkpt lat="51.4826928" lon="3.9515081"><ele>0.0</ele><time>2026-04-06T10:36:56.179Z</time></trkpt><trkpt lat="51.4826534" lon="3.9514272"><ele>0.0</ele><time>2026-04-06T10:36:57.179Z</time></trkpt><trkpt lat="51.4825847" lon="3.9512748"><ele>0.0</ele><time>2026-04-06T10:36:59.179Z</time></trkpt><trkpt lat="51.4825188" lon="3.9511226"><ele>0.0</ele><time>2026-04-06T10:37:01.179Z</time></trkpt><trkpt lat="51.4824793" lon="3.9510431"><ele>0.0</ele><time>2026-04-06T10:37:02.179Z</time></trkpt><trkpt lat="51.4824083" lon="3.9508743"><ele>0.0</ele><time>2026-04-06T10:37:04.179Z</time></trkpt><trkpt lat="51.4823676" lon="3.9507799"><ele>0.0</ele><time>2026-04-06T10:37:05.179Z</time></trkpt><trkpt lat="51.4823268" lon="3.9506849"><ele>0.0</ele><time>2026-04-06T10:37:06.18Z</time></trkpt><trkpt lat="51.4822835" lon="3.9505882"><ele>0.0</ele><time>2026-04-06T10:37:07.179Z</time></trkpt><trkpt lat="51.4822435" lon="3.9504874"><ele>-0.16666666666666666</ele><time>2026-04-06T10:37:08.179Z</time></trkpt><trkpt lat="51.4822027" lon="3.9503879"><ele>-0.3333333333333333</ele><time>2026-04-06T10:37:09.179Z</time></trkpt><trkpt lat="51.4821601" lon="3.9502919"><ele>-0.5</ele><time>2026-04-06T10:37:10.179Z</time></trkpt><trkpt lat="51.4821122" lon="3.9501927"><ele>-0.6666666666666666</ele><time>2026-04-06T10:37:11.179Z</time></trkpt><trkpt lat="51.4820635" lon="3.9500924"><ele>-0.8333333333333333</ele><time>2026-04-06T10:37:12.179Z</time></trkpt><trkpt lat="51.4820117" lon="3.9499855"><ele>-1.0</ele><time>2026-04-06T10:37:13.179Z</time></trkpt><trkpt lat="51.4819661" lon="3.9498748"><ele>-0.9999999999999999</ele><time>2026-04-06T10:37:14.179Z</time></trkpt><trkpt lat="51.4819187" lon="3.9497641"><ele>-1.0</ele><time>2026-04-06T10:37:15.179Z</time></trkpt><trkpt lat="51.4818727" lon="3.9496526"><ele>-1.0</ele><time>2026-04-06T10:37:16.179Z</time></trkpt><trkpt lat="51.4818286" lon="3.9495387"><ele>-1.0</ele><time>2026-04-06T10:37:17.179Z</time></trkpt><trkpt lat="51.481782" lon="3.949426"><ele>-0.9999999999999999</ele><time>2026-04-06T10:37:18.179Z</time></trkpt><trkpt lat="51.4817378" lon="3.9493187"><ele>-1.0</ele><time>2026-04-06T10:37:19.179Z</time></trkpt><trkpt lat="51.4816936" lon="3.9492123"><ele>-1.0</ele><time>2026-04-06T10:37:20.179Z</time></trkpt><trkpt lat="51.4816495" lon="3.9491068"><ele>-0.9999999999999999</ele><time>2026-04-06T10:37:21.179Z</time></trkpt><trkpt lat="51.48161" lon="3.949006"><ele>-1.0</ele><time>2026-04-06T10:37:22.18Z</time></trkpt><trkpt lat="51.4815718" lon="3.9489092"><ele>-1.0</ele><time>2026-04-06T10:37:23.179Z</time></trkpt><trkpt lat="51.4815374" lon="3.94882"><ele>-0.9999999999999999</ele><time>2026-04-06T10:37:24.179Z</time></trkpt><trkpt lat="51.4815023" lon="3.9487303"><ele>-1.0</ele><time>2026-04-06T10:37:25.179Z</time></trkpt><trkpt lat="51.4814695" lon="3.9486389"><ele>-1.0</ele><time>2026-04-06T10:37:26.179Z</time></trkpt><trkpt lat="51.4814386" lon="3.9485449"><ele>-1.0</ele><time>2026-04-06T10:37:27.179Z</time></trkpt><trkpt lat="51.4814106" lon="3.9484513"><ele>-1.0</ele><time>2026-04-06T10:37:28.179Z</time></trkpt><trkpt lat="51.4813638" lon="3.9482802"><ele>-1.0</ele><time>2026-04-06T10:37:30.179Z</time></trkpt><trkpt lat="51.4813327" lon="3.9481302"><ele>-1.0</ele><time>2026-04-06T10:37:32.179Z</time></trkpt><trkpt lat="51.4812898" lon="3.9479665"><ele>-1.0</ele><time>2026-04-06T10:37:34.179Z</time></trkpt><trkpt lat="51.4812645" lon="3.9478554"><ele>-0.9999999999999999</ele><time>2026-04-06T10:37:35.179Z</time></trkpt><trkpt lat="51.4812448" lon="3.9477352"><ele>-1.0</ele><time>2026-04-06T10:37:36.179Z</time></trkpt><trkpt lat="51.4812344" lon="3.9476103"><ele>-1.0</ele><time>2026-04-06T10:37:37.179Z</time></trkpt><trkpt lat="51.4812228" lon="3.9474753"><ele>-1.0</ele><time>2026-04-06T10:37:38.179Z</time></trkpt><trkpt lat="51.4812045" lon="3.9473406"><ele>-0.9999999999999999</ele><time>2026-04-06T10:37:39.179Z</time></trkpt><trkpt lat="51.4811839" lon="3.9472049"><ele>-1.0</ele><time>2026-04-06T10:37:40.179Z</time></trkpt><trkpt lat="51.481162" lon="3.9470753"><ele>-0.9999999999999999</ele><time>2026-04-06T10:37:41.179Z</time></trkpt><trkpt lat="51.48114" lon="3.9469488"><ele>-1.0</ele><time>2026-04-06T10:37:42.18Z</time></trkpt><trkpt lat="51.4811211" lon="3.9468322"><ele>-1.0</ele><time>2026-04-06T10:37:43.179Z</time></trkpt><trkpt lat="51.4811027" lon="3.9467214"><ele>-1.0</ele><time>2026-04-06T10:37:44.179Z</time></trkpt><trkpt lat="51.4810825" lon="3.9466199"><ele>-0.9999999999999999</ele><time>2026-04-06T10:37:45.179Z</time></trkpt><trkpt lat="51.4810596" lon="3.9465093"><ele>-1.0</ele><time>2026-04-06T10:37:46.179Z</time></trkpt><trkpt lat="51.4810297" lon="3.9463839"><ele>-0.9999999999999999</ele><time>2026-04-06T10:37:47.179Z</time></trkpt><trkpt lat="51.4810042" lon="3.9462606"><ele>-1.0</ele><time>2026-04-06T10:37:48.179Z</time></trkpt><trkpt lat="51.4809804" lon="3.9461299"><ele>-1.0</ele><time>2026-04-06T10:37:49.179Z</time></trkpt><trkpt lat="51.4809718" lon="3.9459994"><ele>-1.0</ele><time>2026-04-06T10:37:50.179Z</time></trkpt><trkpt lat="51.4809618" lon="3.9458799"><ele>-0.9999999999999999</ele><time>2026-04-06T10:37:51.179Z</time></trkpt><trkpt lat="51.4809483" lon="3.9457656"><ele>-1.0</ele><time>2026-04-06T10:37:52.179Z</time></trkpt><trkpt lat="51.4809289" lon="3.9456533"><ele>-0.8333333333333333</ele><time>2026-04-06T10:37:53.179Z</time></trkpt><trkpt lat="51.4809108" lon="3.9455441"><ele>-0.6666666666666666</ele><time>2026-04-06T10:37:54.179Z</time></trkpt><trkpt lat="51.4808952" lon="3.9454427"><ele>-0.5</ele><time>2026-04-06T10:37:55.179Z</time></trkpt><trkpt lat="51.4808588" lon="3.945289"><ele>-0.3333333333333333</ele><time>2026-04-06T10:37:57.179Z</time></trkpt><trkpt lat="51.4808056" lon="3.9452309"><ele>-0.16666666666666666</ele><time>2026-04-06T10:37:59.179Z</time></trkpt><trkpt lat="51.4808383" lon="3.9453438"><ele>0.0</ele><time>2026-04-06T10:38:27.179Z</time></trkpt><trkpt lat="51.4808658" lon="3.9454868"><ele>0.0</ele><time>2026-04-06T10:38:29.179Z</time></trkpt><trkpt lat="51.4808898" lon="3.9456331"><ele>0.0</ele><time>2026-04-06T10:38:31.179Z</time></trkpt><trkpt lat="51.4809257" lon="3.9457901"><ele>0.0</ele><time>2026-04-06T10:38:33.179Z</time></trkpt><trkpt lat="51.4809491" lon="3.9459025"><ele>0.0</ele><time>2026-04-06T10:38:34.179Z</time></trkpt><trkpt lat="51.4809711" lon="3.9460214"><ele>0.0</ele><time>2026-04-06T10:38:35.179Z</time></trkpt><trkpt lat="51.4809892" lon="3.9461343"><ele>0.0</ele><time>2026-04-06T10:38:36.179Z</time></trkpt><trkpt lat="51.4810066" lon="3.946263"><ele>-0.2</ele><time>2026-04-06T10:38:37.179Z</time></trkpt><trkpt lat="51.4810226" lon="3.9464035"><ele>-0.4</ele><time>2026-04-06T10:38:38.179Z</time></trkpt><trkpt lat="51.4810408" lon="3.9465415"><ele>-0.6000000000000001</ele><time>2026-04-06T10:38:39.179Z</time></trkpt><trkpt lat="51.4810604" lon="3.9466818"><ele>-0.8</ele><time>2026-04-06T10:38:40.179Z</time></trkpt><trkpt lat="51.4810814" lon="3.9468255"><ele>-1.0</ele><time>2026-04-06T10:38:41.179Z</time></trkpt><trkpt lat="51.4811082" lon="3.9469667"><ele>-1.0</ele><time>2026-04-06T10:38:42.179Z</time></trkpt><trkpt lat="51.4811357" lon="3.9471036"><ele>-1.0</ele><time>2026-04-06T10:38:43.179Z</time></trkpt><trkpt lat="51.4811604" lon="3.9472432"><ele>-1.0</ele><time>2026-04-06T10:38:44.18Z</time></trkpt><trkpt lat="51.4811832" lon="3.9473829"><ele>-1.0</ele><time>2026-04-06T10:38:45.179Z</time></trkpt><trkpt lat="51.4812065" lon="3.9475234"><ele>-1.0</ele><time>2026-04-06T10:38:46.179Z</time></trkpt><trkpt lat="51.4812298" lon="3.9476616"><ele>-0.9999999999999999</ele><time>2026-04-06T10:38:47.179Z</time></trkpt><trkpt lat="51.4812498" lon="3.9478039"><ele>-1.0</ele><time>2026-04-06T10:38:48.179Z</time></trkpt><trkpt lat="51.4812694" lon="3.9479343"><ele>-1.0</ele><time>2026-04-06T10:38:49.179Z</time></trkpt><trkpt lat="51.4812892" lon="3.9480657"><ele>-1.0</ele><time>2026-04-06T10:38:50.179Z</time></trkpt><trkpt lat="51.4813165" lon="3.9481927"><ele>-0.9999999999999999</ele><time>2026-04-06T10:38:51.179Z</time></trkpt><trkpt lat="51.4813461" lon="3.9483089"><ele>-1.0</ele><time>2026-04-06T10:38:52.179Z</time></trkpt><trkpt lat="51.481379" lon="3.9484101"><ele>-0.9999999999999999</ele><time>2026-04-06T10:38:53.179Z</time></trkpt><trkpt lat="51.4814062" lon="3.9485033"><ele>-1.0</ele><time>2026-04-06T10:38:54.179Z</time></trkpt><trkpt lat="51.4814281" lon="3.9486551"><ele>-1.0</ele><time>2026-04-06T10:38:56.179Z</time></trkpt><trkpt lat="51.4813753" lon="3.9487839"><ele>-1.0</ele><time>2026-04-06T10:38:58.179Z</time></trkpt><trkpt lat="51.4812719" lon="3.9488757"><ele>-0.9999999999999999</ele><time>2026-04-06T10:39:00.179Z</time></trkpt><trkpt lat="51.4812117" lon="3.9489368"><ele>-1.0</ele><time>2026-04-06T10:39:01.179Z</time></trkpt><trkpt lat="51.4811581" lon="3.9490034"><ele>-0.8571428571428571</ele><time>2026-04-06T10:39:02.179Z</time></trkpt><trkpt lat="51.4811128" lon="3.9490806"><ele>-0.7142857142857142</ele><time>2026-04-06T10:39:03.179Z</time></trkpt><trkpt lat="51.4810761" lon="3.9491739"><ele>-0.5714285714285714</ele><time>2026-04-06T10:39:04.179Z</time></trkpt><trkpt lat="51.4810529" lon="3.9492829"><ele>-0.42857142857142855</ele><time>2026-04-06T10:39:05.179Z</time></trkpt><trkpt lat="51.481034" lon="3.949404"><ele>-0.2857142857142857</ele><time>2026-04-06T10:39:06.179Z</time></trkpt><trkpt lat="51.4810157" lon="3.9495254"><ele>-0.14285714285714285</ele><time>2026-04-06T10:39:07.179Z</time></trkpt><trkpt lat="51.4809956" lon="3.9496491"><ele>0.0</ele><time>2026-04-06T10:39:08.179Z</time></trkpt><trkpt lat="51.4809771" lon="3.9497642"><ele>0.0</ele><time>2026-04-06T10:39:09.179Z</time></trkpt><trkpt lat="51.4809602" lon="3.9498738"><ele>0.0</ele><time>2026-04-06T10:39:10.179Z</time></trkpt><trkpt lat="51.4809421" lon="3.9499772"><ele>0.0</ele><time>2026-04-06T10:39:11.179Z</time></trkpt><trkpt lat="51.4808813" lon="3.9501408"><ele>0.0</ele><time>2026-04-06T10:39:13.179Z</time></trkpt><trkpt lat="51.4807836" lon="3.9502428"><ele>0.0</ele><time>2026-04-06T10:39:15.179Z</time></trkpt><trkpt lat="51.4806841" lon="3.9502917"><ele>-0.16666666666666666</ele><time>2026-04-06T10:39:17.179Z</time></trkpt><trkpt lat="51.480617" lon="3.9503253"><ele>-0.3333333333333333</ele><time>2026-04-06T10:39:19.179Z</time></trkpt><trkpt lat="51.4805987" lon="3.9504363"><ele>-0.5</ele><time>2026-04-06T10:39:23.179Z</time></trkpt><trkpt lat="51.4806313" lon="3.9505515"><ele>-0.6666666666666666</ele><time>2026-04-06T10:39:25.179Z</time></trkpt><trkpt lat="51.4806586" lon="3.9506897"><ele>-0.8333333333333333</ele><time>2026-04-06T10:39:27.179Z</time></trkpt><trkpt lat="51.4806371" lon="3.9507974"><ele>-1.0</ele><time>2026-04-06T10:39:29.179Z</time></trkpt><trkpt lat="51.4806142" lon="3.9509229"><ele>-0.9999999999999999</ele><time>2026-04-06T10:39:32.179Z</time></trkpt><trkpt lat="51.4806714" lon="3.9510293"><ele>-1.0</ele><time>2026-04-06T10:39:35.179Z</time></trkpt><trkpt lat="51.4807294" lon="3.9509863"><ele>-1.0</ele><time>2026-04-06T10:39:38.179Z</time></trkpt><trkpt lat="51.4806657" lon="3.9509889"><ele>-1.0</ele><time>2026-04-06T10:39:52.179Z</time></trkpt><trkpt lat="51.4806675" lon="3.9508637"><ele>-0.9999999999999999</ele><time>2026-04-06T10:39:55.179Z</time></trkpt><trkpt lat="51.4807115" lon="3.9507535"><ele>-1.0</ele><time>2026-04-06T10:39:57.18Z</time></trkpt><trkpt lat="51.480768" lon="3.9506201"><ele>-0.9999999999999999</ele><time>2026-04-06T10:39:59.179Z</time></trkpt><trkpt lat="51.4807988" lon="3.9505316"><ele>-1.0</ele><time>2026-04-06T10:40:00.179Z</time></trkpt><trkpt lat="51.4808647" lon="3.9503869"><ele>-1.0</ele><time>2026-04-06T10:40:02.179Z</time></trkpt><trkpt lat="51.4808965" lon="3.9502691"><ele>-1.0</ele><time>2026-04-06T10:40:21.179Z</time></trkpt><trkpt lat="51.4808293" lon="3.9501991"><ele>-0.9999999999999999</ele><time>2026-04-06T10:40:25.179Z</time></trkpt><trkpt lat="51.4807626" lon="3.9502408"><ele>-1.0</ele><time>2026-04-06T10:40:27.179Z</time></trkpt><trkpt lat="51.4806864" lon="3.9502944"><ele>-0.9999999999999999</ele><time>2026-04-06T10:40:29.179Z</time></trkpt><trkpt lat="51.4806125" lon="3.9503062"><ele>-1.0</ele><time>2026-04-06T10:40:31.179Z</time></trkpt><trkpt lat="51.4805551" lon="3.9502191"><ele>-1.0</ele><time>2026-04-06T10:40:33.179Z</time></trkpt><trkpt lat="51.4805364" lon="3.9501149"><ele>-1.0</ele><time>2026-04-06T10:40:35.179Z</time></trkpt><trkpt lat="51.4805631" lon="3.9502208"><ele>-0.9999999999999999</ele><time>2026-04-06T10:40:49.18Z</time></trkpt><trkpt lat="51.4805936" lon="3.950347"><ele>-1.0</ele><time>2026-04-06T10:40:52.179Z</time></trkpt><trkpt lat="51.480728" lon="3.9502817"><ele>-1.0</ele><time>2026-04-06T10:41:04.179Z</time></trkpt><trkpt lat="51.4808208" lon="3.9502332"><ele>-1.0</ele><time>2026-04-06T10:41:06.179Z</time></trkpt><trkpt lat="51.4809144" lon="3.9501135"><ele>-1.0</ele><time>2026-04-06T10:41:08.179Z</time></trkpt><trkpt lat="51.4809656" lon="3.9499327"><ele>-1.0</ele><time>2026-04-06T10:41:10.179Z</time></trkpt><trkpt lat="51.4809773" lon="3.9498295"><ele>-1.0</ele><time>2026-04-06T10:41:11.179Z</time></trkpt><trkpt lat="51.4809993" lon="3.9497119"><ele>-0.8571428571428571</ele><time>2026-04-06T10:41:12.179Z</time></trkpt><trkpt lat="51.4810187" lon="3.9495862"><ele>-0.7142857142857142</ele><time>2026-04-06T10:41:13.179Z</time></trkpt><trkpt lat="51.4810392" lon="3.9494627"><ele>-0.5714285714285714</ele><time>2026-04-06T10:41:14.179Z</time></trkpt><trkpt lat="51.4810566" lon="3.9493507"><ele>-0.42857142857142855</ele><time>2026-04-06T10:41:15.179Z</time></trkpt><trkpt lat="51.4810831" lon="3.9492528"><ele>-0.2857142857142857</ele><time>2026-04-06T10:41:16.179Z</time></trkpt><trkpt lat="51.4811191" lon="3.9491552"><ele>-0.14285714285714285</ele><time>2026-04-06T10:41:17.179Z</time></trkpt><trkpt lat="51.4811626" lon="3.9490657"><ele>0.0</ele><time>2026-04-06T10:41:18.179Z</time></trkpt><trkpt lat="51.4812098" lon="3.9489984"><ele>-0.2</ele><time>2026-04-06T10:41:19.179Z</time></trkpt><trkpt lat="51.4812989" lon="3.9488937"><ele>-0.4</ele><time>2026-04-06T10:41:21.179Z</time></trkpt><trkpt lat="51.4813752" lon="3.9488075"><ele>-0.6000000000000001</ele><time>2026-04-06T10:41:23.179Z</time></trkpt><trkpt lat="51.4814564" lon="3.9487781"><ele>-0.8</ele><time>2026-04-06T10:41:25.179Z</time></trkpt><trkpt lat="51.4815324" lon="3.9488667"><ele>-1.0</ele><time>2026-04-06T10:41:27.179Z</time></trkpt><trkpt lat="51.4816005" lon="3.9490455"><ele>-0.9999999999999999</ele><time>2026-04-06T10:41:29.179Z</time></trkpt><trkpt lat="51.4816437" lon="3.9491512"><ele>-1.0</ele><time>2026-04-06T10:41:30.179Z</time></trkpt><trkpt lat="51.4816878" lon="3.9492523"><ele>-1.0</ele><time>2026-04-06T10:41:31.179Z</time></trkpt><trkpt lat="51.4817394" lon="3.9493573"><ele>-1.0</ele><time>2026-04-06T10:41:32.179Z</time></trkpt><trkpt lat="51.4817922" lon="3.9494754"><ele>-0.9999999999999999</ele><time>2026-04-06T10:41:33.179Z</time></trkpt><trkpt lat="51.4818468" lon="3.9496026"><ele>-1.0</ele><time>2026-04-06T10:41:34.179Z</time></trkpt><trkpt lat="51.4819033" lon="3.9497311"><ele>-1.0</ele><time>2026-04-06T10:41:35.179Z</time></trkpt><trkpt lat="51.4819602" lon="3.9498629"><ele>-1.0</ele><time>2026-04-06T10:41:36.179Z</time></trkpt><trkpt lat="51.4820136" lon="3.9500006"><ele>-1.0</ele><time>2026-04-06T10:41:37.179Z</time></trkpt><trkpt lat="51.4820643" lon="3.9501309"><ele>-1.0</ele><time>2026-04-06T10:41:38.179Z</time></trkpt><trkpt lat="51.4821166" lon="3.950252"><ele>-1.0</ele><time>2026-04-06T10:41:39.179Z</time></trkpt><trkpt lat="51.4821665" lon="3.9503695"><ele>-0.9999999999999999</ele><time>2026-04-06T10:41:40.179Z</time></trkpt><trkpt lat="51.4822184" lon="3.9504806"><ele>-1.0</ele><time>2026-04-06T10:41:41.179Z</time></trkpt><trkpt lat="51.4822661" lon="3.9505933"><ele>-1.0</ele><time>2026-04-06T10:41:42.179Z</time></trkpt><trkpt lat="51.4823133" lon="3.9507007"><ele>-1.0</ele><time>2026-04-06T10:41:43.179Z</time></trkpt><trkpt lat="51.4823579" lon="3.9508077"><ele>-0.9999999999999999</ele><time>2026-04-06T10:41:44.179Z</time></trkpt><trkpt lat="51.4824013" lon="3.950909"><ele>-1.0</ele><time>2026-04-06T10:41:45.179Z</time></trkpt><trkpt lat="51.482441" lon="3.9509999"><ele>-0.8</ele><time>2026-04-06T10:41:46.179Z</time></trkpt><trkpt lat="51.4824787" lon="3.9510849"><ele>-0.6000000000000001</ele><time>2026-04-06T10:41:47.179Z</time></trkpt><trkpt lat="51.4825446" lon="3.9512421"><ele>-0.4</ele><time>2026-04-06T10:41:49.179Z</time></trkpt><trkpt lat="51.4826079" lon="3.9513794"><ele>-0.2</ele><time>2026-04-06T10:41:51.179Z</time></trkpt><trkpt lat="51.4826767" lon="3.9515192"><ele>0.0</ele><time>2026-04-06T10:41:53.179Z</time></trkpt><trkpt lat="51.482723" lon="3.9515998"><ele>0.0</ele><time>2026-04-06T10:41:54.179Z</time></trkpt><trkpt lat="51.4827729" lon="3.9516845"><ele>0.0</ele><time>2026-04-06T10:41:55.179Z</time></trkpt><trkpt lat="51.4828263" lon="3.9517772"><ele>0.0</ele><time>2026-04-06T10:41:56.179Z</time></trkpt><trkpt lat="51.4828822" lon="3.9518774"><ele>0.0</ele><time>2026-04-06T10:41:57.179Z</time></trkpt><trkpt lat="51.4829396" lon="3.9519749"><ele>0.0</ele><time>2026-04-06T10:41:58.179Z</time></trkpt><trkpt lat="51.4829997" lon="3.952071"><ele>0.0</ele><time>2026-04-06T10:41:59.179Z</time></trkpt><trkpt lat="51.4830613" lon="3.9521686"><ele>0.0</ele><time>2026-04-06T10:42:00.179Z</time></trkpt><trkpt lat="51.4831211" lon="3.9522705"><ele>0.0</ele><time>2026-04-06T10:42:01.179Z</time></trkpt><trkpt lat="51.4831784" lon="3.9523651"><ele>0.0</ele><time>2026-04-06T10:42:02.179Z</time></trkpt><trkpt lat="51.4832347" lon="3.9524536"><ele>0.0</ele><time>2026-04-06T10:42:03.179Z</time></trkpt><trkpt lat="51.4832859" lon="3.9525442"><ele>0.0</ele><time>2026-04-06T10:42:04.179Z</time></trkpt><trkpt lat="51.4833353" lon="3.9526319"><ele>0.0</ele><time>2026-04-06T10:42:05.179Z</time></trkpt><trkpt lat="51.4833863" lon="3.9527153"><ele>0.0</ele><time>2026-04-06T10:42:06.179Z</time></trkpt><trkpt lat="51.4834342" lon="3.9527931"><ele>0.0</ele><time>2026-04-06T10:42:07.179Z</time></trkpt><trkpt lat="51.4835213" lon="3.9529311"><ele>0.0</ele><time>2026-04-06T10:42:09.179Z</time></trkpt><trkpt lat="51.4836297" lon="3.9530472"><ele>0.0</ele><time>2026-04-06T10:42:11.179Z</time></trkpt><trkpt lat="51.4836876" lon="3.9531139"><ele>0.0</ele><time>2026-04-06T10:42:12.179Z</time></trkpt><trkpt lat="51.4837515" lon="3.9531867"><ele>0.0</ele><time>2026-04-06T10:42:13.179Z</time></trkpt><trkpt lat="51.4838176" lon="3.9532575"><ele>0.0</ele><time>2026-04-06T10:42:14.179Z</time></trkpt><trkpt lat="51.4838884" lon="3.9533184"><ele>0.0</ele><time>2026-04-06T10:42:15.179Z</time></trkpt><trkpt lat="51.4839602" lon="3.9533808"><ele>0.0</ele><time>2026-04-06T10:42:16.179Z</time></trkpt><trkpt lat="51.4840339" lon="3.9534362"><ele>0.0</ele><time>2026-04-06T10:42:17.179Z</time></trkpt><trkpt lat="51.4841053" lon="3.9534941"><ele>0.0</ele><time>2026-04-06T10:42:18.179Z</time></trkpt><trkpt lat="51.4841771" lon="3.953554"><ele>0.0</ele><time>2026-04-06T10:42:19.179Z</time></trkpt><trkpt lat="51.4842499" lon="3.9536164"><ele>0.0</ele><time>2026-04-06T10:42:20.179Z</time></trkpt><trkpt lat="51.4843238" lon="3.9536729"><ele>0.0</ele><time>2026-04-06T10:42:21.179Z</time></trkpt><trkpt lat="51.484395" lon="3.9537287"><ele>0.0</ele><time>2026-04-06T10:42:22.179Z</time></trkpt><trkpt lat="51.4844631" lon="3.9537837"><ele>0.0</ele><time>2026-04-06T10:42:23.179Z</time></trkpt><trkpt lat="51.4845287" lon="3.9538387"><ele>0.0</ele><time>2026-04-06T10:42:24.179Z</time></trkpt><trkpt lat="51.4845915" lon="3.9538923"><ele>0.0</ele><time>2026-04-06T10:42:25.179Z</time></trkpt><trkpt lat="51.4846528" lon="3.9539451"><ele>0.0</ele><time>2026-04-06T10:42:26.179Z</time></trkpt><trkpt lat="51.4847106" lon="3.9539962"><ele>0.0</ele><time>2026-04-06T10:42:27.179Z</time></trkpt><trkpt lat="51.4847682" lon="3.9540489"><ele>0.0</ele><time>2026-04-06T10:42:28.179Z</time></trkpt><trkpt lat="51.4848278" lon="3.9541034"><ele>0.0</ele><time>2026-04-06T10:42:29.179Z</time></trkpt><trkpt lat="51.4848891" lon="3.9541599"><ele>0.0</ele><time>2026-04-06T10:42:30.179Z</time></trkpt><trkpt lat="51.4849501" lon="3.9542196"><ele>0.0</ele><time>2026-04-06T10:42:31.179Z</time></trkpt><trkpt lat="51.4850111" lon="3.9542884"><ele>0.0</ele><time>2026-04-06T10:42:32.179Z</time></trkpt><trkpt lat="51.4850704" lon="3.9543682"><ele>0.0</ele><time>2026-04-06T10:42:33.179Z</time></trkpt><trkpt lat="51.4851252" lon="3.9544602"><ele>0.0</ele><time>2026-04-06T10:42:34.179Z</time></trkpt><trkpt lat="51.4851766" lon="3.9545582"><ele>0.0</ele><time>2026-04-06T10:42:35.179Z</time></trkpt><trkpt lat="51.485225" lon="3.954655"><ele>0.0</ele><time>2026-04-06T10:42:36.179Z</time></trkpt><trkpt lat="51.4852766" lon="3.9547496"><ele>0.0</ele><time>2026-04-06T10:42:37.179Z</time></trkpt><trkpt lat="51.4853298" lon="3.9548427"><ele>0.0</ele><time>2026-04-06T10:42:38.179Z</time></trkpt><trkpt lat="51.4853832" lon="3.9549321"><ele>0.0</ele><time>2026-04-06T10:42:39.179Z</time></trkpt><trkpt lat="51.4854428" lon="3.9550049"><ele>0.0</ele><time>2026-04-06T10:42:40.179Z</time></trkpt><trkpt lat="51.4855024" lon="3.9550669"><ele>0.0</ele><time>2026-04-06T10:42:41.179Z</time></trkpt><trkpt lat="51.4855688" lon="3.9551088"><ele>0.0</ele><time>2026-04-06T10:42:42.179Z</time></trkpt><trkpt lat="51.4856383" lon="3.9551344"><ele>0.0</ele><time>2026-04-06T10:42:43.179Z</time></trkpt><trkpt lat="51.4857067" lon="3.9551569"><ele>0.0</ele><time>2026-04-06T10:42:44.179Z</time></trkpt><trkpt lat="51.4858061" lon="3.9551824"><ele>0.0</ele><time>2026-04-06T10:42:46.179Z</time></trkpt><trkpt lat="51.485886" lon="3.9551983"><ele>0.0</ele><time>2026-04-06T10:42:49.179Z</time></trkpt><trkpt lat="51.4859766" lon="3.9551541"><ele>0.0</ele><time>2026-04-06T10:42:56.179Z</time></trkpt><trkpt lat="51.4860407" lon="3.9550544"><ele>0.0</ele><time>2026-04-06T10:42:58.179Z</time></trkpt><trkpt lat="51.48609" lon="3.9549017"><ele>0.0</ele><time>2026-04-06T10:43:00.179Z</time></trkpt><trkpt lat="51.4861202" lon="3.9547427"><ele>0.0</ele><time>2026-04-06T10:43:02.179Z</time></trkpt><trkpt lat="51.4861311" lon="3.9545581"><ele>0.0</ele><time>2026-04-06T10:43:04.179Z</time></trkpt><trkpt lat="51.4861245" lon="3.9544476"><ele>0.0</ele><time>2026-04-06T10:43:05.179Z</time></trkpt><trkpt lat="51.4861133" lon="3.9543384"><ele>0.0</ele><time>2026-04-06T10:43:06.179Z</time></trkpt><trkpt lat="51.4860927" lon="3.9542188"><ele>0.0</ele><time>2026-04-06T10:43:07.179Z</time></trkpt><trkpt lat="51.4860725" lon="3.9540921"><ele>0.0</ele><time>2026-04-06T10:43:08.179Z</time></trkpt><trkpt lat="51.4860551" lon="3.9539689"><ele>-0.14285714285714285</ele><time>2026-04-06T10:43:09.179Z</time></trkpt><trkpt lat="51.4860362" lon="3.9538502"><ele>-0.2857142857142857</ele><time>2026-04-06T10:43:10.179Z</time></trkpt><trkpt lat="51.486018" lon="3.9537374"><ele>-0.42857142857142855</ele><time>2026-04-06T10:43:11.179Z</time></trkpt><trkpt lat="51.4860015" lon="3.953629"><ele>-0.5714285714285714</ele><time>2026-04-06T10:43:12.179Z</time></trkpt><trkpt lat="51.485984" lon="3.9535172"><ele>-0.7142857142857142</ele><time>2026-04-06T10:43:13.179Z</time></trkpt><trkpt lat="51.4859679" lon="3.9534043"><ele>-0.8571428571428571</ele><time>2026-04-06T10:43:14.179Z</time></trkpt><trkpt lat="51.4859484" lon="3.9532902"><ele>-1.0</ele><time>2026-04-06T10:43:15.179Z</time></trkpt><trkpt lat="51.4859318" lon="3.9531721"><ele>-0.9999999999999999</ele><time>2026-04-06T10:43:16.179Z</time></trkpt><trkpt lat="51.4859096" lon="3.95305"><ele>-1.0</ele><time>2026-04-06T10:43:17.179Z</time></trkpt><trkpt lat="51.4858922" lon="3.9529262"><ele>-1.0</ele><time>2026-04-06T10:43:18.179Z</time></trkpt><trkpt lat="51.485872" lon="3.9527976"><ele>-1.0</ele><time>2026-04-06T10:43:19.179Z</time></trkpt><trkpt lat="51.4858545" lon="3.9526701"><ele>-0.9999999999999999</ele><time>2026-04-06T10:43:20.179Z</time></trkpt><trkpt lat="51.485835" lon="3.9525475"><ele>-1.0</ele><time>2026-04-06T10:43:21.179Z</time></trkpt><trkpt lat="51.4858183" lon="3.9524211"><ele>-1.0</ele><time>2026-04-06T10:43:22.179Z</time></trkpt><trkpt lat="51.4858068" lon="3.952296"><ele>-0.9999999999999999</ele><time>2026-04-06T10:43:23.179Z</time></trkpt><trkpt lat="51.485801" lon="3.9521739"><ele>-1.0</ele><time>2026-04-06T10:43:24.179Z</time></trkpt><trkpt lat="51.4858024" lon="3.9520574"><ele>-1.0</ele><time>2026-04-06T10:43:25.179Z</time></trkpt><trkpt lat="51.4858146" lon="3.9519436"><ele>-0.9999999999999999</ele><time>2026-04-06T10:43:26.179Z</time></trkpt><trkpt lat="51.4858381" lon="3.9518374"><ele>-1.0</ele><time>2026-04-06T10:43:27.179Z</time></trkpt><trkpt lat="51.4858756" lon="3.9517386"><ele>-1.0</ele><time>2026-04-06T10:43:28.179Z</time></trkpt><trkpt lat="51.4859193" lon="3.9516451"><ele>-1.0</ele><time>2026-04-06T10:43:29.179Z</time></trkpt><trkpt lat="51.485968" lon="3.9515529"><ele>-0.9999999999999999</ele><time>2026-04-06T10:43:30.179Z</time></trkpt><trkpt lat="51.4860116" lon="3.9514669"><ele>-1.0</ele><time>2026-04-06T10:43:31.179Z</time></trkpt><trkpt lat="51.4860603" lon="3.9513758"><ele>-1.0</ele><time>2026-04-06T10:43:32.179Z</time></trkpt><trkpt lat="51.4861059" lon="3.951289"><ele>-0.9999999999999999</ele><time>2026-04-06T10:43:33.179Z</time></trkpt><trkpt lat="51.4861551" lon="3.9512094"><ele>-1.0</ele><time>2026-04-06T10:43:34.179Z</time></trkpt><trkpt lat="51.4862003" lon="3.9511339"><ele>-1.0</ele><time>2026-04-06T10:43:35.179Z</time></trkpt><trkpt lat="51.4862974" lon="3.9510013"><ele>-0.9999999999999999</ele><time>2026-04-06T10:43:37.179Z</time></trkpt><trkpt lat="51.4863562" lon="3.9509448"><ele>-1.0</ele><time>2026-04-06T10:43:38.179Z</time></trkpt><trkpt lat="51.4864221" lon="3.9508932"><ele>-1.0</ele><time>2026-04-06T10:43:39.179Z</time></trkpt><trkpt lat="51.4864959" lon="3.9508389"><ele>-1.0</ele><time>2026-04-06T10:43:40.179Z</time></trkpt><trkpt lat="51.4865741" lon="3.9507801"><ele>-0.9999999999999999</ele><time>2026-04-06T10:43:41.179Z</time></trkpt><trkpt lat="51.4866565" lon="3.9507205"><ele>-1.0</ele><time>2026-04-06T10:43:42.179Z</time></trkpt><trkpt lat="51.4867389" lon="3.9506615"><ele>-0.9999999999999999</ele><time>2026-04-06T10:43:43.179Z</time></trkpt><trkpt lat="51.4868152" lon="3.9506063"><ele>-1.0</ele><time>2026-04-06T10:43:44.179Z</time></trkpt><trkpt lat="51.4868917" lon="3.9505567"><ele>-1.0</ele><time>2026-04-06T10:43:45.179Z</time></trkpt><trkpt lat="51.4869651" lon="3.9505078"><ele>-1.0</ele><time>2026-04-06T10:43:46.179Z</time></trkpt><trkpt lat="51.4870366" lon="3.9504579"><ele>-0.9999999999999999</ele><time>2026-04-06T10:43:47.179Z</time></trkpt><trkpt lat="51.4870989" lon="3.9504149"><ele>-1.0</ele><time>2026-04-06T10:43:48.179Z</time></trkpt><trkpt lat="51.4871678" lon="3.9503667"><ele>-0.9999999999999999</ele><time>2026-04-06T10:43:49.179Z</time></trkpt><trkpt lat="51.4872403" lon="3.9503177"><ele>-1.0</ele><time>2026-04-06T10:43:50.179Z</time></trkpt><trkpt lat="51.4873088" lon="3.9502716"><ele>-1.0</ele><time>2026-04-06T10:43:51.179Z</time></trkpt><trkpt lat="51.4873682" lon="3.950232"><ele>-1.0</ele><time>2026-04-06T10:43:52.179Z</time></trkpt><trkpt lat="51.4874522" lon="3.950177"><ele>-0.9999999999999999</ele><time>2026-04-06T10:43:54.179Z</time></trkpt><trkpt lat="51.4875195" lon="3.9501348"><ele>-1.0</ele><time>2026-04-06T10:43:56.179Z</time></trkpt><trkpt lat="51.4876038" lon="3.9500713"><ele>-1.0</ele><time>2026-04-06T10:43:58.179Z</time></trkpt><trkpt lat="51.4877181" lon="3.9499783"><ele>-1.0</ele><time>2026-04-06T10:44:00.179Z</time></trkpt><trkpt lat="51.4877927" lon="3.9499224"><ele>-1.0</ele><time>2026-04-06T10:44:01.179Z</time></trkpt><trkpt lat="51.4878744" lon="3.9498559"><ele>-1.0</ele><time>2026-04-06T10:44:02.179Z</time></trkpt><trkpt lat="51.4879574" lon="3.9497969"><ele>-1.0</ele><time>2026-04-06T10:44:03.179Z</time></trkpt><trkpt lat="51.4880456" lon="3.9497321"><ele>-1.0</ele><time>2026-04-06T10:44:04.179Z</time></trkpt><trkpt lat="51.4881374" lon="3.9496676"><ele>-1.0</ele><time>2026-04-06T10:44:05.179Z</time></trkpt><trkpt lat="51.4882338" lon="3.9496013"><ele>-1.0</ele><time>2026-04-06T10:44:06.179Z</time></trkpt><trkpt lat="51.4883348" lon="3.9495306"><ele>-1.0</ele><time>2026-04-06T10:44:07.179Z</time></trkpt><trkpt lat="51.4884375" lon="3.9494619"><ele>-1.0</ele><time>2026-04-06T10:44:08.179Z</time></trkpt><trkpt lat="51.4885424" lon="3.9493872"><ele>-1.0</ele><time>2026-04-06T10:44:09.179Z</time></trkpt><trkpt lat="51.488645" lon="3.9493158"><ele>-1.0</ele><time>2026-04-06T10:44:10.179Z</time></trkpt><trkpt lat="51.4887498" lon="3.949242"><ele>-1.0</ele><time>2026-04-06T10:44:11.179Z</time></trkpt><trkpt lat="51.4888523" lon="3.9491675"><ele>-1.0</ele><time>2026-04-06T10:44:12.179Z</time></trkpt><trkpt lat="51.4889539" lon="3.9490922"><ele>-1.2000000000000002</ele><time>2026-04-06T10:44:13.179Z</time></trkpt><trkpt lat="51.4890539" lon="3.9490204"><ele>-1.4000000000000001</ele><time>2026-04-06T10:44:14.179Z</time></trkpt><trkpt lat="51.4891526" lon="3.9489533"><ele>-1.6</ele><time>2026-04-06T10:44:15.179Z</time></trkpt><trkpt lat="51.4892496" lon="3.9488875"><ele>-1.8</ele><time>2026-04-06T10:44:16.179Z</time></trkpt><trkpt lat="51.4893467" lon="3.9488201"><ele>-2.0</ele><time>2026-04-06T10:44:17.179Z</time></trkpt><trkpt lat="51.4894419" lon="3.9487551"><ele>-2.0</ele><time>2026-04-06T10:44:18.179Z</time></trkpt><trkpt lat="51.4895397" lon="3.948695"><ele>-2.0</ele><time>2026-04-06T10:44:19.179Z</time></trkpt><trkpt lat="51.4896355" lon="3.9486307"><ele>-2.0</ele><time>2026-04-06T10:44:20.179Z</time></trkpt><trkpt lat="51.4897273" lon="3.9485704"><ele>-2.0</ele><time>2026-04-06T10:44:21.179Z</time></trkpt><trkpt lat="51.4898132" lon="3.9485145"><ele>-2.0</ele><time>2026-04-06T10:44:22.179Z</time></trkpt><trkpt lat="51.4898914" lon="3.9484613"><ele>-1.9999999999999998</ele><time>2026-04-06T10:44:23.179Z</time></trkpt><trkpt lat="51.4899631" lon="3.9484078"><ele>-2.0</ele><time>2026-04-06T10:44:24.179Z</time></trkpt><trkpt lat="51.4900292" lon="3.9483602"><ele>-2.0</ele><time>2026-04-06T10:44:25.179Z</time></trkpt><trkpt lat="51.4900907" lon="3.948328"><ele>-2.0</ele><time>2026-04-06T10:44:26.179Z</time></trkpt><trkpt lat="51.4902072" lon="3.9483173"><ele>-1.9999999999999998</ele><time>2026-04-06T10:44:28.179Z</time></trkpt><trkpt lat="51.4903101" lon="3.9483498"><ele>-2.0</ele><time>2026-04-06T10:44:30.179Z</time></trkpt><trkpt lat="51.4904005" lon="3.9484537"><ele>-1.9999999999999998</ele><time>2026-04-06T10:44:32.179Z</time></trkpt><trkpt lat="51.490463" lon="3.9486272"><ele>-2.0</ele><time>2026-04-06T10:44:34.179Z</time></trkpt><trkpt lat="51.4904714" lon="3.9487326"><ele>-2.0</ele><time>2026-04-06T10:44:35.179Z</time></trkpt><trkpt lat="51.4904709" lon="3.9488488"><ele>-2.0</ele><time>2026-04-06T10:44:36.179Z</time></trkpt><trkpt lat="51.4904729" lon="3.9489754"><ele>-1.9999999999999998</ele><time>2026-04-06T10:44:37.179Z</time></trkpt><trkpt lat="51.4904762" lon="3.949108"><ele>-2.0</ele><time>2026-04-06T10:44:38.179Z</time></trkpt><trkpt lat="51.490481" lon="3.9492504"><ele>-2.0</ele><time>2026-04-06T10:44:39.179Z</time></trkpt><trkpt lat="51.4904868" lon="3.9494042"><ele>-2.0</ele><time>2026-04-06T10:44:40.179Z</time></trkpt><trkpt lat="51.4904843" lon="3.9495814"><ele>-2.0</ele><time>2026-04-06T10:44:41.179Z</time></trkpt><trkpt lat="51.4904836" lon="3.9497675"><ele>-2.0</ele><time>2026-04-06T10:44:42.179Z</time></trkpt><trkpt lat="51.4904836" lon="3.9499565"><ele>-2.0</ele><time>2026-04-06T10:44:43.179Z</time></trkpt><trkpt lat="51.4904843" lon="3.9501453"><ele>-2.0</ele><time>2026-04-06T10:44:44.179Z</time></trkpt><trkpt lat="51.490486" lon="3.9503457"><ele>-2.0</ele><time>2026-04-06T10:44:45.179Z</time></trkpt><trkpt lat="51.4904864" lon="3.950552"><ele>-2.0</ele><time>2026-04-06T10:44:46.179Z</time></trkpt><trkpt lat="51.490488" lon="3.9507671"><ele>-2.0</ele><time>2026-04-06T10:44:47.179Z</time></trkpt><trkpt lat="51.4904892" lon="3.9509845"><ele>-1.75</ele><time>2026-04-06T10:44:48.179Z</time></trkpt><trkpt lat="51.4904978" lon="3.9512074"><ele>-1.5</ele><time>2026-04-06T10:44:49.179Z</time></trkpt><trkpt lat="51.4905105" lon="3.9514328"><ele>-1.25</ele><time>2026-04-06T10:44:50.179Z</time></trkpt><trkpt lat="51.4905299" lon="3.9516612"><ele>-1.0</ele><time>2026-04-06T10:44:51.179Z</time></trkpt><trkpt lat="51.4905569" lon="3.9518925"><ele>-1.0</ele><time>2026-04-06T10:44:52.179Z</time></trkpt><trkpt lat="51.4905907" lon="3.9521265"><ele>-1.0</ele><time>2026-04-06T10:44:53.179Z</time></trkpt><trkpt lat="51.4906333" lon="3.9523574"><ele>-1.0</ele><time>2026-04-06T10:44:54.179Z</time></trkpt><trkpt lat="51.4906825" lon="3.9525908"><ele>-1.6666666666666665</ele><time>2026-04-06T10:44:55.179Z</time></trkpt><trkpt lat="51.4907379" lon="3.9528282"><ele>-2.3333333333333335</ele><time>2026-04-06T10:44:56.179Z</time></trkpt><trkpt lat="51.4907981" lon="3.953065"><ele>-3.0</ele><time>2026-04-06T10:44:57.179Z</time></trkpt><trkpt lat="51.4908638" lon="3.9532994"><ele>-2.6666666666666665</ele><time>2026-04-06T10:44:58.179Z</time></trkpt><trkpt lat="51.4909396" lon="3.9535259"><ele>-2.333333333333333</ele><time>2026-04-06T10:44:59.179Z</time></trkpt><trkpt lat="51.4910203" lon="3.9537512"><ele>-2.0</ele><time>2026-04-06T10:45:00.179Z</time></trkpt><trkpt lat="51.4910991" lon="3.9539696"><ele>-2.0</ele><time>2026-04-06T10:45:01.179Z</time></trkpt><trkpt lat="51.4911779" lon="3.9541927"><ele>-2.0</ele><time>2026-04-06T10:45:02.179Z</time></trkpt><trkpt lat="51.4912547" lon="3.9544143"><ele>-2.0</ele><time>2026-04-06T10:45:03.18Z</time></trkpt><trkpt lat="51.4913305" lon="3.954633"><ele>-2.0</ele><time>2026-04-06T10:45:04.179Z</time></trkpt><trkpt lat="51.4913942" lon="3.9548395"><ele>-2.0</ele><time>2026-04-06T10:45:05.179Z</time></trkpt><trkpt lat="51.4914434" lon="3.9550367"><ele>-2.0</ele><time>2026-04-06T10:45:06.179Z</time></trkpt><trkpt lat="51.4915001" lon="3.9552239"><ele>-2.0</ele><time>2026-04-06T10:45:07.179Z</time></trkpt><trkpt lat="51.4915497" lon="3.9554163"><ele>-2.0</ele><time>2026-04-06T10:45:08.179Z</time></trkpt><trkpt lat="51.4915919" lon="3.9556153"><ele>-2.0</ele><time>2026-04-06T10:45:09.179Z</time></trkpt><trkpt lat="51.491628" lon="3.9558228"><ele>-2.0</ele><time>2026-04-06T10:45:10.179Z</time></trkpt><trkpt lat="51.4916584" lon="3.956039"><ele>-2.0</ele><time>2026-04-06T10:45:11.179Z</time></trkpt><trkpt lat="51.4916853" lon="3.956258"><ele>-2.0</ele><time>2026-04-06T10:45:12.179Z</time></trkpt><trkpt lat="51.491711" lon="3.9564707"><ele>-2.0</ele><time>2026-04-06T10:45:13.179Z</time></trkpt><trkpt lat="51.4917289" lon="3.9566898"><ele>-2.0</ele><time>2026-04-06T10:45:14.179Z</time></trkpt><trkpt lat="51.4917449" lon="3.95692"><ele>-2.0</ele><time>2026-04-06T10:45:15.179Z</time></trkpt><trkpt lat="51.4917533" lon="3.9571423"><ele>-2.0</ele><time>2026-04-06T10:45:16.179Z</time></trkpt><trkpt lat="51.4917522" lon="3.9573557"><ele>-2.0</ele><time>2026-04-06T10:45:17.179Z</time></trkpt><trkpt lat="51.4917444" lon="3.9575729"><ele>-2.0</ele><time>2026-04-06T10:45:18.179Z</time></trkpt><trkpt lat="51.491734" lon="3.9577949"><ele>-2.0</ele><time>2026-04-06T10:45:19.179Z</time></trkpt><trkpt lat="51.4917202" lon="3.9580179"><ele>-2.0</ele><time>2026-04-06T10:45:20.179Z</time></trkpt><trkpt lat="51.4917039" lon="3.9582372"><ele>-2.0</ele><time>2026-04-06T10:45:21.179Z</time></trkpt><trkpt lat="51.4916799" lon="3.9584558"><ele>-2.0</ele><time>2026-04-06T10:45:22.179Z</time></trkpt><trkpt lat="51.4916462" lon="3.9586663"><ele>-2.0</ele><time>2026-04-06T10:45:23.179Z</time></trkpt><trkpt lat="51.4916137" lon="3.9588781"><ele>-2.0</ele><time>2026-04-06T10:45:24.179Z</time></trkpt><trkpt lat="51.49158" lon="3.9590888"><ele>-2.0</ele><time>2026-04-06T10:45:25.179Z</time></trkpt><trkpt lat="51.4915439" lon="3.9593003"><ele>-2.0</ele><time>2026-04-06T10:45:26.179Z</time></trkpt><trkpt lat="51.4915079" lon="3.9595015"><ele>-2.0</ele><time>2026-04-06T10:45:27.179Z</time></trkpt><trkpt lat="51.4914714" lon="3.9597028"><ele>-1.75</ele><time>2026-04-06T10:45:28.179Z</time></trkpt><trkpt lat="51.4914382" lon="3.9599048"><ele>-1.5</ele><time>2026-04-06T10:45:29.179Z</time></trkpt><trkpt lat="51.4913997" lon="3.960111"><ele>-1.25</ele><time>2026-04-06T10:45:30.179Z</time></trkpt><trkpt lat="51.4913594" lon="3.9603164"><ele>-1.0</ele><time>2026-04-06T10:45:31.179Z</time></trkpt><trkpt lat="51.4913222" lon="3.9605083"><ele>-0.9999999999999999</ele><time>2026-04-06T10:45:32.179Z</time></trkpt><trkpt lat="51.4912919" lon="3.9606755"><ele>-1.0</ele><time>2026-04-06T10:45:33.18Z</time></trkpt><trkpt lat="51.4912689" lon="3.9608157"><ele>-1.0</ele><time>2026-04-06T10:45:34.179Z</time></trkpt><trkpt lat="51.4912496" lon="3.960937"><ele>-1.0</ele><time>2026-04-06T10:45:35.179Z</time></trkpt><trkpt lat="51.491233" lon="3.9610369"><ele>-0.9999999999999999</ele><time>2026-04-06T10:45:36.179Z</time></trkpt><trkpt lat="51.4912035" lon="3.9611928"><ele>-1.0</ele><time>2026-04-06T10:45:38.179Z</time></trkpt><trkpt lat="51.4911764" lon="3.9613195"><ele>-1.0</ele><time>2026-04-06T10:45:41.179Z</time></trkpt><trkpt lat="51.4911345" lon="3.9614243"><ele>-1.0</ele><time>2026-04-06T10:45:44.179Z</time></trkpt><trkpt lat="51.4910658" lon="3.9615065"><ele>-1.0</ele><time>2026-04-06T10:45:46.179Z</time></trkpt><trkpt lat="51.4909657" lon="3.9615523"><ele>-1.0</ele><time>2026-04-06T10:45:48.179Z</time></trkpt><trkpt lat="51.4908464" lon="3.9615198"><ele>-1.0</ele><time>2026-04-06T10:45:50.179Z</time></trkpt><trkpt lat="51.490728" lon="3.9614868"><ele>-0.9999999999999999</ele><time>2026-04-06T10:45:52.179Z</time></trkpt><trkpt lat="51.4906655" lon="3.9614743"><ele>-1.0</ele><time>2026-04-06T10:45:53.179Z</time></trkpt><trkpt lat="51.4906018" lon="3.9614653"><ele>-1.0</ele><time>2026-04-06T10:45:54.179Z</time></trkpt><trkpt lat="51.4904808" lon="3.9614702"><ele>-1.0</ele><time>2026-04-06T10:45:56.179Z</time></trkpt><trkpt lat="51.4903997" lon="3.9614806"><ele>-0.9999999999999999</ele><time>2026-04-06T10:45:59.179Z</time></trkpt><trkpt lat="51.4903223" lon="3.9614959"><ele>-1.0</ele><time>2026-04-06T10:46:02.178Z</time></trkpt><trkpt lat="51.4902407" lon="3.9614159"><ele>-0.9999999999999999</ele><time>2026-04-06T10:46:05.178Z</time></trkpt><trkpt lat="51.4902189" lon="3.9612801"><ele>-1.0</ele><time>2026-04-06T10:46:07.178Z</time></trkpt><trkpt lat="51.4902167" lon="3.9610901"><ele>-1.0</ele><time>2026-04-06T10:46:09.178Z</time></trkpt><trkpt lat="51.490218" lon="3.9609807"><ele>-1.0</ele><time>2026-04-06T10:46:10.178Z</time></trkpt><trkpt lat="51.4902206" lon="3.9608603"><ele>-0.9999999999999999</ele><time>2026-04-06T10:46:11.178Z</time></trkpt><trkpt lat="51.4902236" lon="3.9607382"><ele>-1.0</ele><time>2026-04-06T10:46:12.178Z</time></trkpt><trkpt lat="51.4902293" lon="3.9606238"><ele>-0.9999999999999999</ele><time>2026-04-06T10:46:13.178Z</time></trkpt><trkpt lat="51.4902406" lon="3.9605139"><ele>-1.0</ele><time>2026-04-06T10:46:14.178Z</time></trkpt><trkpt lat="51.4902525" lon="3.960411"><ele>-1.0</ele><time>2026-04-06T10:46:15.178Z</time></trkpt><trkpt lat="51.4902654" lon="3.9603115"><ele>-1.0</ele><time>2026-04-06T10:46:16.178Z</time></trkpt><trkpt lat="51.4902992" lon="3.9601335"><ele>-0.9999999999999999</ele><time>2026-04-06T10:46:18.178Z</time></trkpt><trkpt lat="51.4903355" lon="3.9599866"><ele>-1.0</ele><time>2026-04-06T10:46:20.178Z</time></trkpt><trkpt lat="51.4903417" lon="3.9598613"><ele>-0.8333333333333333</ele><time>2026-04-06T10:46:22.178Z</time></trkpt><trkpt lat="51.4902958" lon="3.9597741"><ele>-0.6666666666666666</ele><time>2026-04-06T10:46:24.178Z</time></trkpt><trkpt lat="51.4902318" lon="3.959708"><ele>-0.5</ele><time>2026-04-06T10:46:26.178Z</time></trkpt><trkpt lat="51.4901613" lon="3.9596409"><ele>-0.3333333333333333</ele><time>2026-04-06T10:46:28.178Z</time></trkpt><trkpt lat="51.4901059" lon="3.9595469"><ele>-0.16666666666666666</ele><time>2026-04-06T10:46:30.178Z</time></trkpt><trkpt lat="51.4901156" lon="3.9594231"><ele>0.0</ele><time>2026-04-06T10:46:32.178Z</time></trkpt><trkpt lat="51.4901842" lon="3.959307"><ele>0.0</ele><time>2026-04-06T10:46:34.178Z</time></trkpt><trkpt lat="51.4902595" lon="3.9591584"><ele>0.0</ele><time>2026-04-06T10:46:36.178Z</time></trkpt><trkpt lat="51.4903418" lon="3.9590081"><ele>0.0</ele><time>2026-04-06T10:46:38.178Z</time></trkpt><trkpt lat="51.4904209" lon="3.9588533"><ele>0.0</ele><time>2026-04-06T10:46:40.178Z</time></trkpt><trkpt lat="51.4904935" lon="3.9586987"><ele>-0.16666666666666666</ele><time>2026-04-06T10:46:42.178Z</time></trkpt><trkpt lat="51.4905429" lon="3.9586008"><ele>-0.3333333333333333</ele><time>2026-04-06T10:46:44.178Z</time></trkpt><trkpt lat="51.4905927" lon="3.9585011"><ele>-0.5</ele><time>2026-04-06T10:46:55.178Z</time></trkpt><trkpt lat="51.4906293" lon="3.9583935"><ele>-0.6666666666666666</ele><time>2026-04-06T10:46:57.178Z</time></trkpt><trkpt lat="51.4906771" lon="3.9582508"><ele>-0.8333333333333333</ele><time>2026-04-06T10:46:59.178Z</time></trkpt><trkpt lat="51.4907276" lon="3.9581114"><ele>-1.0</ele><time>2026-04-06T10:47:01.178Z</time></trkpt><trkpt lat="51.4907715" lon="3.9579846"><ele>-0.9999999999999999</ele><time>2026-04-06T10:47:03.178Z</time></trkpt><trkpt lat="51.4908089" lon="3.9578734"><ele>-1.0</ele><time>2026-04-06T10:47:05.178Z</time></trkpt><trkpt lat="51.4908419" lon="3.9577654"><ele>-1.0</ele><time>2026-04-06T10:47:07.178Z</time></trkpt><trkpt lat="51.4908725" lon="3.9576497"><ele>-1.0</ele><time>2026-04-06T10:47:09.178Z</time></trkpt><trkpt lat="51.4908973" lon="3.957534"><ele>-0.9999999999999999</ele><time>2026-04-06T10:47:11.178Z</time></trkpt><trkpt lat="51.4909196" lon="3.9574235"><ele>-1.0</ele><time>2026-04-06T10:47:13.178Z</time></trkpt><trkpt lat="51.4908644" lon="3.9573252"><ele>-1.0</ele><time>2026-04-06T10:47:16.178Z</time></trkpt><trkpt lat="51.4907942" lon="3.9573158"><ele>-0.9999999999999999</ele><time>2026-04-06T10:47:18.178Z</time></trkpt><trkpt lat="51.4907244" lon="3.9572987"><ele>-1.0</ele><time>2026-04-06T10:47:20.178Z</time></trkpt><trkpt lat="51.4906558" lon="3.9572738"><ele>-1.0</ele><time>2026-04-06T10:47:25.178Z</time></trkpt><trkpt lat="51.4905885" lon="3.9572563"><ele>-0.9999999999999999</ele><time>2026-04-06T10:47:27.178Z</time></trkpt><trkpt lat="51.4905269" lon="3.957359"><ele>-1.0</ele><time>2026-04-06T10:47:30.178Z</time></trkpt><trkpt lat="51.4904813" lon="3.9574554"><ele>-1.0</ele><time>2026-04-06T10:47:32.178Z</time></trkpt><trkpt lat="51.4904543" lon="3.9575491"><ele>-0.9999999999999999</ele><time>2026-04-06T10:47:34.178Z</time></trkpt><trkpt lat="51.4905092" lon="3.9576579"><ele>-1.0</ele><time>2026-04-06T10:47:37.178Z</time></trkpt><trkpt lat="51.4905739" lon="3.9577191"><ele>-1.0</ele><time>2026-04-06T10:47:40.178Z</time></trkpt><trkpt lat="51.4906366" lon="3.9577357"><ele>-1.0</ele><time>2026-04-06T10:48:39.178Z</time></trkpt><trkpt lat="51.4906983" lon="3.9578068"><ele>-0.9999999999999999</ele><time>2026-04-06T10:49:52.178Z</time></trkpt><trkpt lat="51.490748" lon="3.9578784"><ele>-1.0</ele><time>2026-04-06T10:49:54.178Z</time></trkpt><trkpt lat="51.4908637" lon="3.9576976"><ele>-0.9999999999999999</ele><time>2026-04-06T10:49:59.178Z</time></trkpt><trkpt lat="51.4908928" lon="3.9575235"><ele>-1.0</ele><time>2026-04-06T10:50:01.178Z</time></trkpt><trkpt lat="51.4909371" lon="3.9573479"><ele>-1.0</ele><time>2026-04-06T10:50:03.178Z</time></trkpt><trkpt lat="51.4909522" lon="3.9572488"><ele>-1.0</ele><time>2026-04-06T10:50:04.178Z</time></trkpt><trkpt lat="51.490967" lon="3.9571476"><ele>-0.9999999999999999</ele><time>2026-04-06T10:50:05.178Z</time></trkpt><trkpt lat="51.4909761" lon="3.9570385"><ele>-1.0</ele><time>2026-04-06T10:50:06.178Z</time></trkpt><trkpt lat="51.4909847" lon="3.9569296"><ele>-1.0</ele><time>2026-04-06T10:50:07.178Z</time></trkpt><trkpt lat="51.4909878" lon="3.9568216"><ele>-1.0</ele><time>2026-04-06T10:50:08.178Z</time></trkpt><trkpt lat="51.4909949" lon="3.9566332"><ele>-1.0</ele><time>2026-04-06T10:50:10.178Z</time></trkpt><trkpt lat="51.490992" lon="3.9564619"><ele>-1.0</ele><time>2026-04-06T10:50:12.178Z</time></trkpt><trkpt lat="51.4909904" lon="3.9562968"><ele>-1.0</ele><time>2026-04-06T10:50:14.178Z</time></trkpt><trkpt lat="51.4909646" lon="3.9561814"><ele>-0.9999999999999999</ele><time>2026-04-06T10:50:16.178Z</time></trkpt><trkpt lat="51.4908959" lon="3.9561399"><ele>-1.0</ele><time>2026-04-06T10:50:18.178Z</time></trkpt><trkpt lat="51.4907936" lon="3.956176"><ele>-1.0</ele><time>2026-04-06T10:50:20.178Z</time></trkpt><trkpt lat="51.4907305" lon="3.9562065"><ele>-1.0</ele><time>2026-04-06T10:50:21.178Z</time></trkpt><trkpt lat="51.4906712" lon="3.9562429"><ele>-0.9999999999999999</ele><time>2026-04-06T10:50:22.179Z</time></trkpt><trkpt lat="51.4905699" lon="3.9563216"><ele>-1.0</ele><time>2026-04-06T10:50:24.178Z</time></trkpt><trkpt lat="51.4904697" lon="3.9563276"><ele>-0.9999999999999999</ele><time>2026-04-06T10:50:26.178Z</time></trkpt><trkpt lat="51.4903959" lon="3.9562316"><ele>-1.0</ele><time>2026-04-06T10:50:28.178Z</time></trkpt><trkpt lat="51.4903706" lon="3.956059"><ele>-1.0</ele><time>2026-04-06T10:50:30.178Z</time></trkpt><trkpt lat="51.4903558" lon="3.9559554"><ele>-1.0</ele><time>2026-04-06T10:50:31.178Z</time></trkpt><trkpt lat="51.490323" lon="3.9558461"><ele>-0.9999999999999999</ele><time>2026-04-06T10:50:32.178Z</time></trkpt><trkpt lat="51.4902929" lon="3.9557392"><ele>-1.0</ele><time>2026-04-06T10:50:33.178Z</time></trkpt><trkpt lat="51.49026" lon="3.9556316"><ele>-1.0</ele><time>2026-04-06T10:50:34.178Z</time></trkpt><trkpt lat="51.4902294" lon="3.9555353"><ele>-1.0</ele><time>2026-04-06T10:50:35.178Z</time></trkpt><trkpt lat="51.4902028" lon="3.9554413"><ele>-1.0</ele><time>2026-04-06T10:50:36.178Z</time></trkpt><trkpt lat="51.4901468" lon="3.9552738"><ele>-1.0</ele><time>2026-04-06T10:50:38.178Z</time></trkpt><trkpt lat="51.4900953" lon="3.9551127"><ele>-1.0</ele><time>2026-04-06T10:50:40.178Z</time></trkpt><trkpt lat="51.4900363" lon="3.9549176"><ele>-0.9999999999999999</ele><time>2026-04-06T10:50:42.178Z</time></trkpt><trkpt lat="51.4900043" lon="3.954809"><ele>-1.0</ele><time>2026-04-06T10:50:43.178Z</time></trkpt><trkpt lat="51.4899689" lon="3.954707"><ele>-1.0</ele><time>2026-04-06T10:50:44.178Z</time></trkpt><trkpt lat="51.4899383" lon="3.9546152"><ele>-1.0</ele><time>2026-04-06T10:50:45.178Z</time></trkpt><trkpt lat="51.4898855" lon="3.9544418"><ele>-0.9999999999999999</ele><time>2026-04-06T10:50:47.178Z</time></trkpt><trkpt lat="51.4898516" lon="3.95431"><ele>-1.0</ele><time>2026-04-06T10:50:49.178Z</time></trkpt><trkpt lat="51.4898434" lon="3.9541885"><ele>-0.8</ele><time>2026-04-06T10:50:52.178Z</time></trkpt><trkpt lat="51.4898414" lon="3.9540801"><ele>-0.6000000000000001</ele><time>2026-04-06T10:50:54.178Z</time></trkpt><trkpt lat="51.4898333" lon="3.9539313"><ele>-0.4</ele><time>2026-04-06T10:50:56.178Z</time></trkpt><trkpt lat="51.4898215" lon="3.9537441"><ele>-0.2</ele><time>2026-04-06T10:50:58.178Z</time></trkpt><trkpt lat="51.4898151" lon="3.9536431"><ele>0.0</ele><time>2026-04-06T10:50:59.178Z</time></trkpt><trkpt lat="51.4897772" lon="3.9534759"><ele>-0.2</ele><time>2026-04-06T10:51:01.178Z</time></trkpt><trkpt lat="51.4897301" lon="3.9533183"><ele>-0.4</ele><time>2026-04-06T10:51:03.178Z</time></trkpt><trkpt lat="51.4896828" lon="3.9531897"><ele>-0.6000000000000001</ele><time>2026-04-06T10:51:05.178Z</time></trkpt><trkpt lat="51.4896298" lon="3.9530559"><ele>-0.8</ele><time>2026-04-06T10:51:07.178Z</time></trkpt><trkpt lat="51.4895762" lon="3.9529063"><ele>-1.0</ele><time>2026-04-06T10:51:09.178Z</time></trkpt><trkpt lat="51.489535" lon="3.9527814"><ele>-1.1666666666666665</ele><time>2026-04-06T10:51:11.178Z</time></trkpt><trkpt lat="51.4895024" lon="3.9526918"><ele>-1.3333333333333333</ele><time>2026-04-06T10:51:15.178Z</time></trkpt><trkpt lat="51.489454" lon="3.9525542"><ele>-1.5</ele><time>2026-04-06T10:51:47.178Z</time></trkpt><trkpt lat="51.4894171" lon="3.9524543"><ele>-1.6666666666666665</ele><time>2026-04-06T10:51:49.178Z</time></trkpt><trkpt lat="51.4893717" lon="3.9523262"><ele>-1.8333333333333333</ele><time>2026-04-06T10:51:51.178Z</time></trkpt><trkpt lat="51.4893217" lon="3.9521787"><ele>-2.0</ele><time>2026-04-06T10:51:53.178Z</time></trkpt><trkpt lat="51.4892507" lon="3.9520496"><ele>-1.9999999999999998</ele><time>2026-04-06T10:51:55.178Z</time></trkpt><trkpt lat="51.4891756" lon="3.9519855"><ele>-2.0</ele><time>2026-04-06T10:51:57.178Z</time></trkpt><trkpt lat="51.4891007" lon="3.9519395"><ele>-2.0</ele><time>2026-04-06T10:51:59.178Z</time></trkpt><trkpt lat="51.4890231" lon="3.951894"><ele>-2.0</ele><time>2026-04-06T10:52:01.178Z</time></trkpt><trkpt lat="51.4889417" lon="3.9518696"><ele>-1.9999999999999998</ele><time>2026-04-06T10:52:03.178Z</time></trkpt><trkpt lat="51.488866" lon="3.9518804"><ele>-2.0</ele><time>2026-04-06T10:52:05.178Z</time></trkpt><trkpt lat="51.4887936" lon="3.9518839"><ele>-1.8</ele><time>2026-04-06T10:52:07.178Z</time></trkpt><trkpt lat="51.4887221" lon="3.9519126"><ele>-1.6</ele><time>2026-04-06T10:52:09.178Z</time></trkpt><trkpt lat="51.4886457" lon="3.9519123"><ele>-1.4000000000000001</ele><time>2026-04-06T10:52:11.178Z</time></trkpt><trkpt lat="51.4885561" lon="3.9519158"><ele>-1.2000000000000002</ele><time>2026-04-06T10:52:13.178Z</time></trkpt><trkpt lat="51.4884537" lon="3.9519313"><ele>-1.0</ele><time>2026-04-06T10:52:15.178Z</time></trkpt><trkpt lat="51.4883366" lon="3.9519537"><ele>-0.9999999999999999</ele><time>2026-04-06T10:52:17.179Z</time></trkpt><trkpt lat="51.4882309" lon="3.9519759"><ele>-1.0</ele><time>2026-04-06T10:52:19.178Z</time></trkpt><trkpt lat="51.488137" lon="3.9519992"><ele>-1.0</ele><time>2026-04-06T10:52:21.178Z</time></trkpt><trkpt lat="51.4880521" lon="3.9520143"><ele>-1.0</ele><time>2026-04-06T10:52:23.178Z</time></trkpt><trkpt lat="51.487978" lon="3.9520385"><ele>-0.9999999999999999</ele><time>2026-04-06T10:52:26.178Z</time></trkpt><trkpt lat="51.4879585" lon="3.952173"><ele>-1.0</ele><time>2026-04-06T10:52:30.178Z</time></trkpt><trkpt lat="51.4879871" lon="3.9523104"><ele>-0.9999999999999999</ele><time>2026-04-06T10:52:32.178Z</time></trkpt><trkpt lat="51.4879783" lon="3.9524118"><ele>-1.0</ele><time>2026-04-06T10:52:33.178Z</time></trkpt><trkpt lat="51.4879735" lon="3.9525157"><ele>-1.0</ele><time>2026-04-06T10:52:34.178Z</time></trkpt><trkpt lat="51.4879748" lon="3.9526919"><ele>-1.0</ele><time>2026-04-06T10:52:36.178Z</time></trkpt><trkpt lat="51.487986" lon="3.9528094"><ele>-0.9999999999999999</ele><time>2026-04-06T10:52:38.178Z</time></trkpt><trkpt lat="51.488007" lon="3.9529385"><ele>-1.0</ele><time>2026-04-06T10:52:40.178Z</time></trkpt><trkpt lat="51.4880336" lon="3.9530355"><ele>-1.1428571428571428</ele><time>2026-04-06T10:52:41.178Z</time></trkpt><trkpt lat="51.4880711" lon="3.9531356"><ele>-1.2857142857142856</ele><time>2026-04-06T10:52:42.178Z</time></trkpt><trkpt lat="51.4881191" lon="3.9532384"><ele>-1.4285714285714284</ele><time>2026-04-06T10:52:43.178Z</time></trkpt><trkpt lat="51.4881672" lon="3.9533264"><ele>-1.5714285714285714</ele><time>2026-04-06T10:52:44.178Z</time></trkpt><trkpt lat="51.48821" lon="3.9534255"><ele>-1.714285714285714</ele><time>2026-04-06T10:52:45.178Z</time></trkpt><trkpt lat="51.4882444" lon="3.9535255"><ele>-1.857142857142857</ele><time>2026-04-06T10:52:46.178Z</time></trkpt><trkpt lat="51.4882788" lon="3.9536229"><ele>-2.0</ele><time>2026-04-06T10:52:47.178Z</time></trkpt><trkpt lat="51.4883235" lon="3.9537084"><ele>-1.9999999999999998</ele><time>2026-04-06T10:52:48.178Z</time></trkpt><trkpt lat="51.4883676" lon="3.9537855"><ele>-2.0</ele><time>2026-04-06T10:52:49.178Z</time></trkpt><trkpt lat="51.488419" lon="3.9539324"><ele>-2.0</ele><time>2026-04-06T10:52:51.178Z</time></trkpt><trkpt lat="51.4883713" lon="3.9540465"><ele>-2.0</ele><time>2026-04-06T10:52:54.178Z</time></trkpt><trkpt lat="51.4883104" lon="3.9541153"><ele>-1.9999999999999998</ele><time>2026-04-06T10:52:56.178Z</time></trkpt><trkpt lat="51.4882329" lon="3.9542142"><ele>-2.0</ele><time>2026-04-06T10:52:58.178Z</time></trkpt><trkpt lat="51.488143" lon="3.9543191"><ele>-1.8333333333333333</ele><time>2026-04-06T10:53:00.178Z</time></trkpt><trkpt lat="51.4880916" lon="3.954378"><ele>-1.6666666666666665</ele><time>2026-04-06T10:53:01.179Z</time></trkpt><trkpt lat="51.4880176" lon="3.9544898"><ele>-1.5</ele><time>2026-04-06T10:53:03.178Z</time></trkpt><trkpt lat="51.488023" lon="3.9546063"><ele>-1.3333333333333333</ele><time>2026-04-06T10:53:05.178Z</time></trkpt><trkpt lat="51.4880835" lon="3.9547238"><ele>-1.1666666666666665</ele><time>2026-04-06T10:53:07.178Z</time></trkpt><trkpt lat="51.4881286" lon="3.9548072"><ele>-1.0</ele><time>2026-04-06T10:53:08.178Z</time></trkpt><trkpt lat="51.4881699" lon="3.9548905"><ele>-0.9999999999999999</ele><time>2026-04-06T10:53:09.178Z</time></trkpt><trkpt lat="51.4882144" lon="3.9549756"><ele>-1.0</ele><time>2026-04-06T10:53:10.178Z</time></trkpt><trkpt lat="51.4882621" lon="3.9550687"><ele>-1.0</ele><time>2026-04-06T10:53:11.178Z</time></trkpt><trkpt lat="51.4883041" lon="3.9551646"><ele>-1.0</ele><time>2026-04-06T10:53:12.178Z</time></trkpt><trkpt lat="51.4883467" lon="3.9552553"><ele>-0.9999999999999999</ele><time>2026-04-06T10:53:13.178Z</time></trkpt><trkpt lat="51.4883832" lon="3.9553378"><ele>-1.0</ele><time>2026-04-06T10:53:14.178Z</time></trkpt><trkpt lat="51.4884517" lon="3.9554826"><ele>-0.9999999999999999</ele><time>2026-04-06T10:53:16.179Z</time></trkpt><trkpt lat="51.4884548" lon="3.9556286"><ele>-1.0</ele><time>2026-04-06T10:53:18.178Z</time></trkpt><trkpt lat="51.4883747" lon="3.9557435"><ele>-1.0</ele><time>2026-04-06T10:53:20.178Z</time></trkpt><trkpt lat="51.4883189" lon="3.9558116"><ele>-1.0</ele><time>2026-04-06T10:53:21.178Z</time></trkpt><trkpt lat="51.4882612" lon="3.9558796"><ele>-0.9999999999999999</ele><time>2026-04-06T10:53:22.178Z</time></trkpt><trkpt lat="51.4882018" lon="3.9559413"><ele>-1.0</ele><time>2026-04-06T10:53:23.178Z</time></trkpt><trkpt lat="51.488138" lon="3.9560118"><ele>-0.8333333333333333</ele><time>2026-04-06T10:53:24.178Z</time></trkpt><trkpt lat="51.4880728" lon="3.9560846"><ele>-0.6666666666666666</ele><time>2026-04-06T10:53:25.178Z</time></trkpt><trkpt lat="51.4880057" lon="3.956158"><ele>-0.5</ele><time>2026-04-06T10:53:26.178Z</time></trkpt><trkpt lat="51.4879365" lon="3.9562476"><ele>-0.3333333333333333</ele><time>2026-04-06T10:53:27.178Z</time></trkpt><trkpt lat="51.4878693" lon="3.9563317"><ele>-0.16666666666666666</ele><time>2026-04-06T10:53:28.178Z</time></trkpt><trkpt lat="51.4878067" lon="3.95641"><ele>0.0</ele><time>2026-04-06T10:53:29.178Z</time></trkpt><trkpt lat="51.4877515" lon="3.9564837"><ele>0.0</ele><time>2026-04-06T10:53:30.178Z</time></trkpt><trkpt lat="51.4876479" lon="3.9565675"><ele>0.0</ele><time>2026-04-06T10:53:32.178Z</time></trkpt><trkpt lat="51.4875496" lon="3.9565231"><ele>0.0</ele><time>2026-04-06T10:53:34.178Z</time></trkpt><trkpt lat="51.4874871" lon="3.9563637"><ele>0.0</ele><time>2026-04-06T10:53:36.178Z</time></trkpt><trkpt lat="51.487441" lon="3.9562771"><ele>0.0</ele><time>2026-04-06T10:53:37.178Z</time></trkpt><trkpt lat="51.4873976" lon="3.9561803"><ele>0.0</ele><time>2026-04-06T10:53:38.178Z</time></trkpt><trkpt lat="51.4873566" lon="3.9560842"><ele>0.0</ele><time>2026-04-06T10:53:39.178Z</time></trkpt><trkpt lat="51.4873075" lon="3.9559747"><ele>0.0</ele><time>2026-04-06T10:53:40.178Z</time></trkpt><trkpt lat="51.4872524" lon="3.955848"><ele>0.0</ele><time>2026-04-06T10:53:41.178Z</time></trkpt><trkpt lat="51.4871971" lon="3.955724"><ele>0.0</ele><time>2026-04-06T10:53:42.178Z</time></trkpt><trkpt lat="51.4871408" lon="3.955606"><ele>0.0</ele><time>2026-04-06T10:53:43.178Z</time></trkpt><trkpt lat="51.4870901" lon="3.955494"><ele>0.0</ele><time>2026-04-06T10:53:44.178Z</time></trkpt><trkpt lat="51.4870442" lon="3.9553876"><ele>0.0</ele><time>2026-04-06T10:53:45.178Z</time></trkpt><trkpt lat="51.4870028" lon="3.9552966"><ele>0.0</ele><time>2026-04-06T10:53:46.178Z</time></trkpt><trkpt lat="51.4869623" lon="3.9552145"><ele>0.0</ele><time>2026-04-06T10:53:47.178Z</time></trkpt><trkpt lat="51.4868953" lon="3.9551088"><ele>0.0</ele><time>2026-04-06T10:53:49.178Z</time></trkpt><trkpt lat="51.4868097" lon="3.9551029"><ele>0.0</ele><time>2026-04-06T10:53:51.178Z</time></trkpt><trkpt lat="51.4866754" lon="3.9550948"><ele>0.0</ele><time>2026-04-06T10:53:53.178Z</time></trkpt><trkpt lat="51.4865999" lon="3.9550937"><ele>0.0</ele><time>2026-04-06T10:53:54.178Z</time></trkpt><trkpt lat="51.4865184" lon="3.955093"><ele>0.0</ele><time>2026-04-06T10:53:55.178Z</time></trkpt><trkpt lat="51.486432" lon="3.9550861"><ele>0.0</ele><time>2026-04-06T10:53:56.178Z</time></trkpt><trkpt lat="51.4863508" lon="3.9550761"><ele>0.0</ele><time>2026-04-06T10:53:57.178Z</time></trkpt><trkpt lat="51.4862772" lon="3.9550652"><ele>0.0</ele><time>2026-04-06T10:53:58.178Z</time></trkpt><trkpt lat="51.4861757" lon="3.9550141"><ele>0.0</ele><time>2026-04-06T10:54:00.178Z</time></trkpt><trkpt lat="51.486106" lon="3.9549757"><ele>0.0</ele><time>2026-04-06T10:54:02.178Z</time></trkpt><trkpt lat="51.486027" lon="3.9550143"><ele>0.0</ele><time>2026-04-06T10:54:04.178Z</time></trkpt><trkpt lat="51.4859636" lon="3.9550909"><ele>0.0</ele><time>2026-04-06T10:54:06.178Z</time></trkpt><trkpt lat="51.4859308" lon="3.9551957"><ele>0.0</ele><time>2026-04-06T10:54:08.178Z</time></trkpt><trkpt lat="51.4859663" lon="3.9553079"><ele>0.0</ele><time>2026-04-06T10:54:10.178Z</time></trkpt><trkpt lat="51.4859828" lon="3.9554812"><ele>0.0</ele><time>2026-04-06T10:54:12.178Z</time></trkpt><trkpt lat="51.4859866" lon="3.9555919"><ele>0.0</ele><time>2026-04-06T10:54:13.178Z</time></trkpt><trkpt lat="51.4859932" lon="3.955717"><ele>0.0</ele><time>2026-04-06T10:54:14.178Z</time></trkpt><trkpt lat="51.4859989" lon="3.9558388"><ele>0.0</ele><time>2026-04-06T10:54:15.178Z</time></trkpt><trkpt lat="51.4860067" lon="3.9559703"><ele>0.0</ele><time>2026-04-06T10:54:16.178Z</time></trkpt><trkpt lat="51.4860145" lon="3.9560901"><ele>0.0</ele><time>2026-04-06T10:54:17.178Z</time></trkpt><trkpt lat="51.4860215" lon="3.9562038"><ele>0.3333333333333333</ele><time>2026-04-06T10:54:18.178Z</time></trkpt><trkpt lat="51.486028" lon="3.9563162"><ele>0.6666666666666666</ele><time>2026-04-06T10:54:19.178Z</time></trkpt><trkpt lat="51.4860287" lon="3.9564369"><ele>1.0</ele><time>2026-04-06T10:54:20.178Z</time></trkpt><trkpt lat="51.486033" lon="3.9565509"><ele>1.3333333333333333</ele><time>2026-04-06T10:54:21.178Z</time></trkpt><trkpt lat="51.4860394" lon="3.9566578"><ele>1.6666666666666665</ele><time>2026-04-06T10:54:22.178Z</time></trkpt><trkpt lat="51.4860409" lon="3.956773"><ele>2.0</ele><time>2026-04-06T10:54:23.178Z</time></trkpt><trkpt lat="51.4860544" lon="3.9569592"><ele>2.0</ele><time>2026-04-06T10:54:25.178Z</time></trkpt><trkpt lat="51.4860661" lon="3.9571441"><ele>2.0</ele><time>2026-04-06T10:54:27.178Z</time></trkpt><trkpt lat="51.4860797" lon="3.9573093"><ele>2.0</ele><time>2026-04-06T10:54:29.178Z</time></trkpt><trkpt lat="51.4860791" lon="3.9574334"><ele>2.0</ele><time>2026-04-06T10:54:31.178Z</time></trkpt><trkpt lat="51.4860688" lon="3.95758"><ele>2.0</ele><time>2026-04-06T10:54:33.179Z</time></trkpt><trkpt lat="51.4860383" lon="3.9577494"><ele>1.9999999999999998</ele><time>2026-04-06T10:54:35.178Z</time></trkpt><trkpt lat="51.4860205" lon="3.9578508"><ele>2.0</ele><time>2026-04-06T10:54:36.178Z</time></trkpt><trkpt lat="51.4860141" lon="3.9579595"><ele>2.0</ele><time>2026-04-06T10:54:37.178Z</time></trkpt><trkpt lat="51.4860258" lon="3.9581636"><ele>2.0</ele><time>2026-04-06T10:54:39.178Z</time></trkpt><trkpt lat="51.486046" lon="3.9582675"><ele>1.9999999999999998</ele><time>2026-04-06T10:54:40.178Z</time></trkpt><trkpt lat="51.4861219" lon="3.9584114"><ele>2.0</ele><time>2026-04-06T10:54:42.178Z</time></trkpt><trkpt lat="51.4861724" lon="3.9584891"><ele>1.8</ele><time>2026-04-06T10:54:43.178Z</time></trkpt><trkpt lat="51.4862244" lon="3.958548"><ele>1.6</ele><time>2026-04-06T10:54:44.178Z</time></trkpt><trkpt lat="51.4863322" lon="3.9586362"><ele>1.4000000000000001</ele><time>2026-04-06T10:54:46.178Z</time></trkpt><trkpt lat="51.486421" lon="3.958721"><ele>1.2000000000000002</ele><time>2026-04-06T10:54:48.178Z</time></trkpt><trkpt lat="51.4864711" lon="3.95886"><ele>1.0</ele><time>2026-04-06T10:54:50.178Z</time></trkpt><trkpt lat="51.4864715" lon="3.9590011"><ele>0.9999999999999999</ele><time>2026-04-06T10:54:52.178Z</time></trkpt><trkpt lat="51.4864162" lon="3.9591351"><ele>1.0</ele><time>2026-04-06T10:54:54.178Z</time></trkpt><trkpt lat="51.4863623" lon="3.9591975"><ele>1.0</ele><time>2026-04-06T10:54:55.179Z</time></trkpt><trkpt lat="51.4862979" lon="3.959262"><ele>1.0</ele><time>2026-04-06T10:54:56.178Z</time></trkpt><trkpt lat="51.4862303" lon="3.9593286"><ele>0.9999999999999999</ele><time>2026-04-06T10:54:57.178Z</time></trkpt><trkpt lat="51.4861728" lon="3.9593981"><ele>1.0</ele><time>2026-04-06T10:54:58.178Z</time></trkpt><trkpt lat="51.486091" lon="3.9594866"><ele>0.8</ele><time>2026-04-06T10:55:00.178Z</time></trkpt><trkpt lat="51.48601" lon="3.9595649"><ele>0.6000000000000001</ele><time>2026-04-06T10:55:05.178Z</time></trkpt><trkpt lat="51.4859307" lon="3.9596449"><ele>0.4</ele><time>2026-04-06T10:55:07.178Z</time></trkpt><trkpt lat="51.4858237" lon="3.9597682"><ele>0.2</ele><time>2026-04-06T10:55:09.178Z</time></trkpt><trkpt lat="51.4857649" lon="3.9598402"><ele>0.0</ele><time>2026-04-06T10:55:10.178Z</time></trkpt><trkpt lat="51.485711" lon="3.9599079"><ele>0.0</ele><time>2026-04-06T10:55:11.178Z</time></trkpt><trkpt lat="51.4856527" lon="3.9599665"><ele>0.0</ele><time>2026-04-06T10:55:12.178Z</time></trkpt><trkpt lat="51.4855907" lon="3.9600049"><ele>0.0</ele><time>2026-04-06T10:55:13.178Z</time></trkpt><trkpt lat="51.4854716" lon="3.9599957"><ele>0.0</ele><time>2026-04-06T10:55:15.178Z</time></trkpt><trkpt lat="51.4853662" lon="3.9599246"><ele>0.0</ele><time>2026-04-06T10:55:17.178Z</time></trkpt><trkpt lat="51.4852621" lon="3.959832"><ele>0.16666666666666666</ele><time>2026-04-06T10:55:19.178Z</time></trkpt><trkpt lat="51.4851975" lon="3.959773"><ele>0.3333333333333333</ele><time>2026-04-06T10:55:20.178Z</time></trkpt><trkpt lat="51.4851324" lon="3.9597152"><ele>0.5</ele><time>2026-04-06T10:55:21.178Z</time></trkpt><trkpt lat="51.4850644" lon="3.9596644"><ele>0.6666666666666666</ele><time>2026-04-06T10:55:22.178Z</time></trkpt><trkpt lat="51.4849909" lon="3.9596109"><ele>0.8333333333333333</ele><time>2026-04-06T10:55:23.178Z</time></trkpt><trkpt lat="51.4849052" lon="3.9595583"><ele>1.0</ele><time>2026-04-06T10:55:24.178Z</time></trkpt><trkpt lat="51.4848221" lon="3.9594983"><ele>0.9999999999999999</ele><time>2026-04-06T10:55:25.178Z</time></trkpt><trkpt lat="51.4847345" lon="3.9594462"><ele>1.0</ele><time>2026-04-06T10:55:26.178Z</time></trkpt><trkpt lat="51.4846467" lon="3.9593951"><ele>1.0</ele><time>2026-04-06T10:55:27.178Z</time></trkpt><trkpt lat="51.4845632" lon="3.9593523"><ele>1.0</ele><time>2026-04-06T10:55:28.178Z</time></trkpt><trkpt lat="51.4844795" lon="3.9593115"><ele>0.9999999999999999</ele><time>2026-04-06T10:55:29.178Z</time></trkpt><trkpt lat="51.4843954" lon="3.9592754"><ele>1.0</ele><time>2026-04-06T10:55:30.178Z</time></trkpt><trkpt lat="51.4843057" lon="3.9592475"><ele>0.8333333333333333</ele><time>2026-04-06T10:55:31.178Z</time></trkpt><trkpt lat="51.4842204" lon="3.9592306"><ele>0.6666666666666666</ele><time>2026-04-06T10:55:32.178Z</time></trkpt><trkpt lat="51.484138" lon="3.9592222"><ele>0.5</ele><time>2026-04-06T10:55:33.178Z</time></trkpt><trkpt lat="51.4840587" lon="3.9592243"><ele>0.3333333333333333</ele><time>2026-04-06T10:55:34.178Z</time></trkpt><trkpt lat="51.4839802" lon="3.9592299"><ele>0.16666666666666666</ele><time>2026-04-06T10:55:35.178Z</time></trkpt><trkpt lat="51.4839132" lon="3.9592433"><ele>0.0</ele><time>2026-04-06T10:55:36.178Z</time></trkpt><trkpt lat="51.4838167" lon="3.9592685"><ele>0.0</ele><time>2026-04-06T10:55:38.178Z</time></trkpt><trkpt lat="51.4837681" lon="3.9593826"><ele>0.0</ele><time>2026-04-06T10:55:41.178Z</time></trkpt><trkpt lat="51.4837777" lon="3.9595288"><ele>0.0</ele><time>2026-04-06T10:55:43.178Z</time></trkpt><trkpt lat="51.4837877" lon="3.9597389"><ele>0.0</ele><time>2026-04-06T10:55:45.178Z</time></trkpt><trkpt lat="51.4837954" lon="3.9598519"><ele>0.0</ele><time>2026-04-06T10:55:46.178Z</time></trkpt><trkpt lat="51.4838035" lon="3.9599626"><ele>0.0</ele><time>2026-04-06T10:55:47.178Z</time></trkpt><trkpt lat="51.4838101" lon="3.9600719"><ele>0.0</ele><time>2026-04-06T10:55:48.178Z</time></trkpt><trkpt lat="51.4838405" lon="3.9602674"><ele>0.0</ele><time>2026-04-06T10:55:50.178Z</time></trkpt><trkpt lat="51.4838713" lon="3.9603654"><ele>0.0</ele><time>2026-04-06T10:55:51.178Z</time></trkpt><trkpt lat="51.4839023" lon="3.9604663"><ele>0.0</ele><time>2026-04-06T10:55:52.178Z</time></trkpt><trkpt lat="51.4839326" lon="3.9605753"><ele>0.0</ele><time>2026-04-06T10:55:53.178Z</time></trkpt><trkpt lat="51.4839627" lon="3.9606887"><ele>0.0</ele><time>2026-04-06T10:55:54.178Z</time></trkpt><trkpt lat="51.4839913" lon="3.9607955"><ele>0.0</ele><time>2026-04-06T10:55:55.178Z</time></trkpt><trkpt lat="51.484015" lon="3.9609028"><ele>0.0</ele><time>2026-04-06T10:55:56.179Z</time></trkpt><trkpt lat="51.48404" lon="3.9610109"><ele>0.0</ele><time>2026-04-06T10:55:57.178Z</time></trkpt><trkpt lat="51.4840662" lon="3.9611147"><ele>0.0</ele><time>2026-04-06T10:55:58.178Z</time></trkpt><trkpt lat="51.484092" lon="3.9612123"><ele>0.0</ele><time>2026-04-06T10:55:59.178Z</time></trkpt><trkpt lat="51.4841172" lon="3.9613133"><ele>0.0</ele><time>2026-04-06T10:56:00.178Z</time></trkpt><trkpt lat="51.4841437" lon="3.96141"><ele>0.0</ele><time>2026-04-06T10:56:01.178Z</time></trkpt><trkpt lat="51.4841736" lon="3.9615048"><ele>0.0</ele><time>2026-04-06T10:56:02.178Z</time></trkpt><trkpt lat="51.4842177" lon="3.9616888"><ele>0.0</ele><time>2026-04-06T10:56:04.178Z</time></trkpt><trkpt lat="51.4842404" lon="3.9617831"><ele>0.0</ele><time>2026-04-06T10:56:05.178Z</time></trkpt><trkpt lat="51.484294" lon="3.9619608"><ele>0.0</ele><time>2026-04-06T10:56:07.178Z</time></trkpt><trkpt lat="51.4843229" lon="3.9620554"><ele>0.0</ele><time>2026-04-06T10:56:08.178Z</time></trkpt><trkpt lat="51.4843722" lon="3.9622453"><ele>0.0</ele><time>2026-04-06T10:56:10.178Z</time></trkpt><trkpt lat="51.4843987" lon="3.9623465"><ele>0.0</ele><time>2026-04-06T10:56:11.178Z</time></trkpt><trkpt lat="51.4844271" lon="3.962442"><ele>0.0</ele><time>2026-04-06T10:56:12.178Z</time></trkpt><trkpt lat="51.4844741" lon="3.9626032"><ele>0.0</ele><time>2026-04-06T10:56:14.178Z</time></trkpt><trkpt lat="51.4845132" lon="3.9627254"><ele>0.0</ele><time>2026-04-06T10:56:16.178Z</time></trkpt><trkpt lat="51.4845303" lon="3.9628653"><ele>0.0</ele><time>2026-04-06T10:56:19.178Z</time></trkpt><trkpt lat="51.4845216" lon="3.9629887"><ele>0.0</ele><time>2026-04-06T10:56:22.178Z</time></trkpt><trkpt lat="51.4844734" lon="3.9630893"><ele>0.0</ele><time>2026-04-06T10:56:25.178Z</time></trkpt><trkpt lat="51.4843752" lon="3.9631003"><ele>0.0</ele><time>2026-04-06T10:56:27.178Z</time></trkpt><trkpt lat="51.4842522" lon="3.9630832"><ele>0.0</ele><time>2026-04-06T10:56:29.178Z</time></trkpt><trkpt lat="51.4841756" lon="3.96308"><ele>0.0</ele><time>2026-04-06T10:56:30.178Z</time></trkpt><trkpt lat="51.4841067" lon="3.9630726"><ele>0.0</ele><time>2026-04-06T10:56:31.178Z</time></trkpt><trkpt lat="51.4840306" lon="3.9630722"><ele>0.0</ele><time>2026-04-06T10:56:32.178Z</time></trkpt><trkpt lat="51.4839494" lon="3.9630825"><ele>0.0</ele><time>2026-04-06T10:56:33.178Z</time></trkpt><trkpt lat="51.483879" lon="3.9630925"><ele>0.0</ele><time>2026-04-06T10:56:34.178Z</time></trkpt><trkpt lat="51.4838144" lon="3.9630983"><ele>0.0</ele><time>2026-04-06T10:56:35.178Z</time></trkpt><trkpt lat="51.4837213" lon="3.9631006"><ele>0.0</ele><time>2026-04-06T10:56:37.178Z</time></trkpt><trkpt lat="51.4836501" lon="3.9631389"><ele>0.0</ele><time>2026-04-06T10:56:39.178Z</time></trkpt><trkpt lat="51.4836236" lon="3.9632701"><ele>0.16666666666666666</ele><time>2026-04-06T10:56:41.178Z</time></trkpt><trkpt lat="51.4836139" lon="3.9634712"><ele>0.3333333333333333</ele><time>2026-04-06T10:56:43.178Z</time></trkpt><trkpt lat="51.4836047" lon="3.9635951"><ele>0.5</ele><time>2026-04-06T10:56:44.178Z</time></trkpt><trkpt lat="51.483599" lon="3.9637282"><ele>0.6666666666666666</ele><time>2026-04-06T10:56:45.178Z</time></trkpt><trkpt lat="51.4835972" lon="3.9638533"><ele>0.8333333333333333</ele><time>2026-04-06T10:56:46.178Z</time></trkpt><trkpt lat="51.4835904" lon="3.9639804"><ele>1.0</ele><time>2026-04-06T10:56:47.178Z</time></trkpt><trkpt lat="51.4835847" lon="3.964109"><ele>0.8333333333333333</ele><time>2026-04-06T10:56:48.178Z</time></trkpt><trkpt lat="51.4835801" lon="3.9642344"><ele>0.6666666666666666</ele><time>2026-04-06T10:56:49.179Z</time></trkpt><trkpt lat="51.4835761" lon="3.9643552"><ele>0.5</ele><time>2026-04-06T10:56:50.178Z</time></trkpt><trkpt lat="51.4835731" lon="3.9644651"><ele>0.3333333333333333</ele><time>2026-04-06T10:56:51.178Z</time></trkpt><trkpt lat="51.4835685" lon="3.9646425"><ele>0.16666666666666666</ele><time>2026-04-06T10:56:53.178Z</time></trkpt><trkpt lat="51.4835677" lon="3.9647903"><ele>0.0</ele><time>2026-04-06T10:56:55.178Z</time></trkpt><trkpt lat="51.4835656" lon="3.9649886"><ele>0.0</ele><time>2026-04-06T10:56:57.178Z</time></trkpt><trkpt lat="51.4835652" lon="3.9651058"><ele>0.0</ele><time>2026-04-06T10:56:58.178Z</time></trkpt><trkpt lat="51.4835635" lon="3.9652307"><ele>0.0</ele><time>2026-04-06T10:56:59.178Z</time></trkpt><trkpt lat="51.4835659" lon="3.9653522"><ele>0.0</ele><time>2026-04-06T10:57:00.178Z</time></trkpt><trkpt lat="51.4835643" lon="3.9654572"><ele>0.0</ele><time>2026-04-06T10:57:01.178Z</time></trkpt><trkpt lat="51.4835664" lon="3.9655597"><ele>0.0</ele><time>2026-04-06T10:57:02.178Z</time></trkpt><trkpt lat="51.4835567" lon="3.9657148"><ele>0.0</ele><time>2026-04-06T10:57:04.178Z</time></trkpt><trkpt lat="51.4834992" lon="3.9658175"><ele>0.0</ele><time>2026-04-06T10:57:06.178Z</time></trkpt><trkpt lat="51.4833861" lon="3.9658427"><ele>0.0</ele><time>2026-04-06T10:57:08.178Z</time></trkpt><trkpt lat="51.4833149" lon="3.965836"><ele>0.0</ele><time>2026-04-06T10:57:09.178Z</time></trkpt><trkpt lat="51.483234" lon="3.9658298"><ele>0.0</ele><time>2026-04-06T10:57:10.178Z</time></trkpt><trkpt lat="51.4831615" lon="3.9658272"><ele>0.0</ele><time>2026-04-06T10:57:11.178Z</time></trkpt><trkpt lat="51.4830877" lon="3.9658246"><ele>0.0</ele><time>2026-04-06T10:57:12.178Z</time></trkpt><trkpt lat="51.4830141" lon="3.9658207"><ele>0.0</ele><time>2026-04-06T10:57:13.178Z</time></trkpt><trkpt lat="51.4829387" lon="3.9658135"><ele>0.0</ele><time>2026-04-06T10:57:14.178Z</time></trkpt><trkpt lat="51.4828625" lon="3.9658055"><ele>0.0</ele><time>2026-04-06T10:57:15.178Z</time></trkpt><trkpt lat="51.4827937" lon="3.9657961"><ele>0.0</ele><time>2026-04-06T10:57:16.178Z</time></trkpt><trkpt lat="51.4826846" lon="3.9657645"><ele>0.0</ele><time>2026-04-06T10:57:18.178Z</time></trkpt><trkpt lat="51.4826121" lon="3.9657938"><ele>-0.16666666666666666</ele><time>2026-04-06T10:57:20.178Z</time></trkpt><trkpt lat="51.4825909" lon="3.9659123"><ele>-0.3333333333333333</ele><time>2026-04-06T10:57:22.178Z</time></trkpt><trkpt lat="51.4826362" lon="3.9660227"><ele>-0.5</ele><time>2026-04-06T10:57:24.178Z</time></trkpt><trkpt lat="51.4827275" lon="3.9660644"><ele>-0.6666666666666666</ele><time>2026-04-06T10:57:26.178Z</time></trkpt><trkpt lat="51.4827929" lon="3.9661645"><ele>-0.8333333333333333</ele><time>2026-04-06T10:57:28.178Z</time></trkpt><trkpt lat="51.4827931" lon="3.966323"><ele>-1.0</ele><time>2026-04-06T10:57:30.178Z</time></trkpt><trkpt lat="51.4827524" lon="3.966511"><ele>-0.9999999999999999</ele><time>2026-04-06T10:57:32.178Z</time></trkpt><trkpt lat="51.4827272" lon="3.9666674"><ele>-1.0</ele><time>2026-04-06T10:57:34.178Z</time></trkpt><trkpt lat="51.482761" lon="3.9667664"><ele>-1.0</ele><time>2026-04-06T10:57:36.178Z</time></trkpt><trkpt lat="51.4828244" lon="3.9667584"><ele>-1.0</ele><time>2026-04-06T10:57:39.178Z</time></trkpt><trkpt lat="51.4828896" lon="3.9667842"><ele>-0.9999999999999999</ele><time>2026-04-06T10:58:15.178Z</time></trkpt><trkpt lat="51.4829042" lon="3.9666813"><ele>-1.0</ele><time>2026-04-06T11:02:16.177Z</time></trkpt><trkpt lat="51.4829017" lon="3.9665343"><ele>-0.9999999999999999</ele><time>2026-04-06T11:02:19.177Z</time></trkpt><trkpt lat="51.4829174" lon="3.9664212"><ele>-1.0</ele><time>2026-04-06T11:02:21.178Z</time></trkpt><trkpt lat="51.4829307" lon="3.9663048"><ele>-1.0</ele><time>2026-04-06T11:02:23.172Z</time></trkpt><trkpt lat="51.4829672" lon="3.966192"><ele>-1.0</ele><time>2026-04-06T11:02:25.177Z</time></trkpt><trkpt lat="51.4830109" lon="3.9660827"><ele>-0.9999999999999999</ele><time>2026-04-06T11:02:27.169Z</time></trkpt><trkpt lat="51.4830846" lon="3.9660693"><ele>-1.0</ele><time>2026-04-06T11:02:29.177Z</time></trkpt><trkpt lat="51.4832024" lon="3.9660877"><ele>-1.0</ele><time>2026-04-06T11:02:31.177Z</time></trkpt><trkpt lat="51.4833202" lon="3.9660836"><ele>-1.0</ele><time>2026-04-06T11:02:33.177Z</time></trkpt><trkpt lat="51.483433" lon="3.9660789"><ele>-1.0</ele><time>2026-04-06T11:02:35.168Z</time></trkpt><trkpt lat="51.4835172" lon="3.9660622"><ele>-1.0</ele><time>2026-04-06T11:02:37.177Z</time></trkpt><trkpt lat="51.483551" lon="3.965964"><ele>-1.0</ele><time>2026-04-06T11:02:39.177Z</time></trkpt><trkpt lat="51.483573" lon="3.9658649"><ele>-0.8333333333333333</ele><time>2026-04-06T11:02:44.174Z</time></trkpt><trkpt lat="51.4836483" lon="3.9658025"><ele>-0.6666666666666666</ele><time>2026-04-06T11:02:49.177Z</time></trkpt><trkpt lat="51.4837349" lon="3.9658214"><ele>-0.5</ele><time>2026-04-06T11:02:51.172Z</time></trkpt><trkpt lat="51.4838418" lon="3.9658364"><ele>-0.3333333333333333</ele><time>2026-04-06T11:02:53.177Z</time></trkpt><trkpt lat="51.483906" lon="3.965835"><ele>-0.16666666666666666</ele><time>2026-04-06T11:02:54.174Z</time></trkpt><trkpt lat="51.4839754" lon="3.9658525"><ele>0.0</ele><time>2026-04-06T11:02:55.177Z</time></trkpt><trkpt lat="51.4840538" lon="3.9658618"><ele>0.0</ele><time>2026-04-06T11:02:56.17Z</time></trkpt><trkpt lat="51.4841312" lon="3.9658932"><ele>0.0</ele><time>2026-04-06T11:02:57.177Z</time></trkpt><trkpt lat="51.4842123" lon="3.9659331"><ele>0.0</ele><time>2026-04-06T11:02:58.177Z</time></trkpt><trkpt lat="51.4842894" lon="3.9659785"><ele>0.0</ele><time>2026-04-06T11:02:59.177Z</time></trkpt><trkpt lat="51.4843629" lon="3.9660268"><ele>0.0</ele><time>2026-04-06T11:03:00.177Z</time></trkpt><trkpt lat="51.4844393" lon="3.966088"><ele>0.0</ele><time>2026-04-06T11:03:01.177Z</time></trkpt><trkpt lat="51.4845061" lon="3.9661598"><ele>0.0</ele><time>2026-04-06T11:03:02.175Z</time></trkpt><trkpt lat="51.4845658" lon="3.9662288"><ele>0.0</ele><time>2026-04-06T11:03:03.175Z</time></trkpt><trkpt lat="51.4846179" lon="3.9662891"><ele>0.0</ele><time>2026-04-06T11:03:04.177Z</time></trkpt><trkpt lat="51.4847076" lon="3.9663914"><ele>0.0</ele><time>2026-04-06T11:03:06.177Z</time></trkpt><trkpt lat="51.4847957" lon="3.9664869"><ele>0.0</ele><time>2026-04-06T11:03:08.177Z</time></trkpt><trkpt lat="51.4848927" lon="3.9665895"><ele>0.0</ele><time>2026-04-06T11:03:10.177Z</time></trkpt><trkpt lat="51.4849797" lon="3.9666826"><ele>0.0</ele><time>2026-04-06T11:03:12.177Z</time></trkpt><trkpt lat="51.4850605" lon="3.9667489"><ele>0.0</ele><time>2026-04-06T11:03:14.176Z</time></trkpt><trkpt lat="51.485119" lon="3.9667965"><ele>0.0</ele><time>2026-04-06T11:03:17.177Z</time></trkpt><trkpt lat="51.4851982" lon="3.9667989"><ele>0.0</ele><time>2026-04-06T11:03:53.177Z</time></trkpt><trkpt lat="51.4852638" lon="3.9668402"><ele>0.0</ele><time>2026-04-06T11:03:55.176Z</time></trkpt><trkpt lat="51.4853299" lon="3.9668816"><ele>0.0</ele><time>2026-04-06T11:03:57.177Z</time></trkpt><trkpt lat="51.4854268" lon="3.9669397"><ele>0.0</ele><time>2026-04-06T11:03:59.177Z</time></trkpt><trkpt lat="51.4855326" lon="3.9669943"><ele>0.0</ele><time>2026-04-06T11:04:01.168Z</time></trkpt><trkpt lat="51.4856405" lon="3.9670398"><ele>0.0</ele><time>2026-04-06T11:04:03.177Z</time></trkpt><trkpt lat="51.4857626" lon="3.9670519"><ele>0.0</ele><time>2026-04-06T11:04:05.176Z</time></trkpt><trkpt lat="51.4858727" lon="3.9670115"><ele>0.0</ele><time>2026-04-06T11:04:07.177Z</time></trkpt><trkpt lat="51.4859424" lon="3.9669716"><ele>0.0</ele><time>2026-04-06T11:04:09.177Z</time></trkpt><trkpt lat="51.4860103" lon="3.9669288"><ele>0.0</ele><time>2026-04-06T11:04:11.172Z</time></trkpt><trkpt lat="51.4860782" lon="3.9668734"><ele>0.0</ele><time>2026-04-06T11:04:13.177Z</time></trkpt><trkpt lat="51.4861598" lon="3.9667643"><ele>0.0</ele><time>2026-04-06T11:04:15.172Z</time></trkpt><trkpt lat="51.4862128" lon="3.9667002"><ele>0.0</ele><time>2026-04-06T11:04:16.177Z</time></trkpt><trkpt lat="51.4862692" lon="3.9666421"><ele>0.0</ele><time>2026-04-06T11:04:17.177Z</time></trkpt><trkpt lat="51.4863343" lon="3.9665741"><ele>0.0</ele><time>2026-04-06T11:04:18.177Z</time></trkpt><trkpt lat="51.486405" lon="3.9665281"><ele>0.0</ele><time>2026-04-06T11:04:19.177Z</time></trkpt><trkpt lat="51.4864865" lon="3.9664912"><ele>0.0</ele><time>2026-04-06T11:04:20.177Z</time></trkpt><trkpt lat="51.4865687" lon="3.966468"><ele>0.0</ele><time>2026-04-06T11:04:21.177Z</time></trkpt><trkpt lat="51.4866525" lon="3.9664482"><ele>0.0</ele><time>2026-04-06T11:04:22.177Z</time></trkpt><trkpt lat="51.4867325" lon="3.966426"><ele>0.0</ele><time>2026-04-06T11:04:23.177Z</time></trkpt><trkpt lat="51.4868168" lon="3.9663932"><ele>0.0</ele><time>2026-04-06T11:04:24.177Z</time></trkpt><trkpt lat="51.4869045" lon="3.9663645"><ele>0.0</ele><time>2026-04-06T11:04:25.175Z</time></trkpt><trkpt lat="51.4869844" lon="3.9663403"><ele>0.0</ele><time>2026-04-06T11:04:26.177Z</time></trkpt><trkpt lat="51.4870578" lon="3.9663163"><ele>0.0</ele><time>2026-04-06T11:04:27.177Z</time></trkpt><trkpt lat="51.4871336" lon="3.9662912"><ele>0.0</ele><time>2026-04-06T11:04:28.177Z</time></trkpt><trkpt lat="51.4872075" lon="3.9662666"><ele>0.0</ele><time>2026-04-06T11:04:29.177Z</time></trkpt><trkpt lat="51.4872784" lon="3.9662428"><ele>0.0</ele><time>2026-04-06T11:04:30.177Z</time></trkpt><trkpt lat="51.4873427" lon="3.9662251"><ele>0.0</ele><time>2026-04-06T11:04:31.177Z</time></trkpt><trkpt lat="51.4874496" lon="3.9662172"><ele>0.0</ele><time>2026-04-06T11:04:33.178Z</time></trkpt><trkpt lat="51.4875391" lon="3.9662494"><ele>0.0</ele><time>2026-04-06T11:04:35.177Z</time></trkpt><trkpt lat="51.4876472" lon="3.9663194"><ele>0.0</ele><time>2026-04-06T11:04:37.177Z</time></trkpt><trkpt lat="51.4877437" lon="3.9663898"><ele>0.0</ele><time>2026-04-06T11:04:39.177Z</time></trkpt><trkpt lat="51.48785" lon="3.9664825"><ele>0.0</ele><time>2026-04-06T11:04:41.177Z</time></trkpt><trkpt lat="51.4879536" lon="3.9665532"><ele>0.0</ele><time>2026-04-06T11:04:43.17Z</time></trkpt><trkpt lat="51.4880742" lon="3.966654"><ele>0.0</ele><time>2026-04-06T11:04:45.177Z</time></trkpt><trkpt lat="51.488141" lon="3.9667042"><ele>0.0</ele><time>2026-04-06T11:04:46.177Z</time></trkpt><trkpt lat="51.4882082" lon="3.9667482"><ele>0.0</ele><time>2026-04-06T11:04:47.177Z</time></trkpt><trkpt lat="51.4882769" lon="3.9667911"><ele>0.0</ele><time>2026-04-06T11:04:48.177Z</time></trkpt><trkpt lat="51.4883365" lon="3.9668304"><ele>0.0</ele><time>2026-04-06T11:04:49.177Z</time></trkpt><trkpt lat="51.4884404" lon="3.9668779"><ele>0.0</ele><time>2026-04-06T11:04:51.175Z</time></trkpt><trkpt lat="51.4885324" lon="3.9669332"><ele>0.0</ele><time>2026-04-06T11:04:53.177Z</time></trkpt><trkpt lat="51.4885665" lon="3.9670707"><ele>0.0</ele><time>2026-04-06T11:04:55.176Z</time></trkpt><trkpt lat="51.4885283" lon="3.9671881"><ele>0.0</ele><time>2026-04-06T11:04:57.177Z</time></trkpt><trkpt lat="51.4884851" lon="3.9673029"><ele>0.0</ele><time>2026-04-06T11:04:59.177Z</time></trkpt><trkpt lat="51.488461" lon="3.9674225"><ele>0.0</ele><time>2026-04-06T11:05:01.177Z</time></trkpt><trkpt lat="51.4884443" lon="3.9675769"><ele>0.0</ele><time>2026-04-06T11:05:03.178Z</time></trkpt><trkpt lat="51.4884386" lon="3.9677446"><ele>0.0</ele><time>2026-04-06T11:05:05.177Z</time></trkpt><trkpt lat="51.488429" lon="3.96792"><ele>0.0</ele><time>2026-04-06T11:05:07.177Z</time></trkpt><trkpt lat="51.4884292" lon="3.9680872"><ele>0.0</ele><time>2026-04-06T11:05:09.177Z</time></trkpt><trkpt lat="51.4884174" lon="3.9682704"><ele>0.0</ele><time>2026-04-06T11:05:11.177Z</time></trkpt><trkpt lat="51.4884073" lon="3.9683743"><ele>0.0</ele><time>2026-04-06T11:05:12.177Z</time></trkpt><trkpt lat="51.4883979" lon="3.9685529"><ele>0.0</ele><time>2026-04-06T11:05:14.178Z</time></trkpt><trkpt lat="51.4883959" lon="3.9687296"><ele>0.0</ele><time>2026-04-06T11:05:16.177Z</time></trkpt><trkpt lat="51.4884261" lon="3.9688972"><ele>0.0</ele><time>2026-04-06T11:05:18.177Z</time></trkpt><trkpt lat="51.4884569" lon="3.9690629"><ele>0.0</ele><time>2026-04-06T11:05:20.177Z</time></trkpt><trkpt lat="51.4884882" lon="3.9692176"><ele>0.0</ele><time>2026-04-06T11:05:22.177Z</time></trkpt><trkpt lat="51.4885317" lon="3.9693678"><ele>0.0</ele><time>2026-04-06T11:05:24.177Z</time></trkpt><trkpt lat="51.4885626" lon="3.9695254"><ele>0.0</ele><time>2026-04-06T11:05:26.177Z</time></trkpt><trkpt lat="51.4885898" lon="3.9696637"><ele>0.0</ele><time>2026-04-06T11:05:28.177Z</time></trkpt><trkpt lat="51.4886228" lon="3.9697951"><ele>0.0</ele><time>2026-04-06T11:05:30.177Z</time></trkpt><trkpt lat="51.4886523" lon="3.9699496"><ele>0.0</ele><time>2026-04-06T11:05:32.177Z</time></trkpt><trkpt lat="51.4886307" lon="3.9701115"><ele>-0.2</ele><time>2026-04-06T11:05:34.177Z</time></trkpt><trkpt lat="51.4885818" lon="3.9702716"><ele>-0.4</ele><time>2026-04-06T11:05:36.177Z</time></trkpt><trkpt lat="51.4885575" lon="3.9703669"><ele>-0.6000000000000001</ele><time>2026-04-06T11:05:37.177Z</time></trkpt><trkpt lat="51.4885061" lon="3.9705477"><ele>-0.8</ele><time>2026-04-06T11:05:39.177Z</time></trkpt><trkpt lat="51.4884694" lon="3.9707289"><ele>-1.0</ele><time>2026-04-06T11:05:41.177Z</time></trkpt><trkpt lat="51.4884363" lon="3.9709151"><ele>-1.0</ele><time>2026-04-06T11:05:43.177Z</time></trkpt><trkpt lat="51.4884144" lon="3.9710937"><ele>-1.0</ele><time>2026-04-06T11:05:45.177Z</time></trkpt><trkpt lat="51.4884074" lon="3.9712482"><ele>-1.0</ele><time>2026-04-06T11:05:47.177Z</time></trkpt><trkpt lat="51.4884063" lon="3.9713928"><ele>-1.0</ele><time>2026-04-06T11:05:49.177Z</time></trkpt><trkpt lat="51.4884031" lon="3.97153"><ele>-1.0</ele><time>2026-04-06T11:05:51.177Z</time></trkpt><trkpt lat="51.4883996" lon="3.9717"><ele>-1.0</ele><time>2026-04-06T11:05:53.177Z</time></trkpt><trkpt lat="51.4883974" lon="3.9718776"><ele>-1.0</ele><time>2026-04-06T11:05:55.177Z</time></trkpt><trkpt lat="51.4883948" lon="3.9720501"><ele>-1.0</ele><time>2026-04-06T11:05:57.177Z</time></trkpt><trkpt lat="51.4883807" lon="3.9722122"><ele>-1.0</ele><time>2026-04-06T11:05:59.177Z</time></trkpt><trkpt lat="51.4883387" lon="3.9723471"><ele>-1.0</ele><time>2026-04-06T11:06:01.177Z</time></trkpt><trkpt lat="51.4882722" lon="3.9724379"><ele>-0.9999999999999999</ele><time>2026-04-06T11:06:03.177Z</time></trkpt><trkpt lat="51.4881926" lon="3.9724716"><ele>-1.0</ele><time>2026-04-06T11:06:06.177Z</time></trkpt><trkpt lat="51.4881041" lon="3.9725099"><ele>-1.0</ele><time>2026-04-06T11:06:14.177Z</time></trkpt><trkpt lat="51.4880347" lon="3.9725012"><ele>-1.0</ele><time>2026-04-06T11:06:16.177Z</time></trkpt><trkpt lat="51.4879395" lon="3.9724847"><ele>-0.9999999999999999</ele><time>2026-04-06T11:06:18.177Z</time></trkpt><trkpt lat="51.4878537" lon="3.9724826"><ele>-1.0</ele><time>2026-04-06T11:06:20.177Z</time></trkpt><trkpt lat="51.4877906" lon="3.9724969"><ele>-0.9999999999999999</ele><time>2026-04-06T11:06:22.177Z</time></trkpt><trkpt lat="51.4877564" lon="3.9725905"><ele>-1.0</ele><time>2026-04-06T11:06:24.178Z</time></trkpt><trkpt lat="51.487741" lon="3.9727333"><ele>-1.0</ele><time>2026-04-06T11:06:26.177Z</time></trkpt><trkpt lat="51.4877231" lon="3.9728769"><ele>-1.0</ele><time>2026-04-06T11:06:28.177Z</time></trkpt><trkpt lat="51.4876952" lon="3.9730444"><ele>-0.9999999999999999</ele><time>2026-04-06T11:06:30.177Z</time></trkpt><trkpt lat="51.4876745" lon="3.9731809"><ele>-1.0</ele><time>2026-04-06T11:06:32.177Z</time></trkpt><trkpt lat="51.487707" lon="3.9732864"><ele>-0.9999999999999999</ele><time>2026-04-06T11:06:34.177Z</time></trkpt><trkpt lat="51.4877863" lon="3.9733401"><ele>-1.0</ele><time>2026-04-06T11:06:36.177Z</time></trkpt><trkpt lat="51.487902" lon="3.9733797"><ele>-1.0</ele><time>2026-04-06T11:06:38.177Z</time></trkpt><trkpt lat="51.4879711" lon="3.9734054"><ele>-1.0</ele><time>2026-04-06T11:06:39.177Z</time></trkpt><trkpt lat="51.4880385" lon="3.9734317"><ele>-0.9999999999999999</ele><time>2026-04-06T11:06:40.178Z</time></trkpt><trkpt lat="51.488101" lon="3.9734526"><ele>-1.0</ele><time>2026-04-06T11:06:41.177Z</time></trkpt><trkpt lat="51.4882129" lon="3.9734927"><ele>-1.4</ele><time>2026-04-06T11:06:43.177Z</time></trkpt><trkpt lat="51.4882981" lon="3.9735144"><ele>-1.8</ele><time>2026-04-06T11:06:45.177Z</time></trkpt><trkpt lat="51.4884126" lon="3.9735149"><ele>-2.1999999999999997</ele><time>2026-04-06T11:06:47.177Z</time></trkpt><trkpt lat="51.4884809" lon="3.9735082"><ele>-2.6</ele><time>2026-04-06T11:06:48.177Z</time></trkpt><trkpt lat="51.4886104" lon="3.9735081"><ele>-3.0</ele><time>2026-04-06T11:06:50.177Z</time></trkpt><trkpt lat="51.4886779" lon="3.97351"><ele>-3.0</ele><time>2026-04-06T11:06:51.177Z</time></trkpt><trkpt lat="51.4887418" lon="3.9735077"><ele>-3.0</ele><time>2026-04-06T11:06:52.177Z</time></trkpt><trkpt lat="51.4888579" lon="3.9734671"><ele>-3.0</ele><time>2026-04-06T11:06:54.177Z</time></trkpt><trkpt lat="51.4889539" lon="3.9733948"><ele>-3.0</ele><time>2026-04-06T11:06:56.177Z</time></trkpt><trkpt lat="51.4890268" lon="3.9732933"><ele>-3.0</ele><time>2026-04-06T11:06:58.177Z</time></trkpt><trkpt lat="51.4890844" lon="3.973192"><ele>-2.6</ele><time>2026-04-06T11:07:00.177Z</time></trkpt><trkpt lat="51.4891396" lon="3.9730695"><ele>-2.1999999999999997</ele><time>2026-04-06T11:07:02.178Z</time></trkpt><trkpt lat="51.4891706" lon="3.9729291"><ele>-1.8</ele><time>2026-04-06T11:07:04.177Z</time></trkpt><trkpt lat="51.4891719" lon="3.972758"><ele>-1.4</ele><time>2026-04-06T11:07:06.177Z</time></trkpt><trkpt lat="51.489145" lon="3.972559"><ele>-1.0</ele><time>2026-04-06T11:07:08.177Z</time></trkpt><trkpt lat="51.4891326" lon="3.9724499"><ele>-1.0</ele><time>2026-04-06T11:07:09.178Z</time></trkpt><trkpt lat="51.4891183" lon="3.9723339"><ele>-0.9999999999999999</ele><time>2026-04-06T11:07:10.177Z</time></trkpt><trkpt lat="51.4891042" lon="3.9722198"><ele>-1.0</ele><time>2026-04-06T11:07:11.177Z</time></trkpt><trkpt lat="51.4890878" lon="3.9721029"><ele>-1.0</ele><time>2026-04-06T11:07:12.177Z</time></trkpt><trkpt lat="51.4890727" lon="3.9719888"><ele>-0.9999999999999999</ele><time>2026-04-06T11:07:13.177Z</time></trkpt><trkpt lat="51.4890615" lon="3.9718732"><ele>-1.0</ele><time>2026-04-06T11:07:14.177Z</time></trkpt><trkpt lat="51.4890577" lon="3.9717626"><ele>-1.0</ele><time>2026-04-06T11:07:15.177Z</time></trkpt><trkpt lat="51.4890552" lon="3.9716576"><ele>-1.0</ele><time>2026-04-06T11:07:16.177Z</time></trkpt><trkpt lat="51.4890511" lon="3.9715512"><ele>-0.9999999999999999</ele><time>2026-04-06T11:07:17.177Z</time></trkpt><trkpt lat="51.4890461" lon="3.9714444"><ele>-1.0</ele><time>2026-04-06T11:07:18.177Z</time></trkpt><trkpt lat="51.4890338" lon="3.9713429"><ele>-1.0</ele><time>2026-04-06T11:07:19.177Z</time></trkpt><trkpt lat="51.4890182" lon="3.9712386"><ele>-0.9999999999999999</ele><time>2026-04-06T11:07:20.177Z</time></trkpt><trkpt lat="51.4889971" lon="3.9711321"><ele>-1.0</ele><time>2026-04-06T11:07:21.177Z</time></trkpt><trkpt lat="51.4889772" lon="3.9710255"><ele>-1.0</ele><time>2026-04-06T11:07:22.177Z</time></trkpt><trkpt lat="51.4889559" lon="3.9709203"><ele>-1.0</ele><time>2026-04-06T11:07:23.177Z</time></trkpt><trkpt lat="51.4889366" lon="3.9708223"><ele>-1.0</ele><time>2026-04-06T11:07:24.178Z</time></trkpt><trkpt lat="51.4889005" lon="3.9706406"><ele>-1.0</ele><time>2026-04-06T11:07:26.177Z</time></trkpt><trkpt lat="51.4888443" lon="3.9704962"><ele>-1.0</ele><time>2026-04-06T11:07:28.177Z</time></trkpt><trkpt lat="51.4887458" lon="3.970411"><ele>-1.0</ele><time>2026-04-06T11:07:30.177Z</time></trkpt><trkpt lat="51.4886559" lon="3.9703422"><ele>-0.9999999999999999</ele><time>2026-04-06T11:07:32.177Z</time></trkpt><trkpt lat="51.488598" lon="3.9702604"><ele>-1.0</ele><time>2026-04-06T11:07:34.177Z</time></trkpt><trkpt lat="51.4885977" lon="3.9701469"><ele>-1.0</ele><time>2026-04-06T11:07:36.177Z</time></trkpt><trkpt lat="51.4886315" lon="3.9699919"><ele>-1.0</ele><time>2026-04-06T11:07:38.177Z</time></trkpt><trkpt lat="51.4886156" lon="3.9698298"><ele>-0.9999999999999999</ele><time>2026-04-06T11:07:40.177Z</time></trkpt><trkpt lat="51.4885625" lon="3.9697383"><ele>-1.0</ele><time>2026-04-06T11:07:42.177Z</time></trkpt><trkpt lat="51.488464" lon="3.9697556"><ele>-0.8</ele><time>2026-04-06T11:07:45.177Z</time></trkpt><trkpt lat="51.4883623" lon="3.9697934"><ele>-0.6000000000000001</ele><time>2026-04-06T11:07:47.177Z</time></trkpt><trkpt lat="51.4882548" lon="3.9698352"><ele>-0.4</ele><time>2026-04-06T11:07:49.177Z</time></trkpt><trkpt lat="51.4881382" lon="3.9698799"><ele>-0.2</ele><time>2026-04-06T11:07:51.177Z</time></trkpt><trkpt lat="51.488026" lon="3.9699157"><ele>0.0</ele><time>2026-04-06T11:07:53.177Z</time></trkpt><trkpt lat="51.4879306" lon="3.9699475"><ele>-0.16666666666666666</ele><time>2026-04-06T11:07:55.177Z</time></trkpt><trkpt lat="51.4878407" lon="3.9699681"><ele>-0.3333333333333333</ele><time>2026-04-06T11:07:57.177Z</time></trkpt><trkpt lat="51.4878044" lon="3.9700869"><ele>-0.5</ele><time>2026-04-06T11:08:00.177Z</time></trkpt><trkpt lat="51.4878078" lon="3.9702463"><ele>-0.6666666666666666</ele><time>2026-04-06T11:08:02.177Z</time></trkpt><trkpt lat="51.4878093" lon="3.97035"><ele>-0.8333333333333333</ele><time>2026-04-06T11:08:03.177Z</time></trkpt><trkpt lat="51.4878091" lon="3.9704577"><ele>-1.0</ele><time>2026-04-06T11:08:04.177Z</time></trkpt><trkpt lat="51.4878049" lon="3.9705604"><ele>-1.2000000000000002</ele><time>2026-04-06T11:08:05.177Z</time></trkpt><trkpt lat="51.4878023" lon="3.9706647"><ele>-1.4000000000000001</ele><time>2026-04-06T11:08:06.177Z</time></trkpt><trkpt lat="51.4877995" lon="3.9707692"><ele>-1.6</ele><time>2026-04-06T11:08:07.177Z</time></trkpt><trkpt lat="51.4877969" lon="3.970969"><ele>-1.8</ele><time>2026-04-06T11:08:09.177Z</time></trkpt><trkpt lat="51.4877955" lon="3.9711665"><ele>-2.0</ele><time>2026-04-06T11:08:11.177Z</time></trkpt><trkpt lat="51.4877904" lon="3.9713624"><ele>-2.0</ele><time>2026-04-06T11:08:13.177Z</time></trkpt><trkpt lat="51.4877884" lon="3.971473"><ele>-1.9999999999999998</ele><time>2026-04-06T11:08:14.177Z</time></trkpt><trkpt lat="51.487786" lon="3.9715937"><ele>-2.0</ele><time>2026-04-06T11:08:15.177Z</time></trkpt><trkpt lat="51.4877858" lon="3.971708"><ele>-2.0</ele><time>2026-04-06T11:08:16.177Z</time></trkpt><trkpt lat="51.4877854" lon="3.9718288"><ele>-1.9999999999999998</ele><time>2026-04-06T11:08:17.177Z</time></trkpt><trkpt lat="51.4877849" lon="3.9719539"><ele>-2.0</ele><time>2026-04-06T11:08:18.177Z</time></trkpt><trkpt lat="51.487783" lon="3.97208"><ele>-2.0</ele><time>2026-04-06T11:08:19.177Z</time></trkpt><trkpt lat="51.4877825" lon="3.9722024"><ele>-2.0</ele><time>2026-04-06T11:08:20.177Z</time></trkpt><trkpt lat="51.4877799" lon="3.9723147"><ele>-1.9999999999999998</ele><time>2026-04-06T11:08:21.177Z</time></trkpt><trkpt lat="51.4877736" lon="3.9724304"><ele>-2.0</ele><time>2026-04-06T11:08:22.177Z</time></trkpt><trkpt lat="51.4877698" lon="3.9725411"><ele>-2.0</ele><time>2026-04-06T11:08:23.177Z</time></trkpt><trkpt lat="51.4877559" lon="3.9726532"><ele>-1.9999999999999998</ele><time>2026-04-06T11:08:24.177Z</time></trkpt><trkpt lat="51.48774" lon="3.9727683"><ele>-2.0</ele><time>2026-04-06T11:08:25.177Z</time></trkpt><trkpt lat="51.4877242" lon="3.9728816"><ele>-2.0</ele><time>2026-04-06T11:08:26.177Z</time></trkpt><trkpt lat="51.4876949" lon="3.9730673"><ele>-1.9999999999999998</ele><time>2026-04-06T11:08:28.177Z</time></trkpt><trkpt lat="51.487651" lon="3.9731769"><ele>-2.0</ele><time>2026-04-06T11:08:30.177Z</time></trkpt><trkpt lat="51.4875746" lon="3.9731815"><ele>-2.0</ele><time>2026-04-06T11:08:36.177Z</time></trkpt><trkpt lat="51.4875139" lon="3.9731115"><ele>-2.0</ele><time>2026-04-06T11:08:38.177Z</time></trkpt><trkpt lat="51.4874327" lon="3.9731184"><ele>-1.9999999999999998</ele><time>2026-04-06T11:08:41.177Z</time></trkpt><trkpt lat="51.4873916" lon="3.9732158"><ele>-2.0</ele><time>2026-04-06T11:08:43.177Z</time></trkpt><trkpt lat="51.4873404" lon="3.973368"><ele>-1.9999999999999998</ele><time>2026-04-06T11:08:45.177Z</time></trkpt><trkpt lat="51.4873116" lon="3.9735524"><ele>-2.0</ele><time>2026-04-06T11:08:47.177Z</time></trkpt><trkpt lat="51.4873007" lon="3.9736523"><ele>-2.0</ele><time>2026-04-06T11:08:48.178Z</time></trkpt><trkpt lat="51.4872886" lon="3.9737569"><ele>-2.0</ele><time>2026-04-06T11:08:49.177Z</time></trkpt><trkpt lat="51.4872707" lon="3.9738576"><ele>-1.9999999999999998</ele><time>2026-04-06T11:08:50.177Z</time></trkpt><trkpt lat="51.4872394" lon="3.9740383"><ele>-2.0</ele><time>2026-04-06T11:08:52.177Z</time></trkpt><trkpt lat="51.4872258" lon="3.9741639"><ele>-2.0</ele><time>2026-04-06T11:08:54.178Z</time></trkpt><trkpt lat="51.4872028" lon="3.974273"><ele>-1.9999999999999998</ele><time>2026-04-06T11:08:57.177Z</time></trkpt><trkpt lat="51.4872234" lon="3.9741518"><ele>-2.0</ele><time>2026-04-06T11:09:50.177Z</time></trkpt><trkpt lat="51.4872406" lon="3.9740514"><ele>-2.0</ele><time>2026-04-06T11:09:53.177Z</time></trkpt><trkpt lat="51.4872531" lon="3.973933"><ele>-1.9999999999999998</ele><time>2026-04-06T11:09:56.177Z</time></trkpt><trkpt lat="51.487272" lon="3.9738054"><ele>-2.0</ele><time>2026-04-06T11:09:59.178Z</time></trkpt><trkpt lat="51.4872855" lon="3.9736968"><ele>-2.0</ele><time>2026-04-06T11:10:02.177Z</time></trkpt><trkpt lat="51.4872942" lon="3.9735798"><ele>-2.0</ele><time>2026-04-06T11:10:06.177Z</time></trkpt><trkpt lat="51.4873121" lon="3.9734653"><ele>-2.0</ele><time>2026-04-06T11:10:10.177Z</time></trkpt><trkpt lat="51.4872423" lon="3.973688"><ele>-2.0</ele><time>2026-04-06T11:10:17.177Z</time></trkpt><trkpt lat="51.4872626" lon="3.9735802"><ele>-2.0</ele><time>2026-04-06T11:10:34.176Z</time></trkpt><trkpt lat="51.4873087" lon="3.9734269"><ele>-2.0</ele><time>2026-04-06T11:10:48.175Z</time></trkpt><trkpt lat="51.4873483" lon="3.9732989"><ele>-1.8333333333333333</ele><time>2026-04-06T11:10:51.177Z</time></trkpt><trkpt lat="51.4873856" lon="3.9732058"><ele>-1.6666666666666665</ele><time>2026-04-06T11:10:55.175Z</time></trkpt><trkpt lat="51.4874291" lon="3.9730933"><ele>-1.5</ele><time>2026-04-06T11:10:59.177Z</time></trkpt><trkpt lat="51.4875222" lon="3.9731367"><ele>-1.3333333333333333</ele><time>2026-04-06T11:11:06.171Z</time></trkpt><trkpt lat="51.4876195" lon="3.9732281"><ele>-1.1666666666666665</ele><time>2026-04-06T11:11:08.176Z</time></trkpt><trkpt lat="51.4876764" lon="3.9732757"><ele>-1.0</ele><time>2026-04-06T11:11:09.177Z</time></trkpt><trkpt lat="51.4877532" lon="3.9733114"><ele>-0.9999999999999999</ele><time>2026-04-06T11:11:10.177Z</time></trkpt><trkpt lat="51.4878284" lon="3.9733439"><ele>-1.0</ele><time>2026-04-06T11:11:11.177Z</time></trkpt><trkpt lat="51.4878976" lon="3.9733758"><ele>-1.0</ele><time>2026-04-06T11:11:12.177Z</time></trkpt><trkpt lat="51.4879741" lon="3.9734013"><ele>-1.0</ele><time>2026-04-06T11:11:13.172Z</time></trkpt><trkpt lat="51.4880471" lon="3.9734282"><ele>-0.9999999999999999</ele><time>2026-04-06T11:11:14.177Z</time></trkpt><trkpt lat="51.4881186" lon="3.9734523"><ele>-1.0</ele><time>2026-04-06T11:11:15.171Z</time></trkpt><trkpt lat="51.4882279" lon="3.9735104"><ele>-1.3333333333333333</ele><time>2026-04-06T11:11:17.174Z</time></trkpt><trkpt lat="51.4883066" lon="3.9735251"><ele>-1.6666666666666665</ele><time>2026-04-06T11:11:19.177Z</time></trkpt><trkpt lat="51.4883898" lon="3.9735251"><ele>-2.0</ele><time>2026-04-06T11:11:21.177Z</time></trkpt><trkpt lat="51.4885137" lon="3.9735248"><ele>-2.3333333333333335</ele><time>2026-04-06T11:11:23.177Z</time></trkpt><trkpt lat="51.4885859" lon="3.9735203"><ele>-2.6666666666666665</ele><time>2026-04-06T11:11:24.171Z</time></trkpt><trkpt lat="51.4886498" lon="3.9735102"><ele>-3.0</ele><time>2026-04-06T11:11:25.177Z</time></trkpt><trkpt lat="51.4887172" lon="3.9734949"><ele>-3.0</ele><time>2026-04-06T11:11:26.176Z</time></trkpt><trkpt lat="51.4888263" lon="3.9734816"><ele>-3.0</ele><time>2026-04-06T11:11:28.177Z</time></trkpt><trkpt lat="51.4889201" lon="3.9735145"><ele>-3.0</ele><time>2026-04-06T11:11:30.177Z</time></trkpt><trkpt lat="51.4889806" lon="3.9736504"><ele>-3.0</ele><time>2026-04-06T11:11:32.177Z</time></trkpt><trkpt lat="51.4890385" lon="3.9738332"><ele>-3.0</ele><time>2026-04-06T11:11:34.177Z</time></trkpt><trkpt lat="51.4890767" lon="3.9739549"><ele>-3.0</ele><time>2026-04-06T11:11:35.177Z</time></trkpt><trkpt lat="51.4891115" lon="3.9740682"><ele>-3.0</ele><time>2026-04-06T11:11:36.177Z</time></trkpt><trkpt lat="51.48915" lon="3.9741785"><ele>-3.0</ele><time>2026-04-06T11:11:37.177Z</time></trkpt><trkpt lat="51.4891857" lon="3.9742725"><ele>-3.0</ele><time>2026-04-06T11:11:38.177Z</time></trkpt><trkpt lat="51.489252" lon="3.9743972"><ele>-3.0</ele><time>2026-04-06T11:11:40.177Z</time></trkpt><trkpt lat="51.4893427" lon="3.974444"><ele>-3.0</ele><time>2026-04-06T11:11:42.168Z</time></trkpt><trkpt lat="51.4894491" lon="3.9744455"><ele>-3.0</ele><time>2026-04-06T11:11:44.176Z</time></trkpt><trkpt lat="51.4895093" lon="3.9744091"><ele>-3.0</ele><time>2026-04-06T11:11:45.176Z</time></trkpt><trkpt lat="51.4895885" lon="3.9743455"><ele>-3.0</ele><time>2026-04-06T11:11:46.177Z</time></trkpt><trkpt lat="51.4896656" lon="3.9742889"><ele>-3.0</ele><time>2026-04-06T11:11:47.172Z</time></trkpt><trkpt lat="51.4897495" lon="3.974228"><ele>-3.0</ele><time>2026-04-06T11:11:48.173Z</time></trkpt><trkpt lat="51.4898309" lon="3.9741739"><ele>-3.0</ele><time>2026-04-06T11:11:49.177Z</time></trkpt><trkpt lat="51.489912" lon="3.9741265"><ele>-2.8333333333333335</ele><time>2026-04-06T11:11:50.169Z</time></trkpt><trkpt lat="51.4899948" lon="3.9740816"><ele>-2.6666666666666665</ele><time>2026-04-06T11:11:51.177Z</time></trkpt><trkpt lat="51.4900783" lon="3.9740316"><ele>-2.5</ele><time>2026-04-06T11:11:52.174Z</time></trkpt><trkpt lat="51.490156" lon="3.9739789"><ele>-2.333333333333333</ele><time>2026-04-06T11:11:53.177Z</time></trkpt><trkpt lat="51.4902148" lon="3.9739341"><ele>-2.1666666666666665</ele><time>2026-04-06T11:11:54.177Z</time></trkpt><trkpt lat="51.4903041" lon="3.973905"><ele>-2.0</ele><time>2026-04-06T11:11:56.177Z</time></trkpt><trkpt lat="51.490368" lon="3.973873"><ele>-1.9999999999999998</ele><time>2026-04-06T11:11:59.175Z</time></trkpt><trkpt lat="51.4904338" lon="3.9738415"><ele>-2.0</ele><time>2026-04-06T11:12:09.171Z</time></trkpt><trkpt lat="51.4905076" lon="3.9737914"><ele>-2.0</ele><time>2026-04-06T11:12:11.173Z</time></trkpt><trkpt lat="51.4906126" lon="3.973697"><ele>-2.0</ele><time>2026-04-06T11:12:13.174Z</time></trkpt><trkpt lat="51.4906761" lon="3.9736257"><ele>-1.9999999999999998</ele><time>2026-04-06T11:12:14.177Z</time></trkpt><trkpt lat="51.4907337" lon="3.9735419"><ele>-2.0</ele><time>2026-04-06T11:12:15.177Z</time></trkpt><trkpt lat="51.49078" lon="3.9734487"><ele>-1.6666666666666665</ele><time>2026-04-06T11:12:16.175Z</time></trkpt><trkpt lat="51.4908325" lon="3.9733508"><ele>-1.3333333333333333</ele><time>2026-04-06T11:12:17.174Z</time></trkpt><trkpt lat="51.490878" lon="3.9732445"><ele>-1.0</ele><time>2026-04-06T11:12:18.177Z</time></trkpt><trkpt lat="51.4909203" lon="3.9731488"><ele>-0.6666666666666666</ele><time>2026-04-06T11:12:19.172Z</time></trkpt><trkpt lat="51.490955" lon="3.9730404"><ele>-0.3333333333333333</ele><time>2026-04-06T11:12:20.176Z</time></trkpt><trkpt lat="51.4909993" lon="3.9729212"><ele>0.0</ele><time>2026-04-06T11:12:21.174Z</time></trkpt><trkpt lat="51.4910318" lon="3.9728007"><ele>0.0</ele><time>2026-04-06T11:12:22.175Z</time></trkpt><trkpt lat="51.4910549" lon="3.9726807"><ele>0.0</ele><time>2026-04-06T11:12:23.173Z</time></trkpt><trkpt lat="51.4910721" lon="3.972552"><ele>0.0</ele><time>2026-04-06T11:12:24.177Z</time></trkpt><trkpt lat="51.4910931" lon="3.9724171"><ele>0.0</ele><time>2026-04-06T11:12:25.176Z</time></trkpt><trkpt lat="51.491113" lon="3.9722947"><ele>0.0</ele><time>2026-04-06T11:12:26.175Z</time></trkpt><trkpt lat="51.4911355" lon="3.9721718"><ele>0.0</ele><time>2026-04-06T11:12:27.17Z</time></trkpt><trkpt lat="51.4911585" lon="3.9720564"><ele>0.0</ele><time>2026-04-06T11:12:28.177Z</time></trkpt><trkpt lat="51.4911842" lon="3.9719408"><ele>0.0</ele><time>2026-04-06T11:12:29.172Z</time></trkpt><trkpt lat="51.4912057" lon="3.9718242"><ele>0.0</ele><time>2026-04-06T11:12:30.177Z</time></trkpt><trkpt lat="51.491226" lon="3.9717146"><ele>0.0</ele><time>2026-04-06T11:12:31.177Z</time></trkpt><trkpt lat="51.4912551" lon="3.9716072"><ele>0.0</ele><time>2026-04-06T11:12:32.171Z</time></trkpt><trkpt lat="51.4913055" lon="3.9714345"><ele>0.0</ele><time>2026-04-06T11:12:34.177Z</time></trkpt><trkpt lat="51.4913518" lon="3.9712609"><ele>-0.4</ele><time>2026-04-06T11:12:36.177Z</time></trkpt><trkpt lat="51.4913869" lon="3.9711066"><ele>-0.8</ele><time>2026-04-06T11:12:38.177Z</time></trkpt><trkpt lat="51.4914266" lon="3.9710212"><ele>-1.2000000000000002</ele><time>2026-04-06T11:12:40.171Z</time></trkpt><trkpt lat="51.491439" lon="3.9709045"><ele>-1.6</ele><time>2026-04-06T11:12:43.177Z</time></trkpt><trkpt lat="51.4914236" lon="3.9707466"><ele>-2.0</ele><time>2026-04-06T11:12:45.169Z</time></trkpt><trkpt lat="51.491389" lon="3.9705728"><ele>-2.0</ele><time>2026-04-06T11:12:47.177Z</time></trkpt><trkpt lat="51.4913703" lon="3.9704725"><ele>-1.9999999999999998</ele><time>2026-04-06T11:12:48.177Z</time></trkpt><trkpt lat="51.4913505" lon="3.9703697"><ele>-2.0</ele><time>2026-04-06T11:12:49.177Z</time></trkpt><trkpt lat="51.4913285" lon="3.9702563"><ele>-2.0</ele><time>2026-04-06T11:12:50.177Z</time></trkpt><trkpt lat="51.4913018" lon="3.9701425"><ele>-1.9999999999999998</ele><time>2026-04-06T11:12:51.177Z</time></trkpt><trkpt lat="51.4912859" lon="3.9700166"><ele>-2.0</ele><time>2026-04-06T11:12:52.169Z</time></trkpt><trkpt lat="51.4912619" lon="3.9698822"><ele>-2.0</ele><time>2026-04-06T11:12:53.177Z</time></trkpt><trkpt lat="51.4912339" lon="3.9697476"><ele>-1.8333333333333333</ele><time>2026-04-06T11:12:54.176Z</time></trkpt><trkpt lat="51.4912028" lon="3.9696089"><ele>-1.6666666666666665</ele><time>2026-04-06T11:12:55.177Z</time></trkpt><trkpt lat="51.4911761" lon="3.9694735"><ele>-1.5</ele><time>2026-04-06T11:12:56.176Z</time></trkpt><trkpt lat="51.4911527" lon="3.9693383"><ele>-1.3333333333333333</ele><time>2026-04-06T11:12:57.172Z</time></trkpt><trkpt lat="51.4911355" lon="3.9692107"><ele>-1.1666666666666665</ele><time>2026-04-06T11:12:58.177Z</time></trkpt><trkpt lat="51.4911194" lon="3.9690726"><ele>-1.0</ele><time>2026-04-06T11:12:59.176Z</time></trkpt><trkpt lat="51.4911033" lon="3.9689417"><ele>-0.9999999999999999</ele><time>2026-04-06T11:13:00.177Z</time></trkpt><trkpt lat="51.4910918" lon="3.968801"><ele>-1.0</ele><time>2026-04-06T11:13:01.173Z</time></trkpt><trkpt lat="51.4910863" lon="3.9686642"><ele>-1.0</ele><time>2026-04-06T11:13:02.17Z</time></trkpt><trkpt lat="51.4910844" lon="3.9685317"><ele>-1.0</ele><time>2026-04-06T11:13:03.177Z</time></trkpt><trkpt lat="51.4910845" lon="3.9683949"><ele>-0.9999999999999999</ele><time>2026-04-06T11:13:04.171Z</time></trkpt><trkpt lat="51.4910776" lon="3.9682474"><ele>-1.0</ele><time>2026-04-06T11:13:05.177Z</time></trkpt><trkpt lat="51.49107" lon="3.9681114"><ele>-0.9999999999999999</ele><time>2026-04-06T11:13:06.177Z</time></trkpt><trkpt lat="51.4910497" lon="3.9679843"><ele>-1.0</ele><time>2026-04-06T11:13:07.177Z</time></trkpt><trkpt lat="51.491014" lon="3.9678581"><ele>-1.0</ele><time>2026-04-06T11:13:08.177Z</time></trkpt><trkpt lat="51.4909579" lon="3.9677573"><ele>-1.0</ele><time>2026-04-06T11:13:09.177Z</time></trkpt><trkpt lat="51.4909013" lon="3.9676664"><ele>-0.9999999999999999</ele><time>2026-04-06T11:13:10.177Z</time></trkpt><trkpt lat="51.4908386" lon="3.967589"><ele>-1.0</ele><time>2026-04-06T11:13:11.172Z</time></trkpt><trkpt lat="51.4907748" lon="3.967516"><ele>-0.8333333333333333</ele><time>2026-04-06T11:13:12.177Z</time></trkpt><trkpt lat="51.4907102" lon="3.9674547"><ele>-0.6666666666666666</ele><time>2026-04-06T11:13:13.177Z</time></trkpt><trkpt lat="51.4906354" lon="3.9674025"><ele>-0.5</ele><time>2026-04-06T11:13:14.177Z</time></trkpt><trkpt lat="51.4905577" lon="3.9673667"><ele>-0.3333333333333333</ele><time>2026-04-06T11:13:15.177Z</time></trkpt><trkpt lat="51.4904752" lon="3.9673494"><ele>-0.16666666666666666</ele><time>2026-04-06T11:13:16.173Z</time></trkpt><trkpt lat="51.4903973" lon="3.9673263"><ele>0.0</ele><time>2026-04-06T11:13:17.178Z</time></trkpt><trkpt lat="51.4903207" lon="3.9673021"><ele>0.0</ele><time>2026-04-06T11:13:18.169Z</time></trkpt><trkpt lat="51.4902457" lon="3.9672805"><ele>0.0</ele><time>2026-04-06T11:13:19.177Z</time></trkpt><trkpt lat="51.4901684" lon="3.9672493"><ele>0.0</ele><time>2026-04-06T11:13:20.169Z</time></trkpt><trkpt lat="51.4901049" lon="3.9672271"><ele>0.0</ele><time>2026-04-06T11:13:21.173Z</time></trkpt><trkpt lat="51.4899929" lon="3.9672025"><ele>0.0</ele><time>2026-04-06T11:13:23.177Z</time></trkpt><trkpt lat="51.4899102" lon="3.9672059"><ele>0.0</ele><time>2026-04-06T11:13:25.177Z</time></trkpt><trkpt lat="51.4898501" lon="3.9671058"><ele>0.0</ele><time>2026-04-06T11:13:27.177Z</time></trkpt><trkpt lat="51.489857" lon="3.966934"><ele>0.0</ele><time>2026-04-06T11:13:29.177Z</time></trkpt><trkpt lat="51.489882" lon="3.9668316"><ele>0.0</ele><time>2026-04-06T11:13:30.177Z</time></trkpt><trkpt lat="51.489907" lon="3.9667312"><ele>0.0</ele><time>2026-04-06T11:13:31.177Z</time></trkpt><trkpt lat="51.489946" lon="3.9666393"><ele>0.0</ele><time>2026-04-06T11:13:32.177Z</time></trkpt><trkpt lat="51.4899834" lon="3.9665507"><ele>0.0</ele><time>2026-04-06T11:13:33.177Z</time></trkpt><trkpt lat="51.4900891" lon="3.9664728"><ele>0.0</ele><time>2026-04-06T11:13:35.177Z</time></trkpt><trkpt lat="51.4901599" lon="3.966442"><ele>0.0</ele><time>2026-04-06T11:13:36.177Z</time></trkpt><trkpt lat="51.4902308" lon="3.9664044"><ele>0.0</ele><time>2026-04-06T11:13:37.177Z</time></trkpt><trkpt lat="51.4903083" lon="3.9663638"><ele>0.0</ele><time>2026-04-06T11:13:38.174Z</time></trkpt><trkpt lat="51.4903926" lon="3.9663344"><ele>0.0</ele><time>2026-04-06T11:13:39.177Z</time></trkpt><trkpt lat="51.4904795" lon="3.9663173"><ele>0.0</ele><time>2026-04-06T11:13:40.177Z</time></trkpt><trkpt lat="51.4905774" lon="3.9663151"><ele>0.0</ele><time>2026-04-06T11:13:41.174Z</time></trkpt><trkpt lat="51.4906879" lon="3.9663207"><ele>0.0</ele><time>2026-04-06T11:13:42.177Z</time></trkpt><trkpt lat="51.4907951" lon="3.9663405"><ele>0.0</ele><time>2026-04-06T11:13:43.177Z</time></trkpt><trkpt lat="51.4909042" lon="3.966367"><ele>0.0</ele><time>2026-04-06T11:13:44.177Z</time></trkpt><trkpt lat="51.4910142" lon="3.9663992"><ele>0.0</ele><time>2026-04-06T11:13:45.177Z</time></trkpt><trkpt lat="51.4911216" lon="3.9664455"><ele>0.0</ele><time>2026-04-06T11:13:46.177Z</time></trkpt><trkpt lat="51.491228" lon="3.9664986"><ele>0.0</ele><time>2026-04-06T11:13:47.173Z</time></trkpt><trkpt lat="51.491336" lon="3.9665766"><ele>0.0</ele><time>2026-04-06T11:13:48.176Z</time></trkpt><trkpt lat="51.491445" lon="3.9666607"><ele>0.0</ele><time>2026-04-06T11:13:49.177Z</time></trkpt><trkpt lat="51.4915566" lon="3.9667531"><ele>-0.25</ele><time>2026-04-06T11:13:50.177Z</time></trkpt><trkpt lat="51.4916641" lon="3.9668485"><ele>-0.5</ele><time>2026-04-06T11:13:51.177Z</time></trkpt><trkpt lat="51.4917655" lon="3.9669553"><ele>-0.75</ele><time>2026-04-06T11:13:52.176Z</time></trkpt><trkpt lat="51.4918567" lon="3.9670696"><ele>-1.0</ele><time>2026-04-06T11:13:53.167Z</time></trkpt><trkpt lat="51.4919409" lon="3.9671871"><ele>-1.0</ele><time>2026-04-06T11:13:54.177Z</time></trkpt><trkpt lat="51.4920207" lon="3.9673112"><ele>-1.0</ele><time>2026-04-06T11:13:55.173Z</time></trkpt><trkpt lat="51.4920926" lon="3.9674391"><ele>-1.0</ele><time>2026-04-06T11:13:56.177Z</time></trkpt><trkpt lat="51.4921601" lon="3.9675714"><ele>-1.0</ele><time>2026-04-06T11:13:57.175Z</time></trkpt><trkpt lat="51.4922124" lon="3.967716"><ele>-1.0</ele><time>2026-04-06T11:13:58.173Z</time></trkpt><trkpt lat="51.4922534" lon="3.9678418"><ele>-1.0</ele><time>2026-04-06T11:13:59.174Z</time></trkpt><trkpt lat="51.4922848" lon="3.9679414"><ele>-1.0</ele><time>2026-04-06T11:14:00.174Z</time></trkpt><trkpt lat="51.4923303" lon="3.9680955"><ele>-1.0</ele><time>2026-04-06T11:14:02.177Z</time></trkpt><trkpt lat="51.4923587" lon="3.9682158"><ele>-1.0</ele><time>2026-04-06T11:14:04.177Z</time></trkpt><trkpt lat="51.4924097" lon="3.9684064"><ele>-1.0</ele><time>2026-04-06T11:14:06.177Z</time></trkpt><trkpt lat="51.4924411" lon="3.9685264"><ele>-1.1666666666666665</ele><time>2026-04-06T11:14:07.177Z</time></trkpt><trkpt lat="51.4924659" lon="3.9686464"><ele>-1.3333333333333333</ele><time>2026-04-06T11:14:08.177Z</time></trkpt><trkpt lat="51.4924831" lon="3.9687659"><ele>-1.5</ele><time>2026-04-06T11:14:09.177Z</time></trkpt><trkpt lat="51.4925049" lon="3.9688861"><ele>-1.6666666666666665</ele><time>2026-04-06T11:14:10.177Z</time></trkpt><trkpt lat="51.4925258" lon="3.969001"><ele>-1.8333333333333333</ele><time>2026-04-06T11:14:11.175Z</time></trkpt><trkpt lat="51.492548" lon="3.9691225"><ele>-2.0</ele><time>2026-04-06T11:14:12.174Z</time></trkpt><trkpt lat="51.4925714" lon="3.9692537"><ele>-2.0</ele><time>2026-04-06T11:14:13.17Z</time></trkpt><trkpt lat="51.4925875" lon="3.9693786"><ele>-1.9999999999999998</ele><time>2026-04-06T11:14:14.177Z</time></trkpt><trkpt lat="51.4926058" lon="3.9695013"><ele>-2.0</ele><time>2026-04-06T11:14:15.177Z</time></trkpt><trkpt lat="51.4926243" lon="3.9696346"><ele>-2.0</ele><time>2026-04-06T11:14:16.177Z</time></trkpt><trkpt lat="51.4926404" lon="3.9697512"><ele>-1.9999999999999998</ele><time>2026-04-06T11:14:17.177Z</time></trkpt><trkpt lat="51.4926532" lon="3.9698568"><ele>-2.0</ele><time>2026-04-06T11:14:18.177Z</time></trkpt><trkpt lat="51.4926614" lon="3.9699579"><ele>-2.0</ele><time>2026-04-06T11:14:19.177Z</time></trkpt><trkpt lat="51.4926814" lon="3.9701336"><ele>-1.9999999999999998</ele><time>2026-04-06T11:14:21.171Z</time></trkpt><trkpt lat="51.4927206" lon="3.9702522"><ele>-2.0</ele><time>2026-04-06T11:14:23.177Z</time></trkpt><trkpt lat="51.4927978" lon="3.9702718"><ele>-2.0</ele><time>2026-04-06T11:14:26.172Z</time></trkpt><trkpt lat="51.4927312" lon="3.9702502"><ele>-2.0</ele><time>2026-04-06T11:14:34.177Z</time></trkpt><trkpt lat="51.4926776" lon="3.9701154"><ele>-1.9999999999999998</ele><time>2026-04-06T11:16:10.177Z</time></trkpt><trkpt lat="51.4926551" lon="3.9699439"><ele>-2.0</ele><time>2026-04-06T11:16:12.176Z</time></trkpt><trkpt lat="51.492638" lon="3.9698221"><ele>-2.0</ele><time>2026-04-06T11:16:13.173Z</time></trkpt><trkpt lat="51.4926209" lon="3.9696885"><ele>-2.0</ele><time>2026-04-06T11:16:14.177Z</time></trkpt><trkpt lat="51.4926031" lon="3.9695485"><ele>-2.0</ele><time>2026-04-06T11:16:15.177Z</time></trkpt><trkpt lat="51.4925798" lon="3.9694068"><ele>-2.0</ele><time>2026-04-06T11:16:16.177Z</time></trkpt><trkpt lat="51.492553" lon="3.9692479"><ele>-2.0</ele><time>2026-04-06T11:16:17.177Z</time></trkpt><trkpt lat="51.4925303" lon="3.9690669"><ele>-2.0</ele><time>2026-04-06T11:16:18.175Z</time></trkpt><trkpt lat="51.4925028" lon="3.9688829"><ele>-2.0</ele><time>2026-04-06T11:16:19.177Z</time></trkpt><trkpt lat="51.4924727" lon="3.9687064"><ele>-2.0</ele><time>2026-04-06T11:16:20.178Z</time></trkpt><trkpt lat="51.4924308" lon="3.9685213"><ele>-2.0</ele><time>2026-04-06T11:16:21.177Z</time></trkpt><trkpt lat="51.4923901" lon="3.9683424"><ele>-1.75</ele><time>2026-04-06T11:16:22.177Z</time></trkpt><trkpt lat="51.4923395" lon="3.9681738"><ele>-1.5</ele><time>2026-04-06T11:16:23.178Z</time></trkpt><trkpt lat="51.492291" lon="3.9680038"><ele>-1.25</ele><time>2026-04-06T11:16:24.177Z</time></trkpt><trkpt lat="51.4922418" lon="3.9678339"><ele>-1.0</ele><time>2026-04-06T11:16:25.177Z</time></trkpt><trkpt lat="51.4921826" lon="3.9676742"><ele>-1.0</ele><time>2026-04-06T11:16:26.172Z</time></trkpt><trkpt lat="51.4921237" lon="3.967518"><ele>-1.0</ele><time>2026-04-06T11:16:27.177Z</time></trkpt><trkpt lat="51.4920465" lon="3.9673717"><ele>-1.0</ele><time>2026-04-06T11:16:28.177Z</time></trkpt><trkpt lat="51.491961" lon="3.9672399"><ele>-1.0</ele><time>2026-04-06T11:16:29.177Z</time></trkpt><trkpt lat="51.4918718" lon="3.9671085"><ele>-1.0</ele><time>2026-04-06T11:16:30.177Z</time></trkpt><trkpt lat="51.4917773" lon="3.9669885"><ele>-1.0</ele><time>2026-04-06T11:16:31.177Z</time></trkpt><trkpt lat="51.4916752" lon="3.9668731"><ele>-1.0</ele><time>2026-04-06T11:16:32.173Z</time></trkpt><trkpt lat="51.4915726" lon="3.9667749"><ele>-1.0</ele><time>2026-04-06T11:16:33.177Z</time></trkpt><trkpt lat="51.4914631" lon="3.9666831"><ele>-0.75</ele><time>2026-04-06T11:16:34.177Z</time></trkpt><trkpt lat="51.4913487" lon="3.9666002"><ele>-0.5</ele><time>2026-04-06T11:16:35.177Z</time></trkpt><trkpt lat="51.4912376" lon="3.9665251"><ele>-0.25</ele><time>2026-04-06T11:16:36.177Z</time></trkpt><trkpt lat="51.4911254" lon="3.9664579"><ele>0.0</ele><time>2026-04-06T11:16:37.177Z</time></trkpt><trkpt lat="51.4910179" lon="3.9664015"><ele>0.0</ele><time>2026-04-06T11:16:38.177Z</time></trkpt><trkpt lat="51.4909017" lon="3.9663644"><ele>0.0</ele><time>2026-04-06T11:16:39.177Z</time></trkpt><trkpt lat="51.4907894" lon="3.966344"><ele>0.0</ele><time>2026-04-06T11:16:40.177Z</time></trkpt><trkpt lat="51.4906804" lon="3.9663296"><ele>0.0</ele><time>2026-04-06T11:16:41.177Z</time></trkpt><trkpt lat="51.4905675" lon="3.9663221"><ele>0.0</ele><time>2026-04-06T11:16:42.177Z</time></trkpt><trkpt lat="51.490462" lon="3.9663356"><ele>0.0</ele><time>2026-04-06T11:16:43.177Z</time></trkpt><trkpt lat="51.4903584" lon="3.9663556"><ele>0.0</ele><time>2026-04-06T11:16:44.177Z</time></trkpt><trkpt lat="51.4902574" lon="3.9663851"><ele>0.0</ele><time>2026-04-06T11:16:45.177Z</time></trkpt><trkpt lat="51.4901645" lon="3.9664418"><ele>0.0</ele><time>2026-04-06T11:16:46.177Z</time></trkpt><trkpt lat="51.4900743" lon="3.9664751"><ele>0.0</ele><time>2026-04-06T11:16:47.177Z</time></trkpt><trkpt lat="51.4900119" lon="3.9665088"><ele>0.0</ele><time>2026-04-06T11:16:48.177Z</time></trkpt><trkpt lat="51.4899348" lon="3.9665979"><ele>0.0</ele><time>2026-04-06T11:16:50.175Z</time></trkpt><trkpt lat="51.4898821" lon="3.9667634"><ele>0.0</ele><time>2026-04-06T11:16:52.177Z</time></trkpt><trkpt lat="51.4898658" lon="3.9668793"><ele>0.0</ele><time>2026-04-06T11:16:53.177Z</time></trkpt><trkpt lat="51.4898612" lon="3.967046"><ele>0.0</ele><time>2026-04-06T11:16:55.177Z</time></trkpt><trkpt lat="51.4898903" lon="3.9671643"><ele>0.0</ele><time>2026-04-06T11:16:58.177Z</time></trkpt><trkpt lat="51.4898986" lon="3.9673206"><ele>0.0</ele><time>2026-04-06T11:17:01.177Z</time></trkpt><trkpt lat="51.4898481" lon="3.9674418"><ele>0.0</ele><time>2026-04-06T11:17:03.177Z</time></trkpt><trkpt lat="51.4897541" lon="3.9675356"><ele>0.0</ele><time>2026-04-06T11:17:05.177Z</time></trkpt><trkpt lat="51.489646" lon="3.9675634"><ele>-0.2</ele><time>2026-04-06T11:17:07.177Z</time></trkpt><trkpt lat="51.4895821" lon="3.9675091"><ele>-0.4</ele><time>2026-04-06T11:17:09.177Z</time></trkpt><trkpt lat="51.4894983" lon="3.9674261"><ele>-0.6000000000000001</ele><time>2026-04-06T11:17:11.177Z</time></trkpt><trkpt lat="51.489388" lon="3.9673511"><ele>-0.8</ele><time>2026-04-06T11:17:13.177Z</time></trkpt><trkpt lat="51.4892885" lon="3.9673024"><ele>-1.0</ele><time>2026-04-06T11:17:15.177Z</time></trkpt><trkpt lat="51.4891785" lon="3.9672654"><ele>-1.0</ele><time>2026-04-06T11:17:17.177Z</time></trkpt><trkpt lat="51.4890645" lon="3.967218"><ele>-1.0</ele><time>2026-04-06T11:17:19.177Z</time></trkpt><trkpt lat="51.4890003" lon="3.9671892"><ele>-1.0</ele><time>2026-04-06T11:17:20.177Z</time></trkpt><trkpt lat="51.4889259" lon="3.9671585"><ele>-1.0</ele><time>2026-04-06T11:17:21.177Z</time></trkpt><trkpt lat="51.4888492" lon="3.9671178"><ele>-1.0</ele><time>2026-04-06T11:17:22.177Z</time></trkpt><trkpt lat="51.4887335" lon="3.9670523"><ele>-0.8571428571428571</ele><time>2026-04-06T11:17:24.177Z</time></trkpt><trkpt lat="51.488669" lon="3.9670196"><ele>-0.7142857142857142</ele><time>2026-04-06T11:17:25.177Z</time></trkpt><trkpt lat="51.4885985" lon="3.9669798"><ele>-0.5714285714285714</ele><time>2026-04-06T11:17:26.177Z</time></trkpt><trkpt lat="51.4885283" lon="3.9669407"><ele>-0.42857142857142855</ele><time>2026-04-06T11:17:27.177Z</time></trkpt><trkpt lat="51.4884572" lon="3.9669062"><ele>-0.2857142857142857</ele><time>2026-04-06T11:17:28.177Z</time></trkpt><trkpt lat="51.4883893" lon="3.9668682"><ele>-0.14285714285714285</ele><time>2026-04-06T11:17:29.177Z</time></trkpt><trkpt lat="51.4883201" lon="3.9668218"><ele>0.0</ele><time>2026-04-06T11:17:30.177Z</time></trkpt><trkpt lat="51.4882475" lon="3.9667678"><ele>0.0</ele><time>2026-04-06T11:17:31.177Z</time></trkpt><trkpt lat="51.4881729" lon="3.9667104"><ele>0.0</ele><time>2026-04-06T11:17:32.177Z</time></trkpt><trkpt lat="51.4881017" lon="3.9666567"><ele>0.0</ele><time>2026-04-06T11:17:33.177Z</time></trkpt><trkpt lat="51.4880288" lon="3.9666011"><ele>0.0</ele><time>2026-04-06T11:17:34.177Z</time></trkpt><trkpt lat="51.4879587" lon="3.9665503"><ele>0.0</ele><time>2026-04-06T11:17:35.177Z</time></trkpt><trkpt lat="51.4878909" lon="3.966498"><ele>0.0</ele><time>2026-04-06T11:17:36.177Z</time></trkpt><trkpt lat="51.4878275" lon="3.9664444"><ele>0.0</ele><time>2026-04-06T11:17:37.177Z</time></trkpt><trkpt lat="51.4877662" lon="3.9663941"><ele>0.0</ele><time>2026-04-06T11:17:38.177Z</time></trkpt><trkpt lat="51.4877063" lon="3.9663497"><ele>0.0</ele><time>2026-04-06T11:17:39.177Z</time></trkpt><trkpt lat="51.4875937" lon="3.9662693"><ele>0.0</ele><time>2026-04-06T11:17:41.177Z</time></trkpt><trkpt lat="51.4874849" lon="3.966219"><ele>0.0</ele><time>2026-04-06T11:17:43.177Z</time></trkpt><trkpt lat="51.4874203" lon="3.9662156"><ele>0.0</ele><time>2026-04-06T11:17:44.177Z</time></trkpt><trkpt lat="51.4873497" lon="3.9662255"><ele>0.0</ele><time>2026-04-06T11:17:45.177Z</time></trkpt><trkpt lat="51.4872781" lon="3.9662458"><ele>0.0</ele><time>2026-04-06T11:17:46.177Z</time></trkpt><trkpt lat="51.4871992" lon="3.9662706"><ele>0.0</ele><time>2026-04-06T11:17:47.177Z</time></trkpt><trkpt lat="51.4871131" lon="3.9662965"><ele>0.0</ele><time>2026-04-06T11:17:48.177Z</time></trkpt><trkpt lat="51.4870206" lon="3.9663249"><ele>0.0</ele><time>2026-04-06T11:17:49.177Z</time></trkpt><trkpt lat="51.486924" lon="3.9663534"><ele>0.0</ele><time>2026-04-06T11:17:50.177Z</time></trkpt><trkpt lat="51.4868254" lon="3.9663803"><ele>0.0</ele><time>2026-04-06T11:17:51.177Z</time></trkpt><trkpt lat="51.4867314" lon="3.9664086"><ele>0.0</ele><time>2026-04-06T11:17:52.177Z</time></trkpt><trkpt lat="51.4866394" lon="3.9664369"><ele>0.0</ele><time>2026-04-06T11:17:53.177Z</time></trkpt><trkpt lat="51.4865468" lon="3.9664583"><ele>0.0</ele><time>2026-04-06T11:17:54.177Z</time></trkpt><trkpt lat="51.4864579" lon="3.9664842"><ele>0.0</ele><time>2026-04-06T11:17:55.178Z</time></trkpt><trkpt lat="51.4863781" lon="3.9665277"><ele>0.0</ele><time>2026-04-06T11:17:56.177Z</time></trkpt><trkpt lat="51.4863003" lon="3.9665916"><ele>0.0</ele><time>2026-04-06T11:17:57.177Z</time></trkpt><trkpt lat="51.4862345" lon="3.9666691"><ele>0.0</ele><time>2026-04-06T11:17:58.177Z</time></trkpt><trkpt lat="51.4861752" lon="3.9667462"><ele>0.0</ele><time>2026-04-06T11:17:59.177Z</time></trkpt><trkpt lat="51.4861262" lon="3.9668143"><ele>0.0</ele><time>2026-04-06T11:18:00.177Z</time></trkpt><trkpt lat="51.4860264" lon="3.9669094"><ele>0.0</ele><time>2026-04-06T11:18:02.177Z</time></trkpt><trkpt lat="51.4859323" lon="3.9668512"><ele>0.2</ele><time>2026-04-06T11:18:04.177Z</time></trkpt><trkpt lat="51.48588" lon="3.9667199"><ele>0.4</ele><time>2026-04-06T11:18:06.177Z</time></trkpt><trkpt lat="51.4858425" lon="3.9665545"><ele>0.6000000000000001</ele><time>2026-04-06T11:18:08.177Z</time></trkpt><trkpt lat="51.4857999" lon="3.9663686"><ele>0.8</ele><time>2026-04-06T11:18:10.177Z</time></trkpt><trkpt lat="51.4857914" lon="3.9662661"><ele>1.0</ele><time>2026-04-06T11:18:11.177Z</time></trkpt><trkpt lat="51.485782" lon="3.9660762"><ele>1.0</ele><time>2026-04-06T11:18:13.177Z</time></trkpt><trkpt lat="51.4857687" lon="3.9659087"><ele>1.0</ele><time>2026-04-06T11:18:15.177Z</time></trkpt><trkpt lat="51.4857608" lon="3.9657609"><ele>1.0</ele><time>2026-04-06T11:18:17.177Z</time></trkpt><trkpt lat="51.4857429" lon="3.9656082"><ele>1.0</ele><time>2026-04-06T11:18:19.177Z</time></trkpt><trkpt lat="51.4857163" lon="3.9654362"><ele>1.0</ele><time>2026-04-06T11:18:21.177Z</time></trkpt><trkpt lat="51.4856802" lon="3.9652294"><ele>1.0</ele><time>2026-04-06T11:18:23.177Z</time></trkpt><trkpt lat="51.4856634" lon="3.9651196"><ele>0.9999999999999999</ele><time>2026-04-06T11:18:24.177Z</time></trkpt><trkpt lat="51.4856445" lon="3.9650008"><ele>1.0</ele><time>2026-04-06T11:18:25.176Z</time></trkpt><trkpt lat="51.4856256" lon="3.9648803"><ele>1.0</ele><time>2026-04-06T11:18:26.176Z</time></trkpt><trkpt lat="51.4856071" lon="3.9647686"><ele>0.9999999999999999</ele><time>2026-04-06T11:18:27.176Z</time></trkpt><trkpt lat="51.4855894" lon="3.9646617"><ele>1.0</ele><time>2026-04-06T11:18:28.176Z</time></trkpt><trkpt lat="51.485571" lon="3.9645534"><ele>1.0</ele><time>2026-04-06T11:18:29.176Z</time></trkpt><trkpt lat="51.4855519" lon="3.9644436"><ele>0.8571428571428571</ele><time>2026-04-06T11:18:30.176Z</time></trkpt><trkpt lat="51.4855337" lon="3.9643347"><ele>0.7142857142857142</ele><time>2026-04-06T11:18:31.176Z</time></trkpt><trkpt lat="51.4855174" lon="3.9642274"><ele>0.5714285714285714</ele><time>2026-04-06T11:18:32.176Z</time></trkpt><trkpt lat="51.4855012" lon="3.9641209"><ele>0.42857142857142855</ele><time>2026-04-06T11:18:33.176Z</time></trkpt><trkpt lat="51.485479" lon="3.9640095"><ele>0.2857142857142857</ele><time>2026-04-06T11:18:34.176Z</time></trkpt><trkpt lat="51.4854605" lon="3.9638969"><ele>0.14285714285714285</ele><time>2026-04-06T11:18:35.176Z</time></trkpt><trkpt lat="51.4854405" lon="3.963788"><ele>0.0</ele><time>2026-04-06T11:18:36.176Z</time></trkpt><trkpt lat="51.4854213" lon="3.9636808"><ele>0.0</ele><time>2026-04-06T11:18:37.176Z</time></trkpt><trkpt lat="51.4854058" lon="3.9635757"><ele>0.0</ele><time>2026-04-06T11:18:38.176Z</time></trkpt><trkpt lat="51.4853792" lon="3.9633992"><ele>0.0</ele><time>2026-04-06T11:18:40.176Z</time></trkpt><trkpt lat="51.4853573" lon="3.9632833"><ele>0.0</ele><time>2026-04-06T11:18:42.176Z</time></trkpt><trkpt lat="51.4853006" lon="3.963218"><ele>0.0</ele><time>2026-04-06T11:18:44.176Z</time></trkpt><trkpt lat="51.485196" lon="3.9632041"><ele>0.0</ele><time>2026-04-06T11:18:46.176Z</time></trkpt><trkpt lat="51.4851257" lon="3.9631937"><ele>0.0</ele><time>2026-04-06T11:18:47.176Z</time></trkpt><trkpt lat="51.4850571" lon="3.9631766"><ele>0.0</ele><time>2026-04-06T11:18:48.176Z</time></trkpt><trkpt lat="51.4849852" lon="3.9631553"><ele>0.0</ele><time>2026-04-06T11:18:49.176Z</time></trkpt><trkpt lat="51.4849174" lon="3.9631401"><ele>0.0</ele><time>2026-04-06T11:18:50.176Z</time></trkpt><trkpt lat="51.4847945" lon="3.9631235"><ele>0.0</ele><time>2026-04-06T11:18:52.176Z</time></trkpt><trkpt lat="51.4846889" lon="3.9631076"><ele>0.0</ele><time>2026-04-06T11:18:54.176Z</time></trkpt><trkpt lat="51.4845733" lon="3.9630988"><ele>0.0</ele><time>2026-04-06T11:18:56.176Z</time></trkpt><trkpt lat="51.4844975" lon="3.9630901"><ele>0.0</ele><time>2026-04-06T11:18:57.176Z</time></trkpt><trkpt lat="51.484426" lon="3.9630778"><ele>0.0</ele><time>2026-04-06T11:18:58.176Z</time></trkpt><trkpt lat="51.4843521" lon="3.9630712"><ele>0.0</ele><time>2026-04-06T11:18:59.176Z</time></trkpt><trkpt lat="51.484275" lon="3.9630658"><ele>0.0</ele><time>2026-04-06T11:19:00.176Z</time></trkpt><trkpt lat="51.4842008" lon="3.9630678"><ele>0.0</ele><time>2026-04-06T11:19:01.176Z</time></trkpt><trkpt lat="51.4841266" lon="3.9630761"><ele>0.0</ele><time>2026-04-06T11:19:02.176Z</time></trkpt><trkpt lat="51.4840566" lon="3.963083"><ele>0.0</ele><time>2026-04-06T11:19:03.176Z</time></trkpt><trkpt lat="51.4839899" lon="3.9630902"><ele>0.0</ele><time>2026-04-06T11:19:04.176Z</time></trkpt><trkpt lat="51.4839199" lon="3.9630951"><ele>0.0</ele><time>2026-04-06T11:19:05.176Z</time></trkpt><trkpt lat="51.4838539" lon="3.9630947"><ele>0.0</ele><time>2026-04-06T11:19:06.176Z</time></trkpt><trkpt lat="51.4837904" lon="3.9630878"><ele>0.0</ele><time>2026-04-06T11:19:07.176Z</time></trkpt><trkpt lat="51.4836727" lon="3.9630905"><ele>0.0</ele><time>2026-04-06T11:19:09.176Z</time></trkpt><trkpt lat="51.4835529" lon="3.9630785"><ele>0.14285714285714285</ele><time>2026-04-06T11:19:11.176Z</time></trkpt><trkpt lat="51.4834878" lon="3.9630744"><ele>0.2857142857142857</ele><time>2026-04-06T11:19:12.176Z</time></trkpt><trkpt lat="51.483419" lon="3.9630636"><ele>0.42857142857142855</ele><time>2026-04-06T11:19:13.176Z</time></trkpt><trkpt lat="51.4833508" lon="3.9630568"><ele>0.5714285714285714</ele><time>2026-04-06T11:19:14.176Z</time></trkpt><trkpt lat="51.4832803" lon="3.963046"><ele>0.7142857142857142</ele><time>2026-04-06T11:19:15.176Z</time></trkpt><trkpt lat="51.4832161" lon="3.9630355"><ele>0.8571428571428571</ele><time>2026-04-06T11:19:16.176Z</time></trkpt><trkpt lat="51.4831524" lon="3.9630293"><ele>1.0</ele><time>2026-04-06T11:19:17.176Z</time></trkpt><trkpt lat="51.4830869" lon="3.9630215"><ele>0.9999999999999999</ele><time>2026-04-06T11:19:18.176Z</time></trkpt><trkpt lat="51.4829867" lon="3.9630134"><ele>1.0</ele><time>2026-04-06T11:19:20.176Z</time></trkpt><trkpt lat="51.4828948" lon="3.9630047"><ele>1.0</ele><time>2026-04-06T11:19:22.176Z</time></trkpt><trkpt lat="51.4827735" lon="3.9629831"><ele>1.0</ele><time>2026-04-06T11:19:24.176Z</time></trkpt><trkpt lat="51.4827063" lon="3.9629772"><ele>0.9999999999999999</ele><time>2026-04-06T11:19:25.176Z</time></trkpt><trkpt lat="51.4826406" lon="3.9629678"><ele>1.0</ele><time>2026-04-06T11:19:26.176Z</time></trkpt><trkpt lat="51.4825767" lon="3.9629646"><ele>0.8</ele><time>2026-04-06T11:19:27.176Z</time></trkpt><trkpt lat="51.4824618" lon="3.9629538"><ele>0.6000000000000001</ele><time>2026-04-06T11:19:29.176Z</time></trkpt><trkpt lat="51.4823699" lon="3.9628854"><ele>0.4</ele><time>2026-04-06T11:19:31.176Z</time></trkpt><trkpt lat="51.4822993" lon="3.9627135"><ele>0.2</ele><time>2026-04-06T11:19:33.176Z</time></trkpt><trkpt lat="51.4822656" lon="3.9626078"><ele>0.0</ele><time>2026-04-06T11:19:34.176Z</time></trkpt><trkpt lat="51.4822327" lon="3.9624983"><ele>0.0</ele><time>2026-04-06T11:19:35.177Z</time></trkpt><trkpt lat="51.4822038" lon="3.9623882"><ele>0.0</ele><time>2026-04-06T11:19:36.176Z</time></trkpt><trkpt lat="51.4821744" lon="3.9622734"><ele>0.0</ele><time>2026-04-06T11:19:37.176Z</time></trkpt><trkpt lat="51.4821392" lon="3.9621537"><ele>0.0</ele><time>2026-04-06T11:19:38.176Z</time></trkpt><trkpt lat="51.4821075" lon="3.9620414"><ele>0.0</ele><time>2026-04-06T11:19:39.176Z</time></trkpt><trkpt lat="51.4820778" lon="3.9619421"><ele>0.0</ele><time>2026-04-06T11:19:40.176Z</time></trkpt><trkpt lat="51.4820344" lon="3.9617813"><ele>0.0</ele><time>2026-04-06T11:19:42.176Z</time></trkpt><trkpt lat="51.4819768" lon="3.9616777"><ele>0.0</ele><time>2026-04-06T11:19:44.176Z</time></trkpt><trkpt lat="51.4818733" lon="3.961651"><ele>0.0</ele><time>2026-04-06T11:19:46.176Z</time></trkpt><trkpt lat="51.481742" lon="3.96168"><ele>0.0</ele><time>2026-04-06T11:19:48.176Z</time></trkpt><trkpt lat="51.4816699" lon="3.9617034"><ele>0.0</ele><time>2026-04-06T11:19:49.176Z</time></trkpt><trkpt lat="51.4815935" lon="3.9617238"><ele>0.0</ele><time>2026-04-06T11:19:50.176Z</time></trkpt><trkpt lat="51.481516" lon="3.9617421"><ele>0.0</ele><time>2026-04-06T11:19:51.176Z</time></trkpt><trkpt lat="51.4814447" lon="3.9617521"><ele>0.0</ele><time>2026-04-06T11:19:52.176Z</time></trkpt><trkpt lat="51.4813813" lon="3.9617676"><ele>0.0</ele><time>2026-04-06T11:19:53.176Z</time></trkpt><trkpt lat="51.4812885" lon="3.9617969"><ele>0.0</ele><time>2026-04-06T11:19:55.177Z</time></trkpt><trkpt lat="51.4812034" lon="3.9618216"><ele>0.0</ele><time>2026-04-06T11:19:57.176Z</time></trkpt><trkpt lat="51.481083" lon="3.961848"><ele>0.3333333333333333</ele><time>2026-04-06T11:19:59.176Z</time></trkpt><trkpt lat="51.4810075" lon="3.9618653"><ele>0.6666666666666666</ele><time>2026-04-06T11:20:00.176Z</time></trkpt><trkpt lat="51.4809352" lon="3.9618831"><ele>1.0</ele><time>2026-04-06T11:20:01.176Z</time></trkpt><trkpt lat="51.4808651" lon="3.9619045"><ele>1.3333333333333333</ele><time>2026-04-06T11:20:02.176Z</time></trkpt><trkpt lat="51.4808026" lon="3.9619242"><ele>1.6666666666666665</ele><time>2026-04-06T11:20:03.176Z</time></trkpt><trkpt lat="51.4807079" lon="3.9619489"><ele>2.0</ele><time>2026-04-06T11:20:05.176Z</time></trkpt><trkpt lat="51.4806353" lon="3.9618929"><ele>1.9999999999999998</ele><time>2026-04-06T11:20:07.176Z</time></trkpt><trkpt lat="51.4806046" lon="3.9617336"><ele>2.0</ele><time>2026-04-06T11:20:09.176Z</time></trkpt><trkpt lat="51.4805981" lon="3.9616301"><ele>2.0</ele><time>2026-04-06T11:20:10.176Z</time></trkpt><trkpt lat="51.4805921" lon="3.9615096"><ele>2.0</ele><time>2026-04-06T11:20:11.176Z</time></trkpt><trkpt lat="51.4805879" lon="3.9613867"><ele>1.9999999999999998</ele><time>2026-04-06T11:20:12.176Z</time></trkpt><trkpt lat="51.48058" lon="3.9612519"><ele>2.0</ele><time>2026-04-06T11:20:13.176Z</time></trkpt><trkpt lat="51.4805734" lon="3.9611054"><ele>1.8333333333333333</ele><time>2026-04-06T11:20:14.176Z</time></trkpt><trkpt lat="51.4805615" lon="3.9609759"><ele>1.6666666666666665</ele><time>2026-04-06T11:20:15.176Z</time></trkpt><trkpt lat="51.4805497" lon="3.9608582"><ele>1.5</ele><time>2026-04-06T11:20:16.176Z</time></trkpt><trkpt lat="51.4805463" lon="3.9607493"><ele>1.3333333333333333</ele><time>2026-04-06T11:20:17.176Z</time></trkpt><trkpt lat="51.4805323" lon="3.9605841"><ele>1.1666666666666665</ele><time>2026-04-06T11:20:19.176Z</time></trkpt><trkpt lat="51.4804883" lon="3.9604652"><ele>1.0</ele><time>2026-04-06T11:20:25.176Z</time></trkpt><trkpt lat="51.4804166" lon="3.9604645"><ele>0.9999999999999999</ele><time>2026-04-06T11:20:27.177Z</time></trkpt><trkpt lat="51.4802982" lon="3.9605107"><ele>1.0</ele><time>2026-04-06T11:20:29.176Z</time></trkpt><trkpt lat="51.4802285" lon="3.9605591"><ele>1.0</ele><time>2026-04-06T11:20:30.176Z</time></trkpt><trkpt lat="51.4801605" lon="3.9606019"><ele>1.0</ele><time>2026-04-06T11:20:31.176Z</time></trkpt><trkpt lat="51.4800962" lon="3.9606283"><ele>0.9999999999999999</ele><time>2026-04-06T11:20:32.176Z</time></trkpt><trkpt lat="51.480034" lon="3.9606618"><ele>1.0</ele><time>2026-04-06T11:20:33.176Z</time></trkpt><trkpt lat="51.4799224" lon="3.9607302"><ele>0.9999999999999999</ele><time>2026-04-06T11:20:35.176Z</time></trkpt><trkpt lat="51.4798194" lon="3.9607856"><ele>1.0</ele><time>2026-04-06T11:20:37.176Z</time></trkpt><trkpt lat="51.4797328" lon="3.9608305"><ele>1.0</ele><time>2026-04-06T11:20:39.176Z</time></trkpt><trkpt lat="51.4796723" lon="3.9608611"><ele>1.0</ele><time>2026-04-06T11:20:42.176Z</time></trkpt><trkpt lat="51.4796015" lon="3.9608903"><ele>0.9999999999999999</ele><time>2026-04-06T11:21:20.176Z</time></trkpt><trkpt lat="51.4795204" lon="3.9609382"><ele>1.0</ele><time>2026-04-06T11:21:24.176Z</time></trkpt><trkpt lat="51.479454" lon="3.9609743"><ele>0.8</ele><time>2026-04-06T11:21:26.176Z</time></trkpt><trkpt lat="51.4793795" lon="3.9610153"><ele>0.6000000000000001</ele><time>2026-04-06T11:21:29.176Z</time></trkpt><trkpt lat="51.479308" lon="3.9610658"><ele>0.4</ele><time>2026-04-06T11:21:32.176Z</time></trkpt><trkpt lat="51.4792377" lon="3.9611025"><ele>0.2</ele><time>2026-04-06T11:21:36.176Z</time></trkpt><trkpt lat="51.4791755" lon="3.9611293"><ele>0.0</ele><time>2026-04-06T11:21:41.176Z</time></trkpt><trkpt lat="51.4790035" lon="3.9612326"><ele>0.0</ele><time>2026-04-06T11:21:46.176Z</time></trkpt><trkpt lat="51.4788935" lon="3.961282"><ele>0.0</ele><time>2026-04-06T11:21:48.176Z</time></trkpt><trkpt lat="51.4787661" lon="3.9613505"><ele>0.0</ele><time>2026-04-06T11:21:50.176Z</time></trkpt><trkpt lat="51.4786952" lon="3.9613879"><ele>0.0</ele><time>2026-04-06T11:21:51.176Z</time></trkpt><trkpt lat="51.4786252" lon="3.9614291"><ele>0.0</ele><time>2026-04-06T11:21:52.176Z</time></trkpt><trkpt lat="51.4785504" lon="3.9614568"><ele>-0.16666666666666666</ele><time>2026-04-06T11:21:53.176Z</time></trkpt><trkpt lat="51.47848" lon="3.9614908"><ele>-0.3333333333333333</ele><time>2026-04-06T11:21:54.176Z</time></trkpt><trkpt lat="51.4784112" lon="3.9615207"><ele>-0.5</ele><time>2026-04-06T11:21:55.176Z</time></trkpt><trkpt lat="51.4783463" lon="3.9615516"><ele>-0.6666666666666666</ele><time>2026-04-06T11:21:56.176Z</time></trkpt><trkpt lat="51.4782294" lon="3.9616042"><ele>-0.8333333333333333</ele><time>2026-04-06T11:21:58.176Z</time></trkpt><trkpt lat="51.478134" lon="3.961655"><ele>-1.0</ele><time>2026-04-06T11:22:00.176Z</time></trkpt><trkpt lat="51.4780563" lon="3.9616878"><ele>-0.9999999999999999</ele><time>2026-04-06T11:22:02.176Z</time></trkpt><trkpt lat="51.4779796" lon="3.9617237"><ele>-1.0</ele><time>2026-04-06T11:22:06.176Z</time></trkpt><trkpt lat="51.4779127" lon="3.9617588"><ele>-1.0</ele><time>2026-04-06T11:22:10.176Z</time></trkpt><trkpt lat="51.4778413" lon="3.9617996"><ele>-1.0</ele><time>2026-04-06T11:22:13.176Z</time></trkpt><trkpt lat="51.4777711" lon="3.9618387"><ele>-0.9999999999999999</ele><time>2026-04-06T11:22:15.176Z</time></trkpt><trkpt lat="51.4776806" lon="3.961885"><ele>-1.0</ele><time>2026-04-06T11:22:18.176Z</time></trkpt><trkpt lat="51.4776027" lon="3.9618674"><ele>-0.9999999999999999</ele><time>2026-04-06T11:22:20.176Z</time></trkpt><trkpt lat="51.4775639" lon="3.9617377"><ele>-1.0</ele><time>2026-04-06T11:22:22.176Z</time></trkpt><trkpt lat="51.4775502" lon="3.9615509"><ele>-1.0</ele><time>2026-04-06T11:22:24.176Z</time></trkpt><trkpt lat="51.4775288" lon="3.9614351"><ele>-1.0</ele><time>2026-04-06T11:22:25.176Z</time></trkpt><trkpt lat="51.4775047" lon="3.9613251"><ele>-0.9999999999999999</ele><time>2026-04-06T11:22:26.176Z</time></trkpt><trkpt lat="51.4774831" lon="3.9612071"><ele>-1.0</ele><time>2026-04-06T11:22:27.176Z</time></trkpt><trkpt lat="51.4774631" lon="3.9610932"><ele>-1.1666666666666665</ele><time>2026-04-06T11:22:28.176Z</time></trkpt><trkpt lat="51.4774462" lon="3.9609868"><ele>-1.3333333333333333</ele><time>2026-04-06T11:22:29.176Z</time></trkpt><trkpt lat="51.4774319" lon="3.9608857"><ele>-1.5</ele><time>2026-04-06T11:22:30.176Z</time></trkpt><trkpt lat="51.4774199" lon="3.9607082"><ele>-1.6666666666666665</ele><time>2026-04-06T11:22:32.176Z</time></trkpt><trkpt lat="51.4774199" lon="3.9604979"><ele>-1.8333333333333333</ele><time>2026-04-06T11:22:34.176Z</time></trkpt><trkpt lat="51.4774172" lon="3.9603837"><ele>-2.0</ele><time>2026-04-06T11:22:35.176Z</time></trkpt><trkpt lat="51.4774155" lon="3.9602685"><ele>-1.9999999999999998</ele><time>2026-04-06T11:22:36.176Z</time></trkpt><trkpt lat="51.4774141" lon="3.9601435"><ele>-2.0</ele><time>2026-04-06T11:22:37.176Z</time></trkpt><trkpt lat="51.4774104" lon="3.9600166"><ele>-2.0</ele><time>2026-04-06T11:22:38.176Z</time></trkpt><trkpt lat="51.4774089" lon="3.9598886"><ele>-2.0</ele><time>2026-04-06T11:22:39.176Z</time></trkpt><trkpt lat="51.4774093" lon="3.9597628"><ele>-1.9999999999999998</ele><time>2026-04-06T11:22:40.176Z</time></trkpt><trkpt lat="51.4774082" lon="3.959634"><ele>-2.0</ele><time>2026-04-06T11:22:41.176Z</time></trkpt><trkpt lat="51.4773985" lon="3.959508"><ele>-1.8333333333333333</ele><time>2026-04-06T11:22:42.176Z</time></trkpt><trkpt lat="51.4773884" lon="3.9593842"><ele>-1.6666666666666665</ele><time>2026-04-06T11:22:43.176Z</time></trkpt><trkpt lat="51.4773735" lon="3.9592574"><ele>-1.5</ele><time>2026-04-06T11:22:44.176Z</time></trkpt><trkpt lat="51.4773573" lon="3.959125"><ele>-1.3333333333333333</ele><time>2026-04-06T11:22:45.176Z</time></trkpt><trkpt lat="51.4773398" lon="3.9589933"><ele>-1.1666666666666665</ele><time>2026-04-06T11:22:46.176Z</time></trkpt><trkpt lat="51.4773202" lon="3.9588634"><ele>-1.0</ele><time>2026-04-06T11:22:47.176Z</time></trkpt><trkpt lat="51.4772981" lon="3.9587377"><ele>-0.9999999999999999</ele><time>2026-04-06T11:22:48.176Z</time></trkpt><trkpt lat="51.4772745" lon="3.9586228"><ele>-1.0</ele><time>2026-04-06T11:22:49.176Z</time></trkpt><trkpt lat="51.477254" lon="3.9585261"><ele>-1.0</ele><time>2026-04-06T11:22:50.176Z</time></trkpt><trkpt lat="51.4772553" lon="3.9583697"><ele>-1.0</ele><time>2026-04-06T11:22:52.176Z</time></trkpt><trkpt lat="51.4773391" lon="3.9582386"><ele>-0.9999999999999999</ele><time>2026-04-06T11:22:54.176Z</time></trkpt><trkpt lat="51.4773903" lon="3.9581589"><ele>-1.0</ele><time>2026-04-06T11:22:55.176Z</time></trkpt><trkpt lat="51.4774438" lon="3.9580662"><ele>-0.9999999999999999</ele><time>2026-04-06T11:22:56.176Z</time></trkpt><trkpt lat="51.477494" lon="3.9579706"><ele>-1.0</ele><time>2026-04-06T11:22:57.176Z</time></trkpt><trkpt lat="51.4775448" lon="3.9578545"><ele>-1.0</ele><time>2026-04-06T11:22:58.176Z</time></trkpt><trkpt lat="51.4775943" lon="3.9577263"><ele>-1.0</ele><time>2026-04-06T11:22:59.176Z</time></trkpt><trkpt lat="51.4776398" lon="3.9575985"><ele>-0.9999999999999999</ele><time>2026-04-06T11:23:00.176Z</time></trkpt><trkpt lat="51.4776908" lon="3.9574715"><ele>-1.0</ele><time>2026-04-06T11:23:01.176Z</time></trkpt><trkpt lat="51.4777355" lon="3.9573536"><ele>-0.9999999999999999</ele><time>2026-04-06T11:23:02.176Z</time></trkpt><trkpt lat="51.477781" lon="3.957241"><ele>-1.0</ele><time>2026-04-06T11:23:03.176Z</time></trkpt><trkpt lat="51.477829" lon="3.9571342"><ele>-1.0</ele><time>2026-04-06T11:23:04.176Z</time></trkpt><trkpt lat="51.477872" lon="3.9570428"><ele>-1.0</ele><time>2026-04-06T11:23:05.176Z</time></trkpt><trkpt lat="51.477913" lon="3.9569587"><ele>-0.9999999999999999</ele><time>2026-04-06T11:23:06.176Z</time></trkpt><trkpt lat="51.4779541" lon="3.9568777"><ele>-1.0</ele><time>2026-04-06T11:23:07.176Z</time></trkpt><trkpt lat="51.4780365" lon="3.956739"><ele>-1.1666666666666665</ele><time>2026-04-06T11:23:09.176Z</time></trkpt><trkpt lat="51.4781124" lon="3.9565652"><ele>-1.3333333333333333</ele><time>2026-04-06T11:23:11.176Z</time></trkpt><trkpt lat="51.4781554" lon="3.9564604"><ele>-1.5</ele><time>2026-04-06T11:23:12.176Z</time></trkpt><trkpt lat="51.4781963" lon="3.9563634"><ele>-1.6666666666666665</ele><time>2026-04-06T11:23:13.176Z</time></trkpt><trkpt lat="51.4782373" lon="3.9562619"><ele>-1.8333333333333333</ele><time>2026-04-06T11:23:14.176Z</time></trkpt><trkpt lat="51.4782751" lon="3.9561477"><ele>-2.0</ele><time>2026-04-06T11:23:15.176Z</time></trkpt><trkpt lat="51.4783109" lon="3.9560211"><ele>-1.9999999999999998</ele><time>2026-04-06T11:23:16.176Z</time></trkpt><trkpt lat="51.478354" lon="3.9558983"><ele>-2.0</ele><time>2026-04-06T11:23:17.176Z</time></trkpt><trkpt lat="51.4784012" lon="3.9557828"><ele>-2.0</ele><time>2026-04-06T11:23:18.176Z</time></trkpt><trkpt lat="51.4784468" lon="3.9556777"><ele>-2.0</ele><time>2026-04-06T11:23:19.176Z</time></trkpt><trkpt lat="51.4784933" lon="3.9555753"><ele>-1.9999999999999998</ele><time>2026-04-06T11:23:20.176Z</time></trkpt><trkpt lat="51.4785372" lon="3.9554763"><ele>-2.0</ele><time>2026-04-06T11:23:21.176Z</time></trkpt><trkpt lat="51.4785776" lon="3.9553878"><ele>-1.9999999999999998</ele><time>2026-04-06T11:23:22.176Z</time></trkpt><trkpt lat="51.4786169" lon="3.9552984"><ele>-2.0</ele><time>2026-04-06T11:23:23.176Z</time></trkpt><trkpt lat="51.4786617" lon="3.9551951"><ele>-2.0</ele><time>2026-04-06T11:23:24.176Z</time></trkpt><trkpt lat="51.4787077" lon="3.9550828"><ele>-2.0</ele><time>2026-04-06T11:23:25.176Z</time></trkpt><trkpt lat="51.4787546" lon="3.9549758"><ele>-1.9999999999999998</ele><time>2026-04-06T11:23:26.176Z</time></trkpt><trkpt lat="51.4788032" lon="3.9548703"><ele>-2.0</ele><time>2026-04-06T11:23:27.176Z</time></trkpt><trkpt lat="51.4788456" lon="3.9547708"><ele>-2.0</ele><time>2026-04-06T11:23:28.176Z</time></trkpt><trkpt lat="51.4788865" lon="3.9546736"><ele>-1.9999999999999998</ele><time>2026-04-06T11:23:29.176Z</time></trkpt><trkpt lat="51.4789277" lon="3.9545801"><ele>-2.0</ele><time>2026-04-06T11:23:30.177Z</time></trkpt><trkpt lat="51.4789664" lon="3.9544897"><ele>-2.0</ele><time>2026-04-06T11:23:31.176Z</time></trkpt><trkpt lat="51.4790071" lon="3.9543963"><ele>-1.9999999999999998</ele><time>2026-04-06T11:23:32.176Z</time></trkpt><trkpt lat="51.4790495" lon="3.9542953"><ele>-2.0</ele><time>2026-04-06T11:23:33.176Z</time></trkpt><trkpt lat="51.4790978" lon="3.9541867"><ele>-2.0</ele><time>2026-04-06T11:23:34.176Z</time></trkpt><trkpt lat="51.4791488" lon="3.9540791"><ele>-1.9999999999999998</ele><time>2026-04-06T11:23:35.176Z</time></trkpt><trkpt lat="51.4792001" lon="3.9539648"><ele>-2.0</ele><time>2026-04-06T11:23:36.176Z</time></trkpt><trkpt lat="51.4792536" lon="3.9538423"><ele>-2.0</ele><time>2026-04-06T11:23:37.176Z</time></trkpt><trkpt lat="51.4793051" lon="3.9537243"><ele>-2.0</ele><time>2026-04-06T11:23:38.176Z</time></trkpt><trkpt lat="51.479351" lon="3.9536061"><ele>-1.9999999999999998</ele><time>2026-04-06T11:23:39.176Z</time></trkpt><trkpt lat="51.4793999" lon="3.9534927"><ele>-2.0</ele><time>2026-04-06T11:23:40.176Z</time></trkpt><trkpt lat="51.4794493" lon="3.953382"><ele>-1.9999999999999998</ele><time>2026-04-06T11:23:41.176Z</time></trkpt><trkpt lat="51.4794969" lon="3.9532764"><ele>-2.0</ele><time>2026-04-06T11:23:42.176Z</time></trkpt><trkpt lat="51.4795432" lon="3.9531716"><ele>-2.0</ele><time>2026-04-06T11:23:43.176Z</time></trkpt><trkpt lat="51.4795873" lon="3.9530717"><ele>-2.0</ele><time>2026-04-06T11:23:44.176Z</time></trkpt><trkpt lat="51.4796315" lon="3.9529712"><ele>-1.9999999999999998</ele><time>2026-04-06T11:23:45.176Z</time></trkpt><trkpt lat="51.4796714" lon="3.9528757"><ele>-2.0</ele><time>2026-04-06T11:23:46.176Z</time></trkpt><trkpt lat="51.4797293" lon="3.9527273"><ele>-2.1666666666666665</ele><time>2026-04-06T11:23:48.176Z</time></trkpt><trkpt lat="51.479774" lon="3.9526288"><ele>-2.333333333333333</ele><time>2026-04-06T11:23:50.177Z</time></trkpt><trkpt lat="51.4798402" lon="3.9526323"><ele>-2.5</ele><time>2026-04-06T11:23:52.176Z</time></trkpt><trkpt lat="51.4798933" lon="3.9527199"><ele>-2.6666666666666665</ele><time>2026-04-06T11:23:54.176Z</time></trkpt><trkpt lat="51.4799584" lon="3.9527836"><ele>-2.8333333333333335</ele><time>2026-04-06T11:23:56.176Z</time></trkpt><trkpt lat="51.4800278" lon="3.9527232"><ele>-3.0</ele><time>2026-04-06T11:23:58.176Z</time></trkpt><trkpt lat="51.4800846" lon="3.9525811"><ele>-3.0</ele><time>2026-04-06T11:24:00.176Z</time></trkpt><trkpt lat="51.4801428" lon="3.9524408"><ele>-3.0</ele><time>2026-04-06T11:24:02.176Z</time></trkpt><trkpt lat="51.4802229" lon="3.9523779"><ele>-3.0</ele><time>2026-04-06T11:24:04.176Z</time></trkpt><trkpt lat="51.4802985" lon="3.9524493"><ele>-3.0</ele><time>2026-04-06T11:24:06.176Z</time></trkpt><trkpt lat="51.4803413" lon="3.9526198"><ele>-3.0</ele><time>2026-04-06T11:24:08.176Z</time></trkpt><trkpt lat="51.4803609" lon="3.9527285"><ele>-3.0</ele><time>2026-04-06T11:24:09.177Z</time></trkpt><trkpt lat="51.4803733" lon="3.9528336"><ele>-3.0</ele><time>2026-04-06T11:24:10.176Z</time></trkpt><trkpt lat="51.4803899" lon="3.9529566"><ele>-3.0</ele><time>2026-04-06T11:24:11.176Z</time></trkpt><trkpt lat="51.4804059" lon="3.9530865"><ele>-3.0</ele><time>2026-04-06T11:24:12.177Z</time></trkpt><trkpt lat="51.4804252" lon="3.9532133"><ele>-3.0</ele><time>2026-04-06T11:24:13.176Z</time></trkpt><trkpt lat="51.4804444" lon="3.9533423"><ele>-3.0</ele><time>2026-04-06T11:24:14.176Z</time></trkpt><trkpt lat="51.4804625" lon="3.9534671"><ele>-2.8333333333333335</ele><time>2026-04-06T11:24:15.176Z</time></trkpt><trkpt lat="51.4804793" lon="3.9535868"><ele>-2.6666666666666665</ele><time>2026-04-06T11:24:16.176Z</time></trkpt><trkpt lat="51.4804976" lon="3.9537022"><ele>-2.5</ele><time>2026-04-06T11:24:17.176Z</time></trkpt><trkpt lat="51.4805163" lon="3.9538095"><ele>-2.333333333333333</ele><time>2026-04-06T11:24:18.176Z</time></trkpt><trkpt lat="51.480537" lon="3.9539932"><ele>-2.1666666666666665</ele><time>2026-04-06T11:24:20.176Z</time></trkpt><trkpt lat="51.4804988" lon="3.9541584"><ele>-2.0</ele><time>2026-04-06T11:24:22.176Z</time></trkpt><trkpt lat="51.4804161" lon="3.954291"><ele>-2.0</ele><time>2026-04-06T11:24:24.176Z</time></trkpt><trkpt lat="51.4803117" lon="3.9543992"><ele>-2.0</ele><time>2026-04-06T11:24:26.176Z</time></trkpt><trkpt lat="51.4802079" lon="3.9544935"><ele>-2.0</ele><time>2026-04-06T11:24:28.176Z</time></trkpt><trkpt lat="51.4800982" lon="3.9545878"><ele>-2.0</ele><time>2026-04-06T11:24:30.176Z</time></trkpt><trkpt lat="51.4799763" lon="3.9546284"><ele>-1.9999999999999998</ele><time>2026-04-06T11:24:32.176Z</time></trkpt><trkpt lat="51.479905" lon="3.9546405"><ele>-2.0</ele><time>2026-04-06T11:24:33.176Z</time></trkpt><trkpt lat="51.4798329" lon="3.9546432"><ele>-2.0</ele><time>2026-04-06T11:24:34.176Z</time></trkpt><trkpt lat="51.4797631" lon="3.9546385"><ele>-2.0</ele><time>2026-04-06T11:24:35.176Z</time></trkpt><trkpt lat="51.4796989" lon="3.9546148"><ele>-1.9999999999999998</ele><time>2026-04-06T11:24:36.176Z</time></trkpt><trkpt lat="51.4796398" lon="3.9545703"><ele>-2.0</ele><time>2026-04-06T11:24:37.176Z</time></trkpt><trkpt lat="51.4795449" lon="3.9544561"><ele>-2.0</ele><time>2026-04-06T11:24:39.176Z</time></trkpt><trkpt lat="51.4794566" lon="3.9543642"><ele>-2.0</ele><time>2026-04-06T11:24:41.176Z</time></trkpt><trkpt lat="51.4793907" lon="3.9542497"><ele>-2.0</ele><time>2026-04-06T11:24:43.176Z</time></trkpt><trkpt lat="51.4793972" lon="3.9541021"><ele>-2.0</ele><time>2026-04-06T11:24:45.176Z</time></trkpt><trkpt lat="51.4794631" lon="3.9539504"><ele>-2.0</ele><time>2026-04-06T11:24:47.176Z</time></trkpt><trkpt lat="51.4795082" lon="3.9538695"><ele>-1.9999999999999998</ele><time>2026-04-06T11:24:48.176Z</time></trkpt><trkpt lat="51.4795562" lon="3.9537688"><ele>-2.0</ele><time>2026-04-06T11:24:49.176Z</time></trkpt><trkpt lat="51.47961" lon="3.9536546"><ele>-2.0</ele><time>2026-04-06T11:24:50.176Z</time></trkpt><trkpt lat="51.479666" lon="3.9535317"><ele>-2.0</ele><time>2026-04-06T11:24:51.176Z</time></trkpt><trkpt lat="51.4797184" lon="3.9534105"><ele>-1.9999999999999998</ele><time>2026-04-06T11:24:52.176Z</time></trkpt><trkpt lat="51.4797721" lon="3.9532951"><ele>-2.0</ele><time>2026-04-06T11:24:53.176Z</time></trkpt><trkpt lat="51.4798235" lon="3.9531832"><ele>-2.1666666666666665</ele><time>2026-04-06T11:24:54.176Z</time></trkpt><trkpt lat="51.4798708" lon="3.9530868"><ele>-2.333333333333333</ele><time>2026-04-06T11:24:55.176Z</time></trkpt><trkpt lat="51.4799127" lon="3.9530007"><ele>-2.5</ele><time>2026-04-06T11:24:56.176Z</time></trkpt><trkpt lat="51.4799503" lon="3.9528651"><ele>-2.6666666666666665</ele><time>2026-04-06T11:24:58.176Z</time></trkpt><trkpt lat="51.4799199" lon="3.952748"><ele>-2.8333333333333335</ele><time>2026-04-06T11:25:00.176Z</time></trkpt><trkpt lat="51.4798669" lon="3.9526886"><ele>-3.0</ele><time>2026-04-06T11:25:02.176Z</time></trkpt><trkpt lat="51.47979" lon="3.952637"><ele>-3.0</ele><time>2026-04-06T11:25:05.176Z</time></trkpt><trkpt lat="51.4797446" lon="3.9527162"><ele>-3.0</ele><time>2026-04-06T11:25:07.176Z</time></trkpt><trkpt lat="51.4796987" lon="3.9528212"><ele>-3.0</ele><time>2026-04-06T11:25:09.176Z</time></trkpt><trkpt lat="51.4796314" lon="3.9529611"><ele>-3.0</ele><time>2026-04-06T11:25:11.176Z</time></trkpt><trkpt lat="51.4795856" lon="3.9530623"><ele>-3.0</ele><time>2026-04-06T11:25:12.176Z</time></trkpt><trkpt lat="51.4795381" lon="3.9531683"><ele>-3.0</ele><time>2026-04-06T11:25:13.176Z</time></trkpt><trkpt lat="51.4794865" lon="3.9532908"><ele>-2.8</ele><time>2026-04-06T11:25:14.176Z</time></trkpt><trkpt lat="51.4794312" lon="3.9534204"><ele>-2.5999999999999996</ele><time>2026-04-06T11:25:15.176Z</time></trkpt><trkpt lat="51.479372" lon="3.9535547"><ele>-2.4000000000000004</ele><time>2026-04-06T11:25:16.176Z</time></trkpt><trkpt lat="51.4793129" lon="3.9536893"><ele>-2.2</ele><time>2026-04-06T11:25:17.176Z</time></trkpt><trkpt lat="51.4792562" lon="3.9538167"><ele>-2.0</ele><time>2026-04-06T11:25:18.176Z</time></trkpt><trkpt lat="51.4792014" lon="3.9539399"><ele>-2.0</ele><time>2026-04-06T11:25:19.176Z</time></trkpt><trkpt lat="51.4791495" lon="3.9540541"><ele>-2.0</ele><time>2026-04-06T11:25:20.176Z</time></trkpt><trkpt lat="51.4791042" lon="3.9541519"><ele>-2.0</ele><time>2026-04-06T11:25:21.177Z</time></trkpt><trkpt lat="51.479066" lon="3.9542357"><ele>-2.0</ele><time>2026-04-06T11:25:22.176Z</time></trkpt><trkpt lat="51.4789996" lon="3.9543828"><ele>-2.0</ele><time>2026-04-06T11:25:24.177Z</time></trkpt><trkpt lat="51.4789226" lon="3.9545598"><ele>-1.9999999999999998</ele><time>2026-04-06T11:25:26.176Z</time></trkpt><trkpt lat="51.4788793" lon="3.9546582"><ele>-2.0</ele><time>2026-04-06T11:25:27.176Z</time></trkpt><trkpt lat="51.4788333" lon="3.954761"><ele>-2.0</ele><time>2026-04-06T11:25:28.176Z</time></trkpt><trkpt lat="51.4787887" lon="3.9548572"><ele>-2.0</ele><time>2026-04-06T11:25:29.176Z</time></trkpt><trkpt lat="51.4787449" lon="3.9549492"><ele>-1.9999999999999998</ele><time>2026-04-06T11:25:30.176Z</time></trkpt><trkpt lat="51.4786837" lon="3.9551"><ele>-2.0</ele><time>2026-04-06T11:25:32.176Z</time></trkpt><trkpt lat="51.4786935" lon="3.9552235"><ele>-2.0</ele><time>2026-04-06T11:25:34.177Z</time></trkpt><trkpt lat="51.4787695" lon="3.9553092"><ele>-2.0</ele><time>2026-04-06T11:25:36.176Z</time></trkpt><trkpt lat="51.4788631" lon="3.9553391"><ele>-2.0</ele><time>2026-04-06T11:25:38.176Z</time></trkpt><trkpt lat="51.4789367" lon="3.9552561"><ele>-2.0</ele><time>2026-04-06T11:25:40.176Z</time></trkpt><trkpt lat="51.4789724" lon="3.9550723"><ele>-2.0</ele><time>2026-04-06T11:25:42.176Z</time></trkpt><trkpt lat="51.4790039" lon="3.9548993"><ele>-2.0</ele><time>2026-04-06T11:25:44.176Z</time></trkpt><trkpt lat="51.4790663" lon="3.9547946"><ele>-2.0</ele><time>2026-04-06T11:25:46.176Z</time></trkpt><trkpt lat="51.4791624" lon="3.9548055"><ele>-2.0</ele><time>2026-04-06T11:25:48.176Z</time></trkpt><trkpt lat="51.4792723" lon="3.9548843"><ele>-2.0</ele><time>2026-04-06T11:25:50.177Z</time></trkpt><trkpt lat="51.4793359" lon="3.9549237"><ele>-2.0</ele><time>2026-04-06T11:25:51.176Z</time></trkpt><trkpt lat="51.4794483" lon="3.9549873"><ele>-1.9999999999999998</ele><time>2026-04-06T11:25:53.176Z</time></trkpt><trkpt lat="51.4795485" lon="3.9550375"><ele>-2.0</ele><time>2026-04-06T11:25:55.177Z</time></trkpt><trkpt lat="51.4796317" lon="3.955095"><ele>-2.0</ele><time>2026-04-06T11:25:57.176Z</time></trkpt><trkpt lat="51.4796645" lon="3.95521"><ele>-2.0</ele><time>2026-04-06T11:25:59.176Z</time></trkpt><trkpt lat="51.47963" lon="3.955372"><ele>-1.9999999999999998</ele><time>2026-04-06T11:26:01.176Z</time></trkpt><trkpt lat="51.4796036" lon="3.9554649"><ele>-2.0</ele><time>2026-04-06T11:26:02.176Z</time></trkpt><trkpt lat="51.4795771" lon="3.9555685"><ele>-1.9999999999999998</ele><time>2026-04-06T11:26:03.176Z</time></trkpt><trkpt lat="51.4795484" lon="3.9556804"><ele>-2.0</ele><time>2026-04-06T11:26:04.176Z</time></trkpt><trkpt lat="51.4795172" lon="3.9557972"><ele>-2.0</ele><time>2026-04-06T11:26:05.176Z</time></trkpt><trkpt lat="51.4794873" lon="3.955917"><ele>-2.0</ele><time>2026-04-06T11:26:06.176Z</time></trkpt><trkpt lat="51.479454" lon="3.9560389"><ele>-1.9999999999999998</ele><time>2026-04-06T11:26:07.176Z</time></trkpt><trkpt lat="51.4794207" lon="3.95617"><ele>-2.0</ele><time>2026-04-06T11:26:08.176Z</time></trkpt><trkpt lat="51.4793871" lon="3.9562965"><ele>-1.9999999999999998</ele><time>2026-04-06T11:26:09.176Z</time></trkpt><trkpt lat="51.4793581" lon="3.9564119"><ele>-2.0</ele><time>2026-04-06T11:26:10.176Z</time></trkpt><trkpt lat="51.4793274" lon="3.9565248"><ele>-2.0</ele><time>2026-04-06T11:26:11.176Z</time></trkpt><trkpt lat="51.4793007" lon="3.9566296"><ele>-2.0</ele><time>2026-04-06T11:26:12.176Z</time></trkpt><trkpt lat="51.479272" lon="3.9567348"><ele>-1.9999999999999998</ele><time>2026-04-06T11:26:13.176Z</time></trkpt><trkpt lat="51.4792407" lon="3.956836"><ele>-2.0</ele><time>2026-04-06T11:26:14.176Z</time></trkpt><trkpt lat="51.479192" lon="3.9570008"><ele>-2.0</ele><time>2026-04-06T11:26:16.176Z</time></trkpt><trkpt lat="51.4791498" lon="3.9571359"><ele>-2.0</ele><time>2026-04-06T11:26:18.176Z</time></trkpt><trkpt lat="51.479098" lon="3.9572983"><ele>-2.0</ele><time>2026-04-06T11:26:20.176Z</time></trkpt><trkpt lat="51.479064" lon="3.9574044"><ele>-2.0</ele><time>2026-04-06T11:26:21.176Z</time></trkpt><trkpt lat="51.4790319" lon="3.957498"><ele>-2.0</ele><time>2026-04-06T11:26:22.176Z</time></trkpt><trkpt lat="51.4789749" lon="3.9576614"><ele>-2.2</ele><time>2026-04-06T11:26:24.176Z</time></trkpt><trkpt lat="51.478937" lon="3.9578164"><ele>-2.4000000000000004</ele><time>2026-04-06T11:26:26.176Z</time></trkpt><trkpt lat="51.4789568" lon="3.9579742"><ele>-2.5999999999999996</ele><time>2026-04-06T11:26:28.176Z</time></trkpt><trkpt lat="51.4790081" lon="3.9581607"><ele>-2.8</ele><time>2026-04-06T11:26:30.176Z</time></trkpt><trkpt lat="51.4790334" lon="3.9582587"><ele>-3.0</ele><time>2026-04-06T11:26:31.176Z</time></trkpt><trkpt lat="51.4790594" lon="3.9583616"><ele>-2.8333333333333335</ele><time>2026-04-06T11:26:32.176Z</time></trkpt><trkpt lat="51.4791055" lon="3.9585407"><ele>-2.6666666666666665</ele><time>2026-04-06T11:26:34.176Z</time></trkpt><trkpt lat="51.479147" lon="3.9586932"><ele>-2.5</ele><time>2026-04-06T11:26:36.176Z</time></trkpt><trkpt lat="51.4792125" lon="3.9587449"><ele>-2.333333333333333</ele><time>2026-04-06T11:26:38.176Z</time></trkpt><trkpt lat="51.4792667" lon="3.958692"><ele>-2.1666666666666665</ele><time>2026-04-06T11:26:40.176Z</time></trkpt><trkpt lat="51.4793006" lon="3.9585878"><ele>-2.0</ele><time>2026-04-06T11:26:42.176Z</time></trkpt><trkpt lat="51.4793388" lon="3.9584631"><ele>-2.1666666666666665</ele><time>2026-04-06T11:26:44.176Z</time></trkpt><trkpt lat="51.4793964" lon="3.9583178"><ele>-2.333333333333333</ele><time>2026-04-06T11:26:46.176Z</time></trkpt><trkpt lat="51.4794349" lon="3.9582234"><ele>-2.5</ele><time>2026-04-06T11:26:47.176Z</time></trkpt><trkpt lat="51.4794737" lon="3.9581233"><ele>-2.6666666666666665</ele><time>2026-04-06T11:26:48.176Z</time></trkpt><trkpt lat="51.4795104" lon="3.9580259"><ele>-2.8333333333333335</ele><time>2026-04-06T11:26:49.176Z</time></trkpt><trkpt lat="51.4795449" lon="3.9579269"><ele>-3.0</ele><time>2026-04-06T11:26:50.176Z</time></trkpt><trkpt lat="51.4795805" lon="3.9578323"><ele>-2.6666666666666665</ele><time>2026-04-06T11:26:51.176Z</time></trkpt><trkpt lat="51.4796124" lon="3.9577407"><ele>-2.3333333333333335</ele><time>2026-04-06T11:26:52.176Z</time></trkpt><trkpt lat="51.4796434" lon="3.9576527"><ele>-2.0</ele><time>2026-04-06T11:26:53.176Z</time></trkpt><trkpt lat="51.4796955" lon="3.957494"><ele>-1.6666666666666665</ele><time>2026-04-06T11:26:55.176Z</time></trkpt><trkpt lat="51.4797364" lon="3.9573592"><ele>-1.3333333333333333</ele><time>2026-04-06T11:26:57.176Z</time></trkpt><trkpt lat="51.4797666" lon="3.957268"><ele>-1.0</ele><time>2026-04-06T11:26:58.176Z</time></trkpt><trkpt lat="51.4797981" lon="3.9571661"><ele>-0.9999999999999999</ele><time>2026-04-06T11:26:59.176Z</time></trkpt><trkpt lat="51.4798298" lon="3.9570441"><ele>-1.0</ele><time>2026-04-06T11:27:00.176Z</time></trkpt><trkpt lat="51.4798618" lon="3.9569226"><ele>-1.0</ele><time>2026-04-06T11:27:01.176Z</time></trkpt><trkpt lat="51.4798993" lon="3.9567866"><ele>-1.0</ele><time>2026-04-06T11:27:02.176Z</time></trkpt><trkpt lat="51.4799378" lon="3.9566481"><ele>-0.9999999999999999</ele><time>2026-04-06T11:27:03.176Z</time></trkpt><trkpt lat="51.4799734" lon="3.9565153"><ele>-1.0</ele><time>2026-04-06T11:27:04.176Z</time></trkpt><trkpt lat="51.4800081" lon="3.9563792"><ele>-1.0</ele><time>2026-04-06T11:27:05.176Z</time></trkpt><trkpt lat="51.4800445" lon="3.9562388"><ele>-1.0</ele><time>2026-04-06T11:27:06.176Z</time></trkpt><trkpt lat="51.4800789" lon="3.9560978"><ele>-1.0</ele><time>2026-04-06T11:27:07.176Z</time></trkpt><trkpt lat="51.4801146" lon="3.955956"><ele>-1.0</ele><time>2026-04-06T11:27:08.176Z</time></trkpt><trkpt lat="51.4801456" lon="3.9558221"><ele>-1.0</ele><time>2026-04-06T11:27:09.177Z</time></trkpt><trkpt lat="51.4801798" lon="3.9556929"><ele>-1.1666666666666665</ele><time>2026-04-06T11:27:10.176Z</time></trkpt><trkpt lat="51.4802105" lon="3.955566"><ele>-1.3333333333333333</ele><time>2026-04-06T11:27:11.176Z</time></trkpt><trkpt lat="51.4802332" lon="3.9554531"><ele>-1.5</ele><time>2026-04-06T11:27:12.176Z</time></trkpt><trkpt lat="51.4802575" lon="3.9553541"><ele>-1.6666666666666665</ele><time>2026-04-06T11:27:13.176Z</time></trkpt><trkpt lat="51.4802702" lon="3.9551937"><ele>-1.8333333333333333</ele><time>2026-04-06T11:27:15.176Z</time></trkpt><trkpt lat="51.4802215" lon="3.9550893"><ele>-2.0</ele><time>2026-04-06T11:27:17.176Z</time></trkpt><trkpt lat="51.4801288" lon="3.9550554"><ele>-2.0</ele><time>2026-04-06T11:27:19.176Z</time></trkpt><trkpt lat="51.4800644" lon="3.9550394"><ele>-2.0</ele><time>2026-04-06T11:27:20.176Z</time></trkpt><trkpt lat="51.4799981" lon="3.9550123"><ele>-2.0</ele><time>2026-04-06T11:27:21.176Z</time></trkpt><trkpt lat="51.4798752" lon="3.9549977"><ele>-2.0</ele><time>2026-04-06T11:27:23.176Z</time></trkpt><trkpt lat="51.4797634" lon="3.9550432"><ele>-2.0</ele><time>2026-04-06T11:27:25.176Z</time></trkpt><trkpt lat="51.4796759" lon="3.9551189"><ele>-1.9999999999999998</ele><time>2026-04-06T11:27:27.176Z</time></trkpt><trkpt lat="51.4796312" lon="3.9552774"><ele>-2.0</ele><time>2026-04-06T11:27:29.176Z</time></trkpt><trkpt lat="51.4796103" lon="3.9553878"><ele>-2.0</ele><time>2026-04-06T11:27:30.176Z</time></trkpt><trkpt lat="51.4795852" lon="3.9555071"><ele>-2.0</ele><time>2026-04-06T11:27:31.176Z</time></trkpt><trkpt lat="51.4795577" lon="3.9556237"><ele>-1.9999999999999998</ele><time>2026-04-06T11:27:32.176Z</time></trkpt><trkpt lat="51.4795243" lon="3.9557588"><ele>-2.0</ele><time>2026-04-06T11:27:33.176Z</time></trkpt><trkpt lat="51.479487" lon="3.9558987"><ele>-2.0</ele><time>2026-04-06T11:27:34.176Z</time></trkpt><trkpt lat="51.4794496" lon="3.9560458"><ele>-2.0</ele><time>2026-04-06T11:27:35.176Z</time></trkpt><trkpt lat="51.4794146" lon="3.9561911"><ele>-2.0</ele><time>2026-04-06T11:27:36.176Z</time></trkpt><trkpt lat="51.479379" lon="3.9563313"><ele>-2.0</ele><time>2026-04-06T11:27:37.176Z</time></trkpt><trkpt lat="51.4793411" lon="3.9564699"><ele>-2.0</ele><time>2026-04-06T11:27:38.176Z</time></trkpt><trkpt lat="51.4793055" lon="3.9565937"><ele>-1.9999999999999998</ele><time>2026-04-06T11:27:39.176Z</time></trkpt><trkpt lat="51.479273" lon="3.9567026"><ele>-2.0</ele><time>2026-04-06T11:27:40.176Z</time></trkpt><trkpt lat="51.4792452" lon="3.9568059"><ele>-2.0</ele><time>2026-04-06T11:27:41.176Z</time></trkpt><trkpt lat="51.4791974" lon="3.9569731"><ele>-2.0</ele><time>2026-04-06T11:27:43.176Z</time></trkpt><trkpt lat="51.4791659" lon="3.9570838"><ele>-1.9999999999999998</ele><time>2026-04-06T11:27:45.176Z</time></trkpt><trkpt lat="51.4791225" lon="3.9572267"><ele>-2.0</ele><time>2026-04-06T11:27:47.176Z</time></trkpt><trkpt lat="51.4790934" lon="3.9573185"><ele>-1.9999999999999998</ele><time>2026-04-06T11:27:48.176Z</time></trkpt><trkpt lat="51.4790642" lon="3.95742"><ele>-2.0</ele><time>2026-04-06T11:27:49.176Z</time></trkpt><trkpt lat="51.4790414" lon="3.9575169"><ele>-2.0</ele><time>2026-04-06T11:27:50.176Z</time></trkpt><trkpt lat="51.4789742" lon="3.9576733"><ele>-2.0</ele><time>2026-04-06T11:27:52.176Z</time></trkpt><trkpt lat="51.4788783" lon="3.9577141"><ele>-1.9999999999999998</ele><time>2026-04-06T11:27:54.176Z</time></trkpt><trkpt lat="51.4787941" lon="3.9576403"><ele>-2.0</ele><time>2026-04-06T11:27:56.176Z</time></trkpt><trkpt lat="51.4786722" lon="3.9575829"><ele>-1.9999999999999998</ele><time>2026-04-06T11:27:58.176Z</time></trkpt><trkpt lat="51.4785497" lon="3.957552"><ele>-2.0</ele><time>2026-04-06T11:28:00.176Z</time></trkpt><trkpt lat="51.478483" lon="3.9575358"><ele>-2.0</ele><time>2026-04-06T11:28:01.176Z</time></trkpt><trkpt lat="51.4783777" lon="3.9575049"><ele>-2.0</ele><time>2026-04-06T11:28:03.176Z</time></trkpt><trkpt lat="51.4783241" lon="3.9574127"><ele>-1.9999999999999998</ele><time>2026-04-06T11:28:05.176Z</time></trkpt><trkpt lat="51.4783442" lon="3.9573027"><ele>-2.0</ele><time>2026-04-06T11:28:07.176Z</time></trkpt><trkpt lat="51.4783829" lon="3.9572133"><ele>-1.9999999999999998</ele><time>2026-04-06T11:28:09.176Z</time></trkpt><trkpt lat="51.4784205" lon="3.9571021"><ele>-2.0</ele><time>2026-04-06T11:28:11.176Z</time></trkpt><trkpt lat="51.4784588" lon="3.956989"><ele>-2.0</ele><time>2026-04-06T11:28:13.176Z</time></trkpt><trkpt lat="51.4784842" lon="3.9568702"><ele>-2.0</ele><time>2026-04-06T11:28:15.176Z</time></trkpt><trkpt lat="51.4785113" lon="3.9567343"><ele>-1.9999999999999998</ele><time>2026-04-06T11:28:17.176Z</time></trkpt><trkpt lat="51.4785406" lon="3.9566236"><ele>-2.0</ele><time>2026-04-06T11:28:19.176Z</time></trkpt><trkpt lat="51.4785848" lon="3.9564972"><ele>-1.9999999999999998</ele><time>2026-04-06T11:28:21.176Z</time></trkpt><trkpt lat="51.4786466" lon="3.9563186"><ele>-2.0</ele><time>2026-04-06T11:28:23.176Z</time></trkpt><trkpt lat="51.4786774" lon="3.9562085"><ele>-2.0</ele><time>2026-04-06T11:28:24.176Z</time></trkpt><trkpt lat="51.4787082" lon="3.9560955"><ele>-2.0</ele><time>2026-04-06T11:28:25.176Z</time></trkpt><trkpt lat="51.4787439" lon="3.9559844"><ele>-1.9999999999999998</ele><time>2026-04-06T11:28:26.176Z</time></trkpt><trkpt lat="51.4787751" lon="3.9558694"><ele>-2.0</ele><time>2026-04-06T11:28:27.176Z</time></trkpt><trkpt lat="51.4788051" lon="3.9557598"><ele>-2.0</ele><time>2026-04-06T11:28:28.176Z</time></trkpt><trkpt lat="51.4788366" lon="3.955661"><ele>-2.0</ele><time>2026-04-06T11:28:29.176Z</time></trkpt><trkpt lat="51.4788616" lon="3.9554838"><ele>-2.0</ele><time>2026-04-06T11:28:31.176Z</time></trkpt><trkpt lat="51.47881" lon="3.9553437"><ele>-2.0</ele><time>2026-04-06T11:28:33.176Z</time></trkpt><trkpt lat="51.4787183" lon="3.955252"><ele>-2.0</ele><time>2026-04-06T11:28:35.176Z</time></trkpt><trkpt lat="51.4786702" lon="3.9551166"><ele>-2.0</ele><time>2026-04-06T11:28:37.176Z</time></trkpt><trkpt lat="51.478714" lon="3.9549622"><ele>-2.0</ele><time>2026-04-06T11:28:39.176Z</time></trkpt><trkpt lat="51.4787988" lon="3.9547957"><ele>-2.0</ele><time>2026-04-06T11:28:41.176Z</time></trkpt><trkpt lat="51.478848" lon="3.9546971"><ele>-2.0</ele><time>2026-04-06T11:28:42.176Z</time></trkpt><trkpt lat="51.4788925" lon="3.9545994"><ele>-2.0</ele><time>2026-04-06T11:28:43.176Z</time></trkpt><trkpt lat="51.4789319" lon="3.9545096"><ele>-1.9999999999999998</ele><time>2026-04-06T11:28:44.176Z</time></trkpt><trkpt lat="51.4790065" lon="3.9543466"><ele>-2.0</ele><time>2026-04-06T11:28:46.176Z</time></trkpt><trkpt lat="51.4790473" lon="3.9542564"><ele>-2.0</ele><time>2026-04-06T11:28:47.176Z</time></trkpt><trkpt lat="51.4790872" lon="3.9541675"><ele>-2.0</ele><time>2026-04-06T11:28:48.176Z</time></trkpt><trkpt lat="51.4791329" lon="3.9540697"><ele>-1.9999999999999998</ele><time>2026-04-06T11:28:49.176Z</time></trkpt><trkpt lat="51.4791812" lon="3.9539643"><ele>-2.0</ele><time>2026-04-06T11:28:50.176Z</time></trkpt><trkpt lat="51.4792281" lon="3.9538629"><ele>-1.9999999999999998</ele><time>2026-04-06T11:28:51.176Z</time></trkpt><trkpt lat="51.4792791" lon="3.9537521"><ele>-2.0</ele><time>2026-04-06T11:28:52.176Z</time></trkpt><trkpt lat="51.4793313" lon="3.9536324"><ele>-2.0</ele><time>2026-04-06T11:28:53.177Z</time></trkpt><trkpt lat="51.4793844" lon="3.9535113"><ele>-2.0</ele><time>2026-04-06T11:28:54.176Z</time></trkpt><trkpt lat="51.4794316" lon="3.9534022"><ele>-1.9999999999999998</ele><time>2026-04-06T11:28:55.176Z</time></trkpt><trkpt lat="51.4794822" lon="3.9532933"><ele>-2.0</ele><time>2026-04-06T11:28:56.177Z</time></trkpt><trkpt lat="51.4795273" lon="3.9531925"><ele>-1.9999999999999998</ele><time>2026-04-06T11:28:57.177Z</time></trkpt><trkpt lat="51.4795729" lon="3.9530919"><ele>-2.0</ele><time>2026-04-06T11:28:58.176Z</time></trkpt><trkpt lat="51.4796214" lon="3.9529882"><ele>-2.0</ele><time>2026-04-06T11:28:59.176Z</time></trkpt><trkpt lat="51.4796655" lon="3.9528932"><ele>-2.0</ele><time>2026-04-06T11:29:00.176Z</time></trkpt><trkpt lat="51.4797028" lon="3.9528106"><ele>-1.9999999999999998</ele><time>2026-04-06T11:29:01.176Z</time></trkpt><trkpt lat="51.4797609" lon="3.9526889"><ele>-2.0</ele><time>2026-04-06T11:29:03.176Z</time></trkpt><trkpt lat="51.4798161" lon="3.9525758"><ele>-2.0</ele><time>2026-04-06T11:29:05.176Z</time></trkpt><trkpt lat="51.4798917" lon="3.9524179"><ele>-2.0</ele><time>2026-04-06T11:29:07.176Z</time></trkpt><trkpt lat="51.4799374" lon="3.9523198"><ele>-2.0</ele><time>2026-04-06T11:29:08.176Z</time></trkpt><trkpt lat="51.4799934" lon="3.9522098"><ele>-2.0</ele><time>2026-04-06T11:29:09.176Z</time></trkpt><trkpt lat="51.480048" lon="3.9520921"><ele>-2.0</ele><time>2026-04-06T11:29:10.176Z</time></trkpt><trkpt lat="51.4801062" lon="3.9519677"><ele>-2.0</ele><time>2026-04-06T11:29:11.176Z</time></trkpt><trkpt lat="51.4801622" lon="3.9518415"><ele>-2.0</ele><time>2026-04-06T11:29:12.176Z</time></trkpt><trkpt lat="51.4802195" lon="3.9517203"><ele>-2.0</ele><time>2026-04-06T11:29:13.176Z</time></trkpt><trkpt lat="51.4802775" lon="3.9515959"><ele>-2.0</ele><time>2026-04-06T11:29:14.176Z</time></trkpt><trkpt lat="51.4803336" lon="3.9514756"><ele>-2.0</ele><time>2026-04-06T11:29:15.176Z</time></trkpt><trkpt lat="51.4803889" lon="3.9513561"><ele>-1.9999999999999998</ele><time>2026-04-06T11:29:16.177Z</time></trkpt><trkpt lat="51.4804424" lon="3.9512424"><ele>-2.0</ele><time>2026-04-06T11:29:17.176Z</time></trkpt><trkpt lat="51.4804924" lon="3.9511328"><ele>-2.0</ele><time>2026-04-06T11:29:18.176Z</time></trkpt><trkpt lat="51.4805403" lon="3.951027"><ele>-2.0</ele><time>2026-04-06T11:29:19.176Z</time></trkpt><trkpt lat="51.4805881" lon="3.9509283"><ele>-1.9999999999999998</ele><time>2026-04-06T11:29:20.176Z</time></trkpt><trkpt lat="51.4806272" lon="3.9508406"><ele>-2.0</ele><time>2026-04-06T11:29:21.176Z</time></trkpt><trkpt lat="51.4806622" lon="3.9506767"><ele>-1.8</ele><time>2026-04-06T11:29:23.176Z</time></trkpt><trkpt lat="51.4806341" lon="3.9505342"><ele>-1.6</ele><time>2026-04-06T11:29:25.176Z</time></trkpt><trkpt lat="51.4806229" lon="3.9503921"><ele>-1.4000000000000001</ele><time>2026-04-06T11:29:27.176Z</time></trkpt><trkpt lat="51.4806859" lon="3.9502897"><ele>-1.2000000000000002</ele><time>2026-04-06T11:29:29.176Z</time></trkpt><trkpt lat="51.4807986" lon="3.9502429"><ele>-1.0</ele><time>2026-04-06T11:29:31.176Z</time></trkpt><trkpt lat="51.4808996" lon="3.9501378"><ele>-0.8333333333333333</ele><time>2026-04-06T11:29:33.176Z</time></trkpt><trkpt lat="51.4809523" lon="3.9499658"><ele>-0.6666666666666666</ele><time>2026-04-06T11:29:35.176Z</time></trkpt><trkpt lat="51.4809672" lon="3.9498606"><ele>-0.5</ele><time>2026-04-06T11:29:36.176Z</time></trkpt><trkpt lat="51.4809834" lon="3.9497412"><ele>-0.3333333333333333</ele><time>2026-04-06T11:29:37.176Z</time></trkpt><trkpt lat="51.4810006" lon="3.9496316"><ele>-0.16666666666666666</ele><time>2026-04-06T11:29:38.176Z</time></trkpt><trkpt lat="51.481025" lon="3.9495227"><ele>0.0</ele><time>2026-04-06T11:29:39.176Z</time></trkpt><trkpt lat="51.4810478" lon="3.9494187"><ele>0.0</ele><time>2026-04-06T11:29:40.176Z</time></trkpt><trkpt lat="51.4810646" lon="3.9493136"><ele>0.0</ele><time>2026-04-06T11:29:41.176Z</time></trkpt><trkpt lat="51.4810874" lon="3.9492085"><ele>0.0</ele><time>2026-04-06T11:29:42.176Z</time></trkpt><trkpt lat="51.4811224" lon="3.9491082"><ele>0.0</ele><time>2026-04-06T11:29:43.176Z</time></trkpt><trkpt lat="51.4811751" lon="3.9490177"><ele>0.0</ele><time>2026-04-06T11:29:44.176Z</time></trkpt><trkpt lat="51.4812307" lon="3.9489433"><ele>0.0</ele><time>2026-04-06T11:29:45.176Z</time></trkpt><trkpt lat="51.4812884" lon="3.9488815"><ele>0.0</ele><time>2026-04-06T11:29:46.176Z</time></trkpt><trkpt lat="51.4813752" lon="3.9487837"><ele>-0.16666666666666666</ele><time>2026-04-06T11:29:48.176Z</time></trkpt><trkpt lat="51.481462" lon="3.948775"><ele>-0.3333333333333333</ele><time>2026-04-06T11:29:50.176Z</time></trkpt><trkpt lat="51.481546" lon="3.9488924"><ele>-0.5</ele><time>2026-04-06T11:29:52.176Z</time></trkpt><trkpt lat="51.4815805" lon="3.9489858"><ele>-0.6666666666666666</ele><time>2026-04-06T11:29:53.176Z</time></trkpt><trkpt lat="51.481626" lon="3.9490848"><ele>-0.8333333333333333</ele><time>2026-04-06T11:29:54.176Z</time></trkpt><trkpt lat="51.4816653" lon="3.9491814"><ele>-1.0</ele><time>2026-04-06T11:29:55.176Z</time></trkpt><trkpt lat="51.481704" lon="3.9492707"><ele>-1.0</ele><time>2026-04-06T11:29:56.176Z</time></trkpt><trkpt lat="51.4817633" lon="3.9494193"><ele>-1.0</ele><time>2026-04-06T11:29:58.176Z</time></trkpt><trkpt lat="51.481817" lon="3.9495568"><ele>-1.0</ele><time>2026-04-06T11:30:00.176Z</time></trkpt><trkpt lat="51.4818968" lon="3.949707"><ele>-1.0</ele><time>2026-04-06T11:30:02.176Z</time></trkpt><trkpt lat="51.4819434" lon="3.9498071"><ele>-1.0</ele><time>2026-04-06T11:30:03.176Z</time></trkpt><trkpt lat="51.4819868" lon="3.9499179"><ele>-0.9999999999999999</ele><time>2026-04-06T11:30:04.176Z</time></trkpt><trkpt lat="51.4820288" lon="3.9500228"><ele>-1.0</ele><time>2026-04-06T11:30:05.176Z</time></trkpt><trkpt lat="51.4820785" lon="3.9501349"><ele>-1.0</ele><time>2026-04-06T11:30:06.176Z</time></trkpt><trkpt lat="51.4821295" lon="3.9502532"><ele>-1.0</ele><time>2026-04-06T11:30:07.176Z</time></trkpt><trkpt lat="51.4821814" lon="3.9503713"><ele>-0.9999999999999999</ele><time>2026-04-06T11:30:08.176Z</time></trkpt><trkpt lat="51.4822325" lon="3.9504907"><ele>-1.0</ele><time>2026-04-06T11:30:09.176Z</time></trkpt><trkpt lat="51.4822803" lon="3.9506067"><ele>-0.9999999999999999</ele><time>2026-04-06T11:30:10.176Z</time></trkpt><trkpt lat="51.4823273" lon="3.950714"><ele>-1.0</ele><time>2026-04-06T11:30:11.176Z</time></trkpt><trkpt lat="51.4823734" lon="3.9508168"><ele>-1.0</ele><time>2026-04-06T11:30:12.176Z</time></trkpt><trkpt lat="51.4824176" lon="3.9509126"><ele>-1.0</ele><time>2026-04-06T11:30:13.176Z</time></trkpt><trkpt lat="51.482457" lon="3.9510003"><ele>-0.9999999999999999</ele><time>2026-04-06T11:30:14.176Z</time></trkpt><trkpt lat="51.4825267" lon="3.9511525"><ele>-1.0</ele><time>2026-04-06T11:30:16.176Z</time></trkpt><trkpt lat="51.4825543" lon="3.9512905"><ele>-0.8</ele><time>2026-04-06T11:30:18.176Z</time></trkpt><trkpt lat="51.482493" lon="3.9514183"><ele>-0.6000000000000001</ele><time>2026-04-06T11:30:20.176Z</time></trkpt><trkpt lat="51.4823967" lon="3.9515421"><ele>-0.4</ele><time>2026-04-06T11:30:22.176Z</time></trkpt><trkpt lat="51.4823477" lon="3.9516346"><ele>-0.2</ele><time>2026-04-06T11:30:23.176Z</time></trkpt><trkpt lat="51.4823095" lon="3.9517464"><ele>0.0</ele><time>2026-04-06T11:30:24.176Z</time></trkpt><trkpt lat="51.4822672" lon="3.9518606"><ele>0.0</ele><time>2026-04-06T11:30:25.176Z</time></trkpt><trkpt lat="51.4822247" lon="3.9519818"><ele>0.0</ele><time>2026-04-06T11:30:26.176Z</time></trkpt><trkpt lat="51.4821868" lon="3.9521015"><ele>0.0</ele><time>2026-04-06T11:30:27.176Z</time></trkpt><trkpt lat="51.4821516" lon="3.952206"><ele>0.0</ele><time>2026-04-06T11:30:28.176Z</time></trkpt><trkpt lat="51.4821161" lon="3.9523128"><ele>0.0</ele><time>2026-04-06T11:30:29.176Z</time></trkpt><trkpt lat="51.4820831" lon="3.9524154"><ele>0.0</ele><time>2026-04-06T11:30:30.176Z</time></trkpt><trkpt lat="51.4820511" lon="3.9525136"><ele>-0.14285714285714285</ele><time>2026-04-06T11:30:31.176Z</time></trkpt><trkpt lat="51.4820169" lon="3.9526013"><ele>-0.2857142857142857</ele><time>2026-04-06T11:30:32.176Z</time></trkpt><trkpt lat="51.4819869" lon="3.9526919"><ele>-0.42857142857142855</ele><time>2026-04-06T11:30:33.176Z</time></trkpt><trkpt lat="51.4819551" lon="3.9527817"><ele>-0.5714285714285714</ele><time>2026-04-06T11:30:34.176Z</time></trkpt><trkpt lat="51.481919" lon="3.9528769"><ele>-0.7142857142857142</ele><time>2026-04-06T11:30:35.176Z</time></trkpt><trkpt lat="51.4818834" lon="3.9529804"><ele>-0.8571428571428571</ele><time>2026-04-06T11:30:36.176Z</time></trkpt><trkpt lat="51.4818479" lon="3.953071"><ele>-1.0</ele><time>2026-04-06T11:30:37.176Z</time></trkpt><trkpt lat="51.4818089" lon="3.9531747"><ele>-1.0</ele><time>2026-04-06T11:30:38.176Z</time></trkpt><trkpt lat="51.4817706" lon="3.9532785"><ele>-0.9999999999999999</ele><time>2026-04-06T11:30:39.176Z</time></trkpt><trkpt lat="51.4817339" lon="3.9533828"><ele>-1.0</ele><time>2026-04-06T11:30:40.176Z</time></trkpt><trkpt lat="51.4816985" lon="3.9534838"><ele>-1.0</ele><time>2026-04-06T11:30:41.176Z</time></trkpt><trkpt lat="51.4816632" lon="3.9535881"><ele>-0.9999999999999999</ele><time>2026-04-06T11:30:42.176Z</time></trkpt><trkpt lat="51.4816309" lon="3.9536845"><ele>-1.0</ele><time>2026-04-06T11:30:43.176Z</time></trkpt><trkpt lat="51.4815982" lon="3.9537766"><ele>-1.0</ele><time>2026-04-06T11:30:44.176Z</time></trkpt><trkpt lat="51.481564" lon="3.9538735"><ele>-0.9999999999999999</ele><time>2026-04-06T11:30:45.176Z</time></trkpt><trkpt lat="51.4815306" lon="3.9539704"><ele>-1.0</ele><time>2026-04-06T11:30:46.176Z</time></trkpt><trkpt lat="51.4814993" lon="3.9540609"><ele>-1.0</ele><time>2026-04-06T11:30:47.176Z</time></trkpt><trkpt lat="51.4814732" lon="3.9541538"><ele>-1.0</ele><time>2026-04-06T11:30:48.176Z</time></trkpt><trkpt lat="51.481449" lon="3.954251"><ele>-0.9999999999999999</ele><time>2026-04-06T11:30:49.176Z</time></trkpt><trkpt lat="51.4813931" lon="3.9544374"><ele>-1.0</ele><time>2026-04-06T11:30:51.176Z</time></trkpt><trkpt lat="51.4813685" lon="3.9545346"><ele>-1.0</ele><time>2026-04-06T11:30:52.176Z</time></trkpt><trkpt lat="51.4813524" lon="3.9546337"><ele>-0.9999999999999999</ele><time>2026-04-06T11:30:53.176Z</time></trkpt><trkpt lat="51.4813431" lon="3.9547383"><ele>-1.0</ele><time>2026-04-06T11:30:54.176Z</time></trkpt><trkpt lat="51.4813382" lon="3.9548439"><ele>-1.0</ele><time>2026-04-06T11:30:55.176Z</time></trkpt><trkpt lat="51.4813304" lon="3.954947"><ele>-0.9999999999999999</ele><time>2026-04-06T11:30:56.176Z</time></trkpt><trkpt lat="51.4813118" lon="3.9550448"><ele>-1.0</ele><time>2026-04-06T11:30:57.176Z</time></trkpt><trkpt lat="51.4812823" lon="3.9551367"><ele>-1.0</ele><time>2026-04-06T11:30:58.176Z</time></trkpt><trkpt lat="51.4812478" lon="3.9552229"><ele>-0.8571428571428571</ele><time>2026-04-06T11:30:59.176Z</time></trkpt><trkpt lat="51.4812208" lon="3.9553177"><ele>-0.7142857142857142</ele><time>2026-04-06T11:31:00.176Z</time></trkpt><trkpt lat="51.4811943" lon="3.9554152"><ele>-0.5714285714285714</ele><time>2026-04-06T11:31:01.176Z</time></trkpt><trkpt lat="51.4811677" lon="3.9555229"><ele>-0.42857142857142855</ele><time>2026-04-06T11:31:02.176Z</time></trkpt><trkpt lat="51.4811373" lon="3.9556294"><ele>-0.2857142857142857</ele><time>2026-04-06T11:31:03.176Z</time></trkpt><trkpt lat="51.4811003" lon="3.95573"><ele>-0.14285714285714285</ele><time>2026-04-06T11:31:04.176Z</time></trkpt><trkpt lat="51.4810623" lon="3.9558313"><ele>0.0</ele><time>2026-04-06T11:31:05.176Z</time></trkpt><trkpt lat="51.4810312" lon="3.9559339"><ele>0.14285714285714285</ele><time>2026-04-06T11:31:06.176Z</time></trkpt><trkpt lat="51.4810063" lon="3.9560459"><ele>0.2857142857142857</ele><time>2026-04-06T11:31:07.176Z</time></trkpt><trkpt lat="51.4809843" lon="3.9561547"><ele>0.42857142857142855</ele><time>2026-04-06T11:31:08.176Z</time></trkpt><trkpt lat="51.4809558" lon="3.9562622"><ele>0.5714285714285714</ele><time>2026-04-06T11:31:09.176Z</time></trkpt><trkpt lat="51.4809212" lon="3.9563666"><ele>0.7142857142857142</ele><time>2026-04-06T11:31:10.176Z</time></trkpt><trkpt lat="51.4808861" lon="3.9564739"><ele>0.8571428571428571</ele><time>2026-04-06T11:31:11.176Z</time></trkpt><trkpt lat="51.4808499" lon="3.956576"><ele>1.0</ele><time>2026-04-06T11:31:12.176Z</time></trkpt><trkpt lat="51.4808124" lon="3.9566834"><ele>1.0</ele><time>2026-04-06T11:31:13.177Z</time></trkpt><trkpt lat="51.4807743" lon="3.9567823"><ele>0.9999999999999999</ele><time>2026-04-06T11:31:14.177Z</time></trkpt><trkpt lat="51.4807323" lon="3.9568661"><ele>1.0</ele><time>2026-04-06T11:31:15.176Z</time></trkpt><trkpt lat="51.4806901" lon="3.9569489"><ele>1.0</ele><time>2026-04-06T11:31:16.176Z</time></trkpt><trkpt lat="51.4806563" lon="3.9570448"><ele>0.9999999999999999</ele><time>2026-04-06T11:31:17.176Z</time></trkpt><trkpt lat="51.4806265" lon="3.9571411"><ele>1.0</ele><time>2026-04-06T11:31:18.176Z</time></trkpt><trkpt lat="51.4805979" lon="3.9572366"><ele>1.0</ele><time>2026-04-06T11:31:19.176Z</time></trkpt><trkpt lat="51.4805692" lon="3.9573283"><ele>0.9999999999999999</ele><time>2026-04-06T11:31:20.177Z</time></trkpt><trkpt lat="51.4805321" lon="3.9574308"><ele>1.0</ele><time>2026-04-06T11:31:21.176Z</time></trkpt><trkpt lat="51.4804931" lon="3.9575419"><ele>1.0</ele><time>2026-04-06T11:31:22.176Z</time></trkpt><trkpt lat="51.4804512" lon="3.9576622"><ele>1.0</ele><time>2026-04-06T11:31:23.176Z</time></trkpt><trkpt lat="51.4804046" lon="3.9577996"><ele>0.9999999999999999</ele><time>2026-04-06T11:31:24.176Z</time></trkpt><trkpt lat="51.4803548" lon="3.9579412"><ele>1.0</ele><time>2026-04-06T11:31:25.176Z</time></trkpt><trkpt lat="51.4803031" lon="3.9580851"><ele>0.75</ele><time>2026-04-06T11:31:26.176Z</time></trkpt><trkpt lat="51.4802479" lon="3.9582358"><ele>0.5</ele><time>2026-04-06T11:31:27.176Z</time></trkpt><trkpt lat="51.4801899" lon="3.958397"><ele>0.25</ele><time>2026-04-06T11:31:28.176Z</time></trkpt><trkpt lat="51.4801296" lon="3.9585648"><ele>0.0</ele><time>2026-04-06T11:31:29.176Z</time></trkpt><trkpt lat="51.4800741" lon="3.9587282"><ele>0.0</ele><time>2026-04-06T11:31:30.176Z</time></trkpt><trkpt lat="51.48002" lon="3.9588877"><ele>0.0</ele><time>2026-04-06T11:31:31.176Z</time></trkpt><trkpt lat="51.4799644" lon="3.9590432"><ele>0.0</ele><time>2026-04-06T11:31:32.176Z</time></trkpt><trkpt lat="51.4799089" lon="3.9591925"><ele>0.0</ele><time>2026-04-06T11:31:33.176Z</time></trkpt><trkpt lat="51.4798564" lon="3.9593339"><ele>0.0</ele><time>2026-04-06T11:31:34.176Z</time></trkpt><trkpt lat="51.4798082" lon="3.9594735"><ele>-0.2</ele><time>2026-04-06T11:31:35.176Z</time></trkpt><trkpt lat="51.4797636" lon="3.9596121"><ele>-0.4</ele><time>2026-04-06T11:31:36.176Z</time></trkpt><trkpt lat="51.47972" lon="3.9597415"><ele>-0.6000000000000001</ele><time>2026-04-06T11:31:37.176Z</time></trkpt><trkpt lat="51.4796773" lon="3.9598768"><ele>-0.8</ele><time>2026-04-06T11:31:38.176Z</time></trkpt><trkpt lat="51.4796355" lon="3.9600015"><ele>-1.0</ele><time>2026-04-06T11:31:39.176Z</time></trkpt><trkpt lat="51.4795932" lon="3.960126"><ele>-1.0</ele><time>2026-04-06T11:31:40.176Z</time></trkpt><trkpt lat="51.4795551" lon="3.9602369"><ele>-1.0</ele><time>2026-04-06T11:31:41.176Z</time></trkpt><trkpt lat="51.4795215" lon="3.9603389"><ele>-1.0</ele><time>2026-04-06T11:31:42.176Z</time></trkpt><trkpt lat="51.4794633" lon="3.9605104"><ele>-1.0</ele><time>2026-04-06T11:31:44.176Z</time></trkpt><trkpt lat="51.4794117" lon="3.960664"><ele>-1.0</ele><time>2026-04-06T11:31:46.176Z</time></trkpt><trkpt lat="51.479381" lon="3.9607953"><ele>-0.8333333333333333</ele><time>2026-04-06T11:31:48.176Z</time></trkpt><trkpt lat="51.4793756" lon="3.960904"><ele>-0.6666666666666666</ele><time>2026-04-06T11:31:50.176Z</time></trkpt><trkpt lat="51.4793626" lon="3.9610041"><ele>-0.5</ele><time>2026-04-06T11:31:52.176Z</time></trkpt><trkpt lat="51.4793028" lon="3.961101"><ele>-0.3333333333333333</ele><time>2026-04-06T11:31:54.176Z</time></trkpt><trkpt lat="51.4792122" lon="3.9611528"><ele>-0.16666666666666666</ele><time>2026-04-06T11:31:56.176Z</time></trkpt><trkpt lat="51.4791232" lon="3.9612521"><ele>0.0</ele><time>2026-04-06T11:31:58.176Z</time></trkpt><trkpt lat="51.4790665" lon="3.961447"><ele>0.0</ele><time>2026-04-06T11:32:00.176Z</time></trkpt><trkpt lat="51.4790303" lon="3.9615484"><ele>0.0</ele><time>2026-04-06T11:32:01.176Z</time></trkpt><trkpt lat="51.4789923" lon="3.9616527"><ele>0.0</ele><time>2026-04-06T11:32:02.176Z</time></trkpt><trkpt lat="51.4789478" lon="3.9617717"><ele>0.0</ele><time>2026-04-06T11:32:03.176Z</time></trkpt><trkpt lat="51.4789027" lon="3.9618867"><ele>0.0</ele><time>2026-04-06T11:32:04.176Z</time></trkpt><trkpt lat="51.4788574" lon="3.9620097"><ele>0.0</ele><time>2026-04-06T11:32:05.176Z</time></trkpt><trkpt lat="51.4788129" lon="3.9621331"><ele>0.0</ele><time>2026-04-06T11:32:06.176Z</time></trkpt><trkpt lat="51.4787732" lon="3.9622521"><ele>0.0</ele><time>2026-04-06T11:32:07.176Z</time></trkpt><trkpt lat="51.4787294" lon="3.9623783"><ele>0.0</ele><time>2026-04-06T11:32:08.176Z</time></trkpt><trkpt lat="51.4786842" lon="3.9625044"><ele>0.0</ele><time>2026-04-06T11:32:09.176Z</time></trkpt><trkpt lat="51.4786378" lon="3.9626266"><ele>0.0</ele><time>2026-04-06T11:32:10.176Z</time></trkpt><trkpt lat="51.4785981" lon="3.962758"><ele>0.0</ele><time>2026-04-06T11:32:11.176Z</time></trkpt><trkpt lat="51.4785599" lon="3.9628974"><ele>-0.16666666666666666</ele><time>2026-04-06T11:32:12.176Z</time></trkpt><trkpt lat="51.4785182" lon="3.9630269"><ele>-0.3333333333333333</ele><time>2026-04-06T11:32:13.176Z</time></trkpt><trkpt lat="51.4784749" lon="3.9631558"><ele>-0.5</ele><time>2026-04-06T11:32:14.176Z</time></trkpt><trkpt lat="51.4784331" lon="3.9632673"><ele>-0.6666666666666666</ele><time>2026-04-06T11:32:15.176Z</time></trkpt><trkpt lat="51.4783931" lon="3.9633773"><ele>-0.8333333333333333</ele><time>2026-04-06T11:32:16.176Z</time></trkpt><trkpt lat="51.478354" lon="3.9634828"><ele>-1.0</ele><time>2026-04-06T11:32:17.176Z</time></trkpt><trkpt lat="51.4783165" lon="3.9635737"><ele>-0.9999999999999999</ele><time>2026-04-06T11:32:18.176Z</time></trkpt><trkpt lat="51.4782753" lon="3.9637155"><ele>-1.0</ele><time>2026-04-06T11:32:20.176Z</time></trkpt><trkpt lat="51.4783062" lon="3.9638302"><ele>-1.0</ele><time>2026-04-06T11:32:22.176Z</time></trkpt><trkpt lat="51.4784023" lon="3.9638827"><ele>-1.0</ele><time>2026-04-06T11:32:24.176Z</time></trkpt><trkpt lat="51.4784701" lon="3.9639043"><ele>-0.9999999999999999</ele><time>2026-04-06T11:32:25.176Z</time></trkpt><trkpt lat="51.4785487" lon="3.9639284"><ele>-1.0</ele><time>2026-04-06T11:32:26.176Z</time></trkpt><trkpt lat="51.478622" lon="3.96395"><ele>-0.9999999999999999</ele><time>2026-04-06T11:32:27.176Z</time></trkpt><trkpt lat="51.4786974" lon="3.9639748"><ele>-1.0</ele><time>2026-04-06T11:32:28.176Z</time></trkpt><trkpt lat="51.4787799" lon="3.9640135"><ele>-1.0</ele><time>2026-04-06T11:32:29.176Z</time></trkpt><trkpt lat="51.4788661" lon="3.964054"><ele>-1.0</ele><time>2026-04-06T11:32:30.176Z</time></trkpt><trkpt lat="51.4789568" lon="3.9641011"><ele>-0.9999999999999999</ele><time>2026-04-06T11:32:31.176Z</time></trkpt><trkpt lat="51.4790476" lon="3.9641551"><ele>-1.0</ele><time>2026-04-06T11:32:32.176Z</time></trkpt><trkpt lat="51.4791384" lon="3.9642197"><ele>-1.0</ele><time>2026-04-06T11:32:33.177Z</time></trkpt><trkpt lat="51.4792283" lon="3.9643023"><ele>-1.0</ele><time>2026-04-06T11:32:34.176Z</time></trkpt><trkpt lat="51.479309" lon="3.9643934"><ele>-1.0</ele><time>2026-04-06T11:32:35.176Z</time></trkpt><trkpt lat="51.4793809" lon="3.9644921"><ele>-1.0</ele><time>2026-04-06T11:32:36.176Z</time></trkpt><trkpt lat="51.4794465" lon="3.9645932"><ele>-1.0</ele><time>2026-04-06T11:32:37.176Z</time></trkpt><trkpt lat="51.4795111" lon="3.9646873"><ele>-1.0</ele><time>2026-04-06T11:32:38.176Z</time></trkpt><trkpt lat="51.4795638" lon="3.9647736"><ele>-1.0</ele><time>2026-04-06T11:32:39.176Z</time></trkpt><trkpt lat="51.4796412" lon="3.9649031"><ele>-1.0</ele><time>2026-04-06T11:32:41.176Z</time></trkpt><trkpt lat="51.4797041" lon="3.9650161"><ele>-1.0</ele><time>2026-04-06T11:32:43.176Z</time></trkpt><trkpt lat="51.4798049" lon="3.9651049"><ele>-1.0</ele><time>2026-04-06T11:32:45.176Z</time></trkpt><trkpt lat="51.4799281" lon="3.9651435"><ele>-0.6000000000000001</ele><time>2026-04-06T11:32:47.176Z</time></trkpt><trkpt lat="51.4800075" lon="3.9651574"><ele>-0.20000000000000007</ele><time>2026-04-06T11:32:48.176Z</time></trkpt><trkpt lat="51.4800949" lon="3.9651738"><ele>0.20000000000000007</ele><time>2026-04-06T11:32:49.176Z</time></trkpt><trkpt lat="51.4801915" lon="3.9651974"><ele>0.6000000000000001</ele><time>2026-04-06T11:32:50.176Z</time></trkpt><trkpt lat="51.480293" lon="3.9652165"><ele>1.0</ele><time>2026-04-06T11:32:51.176Z</time></trkpt><trkpt lat="51.4803938" lon="3.9652377"><ele>0.9999999999999999</ele><time>2026-04-06T11:32:52.176Z</time></trkpt><trkpt lat="51.4804876" lon="3.9652611"><ele>1.0</ele><time>2026-04-06T11:32:53.176Z</time></trkpt><trkpt lat="51.4805767" lon="3.9652807"><ele>1.0</ele><time>2026-04-06T11:32:54.176Z</time></trkpt><trkpt lat="51.4806629" lon="3.9653038"><ele>1.0</ele><time>2026-04-06T11:32:55.176Z</time></trkpt><trkpt lat="51.4807475" lon="3.9653253"><ele>0.9999999999999999</ele><time>2026-04-06T11:32:56.176Z</time></trkpt><trkpt lat="51.4808264" lon="3.9653493"><ele>1.0</ele><time>2026-04-06T11:32:57.176Z</time></trkpt><trkpt lat="51.4808992" lon="3.9653715"><ele>1.0</ele><time>2026-04-06T11:32:58.176Z</time></trkpt><trkpt lat="51.4809717" lon="3.9653925"><ele>0.9999999999999999</ele><time>2026-04-06T11:32:59.176Z</time></trkpt><trkpt lat="51.4810444" lon="3.9654181"><ele>1.0</ele><time>2026-04-06T11:33:00.176Z</time></trkpt><trkpt lat="51.4811153" lon="3.9654423"><ele>1.0</ele><time>2026-04-06T11:33:01.176Z</time></trkpt><trkpt lat="51.4811883" lon="3.9654605"><ele>0.9999999999999999</ele><time>2026-04-06T11:33:02.176Z</time></trkpt><trkpt lat="51.4812628" lon="3.9654807"><ele>1.0</ele><time>2026-04-06T11:33:03.176Z</time></trkpt><trkpt lat="51.4813359" lon="3.9654993"><ele>1.0</ele><time>2026-04-06T11:33:04.176Z</time></trkpt><trkpt lat="51.4814164" lon="3.9655161"><ele>1.1666666666666665</ele><time>2026-04-06T11:33:05.176Z</time></trkpt><trkpt lat="51.4815028" lon="3.9655323"><ele>1.3333333333333333</ele><time>2026-04-06T11:33:06.176Z</time></trkpt><trkpt lat="51.4815892" lon="3.9655512"><ele>1.5</ele><time>2026-04-06T11:33:07.176Z</time></trkpt><trkpt lat="51.481676" lon="3.9655714"><ele>1.6666666666666665</ele><time>2026-04-06T11:33:08.176Z</time></trkpt><trkpt lat="51.4817648" lon="3.9655893"><ele>1.8333333333333333</ele><time>2026-04-06T11:33:09.176Z</time></trkpt><trkpt lat="51.4818488" lon="3.9656083"><ele>2.0</ele><time>2026-04-06T11:33:10.176Z</time></trkpt><trkpt lat="51.4819342" lon="3.9656256"><ele>1.9999999999999998</ele><time>2026-04-06T11:33:11.176Z</time></trkpt><trkpt lat="51.4820205" lon="3.9656444"><ele>2.0</ele><time>2026-04-06T11:33:12.176Z</time></trkpt><trkpt lat="51.482106" lon="3.9656635"><ele>2.0</ele><time>2026-04-06T11:33:13.176Z</time></trkpt><trkpt lat="51.4821866" lon="3.9656842"><ele>2.0</ele><time>2026-04-06T11:33:14.176Z</time></trkpt><trkpt lat="51.4822675" lon="3.9657037"><ele>1.9999999999999998</ele><time>2026-04-06T11:33:15.176Z</time></trkpt><trkpt lat="51.4823478" lon="3.9657198"><ele>2.0</ele><time>2026-04-06T11:33:16.176Z</time></trkpt><trkpt lat="51.4824187" lon="3.9657329"><ele>1.8333333333333333</ele><time>2026-04-06T11:33:17.176Z</time></trkpt><trkpt lat="51.4825303" lon="3.9657523"><ele>1.6666666666666665</ele><time>2026-04-06T11:33:19.176Z</time></trkpt><trkpt lat="51.4826033" lon="3.9658203"><ele>1.5</ele><time>2026-04-06T11:33:21.176Z</time></trkpt><trkpt lat="51.4826212" lon="3.9659541"><ele>1.3333333333333333</ele><time>2026-04-06T11:33:23.176Z</time></trkpt><trkpt lat="51.4826465" lon="3.9660617"><ele>1.1666666666666665</ele><time>2026-04-06T11:33:25.176Z</time></trkpt><trkpt lat="51.4827249" lon="3.9660983"><ele>1.0</ele><time>2026-04-06T11:33:27.176Z</time></trkpt><trkpt lat="51.4827955" lon="3.9661785"><ele>0.8333333333333333</ele><time>2026-04-06T11:33:29.176Z</time></trkpt><trkpt lat="51.4828137" lon="3.9663121"><ele>0.6666666666666666</ele><time>2026-04-06T11:33:31.176Z</time></trkpt><trkpt lat="51.4827882" lon="3.9664542"><ele>0.5</ele><time>2026-04-06T11:33:33.176Z</time></trkpt><trkpt lat="51.4827587" lon="3.9665934"><ele>0.3333333333333333</ele><time>2026-04-06T11:33:35.176Z</time></trkpt><trkpt lat="51.4827326" lon="3.9667155"><ele>0.16666666666666666</ele><time>2026-04-06T11:33:37.176Z</time></trkpt><trkpt lat="51.4827133" lon="3.9668529"><ele>0.0</ele><time>2026-04-06T11:33:39.176Z</time></trkpt><trkpt lat="51.482695" lon="3.9669813"><ele>0.0</ele><time>2026-04-06T11:33:42.176Z</time></trkpt><trkpt lat="51.4826782" lon="3.9670879"><ele>0.0</ele><time>2026-04-06T11:33:44.176Z</time></trkpt><trkpt lat="51.4826528" lon="3.9672383"><ele>0.0</ele><time>2026-04-06T11:33:46.176Z</time></trkpt><trkpt lat="51.4826223" lon="3.9674034"><ele>0.0</ele><time>2026-04-06T11:33:48.176Z</time></trkpt><trkpt lat="51.4825959" lon="3.9675608"><ele>0.0</ele><time>2026-04-06T11:33:50.176Z</time></trkpt><trkpt lat="51.4825726" lon="3.967706"><ele>0.0</ele><time>2026-04-06T11:33:52.176Z</time></trkpt><trkpt lat="51.4825523" lon="3.9678378"><ele>0.0</ele><time>2026-04-06T11:33:54.176Z</time></trkpt><trkpt lat="51.4825184" lon="3.9679931"><ele>0.0</ele><time>2026-04-06T11:33:57.175Z</time></trkpt><trkpt lat="51.4824986" lon="3.9681302"><ele>0.0</ele><time>2026-04-06T11:33:59.175Z</time></trkpt><trkpt lat="51.4824758" lon="3.9682711"><ele>0.0</ele><time>2026-04-06T11:34:01.175Z</time></trkpt><trkpt lat="51.4824573" lon="3.9684263"><ele>0.0</ele><time>2026-04-06T11:34:03.175Z</time></trkpt><trkpt lat="51.4824407" lon="3.9685499"><ele>0.0</ele><time>2026-04-06T11:34:05.175Z</time></trkpt><trkpt lat="51.4824272" lon="3.9686644"><ele>0.0</ele><time>2026-04-06T11:34:07.175Z</time></trkpt><trkpt lat="51.4824374" lon="3.9687681"><ele>0.0</ele><time>2026-04-06T11:34:09.175Z</time></trkpt><trkpt lat="51.48253" lon="3.9687788"><ele>0.0</ele><time>2026-04-06T11:34:12.175Z</time></trkpt><trkpt lat="51.4825705" lon="3.9686845"><ele>0.0</ele><time>2026-04-06T11:34:14.175Z</time></trkpt><trkpt lat="51.482585" lon="3.9685644"><ele>0.0</ele><time>2026-04-06T11:34:16.175Z</time></trkpt><trkpt lat="51.4826066" lon="3.9684338"><ele>0.0</ele><time>2026-04-06T11:34:18.175Z</time></trkpt><trkpt lat="51.4826259" lon="3.9683153"><ele>0.0</ele><time>2026-04-06T11:34:20.175Z</time></trkpt><trkpt lat="51.4826447" lon="3.9681961"><ele>0.0</ele><time>2026-04-06T11:34:22.175Z</time></trkpt><trkpt lat="51.4826616" lon="3.968092"><ele>0.0</ele><time>2026-04-06T11:34:24.175Z</time></trkpt><trkpt lat="51.4826765" lon="3.9679752"><ele>0.0</ele><time>2026-04-06T11:34:26.175Z</time></trkpt><trkpt lat="51.482691" lon="3.967832"><ele>1.0</ele><time>2026-04-06T11:34:28.175Z</time></trkpt><trkpt lat="51.4827125" lon="3.967668"><ele>1.0</ele><time>2026-04-06T11:34:30.175Z</time></trkpt><trkpt lat="51.4827433" lon="3.9675118"><ele>0.0</ele><time>2026-04-06T11:34:32.175Z</time></trkpt><trkpt lat="51.4827766" lon="3.9673891"><ele>0.0</ele><time>2026-04-06T11:34:34.175Z</time></trkpt><trkpt lat="51.4827629" lon="3.9672848"><ele>0.0</ele><time>2026-04-06T11:34:37.175Z</time></trkpt></trkseg></trk></gpx>